<?xml version="1.0" encoding="UTF-8" standalone="no" ?>
<gpx xmlns="http://www.topografix.com/GPX/1/1" xmlns:xsi="http://www.w3.org/2001/XMLSchema-instance" xsi:schemaLocation="http://www.topografix.com/GPX/1/1 http://www.topografix.com/GPX/1/1/gpx.xsd" version="1.1" creator="VisuGPX - https://www.visugpx.com">
  <metadata>
    <name>secteur Saverne - Dabo - Petite Pierre</name>
  </metadata>
  <trk>
    <name><![CDATA[secteur Saverne - Dabo - Petite Pierre_17]]></name>
    <trkseg>
      <trkpt lat="48.7803" lon="7.27405">
        <ele>313.6</ele>
        <time>2020-06-28T06:15:47Z</time>
      </trkpt>
      <trkpt lat="48.7803" lon="7.27405">
        <ele>313.6</ele>
        <time>2020-06-28T06:15:47Z</time>
      </trkpt>
      <trkpt lat="48.7803" lon="7.27405">
        <ele>313.6</ele>
        <time>2020-06-28T06:15:47Z</time>
      </trkpt>
      <trkpt lat="48.7803" lon="7.27405">
        <ele>313.6</ele>
        <time>2020-06-28T06:15:47Z</time>
      </trkpt>
      <trkpt lat="48.7803" lon="7.27405">
        <ele>313.6</ele>
        <time>2020-06-28T06:15:47Z</time>
      </trkpt>
      <trkpt lat="48.7803" lon="7.27405">
        <ele>313.6</ele>
        <time>2020-06-28T06:15:47Z</time>
      </trkpt>
      <trkpt lat="48.7803" lon="7.27405">
        <ele>313.6</ele>
        <time>2020-06-28T06:15:47Z</time>
      </trkpt>
      <trkpt lat="48.7803" lon="7.27405">
        <ele>313.6</ele>
        <time>2020-06-28T06:15:47Z</time>
      </trkpt>
      <trkpt lat="48.7803" lon="7.27405">
        <ele>313.6</ele>
        <time>2020-06-28T06:15:47Z</time>
      </trkpt>
      <trkpt lat="48.78039" lon="7.27408">
        <ele>313.5</ele>
        <time>2020-06-28T06:15:49Z</time>
      </trkpt>
      <trkpt lat="48.78043" lon="7.27409">
        <ele>313.5</ele>
        <time>2020-06-28T06:15:50Z</time>
      </trkpt>
      <trkpt lat="48.78048" lon="7.27411">
        <ele>313.3</ele>
        <time>2020-06-28T06:15:51Z</time>
      </trkpt>
      <trkpt lat="48.78053" lon="7.27412">
        <ele>313.2</ele>
        <time>2020-06-28T06:15:52Z</time>
      </trkpt>
      <trkpt lat="48.78062" lon="7.27416">
        <ele>312.5</ele>
        <time>2020-06-28T06:15:54Z</time>
      </trkpt>
      <trkpt lat="48.78072" lon="7.27419">
        <ele>311.8</ele>
        <time>2020-06-28T06:15:56Z</time>
      </trkpt>
      <trkpt lat="48.78082" lon="7.27421">
        <ele>311.5</ele>
        <time>2020-06-28T06:15:58Z</time>
      </trkpt>
      <trkpt lat="48.78092" lon="7.27423">
        <ele>311.2</ele>
        <time>2020-06-28T06:16:00Z</time>
      </trkpt>
      <trkpt lat="48.78102" lon="7.27424">
        <ele>310.4</ele>
        <time>2020-06-28T06:16:02Z</time>
      </trkpt>
      <trkpt lat="48.78113" lon="7.27427">
        <ele>310</ele>
        <time>2020-06-28T06:16:04Z</time>
      </trkpt>
      <trkpt lat="48.78125" lon="7.2743">
        <ele>309.6</ele>
        <time>2020-06-28T06:16:06Z</time>
      </trkpt>
      <trkpt lat="48.78136" lon="7.27435">
        <ele>308.9</ele>
        <time>2020-06-28T06:16:08Z</time>
      </trkpt>
      <trkpt lat="48.78149" lon="7.27444">
        <ele>307.4</ele>
        <time>2020-06-28T06:16:10Z</time>
      </trkpt>
      <trkpt lat="48.78158" lon="7.27452">
        <ele>307</ele>
        <time>2020-06-28T06:16:12Z</time>
      </trkpt>
      <trkpt lat="48.78169" lon="7.27461">
        <ele>307.4</ele>
        <time>2020-06-28T06:16:14Z</time>
      </trkpt>
      <trkpt lat="48.78178" lon="7.2747">
        <ele>307.5</ele>
        <time>2020-06-28T06:16:16Z</time>
      </trkpt>
      <trkpt lat="48.78189" lon="7.27479">
        <ele>307.7</ele>
        <time>2020-06-28T06:16:18Z</time>
      </trkpt>
      <trkpt lat="48.782" lon="7.27486">
        <ele>307.8</ele>
        <time>2020-06-28T06:16:20Z</time>
      </trkpt>
      <trkpt lat="48.7821" lon="7.27492">
        <ele>308.1</ele>
        <time>2020-06-28T06:16:22Z</time>
      </trkpt>
      <trkpt lat="48.7822" lon="7.27498">
        <ele>308.3</ele>
        <time>2020-06-28T06:16:24Z</time>
      </trkpt>
      <trkpt lat="48.7823" lon="7.27504">
        <ele>308.3</ele>
        <time>2020-06-28T06:16:26Z</time>
      </trkpt>
      <trkpt lat="48.7824" lon="7.2751">
        <ele>308.4</ele>
        <time>2020-06-28T06:16:28Z</time>
      </trkpt>
      <trkpt lat="48.78249" lon="7.27517">
        <ele>308.9</ele>
        <time>2020-06-28T06:16:30Z</time>
      </trkpt>
      <trkpt lat="48.78259" lon="7.27523">
        <ele>309.2</ele>
        <time>2020-06-28T06:16:32Z</time>
      </trkpt>
      <trkpt lat="48.78268" lon="7.27529">
        <ele>309.7</ele>
        <time>2020-06-28T06:16:34Z</time>
      </trkpt>
      <trkpt lat="48.78278" lon="7.27536">
        <ele>309.8</ele>
        <time>2020-06-28T06:16:36Z</time>
      </trkpt>
      <trkpt lat="48.78288" lon="7.27542">
        <ele>309.7</ele>
        <time>2020-06-28T06:16:38Z</time>
      </trkpt>
      <trkpt lat="48.78298" lon="7.27549">
        <ele>309.5</ele>
        <time>2020-06-28T06:16:40Z</time>
      </trkpt>
      <trkpt lat="48.78308" lon="7.27555">
        <ele>309.4</ele>
        <time>2020-06-28T06:16:42Z</time>
      </trkpt>
      <trkpt lat="48.78318" lon="7.27562">
        <ele>309.2</ele>
        <time>2020-06-28T06:16:44Z</time>
      </trkpt>
      <trkpt lat="48.78327" lon="7.27571">
        <ele>309</ele>
        <time>2020-06-28T06:16:46Z</time>
      </trkpt>
      <trkpt lat="48.78337" lon="7.2758">
        <ele>309</ele>
        <time>2020-06-28T06:16:48Z</time>
      </trkpt>
      <trkpt lat="48.78345" lon="7.27588">
        <ele>308.9</ele>
        <time>2020-06-28T06:16:50Z</time>
      </trkpt>
      <trkpt lat="48.78353" lon="7.27598">
        <ele>308.8</ele>
        <time>2020-06-28T06:16:52Z</time>
      </trkpt>
      <trkpt lat="48.78361" lon="7.27607">
        <ele>308.8</ele>
        <time>2020-06-28T06:16:54Z</time>
      </trkpt>
      <trkpt lat="48.78369" lon="7.27616">
        <ele>309.1</ele>
        <time>2020-06-28T06:16:56Z</time>
      </trkpt>
      <trkpt lat="48.78376" lon="7.27625">
        <ele>308.9</ele>
        <time>2020-06-28T06:16:58Z</time>
      </trkpt>
      <trkpt lat="48.78383" lon="7.27635">
        <ele>308.9</ele>
        <time>2020-06-28T06:17:00Z</time>
      </trkpt>
      <trkpt lat="48.7839" lon="7.27644">
        <ele>308.7</ele>
        <time>2020-06-28T06:17:02Z</time>
      </trkpt>
      <trkpt lat="48.78397" lon="7.27655">
        <ele>308.6</ele>
        <time>2020-06-28T06:17:04Z</time>
      </trkpt>
      <trkpt lat="48.78405" lon="7.27665">
        <ele>308.7</ele>
        <time>2020-06-28T06:17:06Z</time>
      </trkpt>
      <trkpt lat="48.78414" lon="7.27675">
        <ele>308.7</ele>
        <time>2020-06-28T06:17:08Z</time>
      </trkpt>
      <trkpt lat="48.78422" lon="7.27685">
        <ele>308.3</ele>
        <time>2020-06-28T06:17:10Z</time>
      </trkpt>
      <trkpt lat="48.7843" lon="7.27694">
        <ele>308.3</ele>
        <time>2020-06-28T06:17:12Z</time>
      </trkpt>
      <trkpt lat="48.78437" lon="7.27704">
        <ele>308.3</ele>
        <time>2020-06-28T06:17:14Z</time>
      </trkpt>
      <trkpt lat="48.78446" lon="7.27713">
        <ele>308.4</ele>
        <time>2020-06-28T06:17:16Z</time>
      </trkpt>
      <trkpt lat="48.78453" lon="7.27721">
        <ele>308.5</ele>
        <time>2020-06-28T06:17:18Z</time>
      </trkpt>
      <trkpt lat="48.78462" lon="7.2773">
        <ele>308.8</ele>
        <time>2020-06-28T06:17:20Z</time>
      </trkpt>
      <trkpt lat="48.78469" lon="7.2774">
        <ele>308.7</ele>
        <time>2020-06-28T06:17:22Z</time>
      </trkpt>
      <trkpt lat="48.78477" lon="7.27748">
        <ele>308.8</ele>
        <time>2020-06-28T06:17:24Z</time>
      </trkpt>
      <trkpt lat="48.78484" lon="7.27758">
        <ele>308.6</ele>
        <time>2020-06-28T06:17:26Z</time>
      </trkpt>
      <trkpt lat="48.78493" lon="7.27768">
        <ele>309.6</ele>
        <time>2020-06-28T06:17:28Z</time>
      </trkpt>
      <trkpt lat="48.785" lon="7.27776">
        <ele>309.7</ele>
        <time>2020-06-28T06:17:30Z</time>
      </trkpt>
      <trkpt lat="48.78509" lon="7.27784">
        <ele>310</ele>
        <time>2020-06-28T06:17:32Z</time>
      </trkpt>
      <trkpt lat="48.78516" lon="7.2779">
        <ele>310.4</ele>
        <time>2020-06-28T06:17:34Z</time>
      </trkpt>
      <trkpt lat="48.78523" lon="7.27793">
        <ele>310.5</ele>
        <time>2020-06-28T06:17:36Z</time>
      </trkpt>
      <trkpt lat="48.7853" lon="7.27797">
        <ele>310.6</ele>
        <time>2020-06-28T06:17:38Z</time>
      </trkpt>
      <trkpt lat="48.78534" lon="7.27799">
        <ele>310.7</ele>
        <time>2020-06-28T06:17:40Z</time>
      </trkpt>
      <trkpt lat="48.7854" lon="7.27798">
        <ele>310.8</ele>
        <time>2020-06-28T06:17:42Z</time>
      </trkpt>
      <trkpt lat="48.78546" lon="7.27793">
        <ele>309.8</ele>
        <time>2020-06-28T06:17:45Z</time>
      </trkpt>
      <trkpt lat="48.78549" lon="7.27788">
        <ele>308.9</ele>
        <time>2020-06-28T06:17:47Z</time>
      </trkpt>
      <trkpt lat="48.78555" lon="7.27779">
        <ele>307.4</ele>
        <time>2020-06-28T06:17:49Z</time>
      </trkpt>
      <trkpt lat="48.78561" lon="7.27769">
        <ele>306.8</ele>
        <time>2020-06-28T06:17:51Z</time>
      </trkpt>
      <trkpt lat="48.78566" lon="7.27757">
        <ele>305.9</ele>
        <time>2020-06-28T06:17:53Z</time>
      </trkpt>
      <trkpt lat="48.7857" lon="7.27746">
        <ele>305.2</ele>
        <time>2020-06-28T06:17:55Z</time>
      </trkpt>
      <trkpt lat="48.78573" lon="7.27733">
        <ele>303.8</ele>
        <time>2020-06-28T06:17:57Z</time>
      </trkpt>
      <trkpt lat="48.78576" lon="7.27719">
        <ele>304.1</ele>
        <time>2020-06-28T06:17:59Z</time>
      </trkpt>
      <trkpt lat="48.78581" lon="7.27705">
        <ele>304.2</ele>
        <time>2020-06-28T06:18:01Z</time>
      </trkpt>
      <trkpt lat="48.78584" lon="7.27692">
        <ele>302.6</ele>
        <time>2020-06-28T06:18:03Z</time>
      </trkpt>
      <trkpt lat="48.78589" lon="7.27679">
        <ele>300.8</ele>
        <time>2020-06-28T06:18:05Z</time>
      </trkpt>
      <trkpt lat="48.78598" lon="7.27664">
        <ele>300.8</ele>
        <time>2020-06-28T06:18:07Z</time>
      </trkpt>
      <trkpt lat="48.78607" lon="7.27646">
        <ele>300.8</ele>
        <time>2020-06-28T06:18:09Z</time>
      </trkpt>
      <trkpt lat="48.78617" lon="7.27633">
        <ele>300.7</ele>
        <time>2020-06-28T06:18:11Z</time>
      </trkpt>
      <trkpt lat="48.78629" lon="7.27622">
        <ele>300.3</ele>
        <time>2020-06-28T06:18:13Z</time>
      </trkpt>
      <trkpt lat="48.7864" lon="7.27615">
        <ele>299.4</ele>
        <time>2020-06-28T06:18:15Z</time>
      </trkpt>
      <trkpt lat="48.78652" lon="7.2761">
        <ele>297.6</ele>
        <time>2020-06-28T06:18:17Z</time>
      </trkpt>
      <trkpt lat="48.78663" lon="7.27603">
        <ele>295.6</ele>
        <time>2020-06-28T06:18:19Z</time>
      </trkpt>
      <trkpt lat="48.78674" lon="7.27596">
        <ele>293.1</ele>
        <time>2020-06-28T06:18:21Z</time>
      </trkpt>
      <trkpt lat="48.78684" lon="7.27586">
        <ele>292.4</ele>
        <time>2020-06-28T06:18:23Z</time>
      </trkpt>
      <trkpt lat="48.78693" lon="7.27576">
        <ele>295.4</ele>
        <time>2020-06-28T06:18:25Z</time>
      </trkpt>
      <trkpt lat="48.78705" lon="7.27566">
        <ele>295.1</ele>
        <time>2020-06-28T06:18:27Z</time>
      </trkpt>
      <trkpt lat="48.78715" lon="7.27556">
        <ele>295.7</ele>
        <time>2020-06-28T06:18:29Z</time>
      </trkpt>
      <trkpt lat="48.78725" lon="7.2755">
        <ele>296.1</ele>
        <time>2020-06-28T06:18:31Z</time>
      </trkpt>
      <trkpt lat="48.78735" lon="7.27548">
        <ele>294.6</ele>
        <time>2020-06-28T06:18:33Z</time>
      </trkpt>
      <trkpt lat="48.78744" lon="7.27544">
        <ele>293.1</ele>
        <time>2020-06-28T06:18:35Z</time>
      </trkpt>
      <trkpt lat="48.78752" lon="7.27537">
        <ele>292.9</ele>
        <time>2020-06-28T06:18:37Z</time>
      </trkpt>
      <trkpt lat="48.7876" lon="7.27531">
        <ele>292.6</ele>
        <time>2020-06-28T06:18:39Z</time>
      </trkpt>
      <trkpt lat="48.78769" lon="7.27525">
        <ele>291.3</ele>
        <time>2020-06-28T06:18:41Z</time>
      </trkpt>
      <trkpt lat="48.78778" lon="7.27516">
        <ele>291.6</ele>
        <time>2020-06-28T06:18:43Z</time>
      </trkpt>
      <trkpt lat="48.78788" lon="7.27507">
        <ele>290.7</ele>
        <time>2020-06-28T06:18:45Z</time>
      </trkpt>
      <trkpt lat="48.78796" lon="7.27497">
        <ele>288.9</ele>
        <time>2020-06-28T06:18:47Z</time>
      </trkpt>
      <trkpt lat="48.78804" lon="7.27483">
        <ele>287.4</ele>
        <time>2020-06-28T06:18:49Z</time>
      </trkpt>
      <trkpt lat="48.78812" lon="7.27473">
        <ele>285.3</ele>
        <time>2020-06-28T06:18:51Z</time>
      </trkpt>
      <trkpt lat="48.78821" lon="7.27464">
        <ele>283.6</ele>
        <time>2020-06-28T06:18:53Z</time>
      </trkpt>
      <trkpt lat="48.78829" lon="7.27453">
        <ele>281.9</ele>
        <time>2020-06-28T06:18:55Z</time>
      </trkpt>
      <trkpt lat="48.78837" lon="7.27444">
        <ele>280.5</ele>
        <time>2020-06-28T06:18:57Z</time>
      </trkpt>
      <trkpt lat="48.78844" lon="7.27436">
        <ele>278.5</ele>
        <time>2020-06-28T06:18:59Z</time>
      </trkpt>
      <trkpt lat="48.78849" lon="7.27428">
        <ele>276.5</ele>
        <time>2020-06-28T06:19:01Z</time>
      </trkpt>
      <trkpt lat="48.78852" lon="7.27418">
        <ele>275.1</ele>
        <time>2020-06-28T06:19:03Z</time>
      </trkpt>
      <trkpt lat="48.78854" lon="7.27409">
        <ele>274.1</ele>
        <time>2020-06-28T06:19:05Z</time>
      </trkpt>
      <trkpt lat="48.78854" lon="7.27397">
        <ele>273.9</ele>
        <time>2020-06-28T06:19:07Z</time>
      </trkpt>
      <trkpt lat="48.78854" lon="7.2739">
        <ele>272.5</ele>
        <time>2020-06-28T06:19:09Z</time>
      </trkpt>
      <trkpt lat="48.78854" lon="7.27381">
        <ele>271.3</ele>
        <time>2020-06-28T06:19:11Z</time>
      </trkpt>
      <trkpt lat="48.78854" lon="7.2737">
        <ele>269.7</ele>
        <time>2020-06-28T06:19:13Z</time>
      </trkpt>
      <trkpt lat="48.78853" lon="7.27359">
        <ele>268.5</ele>
        <time>2020-06-28T06:19:15Z</time>
      </trkpt>
      <trkpt lat="48.7885" lon="7.27346">
        <ele>267.6</ele>
        <time>2020-06-28T06:19:17Z</time>
      </trkpt>
      <trkpt lat="48.78847" lon="7.27334">
        <ele>267.1</ele>
        <time>2020-06-28T06:19:19Z</time>
      </trkpt>
      <trkpt lat="48.78844" lon="7.2732">
        <ele>266.2</ele>
        <time>2020-06-28T06:19:21Z</time>
      </trkpt>
      <trkpt lat="48.78842" lon="7.27308">
        <ele>265.4</ele>
        <time>2020-06-28T06:19:23Z</time>
      </trkpt>
      <trkpt lat="48.78839" lon="7.27298">
        <ele>264.6</ele>
        <time>2020-06-28T06:19:25Z</time>
      </trkpt>
      <trkpt lat="48.78836" lon="7.27287">
        <ele>263.9</ele>
        <time>2020-06-28T06:19:27Z</time>
      </trkpt>
      <trkpt lat="48.78834" lon="7.27277">
        <ele>263.9</ele>
        <time>2020-06-28T06:19:29Z</time>
      </trkpt>
      <trkpt lat="48.78831" lon="7.27268">
        <ele>263.8</ele>
        <time>2020-06-28T06:19:31Z</time>
      </trkpt>
      <trkpt lat="48.78827" lon="7.27259">
        <ele>263.6</ele>
        <time>2020-06-28T06:19:33Z</time>
      </trkpt>
      <trkpt lat="48.78824" lon="7.27251">
        <ele>264.1</ele>
        <time>2020-06-28T06:19:35Z</time>
      </trkpt>
      <trkpt lat="48.7882" lon="7.27243">
        <ele>263.7</ele>
        <time>2020-06-28T06:19:37Z</time>
      </trkpt>
      <trkpt lat="48.78817" lon="7.27235">
        <ele>263</ele>
        <time>2020-06-28T06:19:39Z</time>
      </trkpt>
      <trkpt lat="48.78814" lon="7.27226">
        <ele>262.5</ele>
        <time>2020-06-28T06:19:41Z</time>
      </trkpt>
      <trkpt lat="48.78811" lon="7.27218">
        <ele>262</ele>
        <time>2020-06-28T06:19:43Z</time>
      </trkpt>
      <trkpt lat="48.78806" lon="7.2721">
        <ele>261.8</ele>
        <time>2020-06-28T06:19:45Z</time>
      </trkpt>
      <trkpt lat="48.78802" lon="7.27202">
        <ele>262.1</ele>
        <time>2020-06-28T06:19:47Z</time>
      </trkpt>
      <trkpt lat="48.78797" lon="7.27194">
        <ele>262.4</ele>
        <time>2020-06-28T06:19:49Z</time>
      </trkpt>
      <trkpt lat="48.78793" lon="7.27187">
        <ele>262.5</ele>
        <time>2020-06-28T06:19:51Z</time>
      </trkpt>
      <trkpt lat="48.78788" lon="7.27179">
        <ele>262.9</ele>
        <time>2020-06-28T06:19:53Z</time>
      </trkpt>
      <trkpt lat="48.78784" lon="7.27172">
        <ele>263.4</ele>
        <time>2020-06-28T06:19:55Z</time>
      </trkpt>
      <trkpt lat="48.7878" lon="7.27164">
        <ele>263.5</ele>
        <time>2020-06-28T06:19:57Z</time>
      </trkpt>
      <trkpt lat="48.78776" lon="7.27156">
        <ele>264.2</ele>
        <time>2020-06-28T06:19:59Z</time>
      </trkpt>
      <trkpt lat="48.78772" lon="7.27148">
        <ele>264.6</ele>
        <time>2020-06-28T06:20:01Z</time>
      </trkpt>
      <trkpt lat="48.78767" lon="7.27141">
        <ele>265.6</ele>
        <time>2020-06-28T06:20:03Z</time>
      </trkpt>
      <trkpt lat="48.78763" lon="7.27133">
        <ele>266.2</ele>
        <time>2020-06-28T06:20:05Z</time>
      </trkpt>
      <trkpt lat="48.78758" lon="7.27126">
        <ele>267.2</ele>
        <time>2020-06-28T06:20:07Z</time>
      </trkpt>
      <trkpt lat="48.78753" lon="7.2712">
        <ele>267.8</ele>
        <time>2020-06-28T06:20:09Z</time>
      </trkpt>
      <trkpt lat="48.78749" lon="7.27113">
        <ele>268.2</ele>
        <time>2020-06-28T06:20:11Z</time>
      </trkpt>
      <trkpt lat="48.78744" lon="7.27106">
        <ele>268.5</ele>
        <time>2020-06-28T06:20:13Z</time>
      </trkpt>
      <trkpt lat="48.78739" lon="7.27099">
        <ele>268.1</ele>
        <time>2020-06-28T06:20:15Z</time>
      </trkpt>
      <trkpt lat="48.78733" lon="7.27091">
        <ele>267.4</ele>
        <time>2020-06-28T06:20:17Z</time>
      </trkpt>
      <trkpt lat="48.78727" lon="7.27082">
        <ele>267</ele>
        <time>2020-06-28T06:20:19Z</time>
      </trkpt>
      <trkpt lat="48.78722" lon="7.27072">
        <ele>267.4</ele>
        <time>2020-06-28T06:20:21Z</time>
      </trkpt>
      <trkpt lat="48.78717" lon="7.27064">
        <ele>267.2</ele>
        <time>2020-06-28T06:20:23Z</time>
      </trkpt>
      <trkpt lat="48.78711" lon="7.27055">
        <ele>266.9</ele>
        <time>2020-06-28T06:20:25Z</time>
      </trkpt>
      <trkpt lat="48.78706" lon="7.27046">
        <ele>266.7</ele>
        <time>2020-06-28T06:20:27Z</time>
      </trkpt>
      <trkpt lat="48.78701" lon="7.27036">
        <ele>266.5</ele>
        <time>2020-06-28T06:20:29Z</time>
      </trkpt>
      <trkpt lat="48.78696" lon="7.27026">
        <ele>266.8</ele>
        <time>2020-06-28T06:20:31Z</time>
      </trkpt>
      <trkpt lat="48.78689" lon="7.27015">
        <ele>267.4</ele>
        <time>2020-06-28T06:20:33Z</time>
      </trkpt>
      <trkpt lat="48.78683" lon="7.27004">
        <ele>267.6</ele>
        <time>2020-06-28T06:20:35Z</time>
      </trkpt>
      <trkpt lat="48.78677" lon="7.26992">
        <ele>268.1</ele>
        <time>2020-06-28T06:20:37Z</time>
      </trkpt>
      <trkpt lat="48.7867" lon="7.2698">
        <ele>268.5</ele>
        <time>2020-06-28T06:20:39Z</time>
      </trkpt>
      <trkpt lat="48.78663" lon="7.26968">
        <ele>269</ele>
        <time>2020-06-28T06:20:41Z</time>
      </trkpt>
      <trkpt lat="48.78656" lon="7.26956">
        <ele>269.4</ele>
        <time>2020-06-28T06:20:43Z</time>
      </trkpt>
      <trkpt lat="48.78649" lon="7.26945">
        <ele>269.1</ele>
        <time>2020-06-28T06:20:45Z</time>
      </trkpt>
      <trkpt lat="48.78641" lon="7.26934">
        <ele>269.3</ele>
        <time>2020-06-28T06:20:47Z</time>
      </trkpt>
      <trkpt lat="48.78633" lon="7.26924">
        <ele>269.3</ele>
        <time>2020-06-28T06:20:49Z</time>
      </trkpt>
      <trkpt lat="48.78625" lon="7.26915">
        <ele>269.7</ele>
        <time>2020-06-28T06:20:51Z</time>
      </trkpt>
      <trkpt lat="48.78616" lon="7.26908">
        <ele>270</ele>
        <time>2020-06-28T06:20:53Z</time>
      </trkpt>
      <trkpt lat="48.78607" lon="7.26901">
        <ele>270.2</ele>
        <time>2020-06-28T06:20:55Z</time>
      </trkpt>
      <trkpt lat="48.78598" lon="7.26894">
        <ele>270.7</ele>
        <time>2020-06-28T06:20:57Z</time>
      </trkpt>
      <trkpt lat="48.7859" lon="7.26888">
        <ele>270.8</ele>
        <time>2020-06-28T06:20:59Z</time>
      </trkpt>
      <trkpt lat="48.78582" lon="7.26883">
        <ele>270.6</ele>
        <time>2020-06-28T06:21:01Z</time>
      </trkpt>
      <trkpt lat="48.78575" lon="7.26878">
        <ele>270</ele>
        <time>2020-06-28T06:21:03Z</time>
      </trkpt>
      <trkpt lat="48.78567" lon="7.26873">
        <ele>269.6</ele>
        <time>2020-06-28T06:21:05Z</time>
      </trkpt>
      <trkpt lat="48.7856" lon="7.26868">
        <ele>269.2</ele>
        <time>2020-06-28T06:21:07Z</time>
      </trkpt>
      <trkpt lat="48.78552" lon="7.26863">
        <ele>269</ele>
        <time>2020-06-28T06:21:09Z</time>
      </trkpt>
      <trkpt lat="48.78544" lon="7.26859">
        <ele>268.8</ele>
        <time>2020-06-28T06:21:11Z</time>
      </trkpt>
      <trkpt lat="48.78536" lon="7.26855">
        <ele>268.7</ele>
        <time>2020-06-28T06:21:13Z</time>
      </trkpt>
      <trkpt lat="48.78528" lon="7.2685">
        <ele>268.6</ele>
        <time>2020-06-28T06:21:15Z</time>
      </trkpt>
      <trkpt lat="48.7852" lon="7.26845">
        <ele>268.5</ele>
        <time>2020-06-28T06:21:17Z</time>
      </trkpt>
      <trkpt lat="48.78513" lon="7.26839">
        <ele>269.1</ele>
        <time>2020-06-28T06:21:19Z</time>
      </trkpt>
      <trkpt lat="48.78505" lon="7.26834">
        <ele>269.3</ele>
        <time>2020-06-28T06:21:21Z</time>
      </trkpt>
      <trkpt lat="48.78497" lon="7.2683">
        <ele>269.5</ele>
        <time>2020-06-28T06:21:23Z</time>
      </trkpt>
      <trkpt lat="48.78489" lon="7.26824">
        <ele>269.8</ele>
        <time>2020-06-28T06:21:25Z</time>
      </trkpt>
      <trkpt lat="48.78481" lon="7.26818">
        <ele>269.3</ele>
        <time>2020-06-28T06:21:27Z</time>
      </trkpt>
      <trkpt lat="48.78474" lon="7.26811">
        <ele>269</ele>
        <time>2020-06-28T06:21:29Z</time>
      </trkpt>
      <trkpt lat="48.78466" lon="7.26805">
        <ele>268.7</ele>
        <time>2020-06-28T06:21:31Z</time>
      </trkpt>
      <trkpt lat="48.78459" lon="7.268">
        <ele>268.5</ele>
        <time>2020-06-28T06:21:33Z</time>
      </trkpt>
      <trkpt lat="48.78452" lon="7.26794">
        <ele>268.6</ele>
        <time>2020-06-28T06:21:35Z</time>
      </trkpt>
      <trkpt lat="48.78446" lon="7.26787">
        <ele>269</ele>
        <time>2020-06-28T06:21:37Z</time>
      </trkpt>
      <trkpt lat="48.7844" lon="7.26779">
        <ele>268.6</ele>
        <time>2020-06-28T06:21:39Z</time>
      </trkpt>
      <trkpt lat="48.78434" lon="7.26768">
        <ele>268.5</ele>
        <time>2020-06-28T06:21:41Z</time>
      </trkpt>
      <trkpt lat="48.78429" lon="7.26757">
        <ele>268.4</ele>
        <time>2020-06-28T06:21:43Z</time>
      </trkpt>
      <trkpt lat="48.78422" lon="7.26746">
        <ele>268.4</ele>
        <time>2020-06-28T06:21:45Z</time>
      </trkpt>
      <trkpt lat="48.78417" lon="7.26734">
        <ele>268.7</ele>
        <time>2020-06-28T06:21:47Z</time>
      </trkpt>
      <trkpt lat="48.78411" lon="7.26721">
        <ele>268.4</ele>
        <time>2020-06-28T06:21:49Z</time>
      </trkpt>
      <trkpt lat="48.78406" lon="7.26708">
        <ele>268.2</ele>
        <time>2020-06-28T06:21:51Z</time>
      </trkpt>
      <trkpt lat="48.784" lon="7.26694">
        <ele>267.8</ele>
        <time>2020-06-28T06:21:53Z</time>
      </trkpt>
      <trkpt lat="48.78396" lon="7.26681">
        <ele>267.6</ele>
        <time>2020-06-28T06:21:55Z</time>
      </trkpt>
      <trkpt lat="48.7839" lon="7.26668">
        <ele>267.3</ele>
        <time>2020-06-28T06:21:57Z</time>
      </trkpt>
      <trkpt lat="48.78386" lon="7.26656">
        <ele>267</ele>
        <time>2020-06-28T06:21:59Z</time>
      </trkpt>
      <trkpt lat="48.78388" lon="7.26645">
        <ele>266.6</ele>
        <time>2020-06-28T06:22:01Z</time>
      </trkpt>
      <trkpt lat="48.78397" lon="7.26638">
        <ele>266.3</ele>
        <time>2020-06-28T06:22:03Z</time>
      </trkpt>
      <trkpt lat="48.78408" lon="7.26636">
        <ele>265.9</ele>
        <time>2020-06-28T06:22:05Z</time>
      </trkpt>
      <trkpt lat="48.78422" lon="7.26635">
        <ele>265.2</ele>
        <time>2020-06-28T06:22:07Z</time>
      </trkpt>
      <trkpt lat="48.78436" lon="7.26631">
        <ele>264.9</ele>
        <time>2020-06-28T06:22:09Z</time>
      </trkpt>
      <trkpt lat="48.78449" lon="7.26622">
        <ele>264.6</ele>
        <time>2020-06-28T06:22:11Z</time>
      </trkpt>
      <trkpt lat="48.78461" lon="7.26615">
        <ele>263.9</ele>
        <time>2020-06-28T06:22:13Z</time>
      </trkpt>
      <trkpt lat="48.78472" lon="7.26615">
        <ele>263.3</ele>
        <time>2020-06-28T06:22:15Z</time>
      </trkpt>
      <trkpt lat="48.78484" lon="7.26618">
        <ele>262.2</ele>
        <time>2020-06-28T06:22:17Z</time>
      </trkpt>
      <trkpt lat="48.78496" lon="7.26625">
        <ele>261.1</ele>
        <time>2020-06-28T06:22:19Z</time>
      </trkpt>
      <trkpt lat="48.7851" lon="7.26634">
        <ele>259.4</ele>
        <time>2020-06-28T06:22:21Z</time>
      </trkpt>
      <trkpt lat="48.78525" lon="7.26645">
        <ele>258</ele>
        <time>2020-06-28T06:22:23Z</time>
      </trkpt>
      <trkpt lat="48.78541" lon="7.26655">
        <ele>256.2</ele>
        <time>2020-06-28T06:22:25Z</time>
      </trkpt>
      <trkpt lat="48.78558" lon="7.26666">
        <ele>254.5</ele>
        <time>2020-06-28T06:22:27Z</time>
      </trkpt>
      <trkpt lat="48.78574" lon="7.26676">
        <ele>253.7</ele>
        <time>2020-06-28T06:22:29Z</time>
      </trkpt>
      <trkpt lat="48.7859" lon="7.26687">
        <ele>252.7</ele>
        <time>2020-06-28T06:22:31Z</time>
      </trkpt>
      <trkpt lat="48.78605" lon="7.26694">
        <ele>254</ele>
        <time>2020-06-28T06:22:33Z</time>
      </trkpt>
      <trkpt lat="48.78619" lon="7.26701">
        <ele>252.7</ele>
        <time>2020-06-28T06:22:35Z</time>
      </trkpt>
      <trkpt lat="48.78631" lon="7.26715">
        <ele>251</ele>
        <time>2020-06-28T06:22:37Z</time>
      </trkpt>
      <trkpt lat="48.78641" lon="7.26725">
        <ele>249.9</ele>
        <time>2020-06-28T06:22:39Z</time>
      </trkpt>
      <trkpt lat="48.78656" lon="7.26733">
        <ele>249</ele>
        <time>2020-06-28T06:22:41Z</time>
      </trkpt>
      <trkpt lat="48.78665" lon="7.26739">
        <ele>248.1</ele>
        <time>2020-06-28T06:22:43Z</time>
      </trkpt>
      <trkpt lat="48.7867" lon="7.26744">
        <ele>248.2</ele>
        <time>2020-06-28T06:22:45Z</time>
      </trkpt>
      <trkpt lat="48.78676" lon="7.26749">
        <ele>247.3</ele>
        <time>2020-06-28T06:22:47Z</time>
      </trkpt>
      <trkpt lat="48.78682" lon="7.26754">
        <ele>247.1</ele>
        <time>2020-06-28T06:22:49Z</time>
      </trkpt>
      <trkpt lat="48.78692" lon="7.2676">
        <ele>246.9</ele>
        <time>2020-06-28T06:22:51Z</time>
      </trkpt>
      <trkpt lat="48.78703" lon="7.26767">
        <ele>245.4</ele>
        <time>2020-06-28T06:22:53Z</time>
      </trkpt>
      <trkpt lat="48.78713" lon="7.26775">
        <ele>244.2</ele>
        <time>2020-06-28T06:22:55Z</time>
      </trkpt>
      <trkpt lat="48.78722" lon="7.26782">
        <ele>243.6</ele>
        <time>2020-06-28T06:22:57Z</time>
      </trkpt>
      <trkpt lat="48.78731" lon="7.26787">
        <ele>242.9</ele>
        <time>2020-06-28T06:22:59Z</time>
      </trkpt>
      <trkpt lat="48.78741" lon="7.26793">
        <ele>243</ele>
        <time>2020-06-28T06:23:01Z</time>
      </trkpt>
      <trkpt lat="48.78752" lon="7.26798">
        <ele>242.5</ele>
        <time>2020-06-28T06:23:03Z</time>
      </trkpt>
      <trkpt lat="48.78763" lon="7.26807">
        <ele>240.8</ele>
        <time>2020-06-28T06:23:05Z</time>
      </trkpt>
      <trkpt lat="48.78775" lon="7.26818">
        <ele>237.8</ele>
        <time>2020-06-28T06:23:07Z</time>
      </trkpt>
      <trkpt lat="48.78785" lon="7.26826">
        <ele>235.7</ele>
        <time>2020-06-28T06:23:09Z</time>
      </trkpt>
      <trkpt lat="48.78797" lon="7.26832">
        <ele>233.5</ele>
        <time>2020-06-28T06:23:11Z</time>
      </trkpt>
      <trkpt lat="48.78811" lon="7.26837">
        <ele>238.7</ele>
        <time>2020-06-28T06:23:13Z</time>
      </trkpt>
      <trkpt lat="48.78822" lon="7.26841">
        <ele>237</ele>
        <time>2020-06-28T06:23:15Z</time>
      </trkpt>
      <trkpt lat="48.78833" lon="7.26844">
        <ele>235.5</ele>
        <time>2020-06-28T06:23:17Z</time>
      </trkpt>
      <trkpt lat="48.78843" lon="7.26848">
        <ele>234.1</ele>
        <time>2020-06-28T06:23:19Z</time>
      </trkpt>
      <trkpt lat="48.78852" lon="7.26852">
        <ele>232.6</ele>
        <time>2020-06-28T06:23:21Z</time>
      </trkpt>
      <trkpt lat="48.78862" lon="7.26857">
        <ele>231.1</ele>
        <time>2020-06-28T06:23:23Z</time>
      </trkpt>
      <trkpt lat="48.78872" lon="7.2686">
        <ele>229.4</ele>
        <time>2020-06-28T06:23:25Z</time>
      </trkpt>
      <trkpt lat="48.78882" lon="7.26859">
        <ele>229.2</ele>
        <time>2020-06-28T06:23:27Z</time>
      </trkpt>
      <trkpt lat="48.7889" lon="7.26855">
        <ele>227.6</ele>
        <time>2020-06-28T06:23:29Z</time>
      </trkpt>
      <trkpt lat="48.78896" lon="7.2685">
        <ele>226.3</ele>
        <time>2020-06-28T06:23:31Z</time>
      </trkpt>
      <trkpt lat="48.78901" lon="7.26845">
        <ele>225.1</ele>
        <time>2020-06-28T06:23:33Z</time>
      </trkpt>
      <trkpt lat="48.78905" lon="7.26842">
        <ele>223.2</ele>
        <time>2020-06-28T06:23:36Z</time>
      </trkpt>
      <trkpt lat="48.78909" lon="7.26836">
        <ele>221</ele>
        <time>2020-06-28T06:23:41Z</time>
      </trkpt>
      <trkpt lat="48.78913" lon="7.26831">
        <ele>219.4</ele>
        <time>2020-06-28T06:23:50Z</time>
      </trkpt>
      <trkpt lat="48.78917" lon="7.26828">
        <ele>218</ele>
        <time>2020-06-28T06:23:58Z</time>
      </trkpt>
      <trkpt lat="48.78921" lon="7.26827">
        <ele>218.5</ele>
        <time>2020-06-28T06:24:06Z</time>
      </trkpt>
      <trkpt lat="48.78926" lon="7.2683">
        <ele>218.9</ele>
        <time>2020-06-28T06:24:09Z</time>
      </trkpt>
      <trkpt lat="48.7893" lon="7.26833">
        <ele>219.2</ele>
        <time>2020-06-28T06:24:13Z</time>
      </trkpt>
      <trkpt lat="48.78935" lon="7.26836">
        <ele>220.7</ele>
        <time>2020-06-28T06:24:18Z</time>
      </trkpt>
      <trkpt lat="48.7894" lon="7.26838">
        <ele>223</ele>
        <time>2020-06-28T06:24:23Z</time>
      </trkpt>
      <trkpt lat="48.78945" lon="7.2684">
        <ele>225.4</ele>
        <time>2020-06-28T06:24:28Z</time>
      </trkpt>
      <trkpt lat="48.78949" lon="7.26844">
        <ele>227</ele>
        <time>2020-06-28T06:24:38Z</time>
      </trkpt>
      <trkpt lat="48.78952" lon="7.2685">
        <ele>225.4</ele>
        <time>2020-06-28T06:24:43Z</time>
      </trkpt>
      <trkpt lat="48.78957" lon="7.26854">
        <ele>224.2</ele>
        <time>2020-06-28T06:24:49Z</time>
      </trkpt>
      <trkpt lat="48.78962" lon="7.26853">
        <ele>224.9</ele>
        <time>2020-06-28T06:24:55Z</time>
      </trkpt>
      <trkpt lat="48.78967" lon="7.26854">
        <ele>226.1</ele>
        <time>2020-06-28T06:25:02Z</time>
      </trkpt>
      <trkpt lat="48.78972" lon="7.26856">
        <ele>226.7</ele>
        <time>2020-06-28T06:25:11Z</time>
      </trkpt>
      <trkpt lat="48.78977" lon="7.26856">
        <ele>228.7</ele>
        <time>2020-06-28T06:25:22Z</time>
      </trkpt>
      <trkpt lat="48.78981" lon="7.26853">
        <ele>232.4</ele>
        <time>2020-06-28T06:25:32Z</time>
      </trkpt>
      <trkpt lat="48.78985" lon="7.26851">
        <ele>234.8</ele>
        <time>2020-06-28T06:25:39Z</time>
      </trkpt>
      <trkpt lat="48.7899" lon="7.26851">
        <ele>239</ele>
        <time>2020-06-28T06:25:47Z</time>
      </trkpt>
      <trkpt lat="48.78995" lon="7.26853">
        <ele>241.5</ele>
        <time>2020-06-28T06:25:54Z</time>
      </trkpt>
      <trkpt lat="48.78996" lon="7.26846">
        <ele>244.8</ele>
        <time>2020-06-28T06:26:03Z</time>
      </trkpt>
      <trkpt lat="48.79001" lon="7.26845">
        <ele>245.6</ele>
        <time>2020-06-28T06:26:10Z</time>
      </trkpt>
      <trkpt lat="48.79006" lon="7.26845">
        <ele>244.8</ele>
        <time>2020-06-28T06:26:16Z</time>
      </trkpt>
      <trkpt lat="48.7901" lon="7.26846">
        <ele>245.9</ele>
        <time>2020-06-28T06:26:25Z</time>
      </trkpt>
      <trkpt lat="48.79014" lon="7.26848">
        <ele>245.6</ele>
        <time>2020-06-28T06:26:31Z</time>
      </trkpt>
      <trkpt lat="48.79018" lon="7.26843">
        <ele>246.6</ele>
        <time>2020-06-28T06:26:42Z</time>
      </trkpt>
      <trkpt lat="48.79021" lon="7.26836">
        <ele>245.2</ele>
        <time>2020-06-28T06:26:48Z</time>
      </trkpt>
      <trkpt lat="48.79024" lon="7.26831">
        <ele>245.2</ele>
        <time>2020-06-28T06:26:51Z</time>
      </trkpt>
      <trkpt lat="48.79029" lon="7.26829">
        <ele>243.9</ele>
        <time>2020-06-28T06:26:56Z</time>
      </trkpt>
      <trkpt lat="48.79034" lon="7.2683">
        <ele>249.1</ele>
        <time>2020-06-28T06:27:10Z</time>
      </trkpt>
      <trkpt lat="48.79038" lon="7.26827">
        <ele>249.3</ele>
        <time>2020-06-28T06:27:17Z</time>
      </trkpt>
      <trkpt lat="48.79043" lon="7.26825">
        <ele>251.1</ele>
        <time>2020-06-28T06:27:23Z</time>
      </trkpt>
      <trkpt lat="48.79048" lon="7.26826">
        <ele>251.2</ele>
        <time>2020-06-28T06:27:31Z</time>
      </trkpt>
      <trkpt lat="48.79052" lon="7.26827">
        <ele>253.1</ele>
        <time>2020-06-28T06:27:40Z</time>
      </trkpt>
      <trkpt lat="48.79058" lon="7.2683">
        <ele>254.3</ele>
        <time>2020-06-28T06:27:45Z</time>
      </trkpt>
      <trkpt lat="48.79063" lon="7.26831">
        <ele>254.8</ele>
        <time>2020-06-28T06:27:48Z</time>
      </trkpt>
      <trkpt lat="48.79068" lon="7.26833">
        <ele>255.2</ele>
        <time>2020-06-28T06:27:51Z</time>
      </trkpt>
      <trkpt lat="48.79073" lon="7.26834">
        <ele>254.5</ele>
        <time>2020-06-28T06:27:53Z</time>
      </trkpt>
      <trkpt lat="48.79079" lon="7.26835">
        <ele>253.8</ele>
        <time>2020-06-28T06:27:56Z</time>
      </trkpt>
      <trkpt lat="48.79083" lon="7.26835">
        <ele>253.3</ele>
        <time>2020-06-28T06:27:59Z</time>
      </trkpt>
      <trkpt lat="48.79089" lon="7.26837">
        <ele>252.1</ele>
        <time>2020-06-28T06:28:03Z</time>
      </trkpt>
      <trkpt lat="48.79093" lon="7.26837">
        <ele>252</ele>
        <time>2020-06-28T06:28:06Z</time>
      </trkpt>
      <trkpt lat="48.79099" lon="7.26838">
        <ele>252.1</ele>
        <time>2020-06-28T06:28:09Z</time>
      </trkpt>
      <trkpt lat="48.79105" lon="7.26839">
        <ele>252.5</ele>
        <time>2020-06-28T06:28:11Z</time>
      </trkpt>
      <trkpt lat="48.79111" lon="7.2684">
        <ele>253.2</ele>
        <time>2020-06-28T06:28:14Z</time>
      </trkpt>
      <trkpt lat="48.79116" lon="7.26842">
        <ele>255.6</ele>
        <time>2020-06-28T06:28:18Z</time>
      </trkpt>
      <trkpt lat="48.79122" lon="7.26843">
        <ele>256.5</ele>
        <time>2020-06-28T06:28:21Z</time>
      </trkpt>
      <trkpt lat="48.79128" lon="7.26844">
        <ele>260.9</ele>
        <time>2020-06-28T06:28:24Z</time>
      </trkpt>
      <trkpt lat="48.79133" lon="7.26846">
        <ele>262</ele>
        <time>2020-06-28T06:28:27Z</time>
      </trkpt>
      <trkpt lat="48.79138" lon="7.2685">
        <ele>263.8</ele>
        <time>2020-06-28T06:28:30Z</time>
      </trkpt>
      <trkpt lat="48.79143" lon="7.26855">
        <ele>263.6</ele>
        <time>2020-06-28T06:28:33Z</time>
      </trkpt>
      <trkpt lat="48.79148" lon="7.26859">
        <ele>263.3</ele>
        <time>2020-06-28T06:28:36Z</time>
      </trkpt>
      <trkpt lat="48.79152" lon="7.26863">
        <ele>265</ele>
        <time>2020-06-28T06:28:39Z</time>
      </trkpt>
      <trkpt lat="48.79156" lon="7.26866">
        <ele>265.2</ele>
        <time>2020-06-28T06:28:42Z</time>
      </trkpt>
      <trkpt lat="48.79161" lon="7.26867">
        <ele>265.8</ele>
        <time>2020-06-28T06:28:45Z</time>
      </trkpt>
      <trkpt lat="48.79166" lon="7.26868">
        <ele>265.6</ele>
        <time>2020-06-28T06:28:48Z</time>
      </trkpt>
      <trkpt lat="48.7917" lon="7.26872">
        <ele>267.3</ele>
        <time>2020-06-28T06:28:51Z</time>
      </trkpt>
      <trkpt lat="48.79173" lon="7.26878">
        <ele>269.8</ele>
        <time>2020-06-28T06:28:54Z</time>
      </trkpt>
      <trkpt lat="48.79178" lon="7.26882">
        <ele>271.9</ele>
        <time>2020-06-28T06:28:58Z</time>
      </trkpt>
      <trkpt lat="48.79184" lon="7.26885">
        <ele>272.9</ele>
        <time>2020-06-28T06:29:01Z</time>
      </trkpt>
      <trkpt lat="48.79188" lon="7.26887">
        <ele>273.5</ele>
        <time>2020-06-28T06:29:03Z</time>
      </trkpt>
      <trkpt lat="48.79194" lon="7.26891">
        <ele>274</ele>
        <time>2020-06-28T06:29:05Z</time>
      </trkpt>
      <trkpt lat="48.79199" lon="7.26893">
        <ele>274</ele>
        <time>2020-06-28T06:29:07Z</time>
      </trkpt>
      <trkpt lat="48.79204" lon="7.26892">
        <ele>273.8</ele>
        <time>2020-06-28T06:29:09Z</time>
      </trkpt>
      <trkpt lat="48.79209" lon="7.26893">
        <ele>273.5</ele>
        <time>2020-06-28T06:29:11Z</time>
      </trkpt>
      <trkpt lat="48.79215" lon="7.26895">
        <ele>273.9</ele>
        <time>2020-06-28T06:29:14Z</time>
      </trkpt>
      <trkpt lat="48.79221" lon="7.26896">
        <ele>275.1</ele>
        <time>2020-06-28T06:29:17Z</time>
      </trkpt>
      <trkpt lat="48.79226" lon="7.26894">
        <ele>276.2</ele>
        <time>2020-06-28T06:29:20Z</time>
      </trkpt>
      <trkpt lat="48.79231" lon="7.26893">
        <ele>278.1</ele>
        <time>2020-06-28T06:29:23Z</time>
      </trkpt>
      <trkpt lat="48.79236" lon="7.26893">
        <ele>279</ele>
        <time>2020-06-28T06:29:25Z</time>
      </trkpt>
      <trkpt lat="48.79241" lon="7.26894">
        <ele>280.4</ele>
        <time>2020-06-28T06:29:27Z</time>
      </trkpt>
      <trkpt lat="48.79247" lon="7.26896">
        <ele>281.8</ele>
        <time>2020-06-28T06:29:30Z</time>
      </trkpt>
      <trkpt lat="48.79253" lon="7.26898">
        <ele>281.4</ele>
        <time>2020-06-28T06:29:33Z</time>
      </trkpt>
      <trkpt lat="48.79257" lon="7.26899">
        <ele>281.6</ele>
        <time>2020-06-28T06:29:35Z</time>
      </trkpt>
      <trkpt lat="48.79264" lon="7.26901">
        <ele>282</ele>
        <time>2020-06-28T06:29:38Z</time>
      </trkpt>
      <trkpt lat="48.79269" lon="7.26903">
        <ele>282.5</ele>
        <time>2020-06-28T06:29:41Z</time>
      </trkpt>
      <trkpt lat="48.79275" lon="7.26906">
        <ele>282</ele>
        <time>2020-06-28T06:29:44Z</time>
      </trkpt>
      <trkpt lat="48.79281" lon="7.26908">
        <ele>280.4</ele>
        <time>2020-06-28T06:29:47Z</time>
      </trkpt>
      <trkpt lat="48.79286" lon="7.26909">
        <ele>279.9</ele>
        <time>2020-06-28T06:29:50Z</time>
      </trkpt>
      <trkpt lat="48.79291" lon="7.26911">
        <ele>279.6</ele>
        <time>2020-06-28T06:29:53Z</time>
      </trkpt>
      <trkpt lat="48.79296" lon="7.26914">
        <ele>278.5</ele>
        <time>2020-06-28T06:29:56Z</time>
      </trkpt>
      <trkpt lat="48.79301" lon="7.26917">
        <ele>278.9</ele>
        <time>2020-06-28T06:29:59Z</time>
      </trkpt>
      <trkpt lat="48.79306" lon="7.26917">
        <ele>279.7</ele>
        <time>2020-06-28T06:30:01Z</time>
      </trkpt>
      <trkpt lat="48.79311" lon="7.26918">
        <ele>280.5</ele>
        <time>2020-06-28T06:30:03Z</time>
      </trkpt>
      <trkpt lat="48.79316" lon="7.26918">
        <ele>280.9</ele>
        <time>2020-06-28T06:30:05Z</time>
      </trkpt>
      <trkpt lat="48.7932" lon="7.26919">
        <ele>281.9</ele>
        <time>2020-06-28T06:30:07Z</time>
      </trkpt>
      <trkpt lat="48.79325" lon="7.26919">
        <ele>283.1</ele>
        <time>2020-06-28T06:30:09Z</time>
      </trkpt>
      <trkpt lat="48.79331" lon="7.2692">
        <ele>283.7</ele>
        <time>2020-06-28T06:30:11Z</time>
      </trkpt>
      <trkpt lat="48.79337" lon="7.26921">
        <ele>283.7</ele>
        <time>2020-06-28T06:30:13Z</time>
      </trkpt>
      <trkpt lat="48.79343" lon="7.26923">
        <ele>284.9</ele>
        <time>2020-06-28T06:30:15Z</time>
      </trkpt>
      <trkpt lat="48.79349" lon="7.26925">
        <ele>285.4</ele>
        <time>2020-06-28T06:30:17Z</time>
      </trkpt>
      <trkpt lat="48.79355" lon="7.26927">
        <ele>285.9</ele>
        <time>2020-06-28T06:30:19Z</time>
      </trkpt>
      <trkpt lat="48.79361" lon="7.26928">
        <ele>285.8</ele>
        <time>2020-06-28T06:30:21Z</time>
      </trkpt>
      <trkpt lat="48.79367" lon="7.26927">
        <ele>285</ele>
        <time>2020-06-28T06:30:23Z</time>
      </trkpt>
      <trkpt lat="48.79372" lon="7.26927">
        <ele>284.8</ele>
        <time>2020-06-28T06:30:25Z</time>
      </trkpt>
      <trkpt lat="48.79379" lon="7.26926">
        <ele>284.1</ele>
        <time>2020-06-28T06:30:28Z</time>
      </trkpt>
      <trkpt lat="48.79385" lon="7.26925">
        <ele>283.8</ele>
        <time>2020-06-28T06:30:30Z</time>
      </trkpt>
      <trkpt lat="48.7939" lon="7.26925">
        <ele>283.9</ele>
        <time>2020-06-28T06:30:32Z</time>
      </trkpt>
      <trkpt lat="48.79395" lon="7.26924">
        <ele>283.8</ele>
        <time>2020-06-28T06:30:34Z</time>
      </trkpt>
      <trkpt lat="48.79401" lon="7.26922">
        <ele>283.2</ele>
        <time>2020-06-28T06:30:36Z</time>
      </trkpt>
      <trkpt lat="48.79405" lon="7.2692">
        <ele>282.4</ele>
        <time>2020-06-28T06:30:38Z</time>
      </trkpt>
      <trkpt lat="48.79411" lon="7.26916">
        <ele>281.4</ele>
        <time>2020-06-28T06:30:41Z</time>
      </trkpt>
      <trkpt lat="48.79416" lon="7.2691">
        <ele>280.9</ele>
        <time>2020-06-28T06:30:44Z</time>
      </trkpt>
      <trkpt lat="48.7942" lon="7.26905">
        <ele>280.8</ele>
        <time>2020-06-28T06:30:46Z</time>
      </trkpt>
      <trkpt lat="48.79424" lon="7.26899">
        <ele>280.9</ele>
        <time>2020-06-28T06:30:48Z</time>
      </trkpt>
      <trkpt lat="48.79426" lon="7.26891">
        <ele>281.3</ele>
        <time>2020-06-28T06:30:50Z</time>
      </trkpt>
      <trkpt lat="48.79427" lon="7.26882">
        <ele>281.5</ele>
        <time>2020-06-28T06:30:52Z</time>
      </trkpt>
      <trkpt lat="48.79428" lon="7.26873">
        <ele>282.1</ele>
        <time>2020-06-28T06:30:54Z</time>
      </trkpt>
      <trkpt lat="48.79427" lon="7.26863">
        <ele>282.3</ele>
        <time>2020-06-28T06:30:56Z</time>
      </trkpt>
      <trkpt lat="48.79426" lon="7.26854">
        <ele>282.7</ele>
        <time>2020-06-28T06:30:58Z</time>
      </trkpt>
      <trkpt lat="48.79423" lon="7.26844">
        <ele>282.5</ele>
        <time>2020-06-28T06:31:00Z</time>
      </trkpt>
      <trkpt lat="48.79419" lon="7.26834">
        <ele>282.3</ele>
        <time>2020-06-28T06:31:02Z</time>
      </trkpt>
      <trkpt lat="48.79417" lon="7.26823">
        <ele>282.4</ele>
        <time>2020-06-28T06:31:04Z</time>
      </trkpt>
      <trkpt lat="48.7942" lon="7.26816">
        <ele>282.8</ele>
        <time>2020-06-28T06:31:06Z</time>
      </trkpt>
      <trkpt lat="48.79424" lon="7.26814">
        <ele>284</ele>
        <time>2020-06-28T06:31:08Z</time>
      </trkpt>
      <trkpt lat="48.7943" lon="7.26815">
        <ele>284.4</ele>
        <time>2020-06-28T06:31:10Z</time>
      </trkpt>
      <trkpt lat="48.79435" lon="7.26815">
        <ele>284.7</ele>
        <time>2020-06-28T06:31:12Z</time>
      </trkpt>
      <trkpt lat="48.7944" lon="7.26815">
        <ele>285</ele>
        <time>2020-06-28T06:31:14Z</time>
      </trkpt>
      <trkpt lat="48.79445" lon="7.26814">
        <ele>285.1</ele>
        <time>2020-06-28T06:31:16Z</time>
      </trkpt>
      <trkpt lat="48.7945" lon="7.26814">
        <ele>285</ele>
        <time>2020-06-28T06:31:18Z</time>
      </trkpt>
      <trkpt lat="48.79456" lon="7.26814">
        <ele>285.5</ele>
        <time>2020-06-28T06:31:21Z</time>
      </trkpt>
      <trkpt lat="48.79461" lon="7.26815">
        <ele>285.2</ele>
        <time>2020-06-28T06:31:23Z</time>
      </trkpt>
      <trkpt lat="48.79468" lon="7.26814">
        <ele>285.2</ele>
        <time>2020-06-28T06:31:26Z</time>
      </trkpt>
      <trkpt lat="48.79472" lon="7.26814">
        <ele>285.3</ele>
        <time>2020-06-28T06:31:28Z</time>
      </trkpt>
      <trkpt lat="48.79479" lon="7.26814">
        <ele>285.5</ele>
        <time>2020-06-28T06:31:31Z</time>
      </trkpt>
      <trkpt lat="48.79484" lon="7.26814">
        <ele>286</ele>
        <time>2020-06-28T06:31:33Z</time>
      </trkpt>
      <trkpt lat="48.7949" lon="7.26816">
        <ele>286.9</ele>
        <time>2020-06-28T06:31:36Z</time>
      </trkpt>
      <trkpt lat="48.79496" lon="7.26818">
        <ele>287.9</ele>
        <time>2020-06-28T06:31:39Z</time>
      </trkpt>
      <trkpt lat="48.79501" lon="7.2682">
        <ele>289.8</ele>
        <time>2020-06-28T06:31:42Z</time>
      </trkpt>
      <trkpt lat="48.79506" lon="7.26822">
        <ele>290.4</ele>
        <time>2020-06-28T06:31:45Z</time>
      </trkpt>
      <trkpt lat="48.79513" lon="7.26823">
        <ele>290.3</ele>
        <time>2020-06-28T06:31:48Z</time>
      </trkpt>
      <trkpt lat="48.79518" lon="7.26823">
        <ele>290.3</ele>
        <time>2020-06-28T06:31:50Z</time>
      </trkpt>
      <trkpt lat="48.79522" lon="7.26824">
        <ele>290.6</ele>
        <time>2020-06-28T06:31:52Z</time>
      </trkpt>
      <trkpt lat="48.79529" lon="7.26828">
        <ele>291.4</ele>
        <time>2020-06-28T06:31:55Z</time>
      </trkpt>
      <trkpt lat="48.79533" lon="7.2683">
        <ele>291.1</ele>
        <time>2020-06-28T06:31:57Z</time>
      </trkpt>
      <trkpt lat="48.79539" lon="7.26831">
        <ele>291.4</ele>
        <time>2020-06-28T06:31:59Z</time>
      </trkpt>
      <trkpt lat="48.79543" lon="7.26833">
        <ele>291.5</ele>
        <time>2020-06-28T06:32:01Z</time>
      </trkpt>
      <trkpt lat="48.79548" lon="7.26835">
        <ele>291.1</ele>
        <time>2020-06-28T06:32:03Z</time>
      </trkpt>
      <trkpt lat="48.79553" lon="7.26837">
        <ele>291.1</ele>
        <time>2020-06-28T06:32:05Z</time>
      </trkpt>
      <trkpt lat="48.79557" lon="7.26837">
        <ele>291.3</ele>
        <time>2020-06-28T06:32:07Z</time>
      </trkpt>
      <trkpt lat="48.79564" lon="7.26835">
        <ele>292.3</ele>
        <time>2020-06-28T06:32:10Z</time>
      </trkpt>
      <trkpt lat="48.79568" lon="7.26834">
        <ele>293.1</ele>
        <time>2020-06-28T06:32:12Z</time>
      </trkpt>
      <trkpt lat="48.79573" lon="7.26834">
        <ele>294</ele>
        <time>2020-06-28T06:32:14Z</time>
      </trkpt>
      <trkpt lat="48.79578" lon="7.26834">
        <ele>294</ele>
        <time>2020-06-28T06:32:16Z</time>
      </trkpt>
      <trkpt lat="48.79584" lon="7.26835">
        <ele>294.6</ele>
        <time>2020-06-28T06:32:18Z</time>
      </trkpt>
      <trkpt lat="48.79591" lon="7.26835">
        <ele>294.3</ele>
        <time>2020-06-28T06:32:20Z</time>
      </trkpt>
      <trkpt lat="48.79598" lon="7.26836">
        <ele>294.3</ele>
        <time>2020-06-28T06:32:22Z</time>
      </trkpt>
      <trkpt lat="48.79603" lon="7.26835">
        <ele>294.8</ele>
        <time>2020-06-28T06:32:24Z</time>
      </trkpt>
      <trkpt lat="48.79608" lon="7.26835">
        <ele>294.5</ele>
        <time>2020-06-28T06:32:26Z</time>
      </trkpt>
      <trkpt lat="48.79613" lon="7.26835">
        <ele>293.6</ele>
        <time>2020-06-28T06:32:28Z</time>
      </trkpt>
      <trkpt lat="48.79618" lon="7.26835">
        <ele>294.3</ele>
        <time>2020-06-28T06:32:30Z</time>
      </trkpt>
      <trkpt lat="48.79622" lon="7.26836">
        <ele>294.4</ele>
        <time>2020-06-28T06:32:32Z</time>
      </trkpt>
      <trkpt lat="48.79629" lon="7.26839">
        <ele>295.5</ele>
        <time>2020-06-28T06:32:35Z</time>
      </trkpt>
      <trkpt lat="48.79635" lon="7.26842">
        <ele>295.8</ele>
        <time>2020-06-28T06:32:37Z</time>
      </trkpt>
      <trkpt lat="48.7964" lon="7.26845">
        <ele>296.5</ele>
        <time>2020-06-28T06:32:39Z</time>
      </trkpt>
      <trkpt lat="48.79645" lon="7.26848">
        <ele>297.3</ele>
        <time>2020-06-28T06:32:41Z</time>
      </trkpt>
      <trkpt lat="48.79651" lon="7.26849">
        <ele>297.9</ele>
        <time>2020-06-28T06:32:43Z</time>
      </trkpt>
      <trkpt lat="48.79656" lon="7.26851">
        <ele>297.2</ele>
        <time>2020-06-28T06:32:45Z</time>
      </trkpt>
      <trkpt lat="48.7966" lon="7.26854">
        <ele>296.9</ele>
        <time>2020-06-28T06:32:47Z</time>
      </trkpt>
      <trkpt lat="48.79665" lon="7.26857">
        <ele>295.8</ele>
        <time>2020-06-28T06:32:49Z</time>
      </trkpt>
      <trkpt lat="48.7967" lon="7.2686">
        <ele>295.5</ele>
        <time>2020-06-28T06:32:51Z</time>
      </trkpt>
      <trkpt lat="48.79675" lon="7.26862">
        <ele>296</ele>
        <time>2020-06-28T06:32:53Z</time>
      </trkpt>
      <trkpt lat="48.7968" lon="7.26864">
        <ele>295.9</ele>
        <time>2020-06-28T06:32:55Z</time>
      </trkpt>
      <trkpt lat="48.79686" lon="7.26865">
        <ele>296.2</ele>
        <time>2020-06-28T06:32:57Z</time>
      </trkpt>
      <trkpt lat="48.79692" lon="7.26867">
        <ele>296.6</ele>
        <time>2020-06-28T06:32:59Z</time>
      </trkpt>
      <trkpt lat="48.79697" lon="7.26869">
        <ele>297</ele>
        <time>2020-06-28T06:33:01Z</time>
      </trkpt>
      <trkpt lat="48.79702" lon="7.26869">
        <ele>296.6</ele>
        <time>2020-06-28T06:33:03Z</time>
      </trkpt>
      <trkpt lat="48.79707" lon="7.26869">
        <ele>297.3</ele>
        <time>2020-06-28T06:33:05Z</time>
      </trkpt>
      <trkpt lat="48.79713" lon="7.26868">
        <ele>297.4</ele>
        <time>2020-06-28T06:33:07Z</time>
      </trkpt>
      <trkpt lat="48.79719" lon="7.26868">
        <ele>298.3</ele>
        <time>2020-06-28T06:33:09Z</time>
      </trkpt>
      <trkpt lat="48.79726" lon="7.26868">
        <ele>298.7</ele>
        <time>2020-06-28T06:33:11Z</time>
      </trkpt>
      <trkpt lat="48.79731" lon="7.26868">
        <ele>299.2</ele>
        <time>2020-06-28T06:33:13Z</time>
      </trkpt>
      <trkpt lat="48.79737" lon="7.26869">
        <ele>299.6</ele>
        <time>2020-06-28T06:33:17Z</time>
      </trkpt>
      <trkpt lat="48.79743" lon="7.26871">
        <ele>300.2</ele>
        <time>2020-06-28T06:33:20Z</time>
      </trkpt>
      <trkpt lat="48.79749" lon="7.26876">
        <ele>301.2</ele>
        <time>2020-06-28T06:33:23Z</time>
      </trkpt>
      <trkpt lat="48.79754" lon="7.26881">
        <ele>302.4</ele>
        <time>2020-06-28T06:33:25Z</time>
      </trkpt>
      <trkpt lat="48.79758" lon="7.26884">
        <ele>302.9</ele>
        <time>2020-06-28T06:33:27Z</time>
      </trkpt>
      <trkpt lat="48.79763" lon="7.26887">
        <ele>303.7</ele>
        <time>2020-06-28T06:33:29Z</time>
      </trkpt>
      <trkpt lat="48.79768" lon="7.26888">
        <ele>304.2</ele>
        <time>2020-06-28T06:33:31Z</time>
      </trkpt>
      <trkpt lat="48.79773" lon="7.26888">
        <ele>303.8</ele>
        <time>2020-06-28T06:33:33Z</time>
      </trkpt>
      <trkpt lat="48.7978" lon="7.26888">
        <ele>303.9</ele>
        <time>2020-06-28T06:33:35Z</time>
      </trkpt>
      <trkpt lat="48.79786" lon="7.26888">
        <ele>304.1</ele>
        <time>2020-06-28T06:33:37Z</time>
      </trkpt>
      <trkpt lat="48.79793" lon="7.26888">
        <ele>304.3</ele>
        <time>2020-06-28T06:33:39Z</time>
      </trkpt>
      <trkpt lat="48.79799" lon="7.26888">
        <ele>303.4</ele>
        <time>2020-06-28T06:33:41Z</time>
      </trkpt>
      <trkpt lat="48.79806" lon="7.26889">
        <ele>303.3</ele>
        <time>2020-06-28T06:33:43Z</time>
      </trkpt>
      <trkpt lat="48.79811" lon="7.26889">
        <ele>303.4</ele>
        <time>2020-06-28T06:33:45Z</time>
      </trkpt>
      <trkpt lat="48.79816" lon="7.2689">
        <ele>302.7</ele>
        <time>2020-06-28T06:33:47Z</time>
      </trkpt>
      <trkpt lat="48.79821" lon="7.26891">
        <ele>303.4</ele>
        <time>2020-06-28T06:33:49Z</time>
      </trkpt>
      <trkpt lat="48.79825" lon="7.26892">
        <ele>303.5</ele>
        <time>2020-06-28T06:33:51Z</time>
      </trkpt>
      <trkpt lat="48.79831" lon="7.26894">
        <ele>304.7</ele>
        <time>2020-06-28T06:33:54Z</time>
      </trkpt>
      <trkpt lat="48.79836" lon="7.26897">
        <ele>305.3</ele>
        <time>2020-06-28T06:33:56Z</time>
      </trkpt>
      <trkpt lat="48.7984" lon="7.269">
        <ele>306.2</ele>
        <time>2020-06-28T06:33:58Z</time>
      </trkpt>
      <trkpt lat="48.79846" lon="7.26902">
        <ele>307.1</ele>
        <time>2020-06-28T06:34:00Z</time>
      </trkpt>
      <trkpt lat="48.79852" lon="7.26905">
        <ele>307.4</ele>
        <time>2020-06-28T06:34:02Z</time>
      </trkpt>
      <trkpt lat="48.79858" lon="7.26907">
        <ele>306.8</ele>
        <time>2020-06-28T06:34:04Z</time>
      </trkpt>
      <trkpt lat="48.79863" lon="7.2691">
        <ele>306.6</ele>
        <time>2020-06-28T06:34:06Z</time>
      </trkpt>
      <trkpt lat="48.7987" lon="7.26911">
        <ele>306.5</ele>
        <time>2020-06-28T06:34:08Z</time>
      </trkpt>
      <trkpt lat="48.79877" lon="7.26913">
        <ele>306.6</ele>
        <time>2020-06-28T06:34:10Z</time>
      </trkpt>
      <trkpt lat="48.79883" lon="7.26916">
        <ele>306.6</ele>
        <time>2020-06-28T06:34:12Z</time>
      </trkpt>
      <trkpt lat="48.79889" lon="7.26917">
        <ele>306.4</ele>
        <time>2020-06-28T06:34:14Z</time>
      </trkpt>
      <trkpt lat="48.79894" lon="7.26918">
        <ele>306.8</ele>
        <time>2020-06-28T06:34:16Z</time>
      </trkpt>
      <trkpt lat="48.79899" lon="7.26918">
        <ele>307.8</ele>
        <time>2020-06-28T06:34:18Z</time>
      </trkpt>
      <trkpt lat="48.79904" lon="7.2692">
        <ele>308.5</ele>
        <time>2020-06-28T06:34:20Z</time>
      </trkpt>
      <trkpt lat="48.79909" lon="7.26923">
        <ele>309</ele>
        <time>2020-06-28T06:34:22Z</time>
      </trkpt>
      <trkpt lat="48.79913" lon="7.26929">
        <ele>309.4</ele>
        <time>2020-06-28T06:34:25Z</time>
      </trkpt>
      <trkpt lat="48.79916" lon="7.26935">
        <ele>308.3</ele>
        <time>2020-06-28T06:34:28Z</time>
      </trkpt>
      <trkpt lat="48.79917" lon="7.26942">
        <ele>306.4</ele>
        <time>2020-06-28T06:34:31Z</time>
      </trkpt>
      <trkpt lat="48.79922" lon="7.26949">
        <ele>305.4</ele>
        <time>2020-06-28T06:34:34Z</time>
      </trkpt>
      <trkpt lat="48.79928" lon="7.26952">
        <ele>304.9</ele>
        <time>2020-06-28T06:34:37Z</time>
      </trkpt>
      <trkpt lat="48.79932" lon="7.26952">
        <ele>305.1</ele>
        <time>2020-06-28T06:34:39Z</time>
      </trkpt>
      <trkpt lat="48.79938" lon="7.26952">
        <ele>305</ele>
        <time>2020-06-28T06:34:41Z</time>
      </trkpt>
      <trkpt lat="48.79945" lon="7.26955">
        <ele>304.7</ele>
        <time>2020-06-28T06:34:43Z</time>
      </trkpt>
      <trkpt lat="48.79951" lon="7.26958">
        <ele>304.4</ele>
        <time>2020-06-28T06:34:45Z</time>
      </trkpt>
      <trkpt lat="48.79958" lon="7.26959">
        <ele>303.7</ele>
        <time>2020-06-28T06:34:47Z</time>
      </trkpt>
      <trkpt lat="48.79966" lon="7.26958">
        <ele>302.7</ele>
        <time>2020-06-28T06:34:49Z</time>
      </trkpt>
      <trkpt lat="48.79973" lon="7.26957">
        <ele>301.6</ele>
        <time>2020-06-28T06:34:51Z</time>
      </trkpt>
      <trkpt lat="48.79977" lon="7.26956">
        <ele>301.2</ele>
        <time>2020-06-28T06:34:53Z</time>
      </trkpt>
      <trkpt lat="48.79983" lon="7.26958">
        <ele>300.9</ele>
        <time>2020-06-28T06:34:55Z</time>
      </trkpt>
      <trkpt lat="48.79989" lon="7.26959">
        <ele>300.7</ele>
        <time>2020-06-28T06:34:57Z</time>
      </trkpt>
      <trkpt lat="48.79995" lon="7.2696">
        <ele>300.5</ele>
        <time>2020-06-28T06:34:59Z</time>
      </trkpt>
      <trkpt lat="48.80001" lon="7.26961">
        <ele>300</ele>
        <time>2020-06-28T06:35:01Z</time>
      </trkpt>
      <trkpt lat="48.80006" lon="7.26962">
        <ele>299.7</ele>
        <time>2020-06-28T06:35:03Z</time>
      </trkpt>
      <trkpt lat="48.80011" lon="7.26965">
        <ele>299.2</ele>
        <time>2020-06-28T06:35:05Z</time>
      </trkpt>
      <trkpt lat="48.80016" lon="7.26967">
        <ele>298.9</ele>
        <time>2020-06-28T06:35:07Z</time>
      </trkpt>
      <trkpt lat="48.8002" lon="7.26969">
        <ele>298.4</ele>
        <time>2020-06-28T06:35:09Z</time>
      </trkpt>
      <trkpt lat="48.80025" lon="7.26973">
        <ele>299.5</ele>
        <time>2020-06-28T06:35:11Z</time>
      </trkpt>
      <trkpt lat="48.8003" lon="7.26976">
        <ele>300.3</ele>
        <time>2020-06-28T06:35:13Z</time>
      </trkpt>
      <trkpt lat="48.80035" lon="7.26981">
        <ele>301.3</ele>
        <time>2020-06-28T06:35:15Z</time>
      </trkpt>
      <trkpt lat="48.80039" lon="7.26986">
        <ele>302.6</ele>
        <time>2020-06-28T06:35:17Z</time>
      </trkpt>
      <trkpt lat="48.80042" lon="7.26993">
        <ele>303.2</ele>
        <time>2020-06-28T06:35:19Z</time>
      </trkpt>
      <trkpt lat="48.80047" lon="7.26997">
        <ele>303.5</ele>
        <time>2020-06-28T06:35:21Z</time>
      </trkpt>
      <trkpt lat="48.80053" lon="7.26998">
        <ele>303.7</ele>
        <time>2020-06-28T06:35:23Z</time>
      </trkpt>
      <trkpt lat="48.80059" lon="7.26998">
        <ele>304.3</ele>
        <time>2020-06-28T06:35:25Z</time>
      </trkpt>
      <trkpt lat="48.80065" lon="7.26999">
        <ele>304.4</ele>
        <time>2020-06-28T06:35:27Z</time>
      </trkpt>
      <trkpt lat="48.80071" lon="7.26999">
        <ele>304.6</ele>
        <time>2020-06-28T06:35:29Z</time>
      </trkpt>
      <trkpt lat="48.80076" lon="7.27">
        <ele>304.8</ele>
        <time>2020-06-28T06:35:31Z</time>
      </trkpt>
      <trkpt lat="48.80081" lon="7.27">
        <ele>304.4</ele>
        <time>2020-06-28T06:35:33Z</time>
      </trkpt>
      <trkpt lat="48.80086" lon="7.27002">
        <ele>304.2</ele>
        <time>2020-06-28T06:35:35Z</time>
      </trkpt>
      <trkpt lat="48.8009" lon="7.27002">
        <ele>304.5</ele>
        <time>2020-06-28T06:35:37Z</time>
      </trkpt>
      <trkpt lat="48.80097" lon="7.27004">
        <ele>305.4</ele>
        <time>2020-06-28T06:35:40Z</time>
      </trkpt>
      <trkpt lat="48.80103" lon="7.27007">
        <ele>305.7</ele>
        <time>2020-06-28T06:35:43Z</time>
      </trkpt>
      <trkpt lat="48.80109" lon="7.27009">
        <ele>306.6</ele>
        <time>2020-06-28T06:35:46Z</time>
      </trkpt>
      <trkpt lat="48.80115" lon="7.2701">
        <ele>308</ele>
        <time>2020-06-28T06:35:49Z</time>
      </trkpt>
      <trkpt lat="48.8012" lon="7.2701">
        <ele>308.1</ele>
        <time>2020-06-28T06:35:51Z</time>
      </trkpt>
      <trkpt lat="48.80125" lon="7.27011">
        <ele>308.3</ele>
        <time>2020-06-28T06:35:53Z</time>
      </trkpt>
      <trkpt lat="48.80131" lon="7.27012">
        <ele>308.5</ele>
        <time>2020-06-28T06:35:55Z</time>
      </trkpt>
      <trkpt lat="48.80137" lon="7.27015">
        <ele>308.8</ele>
        <time>2020-06-28T06:35:57Z</time>
      </trkpt>
      <trkpt lat="48.80145" lon="7.27018">
        <ele>308.2</ele>
        <time>2020-06-28T06:36:00Z</time>
      </trkpt>
      <trkpt lat="48.80152" lon="7.2702">
        <ele>308.3</ele>
        <time>2020-06-28T06:36:03Z</time>
      </trkpt>
      <trkpt lat="48.80157" lon="7.27021">
        <ele>308.3</ele>
        <time>2020-06-28T06:36:05Z</time>
      </trkpt>
      <trkpt lat="48.80163" lon="7.27022">
        <ele>307.9</ele>
        <time>2020-06-28T06:36:07Z</time>
      </trkpt>
      <trkpt lat="48.80168" lon="7.27022">
        <ele>307.4</ele>
        <time>2020-06-28T06:36:09Z</time>
      </trkpt>
      <trkpt lat="48.80175" lon="7.27022">
        <ele>307.3</ele>
        <time>2020-06-28T06:36:11Z</time>
      </trkpt>
      <trkpt lat="48.80181" lon="7.27022">
        <ele>307.3</ele>
        <time>2020-06-28T06:36:13Z</time>
      </trkpt>
      <trkpt lat="48.80188" lon="7.27023">
        <ele>308.3</ele>
        <time>2020-06-28T06:36:15Z</time>
      </trkpt>
      <trkpt lat="48.80195" lon="7.27022">
        <ele>308.9</ele>
        <time>2020-06-28T06:36:17Z</time>
      </trkpt>
      <trkpt lat="48.80201" lon="7.27022">
        <ele>309.1</ele>
        <time>2020-06-28T06:36:19Z</time>
      </trkpt>
      <trkpt lat="48.80208" lon="7.27022">
        <ele>308.6</ele>
        <time>2020-06-28T06:36:21Z</time>
      </trkpt>
      <trkpt lat="48.80215" lon="7.27022">
        <ele>308.5</ele>
        <time>2020-06-28T06:36:23Z</time>
      </trkpt>
      <trkpt lat="48.80222" lon="7.27022">
        <ele>308.3</ele>
        <time>2020-06-28T06:36:25Z</time>
      </trkpt>
      <trkpt lat="48.80229" lon="7.27023">
        <ele>308.8</ele>
        <time>2020-06-28T06:36:27Z</time>
      </trkpt>
      <trkpt lat="48.80235" lon="7.27025">
        <ele>309.5</ele>
        <time>2020-06-28T06:36:29Z</time>
      </trkpt>
      <trkpt lat="48.80242" lon="7.27026">
        <ele>309.5</ele>
        <time>2020-06-28T06:36:31Z</time>
      </trkpt>
      <trkpt lat="48.80248" lon="7.27027">
        <ele>309.4</ele>
        <time>2020-06-28T06:36:33Z</time>
      </trkpt>
      <trkpt lat="48.80255" lon="7.27026">
        <ele>308.7</ele>
        <time>2020-06-28T06:36:35Z</time>
      </trkpt>
      <trkpt lat="48.80263" lon="7.27025">
        <ele>308.3</ele>
        <time>2020-06-28T06:36:37Z</time>
      </trkpt>
      <trkpt lat="48.80269" lon="7.27023">
        <ele>307.6</ele>
        <time>2020-06-28T06:36:39Z</time>
      </trkpt>
      <trkpt lat="48.80275" lon="7.27021">
        <ele>307.7</ele>
        <time>2020-06-28T06:36:41Z</time>
      </trkpt>
      <trkpt lat="48.80281" lon="7.27019">
        <ele>308.6</ele>
        <time>2020-06-28T06:36:43Z</time>
      </trkpt>
      <trkpt lat="48.80287" lon="7.2702">
        <ele>309</ele>
        <time>2020-06-28T06:36:45Z</time>
      </trkpt>
      <trkpt lat="48.80292" lon="7.27021">
        <ele>309.6</ele>
        <time>2020-06-28T06:36:47Z</time>
      </trkpt>
      <trkpt lat="48.80298" lon="7.27021">
        <ele>310.6</ele>
        <time>2020-06-28T06:36:49Z</time>
      </trkpt>
      <trkpt lat="48.80303" lon="7.27022">
        <ele>311.4</ele>
        <time>2020-06-28T06:36:51Z</time>
      </trkpt>
      <trkpt lat="48.80308" lon="7.27022">
        <ele>312.3</ele>
        <time>2020-06-28T06:36:53Z</time>
      </trkpt>
      <trkpt lat="48.80314" lon="7.27022">
        <ele>313.1</ele>
        <time>2020-06-28T06:36:55Z</time>
      </trkpt>
      <trkpt lat="48.80318" lon="7.27022">
        <ele>314.6</ele>
        <time>2020-06-28T06:36:57Z</time>
      </trkpt>
      <trkpt lat="48.80323" lon="7.27021">
        <ele>315.5</ele>
        <time>2020-06-28T06:36:59Z</time>
      </trkpt>
      <trkpt lat="48.8033" lon="7.2702">
        <ele>316.3</ele>
        <time>2020-06-28T06:37:02Z</time>
      </trkpt>
      <trkpt lat="48.80335" lon="7.27019">
        <ele>316.1</ele>
        <time>2020-06-28T06:37:04Z</time>
      </trkpt>
      <trkpt lat="48.80341" lon="7.27018">
        <ele>315.6</ele>
        <time>2020-06-28T06:37:06Z</time>
      </trkpt>
      <trkpt lat="48.80348" lon="7.27017">
        <ele>314.8</ele>
        <time>2020-06-28T06:37:08Z</time>
      </trkpt>
      <trkpt lat="48.80354" lon="7.27016">
        <ele>314.9</ele>
        <time>2020-06-28T06:37:10Z</time>
      </trkpt>
      <trkpt lat="48.8036" lon="7.27015">
        <ele>313.6</ele>
        <time>2020-06-28T06:37:12Z</time>
      </trkpt>
      <trkpt lat="48.80366" lon="7.27014">
        <ele>313</ele>
        <time>2020-06-28T06:37:14Z</time>
      </trkpt>
      <trkpt lat="48.80371" lon="7.27012">
        <ele>312.2</ele>
        <time>2020-06-28T06:37:16Z</time>
      </trkpt>
      <trkpt lat="48.80376" lon="7.2701">
        <ele>311.4</ele>
        <time>2020-06-28T06:37:18Z</time>
      </trkpt>
      <trkpt lat="48.80383" lon="7.27007">
        <ele>311.9</ele>
        <time>2020-06-28T06:37:21Z</time>
      </trkpt>
      <trkpt lat="48.80387" lon="7.27006">
        <ele>311.9</ele>
        <time>2020-06-28T06:37:23Z</time>
      </trkpt>
      <trkpt lat="48.80392" lon="7.27005">
        <ele>312.6</ele>
        <time>2020-06-28T06:37:25Z</time>
      </trkpt>
      <trkpt lat="48.80398" lon="7.27006">
        <ele>313.3</ele>
        <time>2020-06-28T06:37:27Z</time>
      </trkpt>
      <trkpt lat="48.80404" lon="7.27009">
        <ele>313.4</ele>
        <time>2020-06-28T06:37:29Z</time>
      </trkpt>
      <trkpt lat="48.8041" lon="7.2701">
        <ele>313.1</ele>
        <time>2020-06-28T06:37:31Z</time>
      </trkpt>
      <trkpt lat="48.80415" lon="7.27008">
        <ele>312.3</ele>
        <time>2020-06-28T06:37:33Z</time>
      </trkpt>
      <trkpt lat="48.8042" lon="7.27006">
        <ele>312.3</ele>
        <time>2020-06-28T06:37:35Z</time>
      </trkpt>
      <trkpt lat="48.80425" lon="7.27005">
        <ele>312.6</ele>
        <time>2020-06-28T06:37:37Z</time>
      </trkpt>
      <trkpt lat="48.8043" lon="7.27004">
        <ele>311.7</ele>
        <time>2020-06-28T06:37:39Z</time>
      </trkpt>
      <trkpt lat="48.80436" lon="7.27003">
        <ele>311.6</ele>
        <time>2020-06-28T06:37:41Z</time>
      </trkpt>
      <trkpt lat="48.80443" lon="7.27003">
        <ele>311.1</ele>
        <time>2020-06-28T06:37:43Z</time>
      </trkpt>
      <trkpt lat="48.8045" lon="7.27004">
        <ele>311.6</ele>
        <time>2020-06-28T06:37:45Z</time>
      </trkpt>
      <trkpt lat="48.80456" lon="7.27003">
        <ele>312.1</ele>
        <time>2020-06-28T06:37:47Z</time>
      </trkpt>
      <trkpt lat="48.80461" lon="7.27001">
        <ele>312.2</ele>
        <time>2020-06-28T06:37:49Z</time>
      </trkpt>
      <trkpt lat="48.80467" lon="7.26999">
        <ele>312</ele>
        <time>2020-06-28T06:37:51Z</time>
      </trkpt>
      <trkpt lat="48.80473" lon="7.26996">
        <ele>312.4</ele>
        <time>2020-06-28T06:37:53Z</time>
      </trkpt>
      <trkpt lat="48.80479" lon="7.26994">
        <ele>312.4</ele>
        <time>2020-06-28T06:37:55Z</time>
      </trkpt>
      <trkpt lat="48.80485" lon="7.26993">
        <ele>313.4</ele>
        <time>2020-06-28T06:37:57Z</time>
      </trkpt>
      <trkpt lat="48.80491" lon="7.26993">
        <ele>314.7</ele>
        <time>2020-06-28T06:37:59Z</time>
      </trkpt>
      <trkpt lat="48.80497" lon="7.26993">
        <ele>315.3</ele>
        <time>2020-06-28T06:38:01Z</time>
      </trkpt>
      <trkpt lat="48.80502" lon="7.26994">
        <ele>315.7</ele>
        <time>2020-06-28T06:38:03Z</time>
      </trkpt>
      <trkpt lat="48.80509" lon="7.26995">
        <ele>316.8</ele>
        <time>2020-06-28T06:38:06Z</time>
      </trkpt>
      <trkpt lat="48.80515" lon="7.26996">
        <ele>317.3</ele>
        <time>2020-06-28T06:38:08Z</time>
      </trkpt>
      <trkpt lat="48.80522" lon="7.26998">
        <ele>317.6</ele>
        <time>2020-06-28T06:38:10Z</time>
      </trkpt>
      <trkpt lat="48.80528" lon="7.27">
        <ele>317.4</ele>
        <time>2020-06-28T06:38:12Z</time>
      </trkpt>
      <trkpt lat="48.80535" lon="7.27001">
        <ele>317.5</ele>
        <time>2020-06-28T06:38:14Z</time>
      </trkpt>
      <trkpt lat="48.8054" lon="7.27002">
        <ele>318.2</ele>
        <time>2020-06-28T06:38:16Z</time>
      </trkpt>
      <trkpt lat="48.80546" lon="7.27004">
        <ele>319.1</ele>
        <time>2020-06-28T06:38:18Z</time>
      </trkpt>
      <trkpt lat="48.80552" lon="7.27007">
        <ele>321</ele>
        <time>2020-06-28T06:38:21Z</time>
      </trkpt>
      <trkpt lat="48.80559" lon="7.27011">
        <ele>321.9</ele>
        <time>2020-06-28T06:38:24Z</time>
      </trkpt>
      <trkpt lat="48.80564" lon="7.27012">
        <ele>321.6</ele>
        <time>2020-06-28T06:38:26Z</time>
      </trkpt>
      <trkpt lat="48.8057" lon="7.27014">
        <ele>321.6</ele>
        <time>2020-06-28T06:38:28Z</time>
      </trkpt>
      <trkpt lat="48.80575" lon="7.27017">
        <ele>321.4</ele>
        <time>2020-06-28T06:38:30Z</time>
      </trkpt>
      <trkpt lat="48.8058" lon="7.27021">
        <ele>321.4</ele>
        <time>2020-06-28T06:38:32Z</time>
      </trkpt>
      <trkpt lat="48.80585" lon="7.27024">
        <ele>321.2</ele>
        <time>2020-06-28T06:38:34Z</time>
      </trkpt>
      <trkpt lat="48.80591" lon="7.27028">
        <ele>321.1</ele>
        <time>2020-06-28T06:38:36Z</time>
      </trkpt>
      <trkpt lat="48.80596" lon="7.27031">
        <ele>320.7</ele>
        <time>2020-06-28T06:38:38Z</time>
      </trkpt>
      <trkpt lat="48.80603" lon="7.27033">
        <ele>321.2</ele>
        <time>2020-06-28T06:38:40Z</time>
      </trkpt>
      <trkpt lat="48.8061" lon="7.27035">
        <ele>321.9</ele>
        <time>2020-06-28T06:38:42Z</time>
      </trkpt>
      <trkpt lat="48.80618" lon="7.27036">
        <ele>322.4</ele>
        <time>2020-06-28T06:38:44Z</time>
      </trkpt>
      <trkpt lat="48.80626" lon="7.27036">
        <ele>323</ele>
        <time>2020-06-28T06:38:46Z</time>
      </trkpt>
      <trkpt lat="48.80634" lon="7.27037">
        <ele>323.6</ele>
        <time>2020-06-28T06:38:48Z</time>
      </trkpt>
      <trkpt lat="48.80641" lon="7.27039">
        <ele>323.6</ele>
        <time>2020-06-28T06:38:50Z</time>
      </trkpt>
      <trkpt lat="48.80647" lon="7.27042">
        <ele>324.1</ele>
        <time>2020-06-28T06:38:52Z</time>
      </trkpt>
      <trkpt lat="48.80653" lon="7.27044">
        <ele>324.7</ele>
        <time>2020-06-28T06:38:54Z</time>
      </trkpt>
      <trkpt lat="48.80659" lon="7.27048">
        <ele>325.3</ele>
        <time>2020-06-28T06:38:56Z</time>
      </trkpt>
      <trkpt lat="48.80665" lon="7.27052">
        <ele>325.7</ele>
        <time>2020-06-28T06:38:58Z</time>
      </trkpt>
      <trkpt lat="48.80671" lon="7.27055">
        <ele>326.1</ele>
        <time>2020-06-28T06:39:00Z</time>
      </trkpt>
      <trkpt lat="48.80676" lon="7.27058">
        <ele>326.3</ele>
        <time>2020-06-28T06:39:02Z</time>
      </trkpt>
      <trkpt lat="48.80682" lon="7.27061">
        <ele>326.1</ele>
        <time>2020-06-28T06:39:04Z</time>
      </trkpt>
      <trkpt lat="48.80687" lon="7.27064">
        <ele>326.3</ele>
        <time>2020-06-28T06:39:06Z</time>
      </trkpt>
      <trkpt lat="48.80692" lon="7.27069">
        <ele>326.1</ele>
        <time>2020-06-28T06:39:08Z</time>
      </trkpt>
      <trkpt lat="48.80699" lon="7.27075">
        <ele>326</ele>
        <time>2020-06-28T06:39:10Z</time>
      </trkpt>
      <trkpt lat="48.80704" lon="7.27081">
        <ele>326</ele>
        <time>2020-06-28T06:39:12Z</time>
      </trkpt>
      <trkpt lat="48.80708" lon="7.27087">
        <ele>325.6</ele>
        <time>2020-06-28T06:39:14Z</time>
      </trkpt>
      <trkpt lat="48.80711" lon="7.27093">
        <ele>325.7</ele>
        <time>2020-06-28T06:39:16Z</time>
      </trkpt>
      <trkpt lat="48.80714" lon="7.27099">
        <ele>324.9</ele>
        <time>2020-06-28T06:39:18Z</time>
      </trkpt>
      <trkpt lat="48.80717" lon="7.27109">
        <ele>325</ele>
        <time>2020-06-28T06:39:21Z</time>
      </trkpt>
      <trkpt lat="48.80718" lon="7.27115">
        <ele>324.8</ele>
        <time>2020-06-28T06:39:23Z</time>
      </trkpt>
      <trkpt lat="48.80721" lon="7.27123">
        <ele>324.9</ele>
        <time>2020-06-28T06:39:25Z</time>
      </trkpt>
      <trkpt lat="48.80724" lon="7.27131">
        <ele>324.3</ele>
        <time>2020-06-28T06:39:27Z</time>
      </trkpt>
      <trkpt lat="48.80727" lon="7.27138">
        <ele>324.7</ele>
        <time>2020-06-28T06:39:29Z</time>
      </trkpt>
      <trkpt lat="48.80731" lon="7.27143">
        <ele>324.5</ele>
        <time>2020-06-28T06:39:31Z</time>
      </trkpt>
      <trkpt lat="48.80734" lon="7.27149">
        <ele>324.5</ele>
        <time>2020-06-28T06:39:33Z</time>
      </trkpt>
      <trkpt lat="48.80736" lon="7.27156">
        <ele>324.5</ele>
        <time>2020-06-28T06:39:35Z</time>
      </trkpt>
      <trkpt lat="48.80739" lon="7.27163">
        <ele>323.9</ele>
        <time>2020-06-28T06:39:37Z</time>
      </trkpt>
      <trkpt lat="48.80743" lon="7.27171">
        <ele>323.5</ele>
        <time>2020-06-28T06:39:40Z</time>
      </trkpt>
      <trkpt lat="48.80747" lon="7.27173">
        <ele>322.8</ele>
        <time>2020-06-28T06:39:42Z</time>
      </trkpt>
      <trkpt lat="48.80753" lon="7.27171">
        <ele>322.2</ele>
        <time>2020-06-28T06:39:44Z</time>
      </trkpt>
      <trkpt lat="48.80758" lon="7.27167">
        <ele>321.8</ele>
        <time>2020-06-28T06:39:46Z</time>
      </trkpt>
      <trkpt lat="48.80764" lon="7.27163">
        <ele>320.9</ele>
        <time>2020-06-28T06:39:48Z</time>
      </trkpt>
      <trkpt lat="48.80769" lon="7.27157">
        <ele>320.4</ele>
        <time>2020-06-28T06:39:50Z</time>
      </trkpt>
      <trkpt lat="48.80776" lon="7.27152">
        <ele>320.5</ele>
        <time>2020-06-28T06:39:52Z</time>
      </trkpt>
      <trkpt lat="48.80782" lon="7.27147">
        <ele>319.8</ele>
        <time>2020-06-28T06:39:54Z</time>
      </trkpt>
      <trkpt lat="48.80789" lon="7.27144">
        <ele>319.1</ele>
        <time>2020-06-28T06:39:56Z</time>
      </trkpt>
      <trkpt lat="48.80794" lon="7.2714">
        <ele>318.9</ele>
        <time>2020-06-28T06:39:58Z</time>
      </trkpt>
      <trkpt lat="48.80798" lon="7.27136">
        <ele>318.5</ele>
        <time>2020-06-28T06:40:00Z</time>
      </trkpt>
      <trkpt lat="48.80802" lon="7.27132">
        <ele>317.8</ele>
        <time>2020-06-28T06:40:03Z</time>
      </trkpt>
      <trkpt lat="48.80806" lon="7.27126">
        <ele>318.1</ele>
        <time>2020-06-28T06:40:07Z</time>
      </trkpt>
      <trkpt lat="48.8081" lon="7.27121">
        <ele>318.6</ele>
        <time>2020-06-28T06:40:11Z</time>
      </trkpt>
      <trkpt lat="48.80804" lon="7.27125">
        <ele>319.4</ele>
        <time>2020-06-28T06:40:23Z</time>
      </trkpt>
      <trkpt lat="48.80801" lon="7.27131">
        <ele>320.6</ele>
        <time>2020-06-28T06:40:26Z</time>
      </trkpt>
      <trkpt lat="48.80801" lon="7.27138">
        <ele>321.8</ele>
        <time>2020-06-28T06:40:30Z</time>
      </trkpt>
      <trkpt lat="48.80804" lon="7.27143">
        <ele>322.4</ele>
        <time>2020-06-28T06:40:33Z</time>
      </trkpt>
      <trkpt lat="48.80808" lon="7.27149">
        <ele>323.6</ele>
        <time>2020-06-28T06:40:37Z</time>
      </trkpt>
      <trkpt lat="48.80812" lon="7.27155">
        <ele>323.5</ele>
        <time>2020-06-28T06:40:40Z</time>
      </trkpt>
      <trkpt lat="48.80815" lon="7.2716">
        <ele>323.5</ele>
        <time>2020-06-28T06:40:42Z</time>
      </trkpt>
      <trkpt lat="48.8082" lon="7.27164">
        <ele>325.3</ele>
        <time>2020-06-28T06:40:44Z</time>
      </trkpt>
      <trkpt lat="48.80824" lon="7.27168">
        <ele>325.5</ele>
        <time>2020-06-28T06:40:46Z</time>
      </trkpt>
      <trkpt lat="48.80829" lon="7.27172">
        <ele>325.8</ele>
        <time>2020-06-28T06:40:48Z</time>
      </trkpt>
      <trkpt lat="48.80835" lon="7.27176">
        <ele>324.9</ele>
        <time>2020-06-28T06:40:50Z</time>
      </trkpt>
      <trkpt lat="48.80841" lon="7.27178">
        <ele>324.3</ele>
        <time>2020-06-28T06:40:52Z</time>
      </trkpt>
      <trkpt lat="48.80845" lon="7.27181">
        <ele>324.7</ele>
        <time>2020-06-28T06:40:54Z</time>
      </trkpt>
      <trkpt lat="48.8085" lon="7.27184">
        <ele>323.5</ele>
        <time>2020-06-28T06:40:56Z</time>
      </trkpt>
      <trkpt lat="48.80854" lon="7.27188">
        <ele>323.1</ele>
        <time>2020-06-28T06:40:58Z</time>
      </trkpt>
      <trkpt lat="48.8086" lon="7.27193">
        <ele>322.6</ele>
        <time>2020-06-28T06:41:01Z</time>
      </trkpt>
      <trkpt lat="48.80864" lon="7.27199">
        <ele>321.3</ele>
        <time>2020-06-28T06:41:04Z</time>
      </trkpt>
      <trkpt lat="48.80868" lon="7.27203">
        <ele>320.5</ele>
        <time>2020-06-28T06:41:06Z</time>
      </trkpt>
      <trkpt lat="48.80875" lon="7.27207">
        <ele>321.1</ele>
        <time>2020-06-28T06:41:09Z</time>
      </trkpt>
      <trkpt lat="48.8088" lon="7.2721">
        <ele>321.6</ele>
        <time>2020-06-28T06:41:11Z</time>
      </trkpt>
      <trkpt lat="48.80886" lon="7.27213">
        <ele>322.3</ele>
        <time>2020-06-28T06:41:13Z</time>
      </trkpt>
      <trkpt lat="48.80892" lon="7.27216">
        <ele>323</ele>
        <time>2020-06-28T06:41:15Z</time>
      </trkpt>
      <trkpt lat="48.80898" lon="7.27219">
        <ele>322.9</ele>
        <time>2020-06-28T06:41:17Z</time>
      </trkpt>
      <trkpt lat="48.80903" lon="7.2722">
        <ele>322.8</ele>
        <time>2020-06-28T06:41:19Z</time>
      </trkpt>
      <trkpt lat="48.80908" lon="7.27219">
        <ele>323.1</ele>
        <time>2020-06-28T06:41:21Z</time>
      </trkpt>
      <trkpt lat="48.80915" lon="7.27218">
        <ele>322.6</ele>
        <time>2020-06-28T06:41:24Z</time>
      </trkpt>
      <trkpt lat="48.80921" lon="7.27219">
        <ele>322.4</ele>
        <time>2020-06-28T06:41:26Z</time>
      </trkpt>
      <trkpt lat="48.80925" lon="7.2722">
        <ele>321.8</ele>
        <time>2020-06-28T06:41:28Z</time>
      </trkpt>
      <trkpt lat="48.80931" lon="7.27221">
        <ele>321.2</ele>
        <time>2020-06-28T06:41:30Z</time>
      </trkpt>
      <trkpt lat="48.80937" lon="7.27223">
        <ele>321.9</ele>
        <time>2020-06-28T06:41:32Z</time>
      </trkpt>
      <trkpt lat="48.80942" lon="7.27226">
        <ele>322.5</ele>
        <time>2020-06-28T06:41:34Z</time>
      </trkpt>
      <trkpt lat="48.80946" lon="7.27232">
        <ele>322.6</ele>
        <time>2020-06-28T06:41:37Z</time>
      </trkpt>
      <trkpt lat="48.8095" lon="7.27238">
        <ele>323.6</ele>
        <time>2020-06-28T06:41:40Z</time>
      </trkpt>
      <trkpt lat="48.80955" lon="7.27238">
        <ele>324.3</ele>
        <time>2020-06-28T06:41:42Z</time>
      </trkpt>
      <trkpt lat="48.8096" lon="7.27236">
        <ele>324.5</ele>
        <time>2020-06-28T06:41:44Z</time>
      </trkpt>
      <trkpt lat="48.80965" lon="7.27236">
        <ele>324.7</ele>
        <time>2020-06-28T06:41:46Z</time>
      </trkpt>
      <trkpt lat="48.80971" lon="7.27239">
        <ele>324.4</ele>
        <time>2020-06-28T06:41:48Z</time>
      </trkpt>
      <trkpt lat="48.80977" lon="7.27244">
        <ele>324.9</ele>
        <time>2020-06-28T06:41:50Z</time>
      </trkpt>
      <trkpt lat="48.80985" lon="7.27248">
        <ele>325.5</ele>
        <time>2020-06-28T06:41:52Z</time>
      </trkpt>
      <trkpt lat="48.80993" lon="7.27252">
        <ele>325.9</ele>
        <time>2020-06-28T06:41:54Z</time>
      </trkpt>
      <trkpt lat="48.81003" lon="7.27257">
        <ele>325.7</ele>
        <time>2020-06-28T06:41:56Z</time>
      </trkpt>
      <trkpt lat="48.81012" lon="7.27262">
        <ele>325.2</ele>
        <time>2020-06-28T06:41:58Z</time>
      </trkpt>
      <trkpt lat="48.81023" lon="7.27267">
        <ele>324.4</ele>
        <time>2020-06-28T06:42:00Z</time>
      </trkpt>
      <trkpt lat="48.81035" lon="7.27271">
        <ele>323.7</ele>
        <time>2020-06-28T06:42:02Z</time>
      </trkpt>
      <trkpt lat="48.81048" lon="7.27275">
        <ele>323.6</ele>
        <time>2020-06-28T06:42:04Z</time>
      </trkpt>
      <trkpt lat="48.8106" lon="7.2728">
        <ele>322.7</ele>
        <time>2020-06-28T06:42:06Z</time>
      </trkpt>
      <trkpt lat="48.81072" lon="7.27284">
        <ele>321.6</ele>
        <time>2020-06-28T06:42:08Z</time>
      </trkpt>
      <trkpt lat="48.81082" lon="7.27288">
        <ele>321.2</ele>
        <time>2020-06-28T06:42:10Z</time>
      </trkpt>
      <trkpt lat="48.81093" lon="7.27292">
        <ele>320.8</ele>
        <time>2020-06-28T06:42:12Z</time>
      </trkpt>
      <trkpt lat="48.81103" lon="7.27295">
        <ele>319.1</ele>
        <time>2020-06-28T06:42:14Z</time>
      </trkpt>
      <trkpt lat="48.81117" lon="7.27299">
        <ele>317.3</ele>
        <time>2020-06-28T06:42:16Z</time>
      </trkpt>
      <trkpt lat="48.81127" lon="7.27305">
        <ele>316.5</ele>
        <time>2020-06-28T06:42:18Z</time>
      </trkpt>
      <trkpt lat="48.81137" lon="7.27312">
        <ele>314.3</ele>
        <time>2020-06-28T06:42:20Z</time>
      </trkpt>
      <trkpt lat="48.81149" lon="7.2732">
        <ele>313.1</ele>
        <time>2020-06-28T06:42:22Z</time>
      </trkpt>
      <trkpt lat="48.8116" lon="7.27327">
        <ele>311.5</ele>
        <time>2020-06-28T06:42:24Z</time>
      </trkpt>
      <trkpt lat="48.81171" lon="7.27334">
        <ele>309.7</ele>
        <time>2020-06-28T06:42:26Z</time>
      </trkpt>
      <trkpt lat="48.81181" lon="7.27342">
        <ele>308.2</ele>
        <time>2020-06-28T06:42:28Z</time>
      </trkpt>
      <trkpt lat="48.81192" lon="7.27348">
        <ele>306.4</ele>
        <time>2020-06-28T06:42:30Z</time>
      </trkpt>
      <trkpt lat="48.81202" lon="7.27348">
        <ele>304.9</ele>
        <time>2020-06-28T06:42:32Z</time>
      </trkpt>
      <trkpt lat="48.8121" lon="7.27341">
        <ele>303.4</ele>
        <time>2020-06-28T06:42:34Z</time>
      </trkpt>
      <trkpt lat="48.81214" lon="7.27334">
        <ele>302.3</ele>
        <time>2020-06-28T06:42:36Z</time>
      </trkpt>
      <trkpt lat="48.81218" lon="7.27329">
        <ele>301.3</ele>
        <time>2020-06-28T06:42:38Z</time>
      </trkpt>
      <trkpt lat="48.81223" lon="7.27325">
        <ele>300.5</ele>
        <time>2020-06-28T06:42:41Z</time>
      </trkpt>
      <trkpt lat="48.81228" lon="7.2733">
        <ele>300.1</ele>
        <time>2020-06-28T06:42:43Z</time>
      </trkpt>
      <trkpt lat="48.81234" lon="7.27338">
        <ele>299.6</ele>
        <time>2020-06-28T06:42:45Z</time>
      </trkpt>
      <trkpt lat="48.81243" lon="7.27345">
        <ele>299.4</ele>
        <time>2020-06-28T06:42:47Z</time>
      </trkpt>
      <trkpt lat="48.81253" lon="7.27355">
        <ele>298.5</ele>
        <time>2020-06-28T06:42:49Z</time>
      </trkpt>
      <trkpt lat="48.81264" lon="7.27371">
        <ele>297.8</ele>
        <time>2020-06-28T06:42:51Z</time>
      </trkpt>
      <trkpt lat="48.81276" lon="7.27397">
        <ele>296.6</ele>
        <time>2020-06-28T06:42:54Z</time>
      </trkpt>
      <trkpt lat="48.81278" lon="7.27415">
        <ele>295.3</ele>
        <time>2020-06-28T06:42:56Z</time>
      </trkpt>
      <trkpt lat="48.8128" lon="7.27431">
        <ele>293.6</ele>
        <time>2020-06-28T06:42:58Z</time>
      </trkpt>
      <trkpt lat="48.81281" lon="7.27449">
        <ele>292.3</ele>
        <time>2020-06-28T06:43:00Z</time>
      </trkpt>
      <trkpt lat="48.81282" lon="7.27469">
        <ele>291.8</ele>
        <time>2020-06-28T06:43:02Z</time>
      </trkpt>
      <trkpt lat="48.81283" lon="7.27495">
        <ele>290.4</ele>
        <time>2020-06-28T06:43:05Z</time>
      </trkpt>
      <trkpt lat="48.81285" lon="7.2751">
        <ele>288.6</ele>
        <time>2020-06-28T06:43:07Z</time>
      </trkpt>
      <trkpt lat="48.81285" lon="7.27527">
        <ele>288.7</ele>
        <time>2020-06-28T06:43:09Z</time>
      </trkpt>
      <trkpt lat="48.81284" lon="7.27547">
        <ele>287.5</ele>
        <time>2020-06-28T06:43:11Z</time>
      </trkpt>
      <trkpt lat="48.81288" lon="7.27575">
        <ele>286.2</ele>
        <time>2020-06-28T06:43:14Z</time>
      </trkpt>
      <trkpt lat="48.81296" lon="7.27592">
        <ele>284.6</ele>
        <time>2020-06-28T06:43:16Z</time>
      </trkpt>
      <trkpt lat="48.81309" lon="7.27603">
        <ele>284.2</ele>
        <time>2020-06-28T06:43:18Z</time>
      </trkpt>
      <trkpt lat="48.81321" lon="7.27614">
        <ele>283.7</ele>
        <time>2020-06-28T06:43:20Z</time>
      </trkpt>
      <trkpt lat="48.81334" lon="7.27626">
        <ele>283.5</ele>
        <time>2020-06-28T06:43:22Z</time>
      </trkpt>
      <trkpt lat="48.81346" lon="7.27637">
        <ele>283.5</ele>
        <time>2020-06-28T06:43:24Z</time>
      </trkpt>
      <trkpt lat="48.81358" lon="7.27647">
        <ele>283.5</ele>
        <time>2020-06-28T06:43:26Z</time>
      </trkpt>
      <trkpt lat="48.81369" lon="7.27657">
        <ele>283.5</ele>
        <time>2020-06-28T06:43:28Z</time>
      </trkpt>
      <trkpt lat="48.81379" lon="7.2767">
        <ele>283.3</ele>
        <time>2020-06-28T06:43:30Z</time>
      </trkpt>
      <trkpt lat="48.81387" lon="7.27683">
        <ele>282.6</ele>
        <time>2020-06-28T06:43:32Z</time>
      </trkpt>
      <trkpt lat="48.81395" lon="7.277">
        <ele>281.7</ele>
        <time>2020-06-28T06:43:34Z</time>
      </trkpt>
      <trkpt lat="48.81406" lon="7.27714">
        <ele>280.7</ele>
        <time>2020-06-28T06:43:36Z</time>
      </trkpt>
      <trkpt lat="48.81413" lon="7.27727">
        <ele>280.8</ele>
        <time>2020-06-28T06:43:38Z</time>
      </trkpt>
      <trkpt lat="48.81422" lon="7.27742">
        <ele>279.4</ele>
        <time>2020-06-28T06:43:40Z</time>
      </trkpt>
      <trkpt lat="48.81438" lon="7.27763">
        <ele>278.6</ele>
        <time>2020-06-28T06:43:43Z</time>
      </trkpt>
      <trkpt lat="48.81452" lon="7.27788">
        <ele>276.6</ele>
        <time>2020-06-28T06:43:46Z</time>
      </trkpt>
      <trkpt lat="48.8146" lon="7.27804">
        <ele>275.5</ele>
        <time>2020-06-28T06:43:48Z</time>
      </trkpt>
      <trkpt lat="48.81469" lon="7.27822">
        <ele>274</ele>
        <time>2020-06-28T06:43:50Z</time>
      </trkpt>
      <trkpt lat="48.81472" lon="7.27836">
        <ele>272.4</ele>
        <time>2020-06-28T06:43:52Z</time>
      </trkpt>
      <trkpt lat="48.81478" lon="7.27848">
        <ele>271</ele>
        <time>2020-06-28T06:43:54Z</time>
      </trkpt>
      <trkpt lat="48.8148" lon="7.27854">
        <ele>266.5</ele>
        <time>2020-06-28T06:43:58Z</time>
      </trkpt>
      <trkpt lat="48.81477" lon="7.27849">
        <ele>263.5</ele>
        <time>2020-06-28T06:44:02Z</time>
      </trkpt>
      <trkpt lat="48.81474" lon="7.27842">
        <ele>263</ele>
        <time>2020-06-28T06:44:04Z</time>
      </trkpt>
      <trkpt lat="48.81473" lon="7.27834">
        <ele>262.5</ele>
        <time>2020-06-28T06:44:06Z</time>
      </trkpt>
      <trkpt lat="48.8147" lon="7.27816">
        <ele>262.9</ele>
        <time>2020-06-28T06:44:09Z</time>
      </trkpt>
      <trkpt lat="48.81469" lon="7.27795">
        <ele>261.9</ele>
        <time>2020-06-28T06:44:12Z</time>
      </trkpt>
      <trkpt lat="48.81468" lon="7.27782">
        <ele>261.5</ele>
        <time>2020-06-28T06:44:14Z</time>
      </trkpt>
      <trkpt lat="48.81465" lon="7.2777">
        <ele>260.8</ele>
        <time>2020-06-28T06:44:16Z</time>
      </trkpt>
      <trkpt lat="48.81462" lon="7.2776">
        <ele>259.6</ele>
        <time>2020-06-28T06:44:18Z</time>
      </trkpt>
      <trkpt lat="48.81459" lon="7.27743">
        <ele>258.4</ele>
        <time>2020-06-28T06:44:21Z</time>
      </trkpt>
      <trkpt lat="48.81457" lon="7.27733">
        <ele>257.9</ele>
        <time>2020-06-28T06:44:23Z</time>
      </trkpt>
      <trkpt lat="48.81453" lon="7.27725">
        <ele>257.6</ele>
        <time>2020-06-28T06:44:25Z</time>
      </trkpt>
      <trkpt lat="48.81452" lon="7.2771">
        <ele>257.2</ele>
        <time>2020-06-28T06:44:27Z</time>
      </trkpt>
      <trkpt lat="48.81455" lon="7.27698">
        <ele>258</ele>
        <time>2020-06-28T06:44:29Z</time>
      </trkpt>
      <trkpt lat="48.8146" lon="7.2769">
        <ele>259</ele>
        <time>2020-06-28T06:44:31Z</time>
      </trkpt>
      <trkpt lat="48.81466" lon="7.27685">
        <ele>260</ele>
        <time>2020-06-28T06:44:33Z</time>
      </trkpt>
      <trkpt lat="48.81471" lon="7.27685">
        <ele>261.6</ele>
        <time>2020-06-28T06:44:35Z</time>
      </trkpt>
      <trkpt lat="48.8148" lon="7.27684">
        <ele>262.8</ele>
        <time>2020-06-28T06:44:38Z</time>
      </trkpt>
      <trkpt lat="48.81485" lon="7.27684">
        <ele>263.2</ele>
        <time>2020-06-28T06:44:40Z</time>
      </trkpt>
      <trkpt lat="48.81491" lon="7.27684">
        <ele>263.6</ele>
        <time>2020-06-28T06:44:43Z</time>
      </trkpt>
      <trkpt lat="48.81496" lon="7.27684">
        <ele>261.7</ele>
        <time>2020-06-28T06:44:46Z</time>
      </trkpt>
      <trkpt lat="48.81501" lon="7.27684">
        <ele>261.9</ele>
        <time>2020-06-28T06:44:48Z</time>
      </trkpt>
      <trkpt lat="48.81508" lon="7.27687">
        <ele>261.7</ele>
        <time>2020-06-28T06:44:51Z</time>
      </trkpt>
      <trkpt lat="48.81512" lon="7.27693">
        <ele>261.7</ele>
        <time>2020-06-28T06:44:53Z</time>
      </trkpt>
      <trkpt lat="48.81516" lon="7.27698">
        <ele>261</ele>
        <time>2020-06-28T06:44:55Z</time>
      </trkpt>
      <trkpt lat="48.8152" lon="7.27702">
        <ele>260.7</ele>
        <time>2020-06-28T06:44:57Z</time>
      </trkpt>
      <trkpt lat="48.81524" lon="7.27707">
        <ele>260.6</ele>
        <time>2020-06-28T06:44:59Z</time>
      </trkpt>
      <trkpt lat="48.81527" lon="7.27712">
        <ele>260.3</ele>
        <time>2020-06-28T06:45:01Z</time>
      </trkpt>
      <trkpt lat="48.81532" lon="7.2772">
        <ele>259.9</ele>
        <time>2020-06-28T06:45:04Z</time>
      </trkpt>
      <trkpt lat="48.81535" lon="7.27726">
        <ele>260.1</ele>
        <time>2020-06-28T06:45:06Z</time>
      </trkpt>
      <trkpt lat="48.8154" lon="7.27733">
        <ele>260</ele>
        <time>2020-06-28T06:45:08Z</time>
      </trkpt>
      <trkpt lat="48.81544" lon="7.2774">
        <ele>259.2</ele>
        <time>2020-06-28T06:45:10Z</time>
      </trkpt>
      <trkpt lat="48.81548" lon="7.27747">
        <ele>258.4</ele>
        <time>2020-06-28T06:45:12Z</time>
      </trkpt>
      <trkpt lat="48.81551" lon="7.27753">
        <ele>257</ele>
        <time>2020-06-28T06:45:14Z</time>
      </trkpt>
      <trkpt lat="48.81556" lon="7.2776">
        <ele>256.3</ele>
        <time>2020-06-28T06:45:16Z</time>
      </trkpt>
      <trkpt lat="48.81562" lon="7.27769">
        <ele>254.6</ele>
        <time>2020-06-28T06:45:18Z</time>
      </trkpt>
      <trkpt lat="48.81567" lon="7.27777">
        <ele>253.5</ele>
        <time>2020-06-28T06:45:20Z</time>
      </trkpt>
      <trkpt lat="48.81572" lon="7.27785">
        <ele>252.4</ele>
        <time>2020-06-28T06:45:22Z</time>
      </trkpt>
      <trkpt lat="48.81578" lon="7.27791">
        <ele>251.6</ele>
        <time>2020-06-28T06:45:24Z</time>
      </trkpt>
      <trkpt lat="48.81587" lon="7.27804">
        <ele>250.7</ele>
        <time>2020-06-28T06:45:27Z</time>
      </trkpt>
      <trkpt lat="48.81593" lon="7.27814">
        <ele>249.5</ele>
        <time>2020-06-28T06:45:29Z</time>
      </trkpt>
      <trkpt lat="48.81597" lon="7.27825">
        <ele>249</ele>
        <time>2020-06-28T06:45:31Z</time>
      </trkpt>
      <trkpt lat="48.81601" lon="7.27838">
        <ele>248.2</ele>
        <time>2020-06-28T06:45:33Z</time>
      </trkpt>
      <trkpt lat="48.81605" lon="7.27848">
        <ele>247.4</ele>
        <time>2020-06-28T06:45:35Z</time>
      </trkpt>
      <trkpt lat="48.81614" lon="7.27862">
        <ele>246.1</ele>
        <time>2020-06-28T06:45:37Z</time>
      </trkpt>
      <trkpt lat="48.81621" lon="7.27874">
        <ele>244.8</ele>
        <time>2020-06-28T06:45:39Z</time>
      </trkpt>
      <trkpt lat="48.81628" lon="7.27886">
        <ele>244.2</ele>
        <time>2020-06-28T06:45:41Z</time>
      </trkpt>
      <trkpt lat="48.81634" lon="7.27896">
        <ele>243.8</ele>
        <time>2020-06-28T06:45:43Z</time>
      </trkpt>
      <trkpt lat="48.81638" lon="7.27906">
        <ele>243.6</ele>
        <time>2020-06-28T06:45:45Z</time>
      </trkpt>
      <trkpt lat="48.81641" lon="7.27915">
        <ele>243.1</ele>
        <time>2020-06-28T06:45:47Z</time>
      </trkpt>
      <trkpt lat="48.81644" lon="7.27924">
        <ele>243.1</ele>
        <time>2020-06-28T06:45:49Z</time>
      </trkpt>
      <trkpt lat="48.81648" lon="7.27934">
        <ele>242.7</ele>
        <time>2020-06-28T06:45:51Z</time>
      </trkpt>
      <trkpt lat="48.81652" lon="7.27943">
        <ele>242.6</ele>
        <time>2020-06-28T06:45:53Z</time>
      </trkpt>
      <trkpt lat="48.81657" lon="7.2795">
        <ele>242.4</ele>
        <time>2020-06-28T06:45:55Z</time>
      </trkpt>
      <trkpt lat="48.81661" lon="7.27958">
        <ele>241.9</ele>
        <time>2020-06-28T06:45:57Z</time>
      </trkpt>
      <trkpt lat="48.81664" lon="7.27967">
        <ele>241.3</ele>
        <time>2020-06-28T06:45:59Z</time>
      </trkpt>
      <trkpt lat="48.81666" lon="7.27975">
        <ele>240.9</ele>
        <time>2020-06-28T06:46:01Z</time>
      </trkpt>
      <trkpt lat="48.81668" lon="7.27982">
        <ele>240.3</ele>
        <time>2020-06-28T06:46:03Z</time>
      </trkpt>
      <trkpt lat="48.81672" lon="7.27989">
        <ele>239.6</ele>
        <time>2020-06-28T06:46:05Z</time>
      </trkpt>
      <trkpt lat="48.81675" lon="7.27995">
        <ele>239.3</ele>
        <time>2020-06-28T06:46:07Z</time>
      </trkpt>
      <trkpt lat="48.81677" lon="7.28002">
        <ele>238.5</ele>
        <time>2020-06-28T06:46:09Z</time>
      </trkpt>
      <trkpt lat="48.81681" lon="7.28011">
        <ele>238.4</ele>
        <time>2020-06-28T06:46:11Z</time>
      </trkpt>
      <trkpt lat="48.81685" lon="7.28018">
        <ele>237.8</ele>
        <time>2020-06-28T06:46:13Z</time>
      </trkpt>
      <trkpt lat="48.81689" lon="7.28024">
        <ele>237.6</ele>
        <time>2020-06-28T06:46:15Z</time>
      </trkpt>
      <trkpt lat="48.81696" lon="7.28027">
        <ele>237.1</ele>
        <time>2020-06-28T06:46:17Z</time>
      </trkpt>
      <trkpt lat="48.81701" lon="7.28024">
        <ele>236</ele>
        <time>2020-06-28T06:46:21Z</time>
      </trkpt>
      <trkpt lat="48.81706" lon="7.28018">
        <ele>236.4</ele>
        <time>2020-06-28T06:46:24Z</time>
      </trkpt>
      <trkpt lat="48.81711" lon="7.28012">
        <ele>237</ele>
        <time>2020-06-28T06:46:26Z</time>
      </trkpt>
      <trkpt lat="48.81716" lon="7.28007">
        <ele>237.2</ele>
        <time>2020-06-28T06:46:29Z</time>
      </trkpt>
      <trkpt lat="48.81721" lon="7.28006">
        <ele>236.8</ele>
        <time>2020-06-28T06:46:31Z</time>
      </trkpt>
      <trkpt lat="48.81728" lon="7.28004">
        <ele>236</ele>
        <time>2020-06-28T06:46:33Z</time>
      </trkpt>
      <trkpt lat="48.81737" lon="7.28002">
        <ele>235.8</ele>
        <time>2020-06-28T06:46:35Z</time>
      </trkpt>
      <trkpt lat="48.81748" lon="7.28">
        <ele>235.4</ele>
        <time>2020-06-28T06:46:37Z</time>
      </trkpt>
      <trkpt lat="48.81756" lon="7.27998">
        <ele>235.8</ele>
        <time>2020-06-28T06:46:39Z</time>
      </trkpt>
      <trkpt lat="48.81761" lon="7.27999">
        <ele>235.8</ele>
        <time>2020-06-28T06:46:42Z</time>
      </trkpt>
      <trkpt lat="48.81766" lon="7.27998">
        <ele>234.8</ele>
        <time>2020-06-28T06:46:47Z</time>
      </trkpt>
      <trkpt lat="48.81772" lon="7.27996">
        <ele>232.3</ele>
        <time>2020-06-28T06:46:54Z</time>
      </trkpt>
      <trkpt lat="48.81776" lon="7.27998">
        <ele>230.9</ele>
        <time>2020-06-28T06:46:57Z</time>
      </trkpt>
      <trkpt lat="48.81781" lon="7.28">
        <ele>230.6</ele>
        <time>2020-06-28T06:47:02Z</time>
      </trkpt>
      <trkpt lat="48.81785" lon="7.28">
        <ele>230.8</ele>
        <time>2020-06-28T06:47:10Z</time>
      </trkpt>
      <trkpt lat="48.81788" lon="7.27995">
        <ele>228.2</ele>
        <time>2020-06-28T06:47:30Z</time>
      </trkpt>
      <trkpt lat="48.8179" lon="7.27986">
        <ele>227.3</ele>
        <time>2020-06-28T06:47:34Z</time>
      </trkpt>
      <trkpt lat="48.81793" lon="7.2798">
        <ele>226.7</ele>
        <time>2020-06-28T06:47:37Z</time>
      </trkpt>
      <trkpt lat="48.81798" lon="7.2798">
        <ele>225.7</ele>
        <time>2020-06-28T06:47:40Z</time>
      </trkpt>
      <trkpt lat="48.81803" lon="7.27986">
        <ele>227.5</ele>
        <time>2020-06-28T06:47:43Z</time>
      </trkpt>
      <trkpt lat="48.81806" lon="7.27991">
        <ele>225</ele>
        <time>2020-06-28T06:47:45Z</time>
      </trkpt>
      <trkpt lat="48.8181" lon="7.27995">
        <ele>222.6</ele>
        <time>2020-06-28T06:47:49Z</time>
      </trkpt>
      <trkpt lat="48.81815" lon="7.27994">
        <ele>219.5</ele>
        <time>2020-06-28T06:47:51Z</time>
      </trkpt>
      <trkpt lat="48.8182" lon="7.27989">
        <ele>216.2</ele>
        <time>2020-06-28T06:47:53Z</time>
      </trkpt>
      <trkpt lat="48.81825" lon="7.27986">
        <ele>213.5</ele>
        <time>2020-06-28T06:47:55Z</time>
      </trkpt>
      <trkpt lat="48.81832" lon="7.27982">
        <ele>208.9</ele>
        <time>2020-06-28T06:47:58Z</time>
      </trkpt>
      <trkpt lat="48.81836" lon="7.27979">
        <ele>206.7</ele>
        <time>2020-06-28T06:48:00Z</time>
      </trkpt>
      <trkpt lat="48.81841" lon="7.27977">
        <ele>204.4</ele>
        <time>2020-06-28T06:48:03Z</time>
      </trkpt>
      <trkpt lat="48.81846" lon="7.27974">
        <ele>208.4</ele>
        <time>2020-06-28T06:48:06Z</time>
      </trkpt>
      <trkpt lat="48.81851" lon="7.27973">
        <ele>206.4</ele>
        <time>2020-06-28T06:48:10Z</time>
      </trkpt>
      <trkpt lat="48.81855" lon="7.27971">
        <ele>204.6</ele>
        <time>2020-06-28T06:48:17Z</time>
      </trkpt>
      <trkpt lat="48.8186" lon="7.27974">
        <ele>203.2</ele>
        <time>2020-06-28T06:48:36Z</time>
      </trkpt>
      <trkpt lat="48.81861" lon="7.27982">
        <ele>206.6</ele>
        <time>2020-06-28T06:48:50Z</time>
      </trkpt>
      <trkpt lat="48.81864" lon="7.27989">
        <ele>204.8</ele>
        <time>2020-06-28T06:48:54Z</time>
      </trkpt>
      <trkpt lat="48.81867" lon="7.27995">
        <ele>203.4</ele>
        <time>2020-06-28T06:48:56Z</time>
      </trkpt>
      <trkpt lat="48.81871" lon="7.28002">
        <ele>202.4</ele>
        <time>2020-06-28T06:48:58Z</time>
      </trkpt>
      <trkpt lat="48.81874" lon="7.28009">
        <ele>201.7</ele>
        <time>2020-06-28T06:49:00Z</time>
      </trkpt>
      <trkpt lat="48.81876" lon="7.28016">
        <ele>200.9</ele>
        <time>2020-06-28T06:49:02Z</time>
      </trkpt>
      <trkpt lat="48.81878" lon="7.28023">
        <ele>200.7</ele>
        <time>2020-06-28T06:49:04Z</time>
      </trkpt>
      <trkpt lat="48.81879" lon="7.2803">
        <ele>200.3</ele>
        <time>2020-06-28T06:49:06Z</time>
      </trkpt>
      <trkpt lat="48.81882" lon="7.28039">
        <ele>200.7</ele>
        <time>2020-06-28T06:49:09Z</time>
      </trkpt>
      <trkpt lat="48.81886" lon="7.28046">
        <ele>200.4</ele>
        <time>2020-06-28T06:49:12Z</time>
      </trkpt>
      <trkpt lat="48.8189" lon="7.28052">
        <ele>199.4</ele>
        <time>2020-06-28T06:49:16Z</time>
      </trkpt>
      <trkpt lat="48.81894" lon="7.28057">
        <ele>199</ele>
        <time>2020-06-28T06:49:20Z</time>
      </trkpt>
      <trkpt lat="48.81899" lon="7.28062">
        <ele>199.2</ele>
        <time>2020-06-28T06:49:23Z</time>
      </trkpt>
      <trkpt lat="48.81905" lon="7.28064">
        <ele>198.9</ele>
        <time>2020-06-28T06:49:26Z</time>
      </trkpt>
      <trkpt lat="48.81911" lon="7.28063">
        <ele>198.4</ele>
        <time>2020-06-28T06:49:29Z</time>
      </trkpt>
      <trkpt lat="48.81916" lon="7.28063">
        <ele>198.1</ele>
        <time>2020-06-28T06:49:31Z</time>
      </trkpt>
      <trkpt lat="48.81921" lon="7.28066">
        <ele>197.8</ele>
        <time>2020-06-28T06:49:33Z</time>
      </trkpt>
      <trkpt lat="48.81926" lon="7.28069">
        <ele>197.7</ele>
        <time>2020-06-28T06:49:35Z</time>
      </trkpt>
      <trkpt lat="48.8193" lon="7.28072">
        <ele>197.7</ele>
        <time>2020-06-28T06:49:37Z</time>
      </trkpt>
      <trkpt lat="48.81935" lon="7.28071">
        <ele>197.7</ele>
        <time>2020-06-28T06:49:40Z</time>
      </trkpt>
      <trkpt lat="48.81938" lon="7.28064">
        <ele>197</ele>
        <time>2020-06-28T06:49:43Z</time>
      </trkpt>
      <trkpt lat="48.8194" lon="7.28055">
        <ele>197</ele>
        <time>2020-06-28T06:49:46Z</time>
      </trkpt>
      <trkpt lat="48.81942" lon="7.28048">
        <ele>196.8</ele>
        <time>2020-06-28T06:49:49Z</time>
      </trkpt>
      <trkpt lat="48.81947" lon="7.28044">
        <ele>196</ele>
        <time>2020-06-28T06:49:53Z</time>
      </trkpt>
      <trkpt lat="48.81951" lon="7.2804">
        <ele>195.3</ele>
        <time>2020-06-28T06:49:56Z</time>
      </trkpt>
      <trkpt lat="48.81955" lon="7.28034">
        <ele>197.3</ele>
        <time>2020-06-28T06:51:58Z</time>
      </trkpt>
      <trkpt lat="48.8196" lon="7.28035">
        <ele>197.7</ele>
        <time>2020-06-28T06:52:02Z</time>
      </trkpt>
      <trkpt lat="48.81966" lon="7.28039">
        <ele>198.9</ele>
        <time>2020-06-28T06:52:05Z</time>
      </trkpt>
      <trkpt lat="48.8197" lon="7.28044">
        <ele>199.6</ele>
        <time>2020-06-28T06:52:07Z</time>
      </trkpt>
      <trkpt lat="48.81974" lon="7.28049">
        <ele>200.1</ele>
        <time>2020-06-28T06:52:09Z</time>
      </trkpt>
      <trkpt lat="48.81981" lon="7.28056">
        <ele>200.7</ele>
        <time>2020-06-28T06:52:12Z</time>
      </trkpt>
      <trkpt lat="48.81986" lon="7.28061">
        <ele>201.3</ele>
        <time>2020-06-28T06:52:14Z</time>
      </trkpt>
      <trkpt lat="48.81993" lon="7.28066">
        <ele>202.2</ele>
        <time>2020-06-28T06:52:17Z</time>
      </trkpt>
      <trkpt lat="48.81997" lon="7.2807">
        <ele>202.6</ele>
        <time>2020-06-28T06:52:19Z</time>
      </trkpt>
      <trkpt lat="48.82002" lon="7.28073">
        <ele>203</ele>
        <time>2020-06-28T06:52:21Z</time>
      </trkpt>
      <trkpt lat="48.82006" lon="7.28078">
        <ele>204</ele>
        <time>2020-06-28T06:52:23Z</time>
      </trkpt>
      <trkpt lat="48.8201" lon="7.28081">
        <ele>205.2</ele>
        <time>2020-06-28T06:52:25Z</time>
      </trkpt>
      <trkpt lat="48.82015" lon="7.28084">
        <ele>205.6</ele>
        <time>2020-06-28T06:52:27Z</time>
      </trkpt>
      <trkpt lat="48.8202" lon="7.28086">
        <ele>205.8</ele>
        <time>2020-06-28T06:52:29Z</time>
      </trkpt>
      <trkpt lat="48.82025" lon="7.28087">
        <ele>205.7</ele>
        <time>2020-06-28T06:52:31Z</time>
      </trkpt>
      <trkpt lat="48.8203" lon="7.28086">
        <ele>206</ele>
        <time>2020-06-28T06:52:33Z</time>
      </trkpt>
      <trkpt lat="48.82035" lon="7.28084">
        <ele>205.8</ele>
        <time>2020-06-28T06:52:35Z</time>
      </trkpt>
      <trkpt lat="48.8204" lon="7.28082">
        <ele>206</ele>
        <time>2020-06-28T06:52:37Z</time>
      </trkpt>
      <trkpt lat="48.82047" lon="7.28082">
        <ele>206</ele>
        <time>2020-06-28T06:52:39Z</time>
      </trkpt>
      <trkpt lat="48.82053" lon="7.28083">
        <ele>206</ele>
        <time>2020-06-28T06:52:41Z</time>
      </trkpt>
      <trkpt lat="48.8206" lon="7.28084">
        <ele>206.1</ele>
        <time>2020-06-28T06:52:43Z</time>
      </trkpt>
      <trkpt lat="48.82067" lon="7.28083">
        <ele>205.9</ele>
        <time>2020-06-28T06:52:45Z</time>
      </trkpt>
      <trkpt lat="48.82073" lon="7.28081">
        <ele>206.6</ele>
        <time>2020-06-28T06:52:47Z</time>
      </trkpt>
      <trkpt lat="48.82078" lon="7.2808">
        <ele>206.6</ele>
        <time>2020-06-28T06:52:49Z</time>
      </trkpt>
      <trkpt lat="48.82082" lon="7.28079">
        <ele>207.7</ele>
        <time>2020-06-28T06:52:51Z</time>
      </trkpt>
      <trkpt lat="48.82088" lon="7.28077">
        <ele>208.1</ele>
        <time>2020-06-28T06:52:53Z</time>
      </trkpt>
      <trkpt lat="48.82094" lon="7.28072">
        <ele>207.7</ele>
        <time>2020-06-28T06:52:55Z</time>
      </trkpt>
      <trkpt lat="48.821" lon="7.28068">
        <ele>207.1</ele>
        <time>2020-06-28T06:52:57Z</time>
      </trkpt>
      <trkpt lat="48.82106" lon="7.28064">
        <ele>207.1</ele>
        <time>2020-06-28T06:52:59Z</time>
      </trkpt>
      <trkpt lat="48.82111" lon="7.28061">
        <ele>207</ele>
        <time>2020-06-28T06:53:01Z</time>
      </trkpt>
      <trkpt lat="48.82118" lon="7.28058">
        <ele>206.7</ele>
        <time>2020-06-28T06:53:03Z</time>
      </trkpt>
      <trkpt lat="48.82124" lon="7.28054">
        <ele>205.7</ele>
        <time>2020-06-28T06:53:05Z</time>
      </trkpt>
      <trkpt lat="48.82129" lon="7.28055">
        <ele>205.1</ele>
        <time>2020-06-28T06:53:07Z</time>
      </trkpt>
      <trkpt lat="48.82133" lon="7.2806">
        <ele>204.8</ele>
        <time>2020-06-28T06:53:09Z</time>
      </trkpt>
      <trkpt lat="48.82135" lon="7.28069">
        <ele>204.6</ele>
        <time>2020-06-28T06:53:11Z</time>
      </trkpt>
      <trkpt lat="48.82136" lon="7.2808">
        <ele>204.3</ele>
        <time>2020-06-28T06:53:13Z</time>
      </trkpt>
      <trkpt lat="48.82137" lon="7.28091">
        <ele>204.4</ele>
        <time>2020-06-28T06:53:15Z</time>
      </trkpt>
      <trkpt lat="48.82138" lon="7.28101">
        <ele>204.5</ele>
        <time>2020-06-28T06:53:17Z</time>
      </trkpt>
      <trkpt lat="48.82139" lon="7.28113">
        <ele>204.8</ele>
        <time>2020-06-28T06:53:19Z</time>
      </trkpt>
      <trkpt lat="48.8214" lon="7.28124">
        <ele>204</ele>
        <time>2020-06-28T06:53:21Z</time>
      </trkpt>
      <trkpt lat="48.82141" lon="7.28134">
        <ele>203.7</ele>
        <time>2020-06-28T06:53:23Z</time>
      </trkpt>
      <trkpt lat="48.82142" lon="7.28143">
        <ele>202.8</ele>
        <time>2020-06-28T06:53:25Z</time>
      </trkpt>
      <trkpt lat="48.82142" lon="7.28151">
        <ele>202.2</ele>
        <time>2020-06-28T06:53:27Z</time>
      </trkpt>
      <trkpt lat="48.82141" lon="7.28159">
        <ele>202.4</ele>
        <time>2020-06-28T06:53:29Z</time>
      </trkpt>
      <trkpt lat="48.82139" lon="7.28168">
        <ele>202.7</ele>
        <time>2020-06-28T06:53:31Z</time>
      </trkpt>
      <trkpt lat="48.82135" lon="7.28176">
        <ele>202.6</ele>
        <time>2020-06-28T06:53:33Z</time>
      </trkpt>
      <trkpt lat="48.82133" lon="7.28183">
        <ele>202.1</ele>
        <time>2020-06-28T06:53:35Z</time>
      </trkpt>
      <trkpt lat="48.82136" lon="7.28192">
        <ele>201.9</ele>
        <time>2020-06-28T06:53:38Z</time>
      </trkpt>
      <trkpt lat="48.82142" lon="7.28194">
        <ele>202</ele>
        <time>2020-06-28T06:53:40Z</time>
      </trkpt>
      <trkpt lat="48.82148" lon="7.28193">
        <ele>202.2</ele>
        <time>2020-06-28T06:53:42Z</time>
      </trkpt>
      <trkpt lat="48.82154" lon="7.28191">
        <ele>202</ele>
        <time>2020-06-28T06:53:44Z</time>
      </trkpt>
      <trkpt lat="48.82161" lon="7.28189">
        <ele>201.9</ele>
        <time>2020-06-28T06:53:46Z</time>
      </trkpt>
      <trkpt lat="48.82166" lon="7.28187">
        <ele>202</ele>
        <time>2020-06-28T06:53:48Z</time>
      </trkpt>
      <trkpt lat="48.82171" lon="7.28185">
        <ele>201.9</ele>
        <time>2020-06-28T06:53:50Z</time>
      </trkpt>
      <trkpt lat="48.82177" lon="7.28184">
        <ele>201.7</ele>
        <time>2020-06-28T06:53:52Z</time>
      </trkpt>
      <trkpt lat="48.82182" lon="7.28183">
        <ele>201</ele>
        <time>2020-06-28T06:53:54Z</time>
      </trkpt>
      <trkpt lat="48.8219" lon="7.28182">
        <ele>199.5</ele>
        <time>2020-06-28T06:53:57Z</time>
      </trkpt>
      <trkpt lat="48.82196" lon="7.28183">
        <ele>198.7</ele>
        <time>2020-06-28T06:53:59Z</time>
      </trkpt>
      <trkpt lat="48.82205" lon="7.28184">
        <ele>198</ele>
        <time>2020-06-28T06:54:02Z</time>
      </trkpt>
      <trkpt lat="48.82214" lon="7.28186">
        <ele>196.4</ele>
        <time>2020-06-28T06:54:05Z</time>
      </trkpt>
      <trkpt lat="48.8222" lon="7.28186">
        <ele>196.2</ele>
        <time>2020-06-28T06:54:07Z</time>
      </trkpt>
      <trkpt lat="48.82226" lon="7.28186">
        <ele>195.6</ele>
        <time>2020-06-28T06:54:09Z</time>
      </trkpt>
      <trkpt lat="48.82232" lon="7.28187">
        <ele>195.5</ele>
        <time>2020-06-28T06:54:11Z</time>
      </trkpt>
      <trkpt lat="48.82239" lon="7.28188">
        <ele>195.1</ele>
        <time>2020-06-28T06:54:13Z</time>
      </trkpt>
      <trkpt lat="48.82245" lon="7.28187">
        <ele>195.4</ele>
        <time>2020-06-28T06:54:15Z</time>
      </trkpt>
      <trkpt lat="48.82251" lon="7.28187">
        <ele>195.4</ele>
        <time>2020-06-28T06:54:17Z</time>
      </trkpt>
      <trkpt lat="48.82257" lon="7.28186">
        <ele>195.4</ele>
        <time>2020-06-28T06:54:19Z</time>
      </trkpt>
      <trkpt lat="48.82262" lon="7.28185">
        <ele>196.2</ele>
        <time>2020-06-28T06:54:21Z</time>
      </trkpt>
      <trkpt lat="48.82267" lon="7.28184">
        <ele>196.3</ele>
        <time>2020-06-28T06:54:23Z</time>
      </trkpt>
      <trkpt lat="48.82273" lon="7.28183">
        <ele>196.9</ele>
        <time>2020-06-28T06:54:25Z</time>
      </trkpt>
      <trkpt lat="48.82279" lon="7.28183">
        <ele>197.2</ele>
        <time>2020-06-28T06:54:27Z</time>
      </trkpt>
      <trkpt lat="48.82285" lon="7.28183">
        <ele>197.9</ele>
        <time>2020-06-28T06:54:29Z</time>
      </trkpt>
      <trkpt lat="48.82292" lon="7.28183">
        <ele>198.4</ele>
        <time>2020-06-28T06:54:31Z</time>
      </trkpt>
      <trkpt lat="48.82298" lon="7.28185">
        <ele>199</ele>
        <time>2020-06-28T06:54:33Z</time>
      </trkpt>
      <trkpt lat="48.82305" lon="7.28185">
        <ele>199</ele>
        <time>2020-06-28T06:54:35Z</time>
      </trkpt>
      <trkpt lat="48.82311" lon="7.28186">
        <ele>199.2</ele>
        <time>2020-06-28T06:54:37Z</time>
      </trkpt>
      <trkpt lat="48.82318" lon="7.28187">
        <ele>199.6</ele>
        <time>2020-06-28T06:54:39Z</time>
      </trkpt>
      <trkpt lat="48.82326" lon="7.28188">
        <ele>200.1</ele>
        <time>2020-06-28T06:54:41Z</time>
      </trkpt>
      <trkpt lat="48.82332" lon="7.28189">
        <ele>200.6</ele>
        <time>2020-06-28T06:54:43Z</time>
      </trkpt>
      <trkpt lat="48.82339" lon="7.28192">
        <ele>201.2</ele>
        <time>2020-06-28T06:54:45Z</time>
      </trkpt>
      <trkpt lat="48.82346" lon="7.28195">
        <ele>201.4</ele>
        <time>2020-06-28T06:54:47Z</time>
      </trkpt>
      <trkpt lat="48.82352" lon="7.28199">
        <ele>201.5</ele>
        <time>2020-06-28T06:54:49Z</time>
      </trkpt>
      <trkpt lat="48.82357" lon="7.28203">
        <ele>201.7</ele>
        <time>2020-06-28T06:54:51Z</time>
      </trkpt>
      <trkpt lat="48.82363" lon="7.28205">
        <ele>201.8</ele>
        <time>2020-06-28T06:54:53Z</time>
      </trkpt>
      <trkpt lat="48.8237" lon="7.28205">
        <ele>201.6</ele>
        <time>2020-06-28T06:54:55Z</time>
      </trkpt>
      <trkpt lat="48.82376" lon="7.28205">
        <ele>201.4</ele>
        <time>2020-06-28T06:54:57Z</time>
      </trkpt>
      <trkpt lat="48.82383" lon="7.28207">
        <ele>201.5</ele>
        <time>2020-06-28T06:54:59Z</time>
      </trkpt>
      <trkpt lat="48.8239" lon="7.28208">
        <ele>201</ele>
        <time>2020-06-28T06:55:01Z</time>
      </trkpt>
      <trkpt lat="48.82396" lon="7.28208">
        <ele>201.5</ele>
        <time>2020-06-28T06:55:03Z</time>
      </trkpt>
      <trkpt lat="48.82403" lon="7.28207">
        <ele>202.3</ele>
        <time>2020-06-28T06:55:05Z</time>
      </trkpt>
      <trkpt lat="48.8241" lon="7.28205">
        <ele>203.3</ele>
        <time>2020-06-28T06:55:07Z</time>
      </trkpt>
      <trkpt lat="48.82417" lon="7.28204">
        <ele>204</ele>
        <time>2020-06-28T06:55:09Z</time>
      </trkpt>
      <trkpt lat="48.82423" lon="7.28202">
        <ele>204.2</ele>
        <time>2020-06-28T06:55:11Z</time>
      </trkpt>
      <trkpt lat="48.82429" lon="7.28202">
        <ele>205</ele>
        <time>2020-06-28T06:55:13Z</time>
      </trkpt>
      <trkpt lat="48.82435" lon="7.28201">
        <ele>205.3</ele>
        <time>2020-06-28T06:55:15Z</time>
      </trkpt>
      <trkpt lat="48.82441" lon="7.28199">
        <ele>206.7</ele>
        <time>2020-06-28T06:55:17Z</time>
      </trkpt>
      <trkpt lat="48.82448" lon="7.28196">
        <ele>207.2</ele>
        <time>2020-06-28T06:55:19Z</time>
      </trkpt>
      <trkpt lat="48.82453" lon="7.28194">
        <ele>207.2</ele>
        <time>2020-06-28T06:55:21Z</time>
      </trkpt>
      <trkpt lat="48.82458" lon="7.28191">
        <ele>207</ele>
        <time>2020-06-28T06:55:23Z</time>
      </trkpt>
      <trkpt lat="48.82464" lon="7.28187">
        <ele>206.7</ele>
        <time>2020-06-28T06:55:25Z</time>
      </trkpt>
      <trkpt lat="48.82471" lon="7.28184">
        <ele>206.6</ele>
        <time>2020-06-28T06:55:27Z</time>
      </trkpt>
      <trkpt lat="48.82477" lon="7.28181">
        <ele>206.1</ele>
        <time>2020-06-28T06:55:29Z</time>
      </trkpt>
      <trkpt lat="48.82483" lon="7.28178">
        <ele>205.5</ele>
        <time>2020-06-28T06:55:31Z</time>
      </trkpt>
      <trkpt lat="48.82489" lon="7.28175">
        <ele>205.2</ele>
        <time>2020-06-28T06:55:33Z</time>
      </trkpt>
      <trkpt lat="48.82494" lon="7.28173">
        <ele>204.9</ele>
        <time>2020-06-28T06:55:35Z</time>
      </trkpt>
      <trkpt lat="48.82499" lon="7.2817">
        <ele>205.1</ele>
        <time>2020-06-28T06:55:37Z</time>
      </trkpt>
      <trkpt lat="48.82504" lon="7.28169">
        <ele>205.3</ele>
        <time>2020-06-28T06:55:39Z</time>
      </trkpt>
      <trkpt lat="48.82509" lon="7.28169">
        <ele>205.9</ele>
        <time>2020-06-28T06:55:41Z</time>
      </trkpt>
      <trkpt lat="48.82513" lon="7.28169">
        <ele>207.1</ele>
        <time>2020-06-28T06:55:43Z</time>
      </trkpt>
      <trkpt lat="48.82518" lon="7.28166">
        <ele>206.8</ele>
        <time>2020-06-28T06:55:45Z</time>
      </trkpt>
      <trkpt lat="48.82523" lon="7.28165">
        <ele>207.4</ele>
        <time>2020-06-28T06:55:47Z</time>
      </trkpt>
      <trkpt lat="48.82527" lon="7.28163">
        <ele>206.8</ele>
        <time>2020-06-28T06:55:49Z</time>
      </trkpt>
      <trkpt lat="48.82534" lon="7.2816">
        <ele>206.2</ele>
        <time>2020-06-28T06:55:52Z</time>
      </trkpt>
      <trkpt lat="48.8254" lon="7.28159">
        <ele>205.5</ele>
        <time>2020-06-28T06:55:55Z</time>
      </trkpt>
      <trkpt lat="48.82545" lon="7.28157">
        <ele>205.2</ele>
        <time>2020-06-28T06:55:57Z</time>
      </trkpt>
      <trkpt lat="48.82549" lon="7.28153">
        <ele>204.8</ele>
        <time>2020-06-28T06:55:59Z</time>
      </trkpt>
      <trkpt lat="48.82555" lon="7.28149">
        <ele>204.4</ele>
        <time>2020-06-28T06:56:02Z</time>
      </trkpt>
      <trkpt lat="48.8256" lon="7.28148">
        <ele>204.9</ele>
        <time>2020-06-28T06:56:04Z</time>
      </trkpt>
      <trkpt lat="48.82566" lon="7.28146">
        <ele>204.7</ele>
        <time>2020-06-28T06:56:07Z</time>
      </trkpt>
      <trkpt lat="48.82571" lon="7.28145">
        <ele>204.5</ele>
        <time>2020-06-28T06:56:09Z</time>
      </trkpt>
      <trkpt lat="48.82576" lon="7.28145">
        <ele>205.1</ele>
        <time>2020-06-28T06:56:12Z</time>
      </trkpt>
      <trkpt lat="48.82582" lon="7.28144">
        <ele>206.2</ele>
        <time>2020-06-28T06:56:15Z</time>
      </trkpt>
      <trkpt lat="48.82588" lon="7.28143">
        <ele>206.9</ele>
        <time>2020-06-28T06:56:18Z</time>
      </trkpt>
      <trkpt lat="48.82593" lon="7.28143">
        <ele>206.9</ele>
        <time>2020-06-28T06:56:21Z</time>
      </trkpt>
      <trkpt lat="48.82598" lon="7.28142">
        <ele>206.7</ele>
        <time>2020-06-28T06:56:23Z</time>
      </trkpt>
      <trkpt lat="48.82604" lon="7.28143">
        <ele>207.5</ele>
        <time>2020-06-28T06:56:26Z</time>
      </trkpt>
      <trkpt lat="48.8261" lon="7.28142">
        <ele>208</ele>
        <time>2020-06-28T06:56:29Z</time>
      </trkpt>
      <trkpt lat="48.82616" lon="7.2814">
        <ele>208.9</ele>
        <time>2020-06-28T06:56:31Z</time>
      </trkpt>
      <trkpt lat="48.82621" lon="7.28138">
        <ele>209.6</ele>
        <time>2020-06-28T06:56:33Z</time>
      </trkpt>
      <trkpt lat="48.82629" lon="7.28137">
        <ele>210.3</ele>
        <time>2020-06-28T06:56:36Z</time>
      </trkpt>
      <trkpt lat="48.82633" lon="7.28137">
        <ele>210.5</ele>
        <time>2020-06-28T06:56:38Z</time>
      </trkpt>
      <trkpt lat="48.8264" lon="7.28134">
        <ele>212.2</ele>
        <time>2020-06-28T06:56:41Z</time>
      </trkpt>
      <trkpt lat="48.82646" lon="7.28134">
        <ele>213.5</ele>
        <time>2020-06-28T06:56:44Z</time>
      </trkpt>
      <trkpt lat="48.82652" lon="7.28135">
        <ele>214.2</ele>
        <time>2020-06-28T06:56:47Z</time>
      </trkpt>
      <trkpt lat="48.82658" lon="7.28136">
        <ele>214.5</ele>
        <time>2020-06-28T06:56:50Z</time>
      </trkpt>
      <trkpt lat="48.82662" lon="7.28136">
        <ele>214.9</ele>
        <time>2020-06-28T06:56:53Z</time>
      </trkpt>
      <trkpt lat="48.82668" lon="7.28136">
        <ele>216.7</ele>
        <time>2020-06-28T06:56:56Z</time>
      </trkpt>
      <trkpt lat="48.82672" lon="7.28136">
        <ele>217.7</ele>
        <time>2020-06-28T06:56:58Z</time>
      </trkpt>
      <trkpt lat="48.82677" lon="7.28137">
        <ele>218</ele>
        <time>2020-06-28T06:57:00Z</time>
      </trkpt>
      <trkpt lat="48.82682" lon="7.28137">
        <ele>219.1</ele>
        <time>2020-06-28T06:57:02Z</time>
      </trkpt>
      <trkpt lat="48.82687" lon="7.28137">
        <ele>221</ele>
        <time>2020-06-28T06:57:05Z</time>
      </trkpt>
      <trkpt lat="48.82693" lon="7.28138">
        <ele>222.5</ele>
        <time>2020-06-28T06:57:09Z</time>
      </trkpt>
      <trkpt lat="48.82698" lon="7.28138">
        <ele>223.8</ele>
        <time>2020-06-28T06:57:12Z</time>
      </trkpt>
      <trkpt lat="48.82704" lon="7.28139">
        <ele>224.7</ele>
        <time>2020-06-28T06:57:15Z</time>
      </trkpt>
      <trkpt lat="48.82709" lon="7.28139">
        <ele>225.2</ele>
        <time>2020-06-28T06:57:18Z</time>
      </trkpt>
      <trkpt lat="48.82714" lon="7.28139">
        <ele>227.7</ele>
        <time>2020-06-28T06:57:21Z</time>
      </trkpt>
      <trkpt lat="48.8272" lon="7.28141">
        <ele>229.9</ele>
        <time>2020-06-28T06:57:24Z</time>
      </trkpt>
      <trkpt lat="48.82726" lon="7.28142">
        <ele>230.8</ele>
        <time>2020-06-28T06:57:27Z</time>
      </trkpt>
      <trkpt lat="48.8273" lon="7.28142">
        <ele>231.8</ele>
        <time>2020-06-28T06:57:29Z</time>
      </trkpt>
      <trkpt lat="48.82737" lon="7.28141">
        <ele>233.6</ele>
        <time>2020-06-28T06:57:32Z</time>
      </trkpt>
      <trkpt lat="48.82743" lon="7.28139">
        <ele>235.2</ele>
        <time>2020-06-28T06:57:35Z</time>
      </trkpt>
      <trkpt lat="48.82748" lon="7.28138">
        <ele>235.4</ele>
        <time>2020-06-28T06:57:38Z</time>
      </trkpt>
      <trkpt lat="48.82753" lon="7.28138">
        <ele>236.2</ele>
        <time>2020-06-28T06:57:41Z</time>
      </trkpt>
      <trkpt lat="48.82759" lon="7.28139">
        <ele>236.9</ele>
        <time>2020-06-28T06:57:44Z</time>
      </trkpt>
      <trkpt lat="48.82763" lon="7.28137">
        <ele>239.1</ele>
        <time>2020-06-28T06:57:47Z</time>
      </trkpt>
      <trkpt lat="48.82768" lon="7.28136">
        <ele>241.3</ele>
        <time>2020-06-28T06:57:50Z</time>
      </trkpt>
      <trkpt lat="48.82773" lon="7.28136">
        <ele>243.6</ele>
        <time>2020-06-28T06:57:53Z</time>
      </trkpt>
      <trkpt lat="48.82779" lon="7.28134">
        <ele>244.4</ele>
        <time>2020-06-28T06:57:56Z</time>
      </trkpt>
      <trkpt lat="48.82785" lon="7.28133">
        <ele>244.7</ele>
        <time>2020-06-28T06:57:59Z</time>
      </trkpt>
      <trkpt lat="48.82789" lon="7.28132">
        <ele>244.6</ele>
        <time>2020-06-28T06:58:02Z</time>
      </trkpt>
      <trkpt lat="48.82794" lon="7.2813">
        <ele>245.4</ele>
        <time>2020-06-28T06:58:06Z</time>
      </trkpt>
      <trkpt lat="48.82799" lon="7.28129">
        <ele>246.1</ele>
        <time>2020-06-28T06:58:09Z</time>
      </trkpt>
      <trkpt lat="48.82803" lon="7.2813">
        <ele>246</ele>
        <time>2020-06-28T06:58:12Z</time>
      </trkpt>
      <trkpt lat="48.82807" lon="7.28132">
        <ele>246.2</ele>
        <time>2020-06-28T06:58:15Z</time>
      </trkpt>
      <trkpt lat="48.82813" lon="7.28133">
        <ele>246.3</ele>
        <time>2020-06-28T06:58:18Z</time>
      </trkpt>
      <trkpt lat="48.82818" lon="7.2813">
        <ele>248.4</ele>
        <time>2020-06-28T06:58:22Z</time>
      </trkpt>
      <trkpt lat="48.82823" lon="7.28131">
        <ele>249.8</ele>
        <time>2020-06-28T06:58:26Z</time>
      </trkpt>
      <trkpt lat="48.82828" lon="7.28137">
        <ele>250.1</ele>
        <time>2020-06-28T06:58:30Z</time>
      </trkpt>
      <trkpt lat="48.82833" lon="7.28143">
        <ele>249.3</ele>
        <time>2020-06-28T06:58:33Z</time>
      </trkpt>
      <trkpt lat="48.82838" lon="7.2815">
        <ele>250.4</ele>
        <time>2020-06-28T06:58:36Z</time>
      </trkpt>
      <trkpt lat="48.82842" lon="7.28157">
        <ele>252.7</ele>
        <time>2020-06-28T06:58:39Z</time>
      </trkpt>
      <trkpt lat="48.82845" lon="7.28165">
        <ele>253.9</ele>
        <time>2020-06-28T06:58:42Z</time>
      </trkpt>
      <trkpt lat="48.82847" lon="7.28174">
        <ele>254.8</ele>
        <time>2020-06-28T06:58:45Z</time>
      </trkpt>
      <trkpt lat="48.82849" lon="7.28183">
        <ele>255.5</ele>
        <time>2020-06-28T06:58:48Z</time>
      </trkpt>
      <trkpt lat="48.8285" lon="7.2819">
        <ele>255.9</ele>
        <time>2020-06-28T06:58:51Z</time>
      </trkpt>
      <trkpt lat="48.82852" lon="7.28196">
        <ele>256.5</ele>
        <time>2020-06-28T06:58:54Z</time>
      </trkpt>
      <trkpt lat="48.82856" lon="7.28202">
        <ele>257.4</ele>
        <time>2020-06-28T06:58:57Z</time>
      </trkpt>
      <trkpt lat="48.82858" lon="7.2821">
        <ele>257.6</ele>
        <time>2020-06-28T06:59:00Z</time>
      </trkpt>
      <trkpt lat="48.82861" lon="7.28218">
        <ele>257.5</ele>
        <time>2020-06-28T06:59:03Z</time>
      </trkpt>
      <trkpt lat="48.82863" lon="7.28225">
        <ele>258</ele>
        <time>2020-06-28T06:59:06Z</time>
      </trkpt>
      <trkpt lat="48.82866" lon="7.28232">
        <ele>256.8</ele>
        <time>2020-06-28T06:59:10Z</time>
      </trkpt>
      <trkpt lat="48.82871" lon="7.28238">
        <ele>255.5</ele>
        <time>2020-06-28T06:59:13Z</time>
      </trkpt>
      <trkpt lat="48.82875" lon="7.28244">
        <ele>255</ele>
        <time>2020-06-28T06:59:16Z</time>
      </trkpt>
      <trkpt lat="48.8288" lon="7.28249">
        <ele>253.3</ele>
        <time>2020-06-28T06:59:19Z</time>
      </trkpt>
      <trkpt lat="48.82884" lon="7.28256">
        <ele>252.5</ele>
        <time>2020-06-28T06:59:22Z</time>
      </trkpt>
      <trkpt lat="48.82888" lon="7.28262">
        <ele>252.1</ele>
        <time>2020-06-28T06:59:24Z</time>
      </trkpt>
      <trkpt lat="48.82892" lon="7.28266">
        <ele>252.9</ele>
        <time>2020-06-28T06:59:26Z</time>
      </trkpt>
      <trkpt lat="48.82896" lon="7.2827">
        <ele>253.7</ele>
        <time>2020-06-28T06:59:28Z</time>
      </trkpt>
      <trkpt lat="48.82902" lon="7.28274">
        <ele>254.4</ele>
        <time>2020-06-28T06:59:31Z</time>
      </trkpt>
      <trkpt lat="48.82906" lon="7.2828">
        <ele>256</ele>
        <time>2020-06-28T06:59:34Z</time>
      </trkpt>
      <trkpt lat="48.8291" lon="7.28287">
        <ele>257.4</ele>
        <time>2020-06-28T06:59:37Z</time>
      </trkpt>
      <trkpt lat="48.82913" lon="7.28294">
        <ele>258.9</ele>
        <time>2020-06-28T06:59:39Z</time>
      </trkpt>
      <trkpt lat="48.82917" lon="7.283">
        <ele>259.5</ele>
        <time>2020-06-28T06:59:41Z</time>
      </trkpt>
      <trkpt lat="48.8292" lon="7.28308">
        <ele>261.1</ele>
        <time>2020-06-28T06:59:44Z</time>
      </trkpt>
      <trkpt lat="48.82924" lon="7.28315">
        <ele>262.8</ele>
        <time>2020-06-28T06:59:47Z</time>
      </trkpt>
      <trkpt lat="48.82928" lon="7.28323">
        <ele>263.3</ele>
        <time>2020-06-28T06:59:50Z</time>
      </trkpt>
      <trkpt lat="48.82929" lon="7.28331">
        <ele>264</ele>
        <time>2020-06-28T06:59:53Z</time>
      </trkpt>
      <trkpt lat="48.82929" lon="7.2834">
        <ele>265.1</ele>
        <time>2020-06-28T06:59:56Z</time>
      </trkpt>
      <trkpt lat="48.82932" lon="7.28346">
        <ele>266.6</ele>
        <time>2020-06-28T06:59:59Z</time>
      </trkpt>
      <trkpt lat="48.82937" lon="7.2835">
        <ele>267.1</ele>
        <time>2020-06-28T07:00:02Z</time>
      </trkpt>
      <trkpt lat="48.82941" lon="7.28354">
        <ele>268.5</ele>
        <time>2020-06-28T07:00:05Z</time>
      </trkpt>
      <trkpt lat="48.82944" lon="7.28361">
        <ele>269</ele>
        <time>2020-06-28T07:00:08Z</time>
      </trkpt>
      <trkpt lat="48.82948" lon="7.28368">
        <ele>269.2</ele>
        <time>2020-06-28T07:00:11Z</time>
      </trkpt>
      <trkpt lat="48.82951" lon="7.28372">
        <ele>269.7</ele>
        <time>2020-06-28T07:00:13Z</time>
      </trkpt>
      <trkpt lat="48.82956" lon="7.2838">
        <ele>269.6</ele>
        <time>2020-06-28T07:00:16Z</time>
      </trkpt>
      <trkpt lat="48.82957" lon="7.28387">
        <ele>269.6</ele>
        <time>2020-06-28T07:00:18Z</time>
      </trkpt>
      <trkpt lat="48.82959" lon="7.28392">
        <ele>269.9</ele>
        <time>2020-06-28T07:00:20Z</time>
      </trkpt>
      <trkpt lat="48.82962" lon="7.284">
        <ele>271.3</ele>
        <time>2020-06-28T07:00:23Z</time>
      </trkpt>
      <trkpt lat="48.82966" lon="7.28408">
        <ele>271.6</ele>
        <time>2020-06-28T07:00:26Z</time>
      </trkpt>
      <trkpt lat="48.82968" lon="7.28416">
        <ele>271.8</ele>
        <time>2020-06-28T07:00:29Z</time>
      </trkpt>
      <trkpt lat="48.82971" lon="7.28423">
        <ele>274</ele>
        <time>2020-06-28T07:00:32Z</time>
      </trkpt>
      <trkpt lat="48.82977" lon="7.28429">
        <ele>275</ele>
        <time>2020-06-28T07:00:35Z</time>
      </trkpt>
      <trkpt lat="48.82982" lon="7.28435">
        <ele>275.1</ele>
        <time>2020-06-28T07:00:38Z</time>
      </trkpt>
      <trkpt lat="48.82987" lon="7.28441">
        <ele>275.8</ele>
        <time>2020-06-28T07:00:41Z</time>
      </trkpt>
      <trkpt lat="48.8299" lon="7.28446">
        <ele>277.1</ele>
        <time>2020-06-28T07:00:43Z</time>
      </trkpt>
      <trkpt lat="48.82994" lon="7.28452">
        <ele>277.1</ele>
        <time>2020-06-28T07:00:46Z</time>
      </trkpt>
      <trkpt lat="48.82998" lon="7.28459">
        <ele>279</ele>
        <time>2020-06-28T07:00:49Z</time>
      </trkpt>
      <trkpt lat="48.83001" lon="7.28464">
        <ele>280.5</ele>
        <time>2020-06-28T07:00:52Z</time>
      </trkpt>
      <trkpt lat="48.83004" lon="7.28472">
        <ele>281.2</ele>
        <time>2020-06-28T07:00:55Z</time>
      </trkpt>
      <trkpt lat="48.83007" lon="7.28477">
        <ele>281.9</ele>
        <time>2020-06-28T07:00:57Z</time>
      </trkpt>
      <trkpt lat="48.8301" lon="7.28483">
        <ele>282.2</ele>
        <time>2020-06-28T07:00:59Z</time>
      </trkpt>
      <trkpt lat="48.83012" lon="7.2849">
        <ele>282.4</ele>
        <time>2020-06-28T07:01:02Z</time>
      </trkpt>
      <trkpt lat="48.83013" lon="7.28498">
        <ele>282</ele>
        <time>2020-06-28T07:01:05Z</time>
      </trkpt>
      <trkpt lat="48.83014" lon="7.28505">
        <ele>282</ele>
        <time>2020-06-28T07:01:08Z</time>
      </trkpt>
      <trkpt lat="48.83014" lon="7.28513">
        <ele>282.3</ele>
        <time>2020-06-28T07:01:11Z</time>
      </trkpt>
      <trkpt lat="48.83015" lon="7.2852">
        <ele>282.9</ele>
        <time>2020-06-28T07:01:14Z</time>
      </trkpt>
      <trkpt lat="48.83018" lon="7.28527">
        <ele>285.4</ele>
        <time>2020-06-28T07:01:18Z</time>
      </trkpt>
      <trkpt lat="48.8302" lon="7.28533">
        <ele>286.5</ele>
        <time>2020-06-28T07:01:21Z</time>
      </trkpt>
      <trkpt lat="48.83024" lon="7.2854">
        <ele>287</ele>
        <time>2020-06-28T07:01:24Z</time>
      </trkpt>
      <trkpt lat="48.83028" lon="7.28548">
        <ele>287.6</ele>
        <time>2020-06-28T07:01:27Z</time>
      </trkpt>
      <trkpt lat="48.83031" lon="7.28557">
        <ele>287.4</ele>
        <time>2020-06-28T07:01:30Z</time>
      </trkpt>
      <trkpt lat="48.83034" lon="7.28565">
        <ele>288.1</ele>
        <time>2020-06-28T07:01:33Z</time>
      </trkpt>
      <trkpt lat="48.83036" lon="7.28572">
        <ele>288.2</ele>
        <time>2020-06-28T07:01:36Z</time>
      </trkpt>
      <trkpt lat="48.83037" lon="7.28579">
        <ele>288.7</ele>
        <time>2020-06-28T07:01:39Z</time>
      </trkpt>
      <trkpt lat="48.8304" lon="7.28587">
        <ele>289.3</ele>
        <time>2020-06-28T07:01:42Z</time>
      </trkpt>
      <trkpt lat="48.83044" lon="7.28592">
        <ele>290.7</ele>
        <time>2020-06-28T07:01:45Z</time>
      </trkpt>
      <trkpt lat="48.83048" lon="7.28597">
        <ele>292.1</ele>
        <time>2020-06-28T07:01:48Z</time>
      </trkpt>
      <trkpt lat="48.83051" lon="7.28604">
        <ele>292.7</ele>
        <time>2020-06-28T07:01:51Z</time>
      </trkpt>
      <trkpt lat="48.83053" lon="7.28611">
        <ele>293.4</ele>
        <time>2020-06-28T07:01:54Z</time>
      </trkpt>
      <trkpt lat="48.83057" lon="7.28617">
        <ele>293.9</ele>
        <time>2020-06-28T07:01:57Z</time>
      </trkpt>
      <trkpt lat="48.83061" lon="7.28623">
        <ele>294.8</ele>
        <time>2020-06-28T07:02:00Z</time>
      </trkpt>
      <trkpt lat="48.83064" lon="7.2863">
        <ele>295.2</ele>
        <time>2020-06-28T07:02:04Z</time>
      </trkpt>
      <trkpt lat="48.83068" lon="7.28636">
        <ele>295.2</ele>
        <time>2020-06-28T07:02:07Z</time>
      </trkpt>
      <trkpt lat="48.83071" lon="7.28642">
        <ele>295.7</ele>
        <time>2020-06-28T07:02:10Z</time>
      </trkpt>
      <trkpt lat="48.83072" lon="7.28649">
        <ele>295.6</ele>
        <time>2020-06-28T07:02:13Z</time>
      </trkpt>
      <trkpt lat="48.83073" lon="7.28657">
        <ele>297.3</ele>
        <time>2020-06-28T07:02:16Z</time>
      </trkpt>
      <trkpt lat="48.83074" lon="7.28665">
        <ele>298.2</ele>
        <time>2020-06-28T07:02:20Z</time>
      </trkpt>
      <trkpt lat="48.83076" lon="7.28672">
        <ele>298.2</ele>
        <time>2020-06-28T07:02:24Z</time>
      </trkpt>
      <trkpt lat="48.83081" lon="7.28677">
        <ele>299</ele>
        <time>2020-06-28T07:02:27Z</time>
      </trkpt>
      <trkpt lat="48.83085" lon="7.28682">
        <ele>298.9</ele>
        <time>2020-06-28T07:02:30Z</time>
      </trkpt>
      <trkpt lat="48.83089" lon="7.28689">
        <ele>298.5</ele>
        <time>2020-06-28T07:02:33Z</time>
      </trkpt>
      <trkpt lat="48.83091" lon="7.28697">
        <ele>297.9</ele>
        <time>2020-06-28T07:02:36Z</time>
      </trkpt>
      <trkpt lat="48.83093" lon="7.28704">
        <ele>297.8</ele>
        <time>2020-06-28T07:02:38Z</time>
      </trkpt>
      <trkpt lat="48.83096" lon="7.28709">
        <ele>298.2</ele>
        <time>2020-06-28T07:02:40Z</time>
      </trkpt>
      <trkpt lat="48.831" lon="7.28718">
        <ele>297.4</ele>
        <time>2020-06-28T07:02:43Z</time>
      </trkpt>
      <trkpt lat="48.83101" lon="7.28726">
        <ele>296.7</ele>
        <time>2020-06-28T07:02:46Z</time>
      </trkpt>
      <trkpt lat="48.83103" lon="7.28735">
        <ele>296.3</ele>
        <time>2020-06-28T07:02:49Z</time>
      </trkpt>
      <trkpt lat="48.83104" lon="7.28742">
        <ele>297.4</ele>
        <time>2020-06-28T07:02:52Z</time>
      </trkpt>
      <trkpt lat="48.83106" lon="7.28751">
        <ele>297.8</ele>
        <time>2020-06-28T07:02:56Z</time>
      </trkpt>
      <trkpt lat="48.83109" lon="7.28759">
        <ele>296.9</ele>
        <time>2020-06-28T07:02:59Z</time>
      </trkpt>
      <trkpt lat="48.83111" lon="7.28766">
        <ele>296</ele>
        <time>2020-06-28T07:03:02Z</time>
      </trkpt>
      <trkpt lat="48.83112" lon="7.28774">
        <ele>294.8</ele>
        <time>2020-06-28T07:03:05Z</time>
      </trkpt>
      <trkpt lat="48.83113" lon="7.28781">
        <ele>294</ele>
        <time>2020-06-28T07:03:08Z</time>
      </trkpt>
      <trkpt lat="48.83114" lon="7.28789">
        <ele>294.3</ele>
        <time>2020-06-28T07:03:11Z</time>
      </trkpt>
      <trkpt lat="48.83113" lon="7.28797">
        <ele>294.4</ele>
        <time>2020-06-28T07:03:14Z</time>
      </trkpt>
      <trkpt lat="48.83113" lon="7.28804">
        <ele>298.5</ele>
        <time>2020-06-28T07:03:21Z</time>
      </trkpt>
      <trkpt lat="48.83116" lon="7.28808">
        <ele>302.3</ele>
        <time>2020-06-28T07:03:26Z</time>
      </trkpt>
      <trkpt lat="48.83119" lon="7.28814">
        <ele>306.6</ele>
        <time>2020-06-28T07:03:39Z</time>
      </trkpt>
      <trkpt lat="48.8312" lon="7.28821">
        <ele>308.2</ele>
        <time>2020-06-28T07:03:44Z</time>
      </trkpt>
      <trkpt lat="48.83121" lon="7.2883">
        <ele>308.6</ele>
        <time>2020-06-28T07:03:48Z</time>
      </trkpt>
      <trkpt lat="48.8312" lon="7.28838">
        <ele>308.1</ele>
        <time>2020-06-28T07:03:51Z</time>
      </trkpt>
      <trkpt lat="48.83119" lon="7.28847">
        <ele>305.4</ele>
        <time>2020-06-28T07:03:54Z</time>
      </trkpt>
      <trkpt lat="48.83118" lon="7.28857">
        <ele>301.2</ele>
        <time>2020-06-28T07:03:57Z</time>
      </trkpt>
      <trkpt lat="48.83117" lon="7.28864">
        <ele>300</ele>
        <time>2020-06-28T07:03:59Z</time>
      </trkpt>
      <trkpt lat="48.83116" lon="7.28871">
        <ele>299.2</ele>
        <time>2020-06-28T07:04:02Z</time>
      </trkpt>
      <trkpt lat="48.83118" lon="7.28879">
        <ele>298.7</ele>
        <time>2020-06-28T07:04:06Z</time>
      </trkpt>
      <trkpt lat="48.83121" lon="7.28884">
        <ele>299.3</ele>
        <time>2020-06-28T07:04:11Z</time>
      </trkpt>
      <trkpt lat="48.83123" lon="7.28891">
        <ele>302.5</ele>
        <time>2020-06-28T07:04:20Z</time>
      </trkpt>
      <trkpt lat="48.83125" lon="7.28899">
        <ele>305.1</ele>
        <time>2020-06-28T07:04:24Z</time>
      </trkpt>
      <trkpt lat="48.83125" lon="7.28906">
        <ele>305.3</ele>
        <time>2020-06-28T07:04:28Z</time>
      </trkpt>
      <trkpt lat="48.83124" lon="7.28915">
        <ele>303.9</ele>
        <time>2020-06-28T07:04:32Z</time>
      </trkpt>
      <trkpt lat="48.83124" lon="7.28922">
        <ele>304</ele>
        <time>2020-06-28T07:04:35Z</time>
      </trkpt>
      <trkpt lat="48.83122" lon="7.28929">
        <ele>304.9</ele>
        <time>2020-06-28T07:04:38Z</time>
      </trkpt>
      <trkpt lat="48.83121" lon="7.28938">
        <ele>304.1</ele>
        <time>2020-06-28T07:04:42Z</time>
      </trkpt>
      <trkpt lat="48.83122" lon="7.28945">
        <ele>303.8</ele>
        <time>2020-06-28T07:04:45Z</time>
      </trkpt>
      <trkpt lat="48.83123" lon="7.28953">
        <ele>304.3</ele>
        <time>2020-06-28T07:04:48Z</time>
      </trkpt>
      <trkpt lat="48.83124" lon="7.2896">
        <ele>304.2</ele>
        <time>2020-06-28T07:04:51Z</time>
      </trkpt>
      <trkpt lat="48.83124" lon="7.28969">
        <ele>303.7</ele>
        <time>2020-06-28T07:04:54Z</time>
      </trkpt>
      <trkpt lat="48.83124" lon="7.28979">
        <ele>303.6</ele>
        <time>2020-06-28T07:04:57Z</time>
      </trkpt>
      <trkpt lat="48.83123" lon="7.28986">
        <ele>302.5</ele>
        <time>2020-06-28T07:04:59Z</time>
      </trkpt>
      <trkpt lat="48.83124" lon="7.28993">
        <ele>303.2</ele>
        <time>2020-06-28T07:05:02Z</time>
      </trkpt>
      <trkpt lat="48.83126" lon="7.29001">
        <ele>303.8</ele>
        <time>2020-06-28T07:05:05Z</time>
      </trkpt>
      <trkpt lat="48.83127" lon="7.29009">
        <ele>304.4</ele>
        <time>2020-06-28T07:05:08Z</time>
      </trkpt>
      <trkpt lat="48.83128" lon="7.29017">
        <ele>305.8</ele>
        <time>2020-06-28T07:05:11Z</time>
      </trkpt>
      <trkpt lat="48.8313" lon="7.29024">
        <ele>307.9</ele>
        <time>2020-06-28T07:05:14Z</time>
      </trkpt>
      <trkpt lat="48.83134" lon="7.29029">
        <ele>309.4</ele>
        <time>2020-06-28T07:05:16Z</time>
      </trkpt>
      <trkpt lat="48.83137" lon="7.29033">
        <ele>311.1</ele>
        <time>2020-06-28T07:05:18Z</time>
      </trkpt>
      <trkpt lat="48.83143" lon="7.29038">
        <ele>313.5</ele>
        <time>2020-06-28T07:05:21Z</time>
      </trkpt>
      <trkpt lat="48.83146" lon="7.29044">
        <ele>315.9</ele>
        <time>2020-06-28T07:05:24Z</time>
      </trkpt>
      <trkpt lat="48.83149" lon="7.29051">
        <ele>317.4</ele>
        <time>2020-06-28T07:05:27Z</time>
      </trkpt>
      <trkpt lat="48.83153" lon="7.29056">
        <ele>318.8</ele>
        <time>2020-06-28T07:05:30Z</time>
      </trkpt>
      <trkpt lat="48.83158" lon="7.29058">
        <ele>320.3</ele>
        <time>2020-06-28T07:05:33Z</time>
      </trkpt>
      <trkpt lat="48.83163" lon="7.29058">
        <ele>321.3</ele>
        <time>2020-06-28T07:05:36Z</time>
      </trkpt>
      <trkpt lat="48.83169" lon="7.29055">
        <ele>322.8</ele>
        <time>2020-06-28T07:05:39Z</time>
      </trkpt>
      <trkpt lat="48.83174" lon="7.29052">
        <ele>322.4</ele>
        <time>2020-06-28T07:05:42Z</time>
      </trkpt>
      <trkpt lat="48.83179" lon="7.2905">
        <ele>321.3</ele>
        <time>2020-06-28T07:05:46Z</time>
      </trkpt>
      <trkpt lat="48.83184" lon="7.29046">
        <ele>322.3</ele>
        <time>2020-06-28T07:05:50Z</time>
      </trkpt>
      <trkpt lat="48.8319" lon="7.29043">
        <ele>323.8</ele>
        <time>2020-06-28T07:05:53Z</time>
      </trkpt>
      <trkpt lat="48.83195" lon="7.2904">
        <ele>325.3</ele>
        <time>2020-06-28T07:05:56Z</time>
      </trkpt>
      <trkpt lat="48.832" lon="7.29041">
        <ele>326</ele>
        <time>2020-06-28T07:06:00Z</time>
      </trkpt>
      <trkpt lat="48.83201" lon="7.29049">
        <ele>325.7</ele>
        <time>2020-06-28T07:06:04Z</time>
      </trkpt>
      <trkpt lat="48.832" lon="7.29056">
        <ele>325.7</ele>
        <time>2020-06-28T07:06:07Z</time>
      </trkpt>
      <trkpt lat="48.83199" lon="7.29065">
        <ele>325.1</ele>
        <time>2020-06-28T07:06:11Z</time>
      </trkpt>
      <trkpt lat="48.832" lon="7.29072">
        <ele>325</ele>
        <time>2020-06-28T07:06:14Z</time>
      </trkpt>
      <trkpt lat="48.83205" lon="7.29076">
        <ele>325.7</ele>
        <time>2020-06-28T07:06:17Z</time>
      </trkpt>
      <trkpt lat="48.83211" lon="7.29079">
        <ele>326.5</ele>
        <time>2020-06-28T07:06:20Z</time>
      </trkpt>
      <trkpt lat="48.83218" lon="7.29081">
        <ele>327.4</ele>
        <time>2020-06-28T07:06:23Z</time>
      </trkpt>
      <trkpt lat="48.83223" lon="7.29082">
        <ele>327.6</ele>
        <time>2020-06-28T07:06:26Z</time>
      </trkpt>
      <trkpt lat="48.8323" lon="7.29085">
        <ele>327.7</ele>
        <time>2020-06-28T07:06:29Z</time>
      </trkpt>
      <trkpt lat="48.83235" lon="7.29089">
        <ele>327.8</ele>
        <time>2020-06-28T07:06:32Z</time>
      </trkpt>
      <trkpt lat="48.83238" lon="7.29096">
        <ele>329.1</ele>
        <time>2020-06-28T07:06:35Z</time>
      </trkpt>
      <trkpt lat="48.83242" lon="7.29104">
        <ele>330</ele>
        <time>2020-06-28T07:06:38Z</time>
      </trkpt>
      <trkpt lat="48.83247" lon="7.29111">
        <ele>330.3</ele>
        <time>2020-06-28T07:06:41Z</time>
      </trkpt>
      <trkpt lat="48.8325" lon="7.29118">
        <ele>330.9</ele>
        <time>2020-06-28T07:06:44Z</time>
      </trkpt>
      <trkpt lat="48.83253" lon="7.29126">
        <ele>330.7</ele>
        <time>2020-06-28T07:06:47Z</time>
      </trkpt>
      <trkpt lat="48.83256" lon="7.29134">
        <ele>330.9</ele>
        <time>2020-06-28T07:06:50Z</time>
      </trkpt>
      <trkpt lat="48.83259" lon="7.29142">
        <ele>330.7</ele>
        <time>2020-06-28T07:06:53Z</time>
      </trkpt>
      <trkpt lat="48.83263" lon="7.29149">
        <ele>330.6</ele>
        <time>2020-06-28T07:06:56Z</time>
      </trkpt>
      <trkpt lat="48.83267" lon="7.29155">
        <ele>330.9</ele>
        <time>2020-06-28T07:06:59Z</time>
      </trkpt>
      <trkpt lat="48.83269" lon="7.29162">
        <ele>331.6</ele>
        <time>2020-06-28T07:07:02Z</time>
      </trkpt>
      <trkpt lat="48.83269" lon="7.2917">
        <ele>332.5</ele>
        <time>2020-06-28T07:07:05Z</time>
      </trkpt>
      <trkpt lat="48.83268" lon="7.29179">
        <ele>333.6</ele>
        <time>2020-06-28T07:07:08Z</time>
      </trkpt>
      <trkpt lat="48.83267" lon="7.29186">
        <ele>334.4</ele>
        <time>2020-06-28T07:07:10Z</time>
      </trkpt>
      <trkpt lat="48.83266" lon="7.29195">
        <ele>335.2</ele>
        <time>2020-06-28T07:07:13Z</time>
      </trkpt>
      <trkpt lat="48.83268" lon="7.29201">
        <ele>335.5</ele>
        <time>2020-06-28T07:07:16Z</time>
      </trkpt>
      <trkpt lat="48.83271" lon="7.29206">
        <ele>336.2</ele>
        <time>2020-06-28T07:07:19Z</time>
      </trkpt>
      <trkpt lat="48.83274" lon="7.29212">
        <ele>336.2</ele>
        <time>2020-06-28T07:07:22Z</time>
      </trkpt>
      <trkpt lat="48.83279" lon="7.29217">
        <ele>336.8</ele>
        <time>2020-06-28T07:07:26Z</time>
      </trkpt>
      <trkpt lat="48.83282" lon="7.29223">
        <ele>336.5</ele>
        <time>2020-06-28T07:07:30Z</time>
      </trkpt>
      <trkpt lat="48.83284" lon="7.29231">
        <ele>335.8</ele>
        <time>2020-06-28T07:07:34Z</time>
      </trkpt>
      <trkpt lat="48.83287" lon="7.29238">
        <ele>335.9</ele>
        <time>2020-06-28T07:07:38Z</time>
      </trkpt>
      <trkpt lat="48.83289" lon="7.29244">
        <ele>334.3</ele>
        <time>2020-06-28T07:07:42Z</time>
      </trkpt>
      <trkpt lat="48.83293" lon="7.2925">
        <ele>335.1</ele>
        <time>2020-06-28T07:07:46Z</time>
      </trkpt>
      <trkpt lat="48.83298" lon="7.29256">
        <ele>336.2</ele>
        <time>2020-06-28T07:07:49Z</time>
      </trkpt>
      <trkpt lat="48.83299" lon="7.29264">
        <ele>337.1</ele>
        <time>2020-06-28T07:07:52Z</time>
      </trkpt>
      <trkpt lat="48.83299" lon="7.29271">
        <ele>342</ele>
        <time>2020-06-28T07:08:02Z</time>
      </trkpt>
      <trkpt lat="48.83302" lon="7.29276">
        <ele>344.3</ele>
        <time>2020-06-28T07:08:07Z</time>
      </trkpt>
      <trkpt lat="48.83304" lon="7.29283">
        <ele>345.4</ele>
        <time>2020-06-28T07:08:14Z</time>
      </trkpt>
      <trkpt lat="48.83304" lon="7.29291">
        <ele>346.2</ele>
        <time>2020-06-28T07:08:18Z</time>
      </trkpt>
      <trkpt lat="48.83305" lon="7.29298">
        <ele>346.2</ele>
        <time>2020-06-28T07:08:21Z</time>
      </trkpt>
      <trkpt lat="48.83305" lon="7.29306">
        <ele>345.6</ele>
        <time>2020-06-28T07:08:24Z</time>
      </trkpt>
      <trkpt lat="48.83305" lon="7.29314">
        <ele>344.5</ele>
        <time>2020-06-28T07:08:27Z</time>
      </trkpt>
      <trkpt lat="48.83306" lon="7.29324">
        <ele>344.1</ele>
        <time>2020-06-28T07:08:30Z</time>
      </trkpt>
      <trkpt lat="48.83308" lon="7.29331">
        <ele>344.2</ele>
        <time>2020-06-28T07:08:32Z</time>
      </trkpt>
      <trkpt lat="48.83311" lon="7.29339">
        <ele>344.3</ele>
        <time>2020-06-28T07:08:35Z</time>
      </trkpt>
      <trkpt lat="48.83315" lon="7.29346">
        <ele>345</ele>
        <time>2020-06-28T07:08:38Z</time>
      </trkpt>
      <trkpt lat="48.83318" lon="7.29352">
        <ele>345.3</ele>
        <time>2020-06-28T07:08:40Z</time>
      </trkpt>
      <trkpt lat="48.83321" lon="7.2936">
        <ele>346.4</ele>
        <time>2020-06-28T07:08:43Z</time>
      </trkpt>
      <trkpt lat="48.83322" lon="7.29367">
        <ele>346.7</ele>
        <time>2020-06-28T07:08:46Z</time>
      </trkpt>
      <trkpt lat="48.83324" lon="7.29374">
        <ele>347.4</ele>
        <time>2020-06-28T07:08:49Z</time>
      </trkpt>
      <trkpt lat="48.83329" lon="7.29381">
        <ele>348</ele>
        <time>2020-06-28T07:08:52Z</time>
      </trkpt>
      <trkpt lat="48.83334" lon="7.29387">
        <ele>348.2</ele>
        <time>2020-06-28T07:08:55Z</time>
      </trkpt>
      <trkpt lat="48.83339" lon="7.29394">
        <ele>348.4</ele>
        <time>2020-06-28T07:08:58Z</time>
      </trkpt>
      <trkpt lat="48.83342" lon="7.29401">
        <ele>348.8</ele>
        <time>2020-06-28T07:09:01Z</time>
      </trkpt>
      <trkpt lat="48.83343" lon="7.2941">
        <ele>349.1</ele>
        <time>2020-06-28T07:09:04Z</time>
      </trkpt>
      <trkpt lat="48.83347" lon="7.29419">
        <ele>349.1</ele>
        <time>2020-06-28T07:09:07Z</time>
      </trkpt>
      <trkpt lat="48.83351" lon="7.29426">
        <ele>349</ele>
        <time>2020-06-28T07:09:10Z</time>
      </trkpt>
      <trkpt lat="48.83355" lon="7.29433">
        <ele>349.8</ele>
        <time>2020-06-28T07:09:13Z</time>
      </trkpt>
      <trkpt lat="48.83359" lon="7.29438">
        <ele>351.5</ele>
        <time>2020-06-28T07:09:16Z</time>
      </trkpt>
      <trkpt lat="48.83365" lon="7.29443">
        <ele>353.1</ele>
        <time>2020-06-28T07:09:19Z</time>
      </trkpt>
      <trkpt lat="48.8337" lon="7.29447">
        <ele>354.5</ele>
        <time>2020-06-28T07:09:22Z</time>
      </trkpt>
      <trkpt lat="48.83376" lon="7.29452">
        <ele>356.3</ele>
        <time>2020-06-28T07:09:25Z</time>
      </trkpt>
      <trkpt lat="48.83381" lon="7.29456">
        <ele>358.2</ele>
        <time>2020-06-28T07:09:28Z</time>
      </trkpt>
      <trkpt lat="48.83386" lon="7.29463">
        <ele>358.6</ele>
        <time>2020-06-28T07:09:31Z</time>
      </trkpt>
      <trkpt lat="48.83391" lon="7.29469">
        <ele>358.6</ele>
        <time>2020-06-28T07:09:34Z</time>
      </trkpt>
      <trkpt lat="48.83396" lon="7.29475">
        <ele>358.7</ele>
        <time>2020-06-28T07:09:37Z</time>
      </trkpt>
      <trkpt lat="48.834" lon="7.2948">
        <ele>357.8</ele>
        <time>2020-06-28T07:09:40Z</time>
      </trkpt>
      <trkpt lat="48.83405" lon="7.29485">
        <ele>358.1</ele>
        <time>2020-06-28T07:09:43Z</time>
      </trkpt>
      <trkpt lat="48.8341" lon="7.2949">
        <ele>358.7</ele>
        <time>2020-06-28T07:09:46Z</time>
      </trkpt>
      <trkpt lat="48.83415" lon="7.29494">
        <ele>359.5</ele>
        <time>2020-06-28T07:09:49Z</time>
      </trkpt>
      <trkpt lat="48.83419" lon="7.29498">
        <ele>360</ele>
        <time>2020-06-28T07:09:52Z</time>
      </trkpt>
      <trkpt lat="48.83424" lon="7.29501">
        <ele>360.3</ele>
        <time>2020-06-28T07:09:55Z</time>
      </trkpt>
      <trkpt lat="48.83428" lon="7.29503">
        <ele>361.2</ele>
        <time>2020-06-28T07:09:58Z</time>
      </trkpt>
      <trkpt lat="48.83434" lon="7.29507">
        <ele>362.5</ele>
        <time>2020-06-28T07:10:01Z</time>
      </trkpt>
      <trkpt lat="48.83438" lon="7.29511">
        <ele>363.1</ele>
        <time>2020-06-28T07:10:03Z</time>
      </trkpt>
      <trkpt lat="48.83442" lon="7.29517">
        <ele>363.4</ele>
        <time>2020-06-28T07:10:06Z</time>
      </trkpt>
      <trkpt lat="48.83445" lon="7.29524">
        <ele>363.7</ele>
        <time>2020-06-28T07:10:09Z</time>
      </trkpt>
      <trkpt lat="48.83449" lon="7.29531">
        <ele>364</ele>
        <time>2020-06-28T07:10:12Z</time>
      </trkpt>
      <trkpt lat="48.83452" lon="7.29537">
        <ele>364.4</ele>
        <time>2020-06-28T07:10:14Z</time>
      </trkpt>
      <trkpt lat="48.83456" lon="7.29542">
        <ele>364.8</ele>
        <time>2020-06-28T07:10:16Z</time>
      </trkpt>
      <trkpt lat="48.8346" lon="7.29547">
        <ele>364.6</ele>
        <time>2020-06-28T07:10:18Z</time>
      </trkpt>
      <trkpt lat="48.83464" lon="7.29552">
        <ele>364.9</ele>
        <time>2020-06-28T07:10:20Z</time>
      </trkpt>
      <trkpt lat="48.83467" lon="7.29557">
        <ele>365.5</ele>
        <time>2020-06-28T07:10:22Z</time>
      </trkpt>
      <trkpt lat="48.83471" lon="7.29562">
        <ele>366</ele>
        <time>2020-06-28T07:10:24Z</time>
      </trkpt>
      <trkpt lat="48.83477" lon="7.29567">
        <ele>367.5</ele>
        <time>2020-06-28T07:10:27Z</time>
      </trkpt>
      <trkpt lat="48.83482" lon="7.29572">
        <ele>367.8</ele>
        <time>2020-06-28T07:10:30Z</time>
      </trkpt>
      <trkpt lat="48.83486" lon="7.29579">
        <ele>367.4</ele>
        <time>2020-06-28T07:10:33Z</time>
      </trkpt>
      <trkpt lat="48.83492" lon="7.29585">
        <ele>367.5</ele>
        <time>2020-06-28T07:10:36Z</time>
      </trkpt>
      <trkpt lat="48.83497" lon="7.29591">
        <ele>367.3</ele>
        <time>2020-06-28T07:10:39Z</time>
      </trkpt>
      <trkpt lat="48.83502" lon="7.29597">
        <ele>368.2</ele>
        <time>2020-06-28T07:10:42Z</time>
      </trkpt>
      <trkpt lat="48.83506" lon="7.29602">
        <ele>368.8</ele>
        <time>2020-06-28T07:10:44Z</time>
      </trkpt>
      <trkpt lat="48.8351" lon="7.29609">
        <ele>369</ele>
        <time>2020-06-28T07:10:47Z</time>
      </trkpt>
      <trkpt lat="48.83513" lon="7.29617">
        <ele>370</ele>
        <time>2020-06-28T07:10:50Z</time>
      </trkpt>
      <trkpt lat="48.83517" lon="7.29623">
        <ele>370.6</ele>
        <time>2020-06-28T07:10:52Z</time>
      </trkpt>
      <trkpt lat="48.8352" lon="7.29627">
        <ele>370.9</ele>
        <time>2020-06-28T07:10:54Z</time>
      </trkpt>
      <trkpt lat="48.83525" lon="7.29635">
        <ele>371.5</ele>
        <time>2020-06-28T07:10:57Z</time>
      </trkpt>
      <trkpt lat="48.83528" lon="7.2964">
        <ele>371.9</ele>
        <time>2020-06-28T07:10:59Z</time>
      </trkpt>
      <trkpt lat="48.83532" lon="7.29646">
        <ele>372.2</ele>
        <time>2020-06-28T07:11:01Z</time>
      </trkpt>
      <trkpt lat="48.83535" lon="7.29651">
        <ele>372.7</ele>
        <time>2020-06-28T07:11:03Z</time>
      </trkpt>
      <trkpt lat="48.83538" lon="7.29655">
        <ele>373.1</ele>
        <time>2020-06-28T07:11:05Z</time>
      </trkpt>
      <trkpt lat="48.83544" lon="7.29661">
        <ele>373.6</ele>
        <time>2020-06-28T07:11:08Z</time>
      </trkpt>
      <trkpt lat="48.83549" lon="7.29667">
        <ele>373.3</ele>
        <time>2020-06-28T07:11:11Z</time>
      </trkpt>
      <trkpt lat="48.83553" lon="7.29671">
        <ele>373.5</ele>
        <time>2020-06-28T07:11:14Z</time>
      </trkpt>
      <trkpt lat="48.83558" lon="7.29677">
        <ele>373.6</ele>
        <time>2020-06-28T07:11:17Z</time>
      </trkpt>
      <trkpt lat="48.83563" lon="7.29682">
        <ele>373.8</ele>
        <time>2020-06-28T07:11:20Z</time>
      </trkpt>
      <trkpt lat="48.83568" lon="7.29686">
        <ele>373.3</ele>
        <time>2020-06-28T07:11:23Z</time>
      </trkpt>
      <trkpt lat="48.83572" lon="7.2969">
        <ele>372.9</ele>
        <time>2020-06-28T07:11:25Z</time>
      </trkpt>
      <trkpt lat="48.83576" lon="7.29695">
        <ele>372.2</ele>
        <time>2020-06-28T07:11:27Z</time>
      </trkpt>
      <trkpt lat="48.83581" lon="7.29703">
        <ele>371.9</ele>
        <time>2020-06-28T07:11:29Z</time>
      </trkpt>
      <trkpt lat="48.83585" lon="7.29711">
        <ele>371.5</ele>
        <time>2020-06-28T07:11:31Z</time>
      </trkpt>
      <trkpt lat="48.83589" lon="7.29718">
        <ele>371.5</ele>
        <time>2020-06-28T07:11:33Z</time>
      </trkpt>
      <trkpt lat="48.83593" lon="7.29725">
        <ele>371.5</ele>
        <time>2020-06-28T07:11:35Z</time>
      </trkpt>
      <trkpt lat="48.83597" lon="7.29734">
        <ele>371.2</ele>
        <time>2020-06-28T07:11:37Z</time>
      </trkpt>
      <trkpt lat="48.83598" lon="7.29744">
        <ele>370.7</ele>
        <time>2020-06-28T07:11:39Z</time>
      </trkpt>
      <trkpt lat="48.83599" lon="7.29751">
        <ele>370.3</ele>
        <time>2020-06-28T07:11:45Z</time>
      </trkpt>
      <trkpt lat="48.836" lon="7.29761">
        <ele>370.7</ele>
        <time>2020-06-28T07:11:53Z</time>
      </trkpt>
      <trkpt lat="48.83598" lon="7.2977">
        <ele>371.4</ele>
        <time>2020-06-28T07:11:56Z</time>
      </trkpt>
      <trkpt lat="48.83599" lon="7.2978">
        <ele>372.4</ele>
        <time>2020-06-28T07:12:15Z</time>
      </trkpt>
      <trkpt lat="48.83598" lon="7.29792">
        <ele>371.9</ele>
        <time>2020-06-28T07:12:17Z</time>
      </trkpt>
      <trkpt lat="48.83597" lon="7.29805">
        <ele>371.2</ele>
        <time>2020-06-28T07:12:19Z</time>
      </trkpt>
      <trkpt lat="48.83598" lon="7.29816">
        <ele>361</ele>
        <time>2020-06-28T07:12:21Z</time>
      </trkpt>
      <trkpt lat="48.83602" lon="7.29825">
        <ele>359.5</ele>
        <time>2020-06-28T07:12:23Z</time>
      </trkpt>
      <trkpt lat="48.8361" lon="7.2983">
        <ele>359.6</ele>
        <time>2020-06-28T07:12:25Z</time>
      </trkpt>
      <trkpt lat="48.83618" lon="7.2983">
        <ele>359.3</ele>
        <time>2020-06-28T07:12:27Z</time>
      </trkpt>
      <trkpt lat="48.83625" lon="7.29828">
        <ele>359.7</ele>
        <time>2020-06-28T07:12:29Z</time>
      </trkpt>
      <trkpt lat="48.83634" lon="7.29825">
        <ele>360.4</ele>
        <time>2020-06-28T07:12:31Z</time>
      </trkpt>
      <trkpt lat="48.83646" lon="7.2982">
        <ele>361.5</ele>
        <time>2020-06-28T07:12:33Z</time>
      </trkpt>
      <trkpt lat="48.83658" lon="7.29814">
        <ele>362.4</ele>
        <time>2020-06-28T07:12:35Z</time>
      </trkpt>
      <trkpt lat="48.83671" lon="7.29813">
        <ele>363.2</ele>
        <time>2020-06-28T07:12:37Z</time>
      </trkpt>
      <trkpt lat="48.83686" lon="7.29812">
        <ele>363.1</ele>
        <time>2020-06-28T07:12:39Z</time>
      </trkpt>
      <trkpt lat="48.83699" lon="7.29812">
        <ele>363</ele>
        <time>2020-06-28T07:12:41Z</time>
      </trkpt>
      <trkpt lat="48.83711" lon="7.29814">
        <ele>362.6</ele>
        <time>2020-06-28T07:12:43Z</time>
      </trkpt>
      <trkpt lat="48.83722" lon="7.29813">
        <ele>354.1</ele>
        <time>2020-06-28T07:12:45Z</time>
      </trkpt>
      <trkpt lat="48.83742" lon="7.29816">
        <ele>354</ele>
        <time>2020-06-28T07:12:48Z</time>
      </trkpt>
      <trkpt lat="48.83754" lon="7.29818">
        <ele>352.6</ele>
        <time>2020-06-28T07:12:50Z</time>
      </trkpt>
      <trkpt lat="48.83767" lon="7.2982">
        <ele>353.1</ele>
        <time>2020-06-28T07:12:52Z</time>
      </trkpt>
      <trkpt lat="48.83783" lon="7.29819">
        <ele>352.1</ele>
        <time>2020-06-28T07:12:54Z</time>
      </trkpt>
      <trkpt lat="48.83794" lon="7.29822">
        <ele>350.5</ele>
        <time>2020-06-28T07:12:56Z</time>
      </trkpt>
      <trkpt lat="48.83801" lon="7.29824">
        <ele>349.2</ele>
        <time>2020-06-28T07:12:58Z</time>
      </trkpt>
      <trkpt lat="48.83808" lon="7.29825">
        <ele>348.3</ele>
        <time>2020-06-28T07:13:00Z</time>
      </trkpt>
      <trkpt lat="48.83816" lon="7.29826">
        <ele>347.5</ele>
        <time>2020-06-28T07:13:02Z</time>
      </trkpt>
      <trkpt lat="48.83827" lon="7.29825">
        <ele>346.9</ele>
        <time>2020-06-28T07:13:04Z</time>
      </trkpt>
      <trkpt lat="48.8384" lon="7.29823">
        <ele>346.4</ele>
        <time>2020-06-28T07:13:06Z</time>
      </trkpt>
      <trkpt lat="48.83855" lon="7.29832">
        <ele>345.5</ele>
        <time>2020-06-28T07:13:08Z</time>
      </trkpt>
      <trkpt lat="48.83872" lon="7.29853">
        <ele>344.6</ele>
        <time>2020-06-28T07:13:11Z</time>
      </trkpt>
      <trkpt lat="48.83881" lon="7.29874">
        <ele>343.5</ele>
        <time>2020-06-28T07:13:13Z</time>
      </trkpt>
      <trkpt lat="48.83889" lon="7.29897">
        <ele>342.7</ele>
        <time>2020-06-28T07:13:16Z</time>
      </trkpt>
      <trkpt lat="48.83897" lon="7.29919">
        <ele>340.1</ele>
        <time>2020-06-28T07:13:18Z</time>
      </trkpt>
      <trkpt lat="48.83904" lon="7.29943">
        <ele>337.6</ele>
        <time>2020-06-28T07:13:20Z</time>
      </trkpt>
      <trkpt lat="48.83907" lon="7.29966">
        <ele>335.4</ele>
        <time>2020-06-28T07:13:22Z</time>
      </trkpt>
      <trkpt lat="48.83912" lon="7.29999">
        <ele>332.8</ele>
        <time>2020-06-28T07:13:25Z</time>
      </trkpt>
      <trkpt lat="48.83914" lon="7.30016">
        <ele>332.4</ele>
        <time>2020-06-28T07:13:27Z</time>
      </trkpt>
      <trkpt lat="48.83912" lon="7.30032">
        <ele>331.1</ele>
        <time>2020-06-28T07:13:29Z</time>
      </trkpt>
      <trkpt lat="48.8391" lon="7.30047">
        <ele>330.6</ele>
        <time>2020-06-28T07:13:31Z</time>
      </trkpt>
      <trkpt lat="48.83908" lon="7.30063">
        <ele>329.5</ele>
        <time>2020-06-28T07:13:33Z</time>
      </trkpt>
      <trkpt lat="48.83904" lon="7.30081">
        <ele>327.9</ele>
        <time>2020-06-28T07:13:35Z</time>
      </trkpt>
      <trkpt lat="48.83899" lon="7.30098">
        <ele>326</ele>
        <time>2020-06-28T07:13:37Z</time>
      </trkpt>
      <trkpt lat="48.83892" lon="7.30111">
        <ele>324.3</ele>
        <time>2020-06-28T07:13:39Z</time>
      </trkpt>
      <trkpt lat="48.83883" lon="7.30126">
        <ele>323.1</ele>
        <time>2020-06-28T07:13:41Z</time>
      </trkpt>
      <trkpt lat="48.83876" lon="7.3014">
        <ele>322.5</ele>
        <time>2020-06-28T07:13:43Z</time>
      </trkpt>
      <trkpt lat="48.83871" lon="7.30154">
        <ele>323</ele>
        <time>2020-06-28T07:13:45Z</time>
      </trkpt>
      <trkpt lat="48.83864" lon="7.30173">
        <ele>321.1</ele>
        <time>2020-06-28T07:13:48Z</time>
      </trkpt>
      <trkpt lat="48.83861" lon="7.30187">
        <ele>318.9</ele>
        <time>2020-06-28T07:13:50Z</time>
      </trkpt>
      <trkpt lat="48.83857" lon="7.30203">
        <ele>315.8</ele>
        <time>2020-06-28T07:13:52Z</time>
      </trkpt>
      <trkpt lat="48.83854" lon="7.30218">
        <ele>312.5</ele>
        <time>2020-06-28T07:13:54Z</time>
      </trkpt>
      <trkpt lat="48.83849" lon="7.30242">
        <ele>308.3</ele>
        <time>2020-06-28T07:13:57Z</time>
      </trkpt>
      <trkpt lat="48.83845" lon="7.30263">
        <ele>305.3</ele>
        <time>2020-06-28T07:13:59Z</time>
      </trkpt>
      <trkpt lat="48.8384" lon="7.30283">
        <ele>303.1</ele>
        <time>2020-06-28T07:14:01Z</time>
      </trkpt>
      <trkpt lat="48.83836" lon="7.30303">
        <ele>300.5</ele>
        <time>2020-06-28T07:14:03Z</time>
      </trkpt>
      <trkpt lat="48.83834" lon="7.30319">
        <ele>298.3</ele>
        <time>2020-06-28T07:14:05Z</time>
      </trkpt>
      <trkpt lat="48.8383" lon="7.30333">
        <ele>296.6</ele>
        <time>2020-06-28T07:14:07Z</time>
      </trkpt>
      <trkpt lat="48.83829" lon="7.3035">
        <ele>295.2</ele>
        <time>2020-06-28T07:14:09Z</time>
      </trkpt>
      <trkpt lat="48.83827" lon="7.30369">
        <ele>293.7</ele>
        <time>2020-06-28T07:14:11Z</time>
      </trkpt>
      <trkpt lat="48.83825" lon="7.30386">
        <ele>291.8</ele>
        <time>2020-06-28T07:14:13Z</time>
      </trkpt>
      <trkpt lat="48.83823" lon="7.30402">
        <ele>290.8</ele>
        <time>2020-06-28T07:14:15Z</time>
      </trkpt>
      <trkpt lat="48.83822" lon="7.30418">
        <ele>289.2</ele>
        <time>2020-06-28T07:14:17Z</time>
      </trkpt>
      <trkpt lat="48.83821" lon="7.30435">
        <ele>288.1</ele>
        <time>2020-06-28T07:14:19Z</time>
      </trkpt>
      <trkpt lat="48.83819" lon="7.3045">
        <ele>287.1</ele>
        <time>2020-06-28T07:14:21Z</time>
      </trkpt>
      <trkpt lat="48.83815" lon="7.30469">
        <ele>287</ele>
        <time>2020-06-28T07:14:23Z</time>
      </trkpt>
      <trkpt lat="48.83811" lon="7.3049">
        <ele>285.5</ele>
        <time>2020-06-28T07:14:25Z</time>
      </trkpt>
      <trkpt lat="48.83808" lon="7.30512">
        <ele>285.3</ele>
        <time>2020-06-28T07:14:27Z</time>
      </trkpt>
      <trkpt lat="48.83807" lon="7.30534">
        <ele>284.4</ele>
        <time>2020-06-28T07:14:29Z</time>
      </trkpt>
      <trkpt lat="48.83805" lon="7.30556">
        <ele>283.3</ele>
        <time>2020-06-28T07:14:31Z</time>
      </trkpt>
      <trkpt lat="48.83806" lon="7.3058">
        <ele>282</ele>
        <time>2020-06-28T07:14:33Z</time>
      </trkpt>
      <trkpt lat="48.83808" lon="7.30603">
        <ele>281.4</ele>
        <time>2020-06-28T07:14:35Z</time>
      </trkpt>
      <trkpt lat="48.83806" lon="7.30636">
        <ele>279.7</ele>
        <time>2020-06-28T07:14:38Z</time>
      </trkpt>
      <trkpt lat="48.83806" lon="7.30656">
        <ele>278.8</ele>
        <time>2020-06-28T07:14:40Z</time>
      </trkpt>
      <trkpt lat="48.83805" lon="7.30675">
        <ele>277.1</ele>
        <time>2020-06-28T07:14:42Z</time>
      </trkpt>
      <trkpt lat="48.83799" lon="7.30695">
        <ele>275.6</ele>
        <time>2020-06-28T07:14:44Z</time>
      </trkpt>
      <trkpt lat="48.83792" lon="7.30716">
        <ele>274.4</ele>
        <time>2020-06-28T07:14:46Z</time>
      </trkpt>
      <trkpt lat="48.83786" lon="7.30733">
        <ele>272.7</ele>
        <time>2020-06-28T07:14:48Z</time>
      </trkpt>
      <trkpt lat="48.83784" lon="7.30748">
        <ele>271.7</ele>
        <time>2020-06-28T07:14:50Z</time>
      </trkpt>
      <trkpt lat="48.83784" lon="7.30763">
        <ele>269.3</ele>
        <time>2020-06-28T07:14:52Z</time>
      </trkpt>
      <trkpt lat="48.83787" lon="7.30778">
        <ele>267.1</ele>
        <time>2020-06-28T07:14:54Z</time>
      </trkpt>
      <trkpt lat="48.8379" lon="7.30794">
        <ele>265.4</ele>
        <time>2020-06-28T07:14:56Z</time>
      </trkpt>
      <trkpt lat="48.83794" lon="7.30812">
        <ele>264</ele>
        <time>2020-06-28T07:14:58Z</time>
      </trkpt>
      <trkpt lat="48.83798" lon="7.30827">
        <ele>262.7</ele>
        <time>2020-06-28T07:15:00Z</time>
      </trkpt>
      <trkpt lat="48.83802" lon="7.30841">
        <ele>261.5</ele>
        <time>2020-06-28T07:15:02Z</time>
      </trkpt>
      <trkpt lat="48.83809" lon="7.30853">
        <ele>260.4</ele>
        <time>2020-06-28T07:15:04Z</time>
      </trkpt>
      <trkpt lat="48.83816" lon="7.30864">
        <ele>259.4</ele>
        <time>2020-06-28T07:15:06Z</time>
      </trkpt>
      <trkpt lat="48.83823" lon="7.30874">
        <ele>258.9</ele>
        <time>2020-06-28T07:15:08Z</time>
      </trkpt>
      <trkpt lat="48.83827" lon="7.30883">
        <ele>257.7</ele>
        <time>2020-06-28T07:15:10Z</time>
      </trkpt>
      <trkpt lat="48.83831" lon="7.30892">
        <ele>256.8</ele>
        <time>2020-06-28T07:15:12Z</time>
      </trkpt>
      <trkpt lat="48.83837" lon="7.30903">
        <ele>255.9</ele>
        <time>2020-06-28T07:15:14Z</time>
      </trkpt>
      <trkpt lat="48.83845" lon="7.30913">
        <ele>255.1</ele>
        <time>2020-06-28T07:15:16Z</time>
      </trkpt>
      <trkpt lat="48.83857" lon="7.3093">
        <ele>254.4</ele>
        <time>2020-06-28T07:15:19Z</time>
      </trkpt>
      <trkpt lat="48.83872" lon="7.30942">
        <ele>253.1</ele>
        <time>2020-06-28T07:15:22Z</time>
      </trkpt>
      <trkpt lat="48.83883" lon="7.30948">
        <ele>252.3</ele>
        <time>2020-06-28T07:15:24Z</time>
      </trkpt>
      <trkpt lat="48.839" lon="7.30959">
        <ele>251.8</ele>
        <time>2020-06-28T07:15:27Z</time>
      </trkpt>
      <trkpt lat="48.83919" lon="7.3097">
        <ele>250.6</ele>
        <time>2020-06-28T07:15:30Z</time>
      </trkpt>
      <trkpt lat="48.83936" lon="7.30969">
        <ele>248.6</ele>
        <time>2020-06-28T07:15:33Z</time>
      </trkpt>
      <trkpt lat="48.83947" lon="7.30966">
        <ele>253</ele>
        <time>2020-06-28T07:15:35Z</time>
      </trkpt>
      <trkpt lat="48.83957" lon="7.30958">
        <ele>254.1</ele>
        <time>2020-06-28T07:15:37Z</time>
      </trkpt>
      <trkpt lat="48.83968" lon="7.30948">
        <ele>254.6</ele>
        <time>2020-06-28T07:15:39Z</time>
      </trkpt>
      <trkpt lat="48.83979" lon="7.30943">
        <ele>254</ele>
        <time>2020-06-28T07:15:41Z</time>
      </trkpt>
      <trkpt lat="48.83991" lon="7.30943">
        <ele>253.1</ele>
        <time>2020-06-28T07:15:43Z</time>
      </trkpt>
      <trkpt lat="48.84002" lon="7.30952">
        <ele>251.1</ele>
        <time>2020-06-28T07:15:45Z</time>
      </trkpt>
      <trkpt lat="48.8402" lon="7.30957">
        <ele>248.6</ele>
        <time>2020-06-28T07:15:48Z</time>
      </trkpt>
      <trkpt lat="48.84027" lon="7.3096">
        <ele>247.8</ele>
        <time>2020-06-28T07:15:50Z</time>
      </trkpt>
      <trkpt lat="48.84026" lon="7.30969">
        <ele>245.2</ele>
        <time>2020-06-28T07:15:59Z</time>
      </trkpt>
      <trkpt lat="48.84025" lon="7.30978">
        <ele>245.4</ele>
        <time>2020-06-28T07:16:01Z</time>
      </trkpt>
      <trkpt lat="48.84024" lon="7.3099">
        <ele>245.3</ele>
        <time>2020-06-28T07:16:03Z</time>
      </trkpt>
      <trkpt lat="48.84023" lon="7.31004">
        <ele>245.4</ele>
        <time>2020-06-28T07:16:05Z</time>
      </trkpt>
      <trkpt lat="48.84025" lon="7.31018">
        <ele>245.4</ele>
        <time>2020-06-28T07:16:07Z</time>
      </trkpt>
      <trkpt lat="48.84032" lon="7.31032">
        <ele>245.6</ele>
        <time>2020-06-28T07:16:09Z</time>
      </trkpt>
      <trkpt lat="48.84038" lon="7.31046">
        <ele>246</ele>
        <time>2020-06-28T07:16:11Z</time>
      </trkpt>
      <trkpt lat="48.84043" lon="7.31061">
        <ele>246.1</ele>
        <time>2020-06-28T07:16:13Z</time>
      </trkpt>
      <trkpt lat="48.84048" lon="7.31075">
        <ele>246.1</ele>
        <time>2020-06-28T07:16:15Z</time>
      </trkpt>
      <trkpt lat="48.84054" lon="7.31089">
        <ele>244.9</ele>
        <time>2020-06-28T07:16:17Z</time>
      </trkpt>
      <trkpt lat="48.84059" lon="7.31104">
        <ele>244</ele>
        <time>2020-06-28T07:16:19Z</time>
      </trkpt>
      <trkpt lat="48.84064" lon="7.31116">
        <ele>242.9</ele>
        <time>2020-06-28T07:16:21Z</time>
      </trkpt>
      <trkpt lat="48.8407" lon="7.31126">
        <ele>242.2</ele>
        <time>2020-06-28T07:16:23Z</time>
      </trkpt>
      <trkpt lat="48.84076" lon="7.31135">
        <ele>240.6</ele>
        <time>2020-06-28T07:16:25Z</time>
      </trkpt>
      <trkpt lat="48.84082" lon="7.31145">
        <ele>239.1</ele>
        <time>2020-06-28T07:16:27Z</time>
      </trkpt>
      <trkpt lat="48.84089" lon="7.31153">
        <ele>238.3</ele>
        <time>2020-06-28T07:16:29Z</time>
      </trkpt>
      <trkpt lat="48.84095" lon="7.31162">
        <ele>237.9</ele>
        <time>2020-06-28T07:16:31Z</time>
      </trkpt>
      <trkpt lat="48.84103" lon="7.31171">
        <ele>237.7</ele>
        <time>2020-06-28T07:16:33Z</time>
      </trkpt>
      <trkpt lat="48.84112" lon="7.31181">
        <ele>237.2</ele>
        <time>2020-06-28T07:16:35Z</time>
      </trkpt>
      <trkpt lat="48.84121" lon="7.31193">
        <ele>236.3</ele>
        <time>2020-06-28T07:16:37Z</time>
      </trkpt>
      <trkpt lat="48.84131" lon="7.31204">
        <ele>235.1</ele>
        <time>2020-06-28T07:16:39Z</time>
      </trkpt>
      <trkpt lat="48.84142" lon="7.31214">
        <ele>234.6</ele>
        <time>2020-06-28T07:16:41Z</time>
      </trkpt>
      <trkpt lat="48.84152" lon="7.31224">
        <ele>234</ele>
        <time>2020-06-28T07:16:43Z</time>
      </trkpt>
      <trkpt lat="48.84163" lon="7.31236">
        <ele>233.5</ele>
        <time>2020-06-28T07:16:45Z</time>
      </trkpt>
      <trkpt lat="48.84174" lon="7.31247">
        <ele>233.5</ele>
        <time>2020-06-28T07:16:47Z</time>
      </trkpt>
      <trkpt lat="48.84182" lon="7.31259">
        <ele>233.5</ele>
        <time>2020-06-28T07:16:49Z</time>
      </trkpt>
      <trkpt lat="48.84191" lon="7.31271">
        <ele>233.8</ele>
        <time>2020-06-28T07:16:51Z</time>
      </trkpt>
      <trkpt lat="48.84198" lon="7.3128">
        <ele>233.7</ele>
        <time>2020-06-28T07:16:53Z</time>
      </trkpt>
      <trkpt lat="48.84205" lon="7.31286">
        <ele>234.1</ele>
        <time>2020-06-28T07:16:55Z</time>
      </trkpt>
      <trkpt lat="48.84211" lon="7.31291">
        <ele>235</ele>
        <time>2020-06-28T07:16:57Z</time>
      </trkpt>
      <trkpt lat="48.84218" lon="7.31297">
        <ele>235.6</ele>
        <time>2020-06-28T07:16:59Z</time>
      </trkpt>
      <trkpt lat="48.84223" lon="7.31304">
        <ele>236.4</ele>
        <time>2020-06-28T07:17:01Z</time>
      </trkpt>
      <trkpt lat="48.84227" lon="7.31309">
        <ele>236.8</ele>
        <time>2020-06-28T07:17:03Z</time>
      </trkpt>
      <trkpt lat="48.84232" lon="7.31314">
        <ele>237.1</ele>
        <time>2020-06-28T07:17:05Z</time>
      </trkpt>
      <trkpt lat="48.84236" lon="7.31319">
        <ele>237.4</ele>
        <time>2020-06-28T07:17:07Z</time>
      </trkpt>
      <trkpt lat="48.8424" lon="7.31325">
        <ele>238.5</ele>
        <time>2020-06-28T07:17:10Z</time>
      </trkpt>
      <trkpt lat="48.84246" lon="7.3133">
        <ele>239.8</ele>
        <time>2020-06-28T07:17:13Z</time>
      </trkpt>
      <trkpt lat="48.84252" lon="7.31337">
        <ele>240</ele>
        <time>2020-06-28T07:17:15Z</time>
      </trkpt>
      <trkpt lat="48.84256" lon="7.31341">
        <ele>239.6</ele>
        <time>2020-06-28T07:17:17Z</time>
      </trkpt>
      <trkpt lat="48.84263" lon="7.31347">
        <ele>240.1</ele>
        <time>2020-06-28T07:17:20Z</time>
      </trkpt>
      <trkpt lat="48.84269" lon="7.31352">
        <ele>239.7</ele>
        <time>2020-06-28T07:17:22Z</time>
      </trkpt>
      <trkpt lat="48.84275" lon="7.31357">
        <ele>239.8</ele>
        <time>2020-06-28T07:17:24Z</time>
      </trkpt>
      <trkpt lat="48.84279" lon="7.31362">
        <ele>238.9</ele>
        <time>2020-06-28T07:17:26Z</time>
      </trkpt>
      <trkpt lat="48.84283" lon="7.31367">
        <ele>238.3</ele>
        <time>2020-06-28T07:17:28Z</time>
      </trkpt>
      <trkpt lat="48.84287" lon="7.31374">
        <ele>245.1</ele>
        <time>2020-06-28T07:17:31Z</time>
      </trkpt>
      <trkpt lat="48.84291" lon="7.3138">
        <ele>244.8</ele>
        <time>2020-06-28T07:17:33Z</time>
      </trkpt>
      <trkpt lat="48.84295" lon="7.31385">
        <ele>244.4</ele>
        <time>2020-06-28T07:17:35Z</time>
      </trkpt>
      <trkpt lat="48.84299" lon="7.31392">
        <ele>242.4</ele>
        <time>2020-06-28T07:17:38Z</time>
      </trkpt>
      <trkpt lat="48.84302" lon="7.31398">
        <ele>241</ele>
        <time>2020-06-28T07:17:40Z</time>
      </trkpt>
      <trkpt lat="48.84305" lon="7.31405">
        <ele>239.3</ele>
        <time>2020-06-28T07:17:42Z</time>
      </trkpt>
      <trkpt lat="48.84309" lon="7.31412">
        <ele>237.7</ele>
        <time>2020-06-28T07:17:44Z</time>
      </trkpt>
      <trkpt lat="48.84312" lon="7.31421">
        <ele>236.1</ele>
        <time>2020-06-28T07:17:46Z</time>
      </trkpt>
      <trkpt lat="48.84314" lon="7.31431">
        <ele>233.9</ele>
        <time>2020-06-28T07:17:48Z</time>
      </trkpt>
      <trkpt lat="48.84315" lon="7.31443">
        <ele>232.5</ele>
        <time>2020-06-28T07:17:50Z</time>
      </trkpt>
      <trkpt lat="48.84316" lon="7.31453">
        <ele>231.1</ele>
        <time>2020-06-28T07:17:52Z</time>
      </trkpt>
      <trkpt lat="48.84314" lon="7.31467">
        <ele>229.3</ele>
        <time>2020-06-28T07:17:54Z</time>
      </trkpt>
      <trkpt lat="48.84314" lon="7.3148">
        <ele>227.9</ele>
        <time>2020-06-28T07:17:56Z</time>
      </trkpt>
      <trkpt lat="48.84314" lon="7.31488">
        <ele>226.5</ele>
        <time>2020-06-28T07:17:59Z</time>
      </trkpt>
      <trkpt lat="48.84312" lon="7.31494">
        <ele>223.1</ele>
        <time>2020-06-28T07:19:32Z</time>
      </trkpt>
      <trkpt lat="48.84314" lon="7.31503">
        <ele>222.6</ele>
        <time>2020-06-28T07:19:35Z</time>
      </trkpt>
      <trkpt lat="48.84317" lon="7.31511">
        <ele>222.1</ele>
        <time>2020-06-28T07:19:37Z</time>
      </trkpt>
      <trkpt lat="48.84321" lon="7.31524">
        <ele>220.8</ele>
        <time>2020-06-28T07:19:40Z</time>
      </trkpt>
      <trkpt lat="48.84324" lon="7.31532">
        <ele>220.3</ele>
        <time>2020-06-28T07:19:42Z</time>
      </trkpt>
      <trkpt lat="48.84328" lon="7.31541">
        <ele>220.5</ele>
        <time>2020-06-28T07:19:44Z</time>
      </trkpt>
      <trkpt lat="48.84331" lon="7.31549">
        <ele>220.3</ele>
        <time>2020-06-28T07:19:46Z</time>
      </trkpt>
      <trkpt lat="48.84334" lon="7.31558">
        <ele>220.5</ele>
        <time>2020-06-28T07:19:48Z</time>
      </trkpt>
      <trkpt lat="48.84337" lon="7.31567">
        <ele>220.8</ele>
        <time>2020-06-28T07:19:50Z</time>
      </trkpt>
      <trkpt lat="48.84339" lon="7.31575">
        <ele>220.9</ele>
        <time>2020-06-28T07:19:52Z</time>
      </trkpt>
      <trkpt lat="48.84341" lon="7.31583">
        <ele>220.3</ele>
        <time>2020-06-28T07:19:54Z</time>
      </trkpt>
      <trkpt lat="48.84343" lon="7.3159">
        <ele>219.6</ele>
        <time>2020-06-28T07:19:56Z</time>
      </trkpt>
      <trkpt lat="48.84346" lon="7.31597">
        <ele>218.9</ele>
        <time>2020-06-28T07:19:58Z</time>
      </trkpt>
      <trkpt lat="48.84348" lon="7.31604">
        <ele>218.8</ele>
        <time>2020-06-28T07:20:00Z</time>
      </trkpt>
      <trkpt lat="48.8435" lon="7.3161">
        <ele>218.1</ele>
        <time>2020-06-28T07:20:02Z</time>
      </trkpt>
      <trkpt lat="48.84352" lon="7.31618">
        <ele>218.8</ele>
        <time>2020-06-28T07:20:05Z</time>
      </trkpt>
      <trkpt lat="48.84354" lon="7.31625">
        <ele>219.3</ele>
        <time>2020-06-28T07:20:08Z</time>
      </trkpt>
      <trkpt lat="48.84359" lon="7.31632">
        <ele>220.2</ele>
        <time>2020-06-28T07:20:11Z</time>
      </trkpt>
      <trkpt lat="48.84364" lon="7.31637">
        <ele>220.9</ele>
        <time>2020-06-28T07:20:13Z</time>
      </trkpt>
      <trkpt lat="48.84369" lon="7.31642">
        <ele>221.2</ele>
        <time>2020-06-28T07:20:15Z</time>
      </trkpt>
      <trkpt lat="48.84374" lon="7.31647">
        <ele>221.8</ele>
        <time>2020-06-28T07:20:17Z</time>
      </trkpt>
      <trkpt lat="48.84379" lon="7.31652">
        <ele>222.1</ele>
        <time>2020-06-28T07:20:19Z</time>
      </trkpt>
      <trkpt lat="48.84385" lon="7.31659">
        <ele>221.7</ele>
        <time>2020-06-28T07:20:21Z</time>
      </trkpt>
      <trkpt lat="48.8439" lon="7.31666">
        <ele>221.7</ele>
        <time>2020-06-28T07:20:23Z</time>
      </trkpt>
      <trkpt lat="48.84396" lon="7.31673">
        <ele>221.3</ele>
        <time>2020-06-28T07:20:25Z</time>
      </trkpt>
      <trkpt lat="48.84401" lon="7.3168">
        <ele>215.5</ele>
        <time>2020-06-28T07:20:27Z</time>
      </trkpt>
      <trkpt lat="48.84407" lon="7.31688">
        <ele>217.2</ele>
        <time>2020-06-28T07:20:29Z</time>
      </trkpt>
      <trkpt lat="48.84412" lon="7.31695">
        <ele>217.3</ele>
        <time>2020-06-28T07:20:31Z</time>
      </trkpt>
      <trkpt lat="48.84417" lon="7.31702">
        <ele>218.5</ele>
        <time>2020-06-28T07:20:33Z</time>
      </trkpt>
      <trkpt lat="48.84422" lon="7.31709">
        <ele>219.5</ele>
        <time>2020-06-28T07:20:35Z</time>
      </trkpt>
      <trkpt lat="48.84428" lon="7.31715">
        <ele>220.4</ele>
        <time>2020-06-28T07:20:37Z</time>
      </trkpt>
      <trkpt lat="48.84433" lon="7.31721">
        <ele>221</ele>
        <time>2020-06-28T07:20:39Z</time>
      </trkpt>
      <trkpt lat="48.84439" lon="7.31727">
        <ele>221.8</ele>
        <time>2020-06-28T07:20:41Z</time>
      </trkpt>
      <trkpt lat="48.84445" lon="7.31732">
        <ele>222.3</ele>
        <time>2020-06-28T07:20:43Z</time>
      </trkpt>
      <trkpt lat="48.84451" lon="7.31738">
        <ele>222.6</ele>
        <time>2020-06-28T07:20:45Z</time>
      </trkpt>
      <trkpt lat="48.84458" lon="7.31743">
        <ele>223.2</ele>
        <time>2020-06-28T07:20:47Z</time>
      </trkpt>
      <trkpt lat="48.84466" lon="7.31748">
        <ele>223.6</ele>
        <time>2020-06-28T07:20:49Z</time>
      </trkpt>
      <trkpt lat="48.84473" lon="7.31752">
        <ele>223.9</ele>
        <time>2020-06-28T07:20:51Z</time>
      </trkpt>
      <trkpt lat="48.84481" lon="7.31757">
        <ele>224.2</ele>
        <time>2020-06-28T07:20:53Z</time>
      </trkpt>
      <trkpt lat="48.84488" lon="7.31762">
        <ele>224.5</ele>
        <time>2020-06-28T07:20:55Z</time>
      </trkpt>
      <trkpt lat="48.84495" lon="7.31767">
        <ele>224.7</ele>
        <time>2020-06-28T07:20:57Z</time>
      </trkpt>
      <trkpt lat="48.84503" lon="7.3177">
        <ele>225.2</ele>
        <time>2020-06-28T07:20:59Z</time>
      </trkpt>
      <trkpt lat="48.8451" lon="7.31775">
        <ele>224.2</ele>
        <time>2020-06-28T07:21:01Z</time>
      </trkpt>
      <trkpt lat="48.84518" lon="7.31779">
        <ele>223.4</ele>
        <time>2020-06-28T07:21:03Z</time>
      </trkpt>
      <trkpt lat="48.84526" lon="7.31781">
        <ele>222.6</ele>
        <time>2020-06-28T07:21:05Z</time>
      </trkpt>
      <trkpt lat="48.84535" lon="7.31782">
        <ele>213.3</ele>
        <time>2020-06-28T07:21:07Z</time>
      </trkpt>
      <trkpt lat="48.84544" lon="7.31782">
        <ele>212.3</ele>
        <time>2020-06-28T07:21:09Z</time>
      </trkpt>
      <trkpt lat="48.84554" lon="7.3178">
        <ele>210.2</ele>
        <time>2020-06-28T07:21:11Z</time>
      </trkpt>
      <trkpt lat="48.84563" lon="7.31777">
        <ele>210.5</ele>
        <time>2020-06-28T07:21:13Z</time>
      </trkpt>
      <trkpt lat="48.84571" lon="7.31773">
        <ele>213.5</ele>
        <time>2020-06-28T07:21:15Z</time>
      </trkpt>
      <trkpt lat="48.84579" lon="7.3177">
        <ele>216.1</ele>
        <time>2020-06-28T07:21:17Z</time>
      </trkpt>
      <trkpt lat="48.8459" lon="7.31766">
        <ele>219.9</ele>
        <time>2020-06-28T07:21:20Z</time>
      </trkpt>
      <trkpt lat="48.84597" lon="7.31764">
        <ele>221.8</ele>
        <time>2020-06-28T07:21:22Z</time>
      </trkpt>
      <trkpt lat="48.84604" lon="7.31763">
        <ele>223.2</ele>
        <time>2020-06-28T07:21:24Z</time>
      </trkpt>
      <trkpt lat="48.84611" lon="7.31762">
        <ele>225</ele>
        <time>2020-06-28T07:21:26Z</time>
      </trkpt>
      <trkpt lat="48.84617" lon="7.31762">
        <ele>220.2</ele>
        <time>2020-06-28T07:21:28Z</time>
      </trkpt>
      <trkpt lat="48.84623" lon="7.31762">
        <ele>222</ele>
        <time>2020-06-28T07:21:30Z</time>
      </trkpt>
      <trkpt lat="48.84628" lon="7.31759">
        <ele>221.4</ele>
        <time>2020-06-28T07:21:33Z</time>
      </trkpt>
      <trkpt lat="48.8463" lon="7.31751">
        <ele>222.4</ele>
        <time>2020-06-28T07:21:36Z</time>
      </trkpt>
      <trkpt lat="48.84628" lon="7.31744">
        <ele>223.3</ele>
        <time>2020-06-28T07:21:38Z</time>
      </trkpt>
      <trkpt lat="48.84625" lon="7.31739">
        <ele>224.9</ele>
        <time>2020-06-28T07:21:40Z</time>
      </trkpt>
      <trkpt lat="48.84619" lon="7.31732">
        <ele>226.3</ele>
        <time>2020-06-28T07:21:42Z</time>
      </trkpt>
      <trkpt lat="48.84614" lon="7.31726">
        <ele>227.4</ele>
        <time>2020-06-28T07:21:44Z</time>
      </trkpt>
      <trkpt lat="48.84609" lon="7.31718">
        <ele>228</ele>
        <time>2020-06-28T07:21:46Z</time>
      </trkpt>
      <trkpt lat="48.84604" lon="7.31711">
        <ele>228.4</ele>
        <time>2020-06-28T07:21:48Z</time>
      </trkpt>
      <trkpt lat="48.84599" lon="7.31704">
        <ele>228.5</ele>
        <time>2020-06-28T07:21:50Z</time>
      </trkpt>
      <trkpt lat="48.84595" lon="7.31696">
        <ele>228.1</ele>
        <time>2020-06-28T07:21:52Z</time>
      </trkpt>
      <trkpt lat="48.8459" lon="7.31689">
        <ele>228</ele>
        <time>2020-06-28T07:21:54Z</time>
      </trkpt>
      <trkpt lat="48.84585" lon="7.31682">
        <ele>227.8</ele>
        <time>2020-06-28T07:21:56Z</time>
      </trkpt>
      <trkpt lat="48.8458" lon="7.31676">
        <ele>227.6</ele>
        <time>2020-06-28T07:21:58Z</time>
      </trkpt>
      <trkpt lat="48.84576" lon="7.3167">
        <ele>228.2</ele>
        <time>2020-06-28T07:22:00Z</time>
      </trkpt>
      <trkpt lat="48.84569" lon="7.3166">
        <ele>228.5</ele>
        <time>2020-06-28T07:22:03Z</time>
      </trkpt>
      <trkpt lat="48.84564" lon="7.31654">
        <ele>228.4</ele>
        <time>2020-06-28T07:22:05Z</time>
      </trkpt>
      <trkpt lat="48.84559" lon="7.31646">
        <ele>228.3</ele>
        <time>2020-06-28T07:22:07Z</time>
      </trkpt>
      <trkpt lat="48.84554" lon="7.31638">
        <ele>223.7</ele>
        <time>2020-06-28T07:22:09Z</time>
      </trkpt>
      <trkpt lat="48.84549" lon="7.31631">
        <ele>224.5</ele>
        <time>2020-06-28T07:22:11Z</time>
      </trkpt>
      <trkpt lat="48.84546" lon="7.31625">
        <ele>224.9</ele>
        <time>2020-06-28T07:22:13Z</time>
      </trkpt>
      <trkpt lat="48.84542" lon="7.31619">
        <ele>225.3</ele>
        <time>2020-06-28T07:22:15Z</time>
      </trkpt>
      <trkpt lat="48.84537" lon="7.31612">
        <ele>225.3</ele>
        <time>2020-06-28T07:22:17Z</time>
      </trkpt>
      <trkpt lat="48.84533" lon="7.31607">
        <ele>225.8</ele>
        <time>2020-06-28T07:22:19Z</time>
      </trkpt>
      <trkpt lat="48.84528" lon="7.316">
        <ele>226.3</ele>
        <time>2020-06-28T07:22:21Z</time>
      </trkpt>
      <trkpt lat="48.84523" lon="7.31594">
        <ele>226.2</ele>
        <time>2020-06-28T07:22:23Z</time>
      </trkpt>
      <trkpt lat="48.84518" lon="7.31586">
        <ele>226.4</ele>
        <time>2020-06-28T07:22:25Z</time>
      </trkpt>
      <trkpt lat="48.84514" lon="7.31578">
        <ele>226.3</ele>
        <time>2020-06-28T07:22:27Z</time>
      </trkpt>
      <trkpt lat="48.8451" lon="7.3157">
        <ele>226.8</ele>
        <time>2020-06-28T07:22:29Z</time>
      </trkpt>
      <trkpt lat="48.84503" lon="7.31559">
        <ele>226.9</ele>
        <time>2020-06-28T07:22:32Z</time>
      </trkpt>
      <trkpt lat="48.84499" lon="7.31551">
        <ele>227.2</ele>
        <time>2020-06-28T07:22:34Z</time>
      </trkpt>
      <trkpt lat="48.84494" lon="7.31544">
        <ele>227</ele>
        <time>2020-06-28T07:22:36Z</time>
      </trkpt>
      <trkpt lat="48.8449" lon="7.31537">
        <ele>227.6</ele>
        <time>2020-06-28T07:22:38Z</time>
      </trkpt>
      <trkpt lat="48.84486" lon="7.31531">
        <ele>228.2</ele>
        <time>2020-06-28T07:22:40Z</time>
      </trkpt>
      <trkpt lat="48.84482" lon="7.31525">
        <ele>228.8</ele>
        <time>2020-06-28T07:22:42Z</time>
      </trkpt>
      <trkpt lat="48.84478" lon="7.31519">
        <ele>229.2</ele>
        <time>2020-06-28T07:22:44Z</time>
      </trkpt>
      <trkpt lat="48.84474" lon="7.31512">
        <ele>229.7</ele>
        <time>2020-06-28T07:22:46Z</time>
      </trkpt>
      <trkpt lat="48.84471" lon="7.31505">
        <ele>229.4</ele>
        <time>2020-06-28T07:22:48Z</time>
      </trkpt>
      <trkpt lat="48.84467" lon="7.31497">
        <ele>229.9</ele>
        <time>2020-06-28T07:22:50Z</time>
      </trkpt>
      <trkpt lat="48.84463" lon="7.31489">
        <ele>229.5</ele>
        <time>2020-06-28T07:22:52Z</time>
      </trkpt>
      <trkpt lat="48.84458" lon="7.31482">
        <ele>229.8</ele>
        <time>2020-06-28T07:22:54Z</time>
      </trkpt>
      <trkpt lat="48.84455" lon="7.31474">
        <ele>229.9</ele>
        <time>2020-06-28T07:22:56Z</time>
      </trkpt>
      <trkpt lat="48.84452" lon="7.31465">
        <ele>229.7</ele>
        <time>2020-06-28T07:22:58Z</time>
      </trkpt>
      <trkpt lat="48.84449" lon="7.31457">
        <ele>229.2</ele>
        <time>2020-06-28T07:23:00Z</time>
      </trkpt>
      <trkpt lat="48.84446" lon="7.31448">
        <ele>228.8</ele>
        <time>2020-06-28T07:23:02Z</time>
      </trkpt>
      <trkpt lat="48.84442" lon="7.3144">
        <ele>228.1</ele>
        <time>2020-06-28T07:23:04Z</time>
      </trkpt>
      <trkpt lat="48.8444" lon="7.3143">
        <ele>227.5</ele>
        <time>2020-06-28T07:23:06Z</time>
      </trkpt>
      <trkpt lat="48.84437" lon="7.3142">
        <ele>227.3</ele>
        <time>2020-06-28T07:23:08Z</time>
      </trkpt>
      <trkpt lat="48.84434" lon="7.3141">
        <ele>227.1</ele>
        <time>2020-06-28T07:23:10Z</time>
      </trkpt>
      <trkpt lat="48.84431" lon="7.31401">
        <ele>227.2</ele>
        <time>2020-06-28T07:23:12Z</time>
      </trkpt>
      <trkpt lat="48.84428" lon="7.31394">
        <ele>227.6</ele>
        <time>2020-06-28T07:23:14Z</time>
      </trkpt>
      <trkpt lat="48.84424" lon="7.31386">
        <ele>228.2</ele>
        <time>2020-06-28T07:23:16Z</time>
      </trkpt>
      <trkpt lat="48.84422" lon="7.31378">
        <ele>228.8</ele>
        <time>2020-06-28T07:23:18Z</time>
      </trkpt>
      <trkpt lat="48.84419" lon="7.3137">
        <ele>229.4</ele>
        <time>2020-06-28T07:23:20Z</time>
      </trkpt>
      <trkpt lat="48.84417" lon="7.31362">
        <ele>229.7</ele>
        <time>2020-06-28T07:23:22Z</time>
      </trkpt>
      <trkpt lat="48.84416" lon="7.31354">
        <ele>230.1</ele>
        <time>2020-06-28T07:23:24Z</time>
      </trkpt>
      <trkpt lat="48.84416" lon="7.31347">
        <ele>230.1</ele>
        <time>2020-06-28T07:23:26Z</time>
      </trkpt>
      <trkpt lat="48.84416" lon="7.31337">
        <ele>229.8</ele>
        <time>2020-06-28T07:23:29Z</time>
      </trkpt>
      <trkpt lat="48.84417" lon="7.3133">
        <ele>230.2</ele>
        <time>2020-06-28T07:23:31Z</time>
      </trkpt>
      <trkpt lat="48.84416" lon="7.3132">
        <ele>231.3</ele>
        <time>2020-06-28T07:23:34Z</time>
      </trkpt>
      <trkpt lat="48.84415" lon="7.31311">
        <ele>232.4</ele>
        <time>2020-06-28T07:23:37Z</time>
      </trkpt>
      <trkpt lat="48.84414" lon="7.31304">
        <ele>232.8</ele>
        <time>2020-06-28T07:23:39Z</time>
      </trkpt>
      <trkpt lat="48.84412" lon="7.31297">
        <ele>233</ele>
        <time>2020-06-28T07:23:41Z</time>
      </trkpt>
      <trkpt lat="48.8441" lon="7.3129">
        <ele>233.2</ele>
        <time>2020-06-28T07:23:43Z</time>
      </trkpt>
      <trkpt lat="48.84407" lon="7.31282">
        <ele>233.7</ele>
        <time>2020-06-28T07:23:45Z</time>
      </trkpt>
      <trkpt lat="48.84405" lon="7.31274">
        <ele>234.6</ele>
        <time>2020-06-28T07:23:47Z</time>
      </trkpt>
      <trkpt lat="48.84403" lon="7.31266">
        <ele>235</ele>
        <time>2020-06-28T07:23:49Z</time>
      </trkpt>
      <trkpt lat="48.84402" lon="7.31258">
        <ele>235.6</ele>
        <time>2020-06-28T07:23:51Z</time>
      </trkpt>
      <trkpt lat="48.844" lon="7.3125">
        <ele>235.6</ele>
        <time>2020-06-28T07:23:53Z</time>
      </trkpt>
      <trkpt lat="48.84399" lon="7.31243">
        <ele>235.8</ele>
        <time>2020-06-28T07:23:55Z</time>
      </trkpt>
      <trkpt lat="48.84397" lon="7.31234">
        <ele>235.6</ele>
        <time>2020-06-28T07:23:57Z</time>
      </trkpt>
      <trkpt lat="48.84398" lon="7.31215">
        <ele>236.1</ele>
        <time>2020-06-28T07:24:00Z</time>
      </trkpt>
      <trkpt lat="48.84399" lon="7.31204">
        <ele>235.7</ele>
        <time>2020-06-28T07:24:02Z</time>
      </trkpt>
      <trkpt lat="48.84399" lon="7.31197">
        <ele>234.5</ele>
        <time>2020-06-28T07:24:04Z</time>
      </trkpt>
      <trkpt lat="48.84398" lon="7.31189">
        <ele>233.8</ele>
        <time>2020-06-28T07:24:06Z</time>
      </trkpt>
      <trkpt lat="48.84398" lon="7.3118">
        <ele>233.1</ele>
        <time>2020-06-28T07:24:08Z</time>
      </trkpt>
      <trkpt lat="48.844" lon="7.31171">
        <ele>232.7</ele>
        <time>2020-06-28T07:24:10Z</time>
      </trkpt>
      <trkpt lat="48.84402" lon="7.31163">
        <ele>231.8</ele>
        <time>2020-06-28T07:24:12Z</time>
      </trkpt>
      <trkpt lat="48.84404" lon="7.31155">
        <ele>231.1</ele>
        <time>2020-06-28T07:24:14Z</time>
      </trkpt>
      <trkpt lat="48.84407" lon="7.31148">
        <ele>230.2</ele>
        <time>2020-06-28T07:24:16Z</time>
      </trkpt>
      <trkpt lat="48.84411" lon="7.3114">
        <ele>229.3</ele>
        <time>2020-06-28T07:24:19Z</time>
      </trkpt>
      <trkpt lat="48.84414" lon="7.31133">
        <ele>228.8</ele>
        <time>2020-06-28T07:24:21Z</time>
      </trkpt>
      <trkpt lat="48.84417" lon="7.31126">
        <ele>229.1</ele>
        <time>2020-06-28T07:24:23Z</time>
      </trkpt>
      <trkpt lat="48.8442" lon="7.3112">
        <ele>229.4</ele>
        <time>2020-06-28T07:24:25Z</time>
      </trkpt>
      <trkpt lat="48.84424" lon="7.31113">
        <ele>229.9</ele>
        <time>2020-06-28T07:24:27Z</time>
      </trkpt>
      <trkpt lat="48.84428" lon="7.31106">
        <ele>230.2</ele>
        <time>2020-06-28T07:24:29Z</time>
      </trkpt>
      <trkpt lat="48.84431" lon="7.311">
        <ele>230.9</ele>
        <time>2020-06-28T07:24:31Z</time>
      </trkpt>
      <trkpt lat="48.84435" lon="7.31093">
        <ele>231.7</ele>
        <time>2020-06-28T07:24:33Z</time>
      </trkpt>
      <trkpt lat="48.84438" lon="7.31087">
        <ele>232.6</ele>
        <time>2020-06-28T07:24:35Z</time>
      </trkpt>
      <trkpt lat="48.84443" lon="7.3108">
        <ele>233.8</ele>
        <time>2020-06-28T07:24:37Z</time>
      </trkpt>
      <trkpt lat="48.84447" lon="7.31075">
        <ele>234.5</ele>
        <time>2020-06-28T07:24:39Z</time>
      </trkpt>
      <trkpt lat="48.84451" lon="7.31069">
        <ele>235.8</ele>
        <time>2020-06-28T07:24:41Z</time>
      </trkpt>
      <trkpt lat="48.84454" lon="7.31064">
        <ele>237.2</ele>
        <time>2020-06-28T07:24:43Z</time>
      </trkpt>
      <trkpt lat="48.84458" lon="7.31059">
        <ele>239</ele>
        <time>2020-06-28T07:24:45Z</time>
      </trkpt>
      <trkpt lat="48.84462" lon="7.3105">
        <ele>241.4</ele>
        <time>2020-06-28T07:24:48Z</time>
      </trkpt>
      <trkpt lat="48.84465" lon="7.31042">
        <ele>243.4</ele>
        <time>2020-06-28T07:24:51Z</time>
      </trkpt>
      <trkpt lat="48.84468" lon="7.31036">
        <ele>244.9</ele>
        <time>2020-06-28T07:24:54Z</time>
      </trkpt>
      <trkpt lat="48.84471" lon="7.31029">
        <ele>246.2</ele>
        <time>2020-06-28T07:24:57Z</time>
      </trkpt>
      <trkpt lat="48.84475" lon="7.31024">
        <ele>246.7</ele>
        <time>2020-06-28T07:24:59Z</time>
      </trkpt>
      <trkpt lat="48.84478" lon="7.31017">
        <ele>248.2</ele>
        <time>2020-06-28T07:25:02Z</time>
      </trkpt>
      <trkpt lat="48.84481" lon="7.3101">
        <ele>248.6</ele>
        <time>2020-06-28T07:25:05Z</time>
      </trkpt>
      <trkpt lat="48.84486" lon="7.31005">
        <ele>248.9</ele>
        <time>2020-06-28T07:25:08Z</time>
      </trkpt>
      <trkpt lat="48.8449" lon="7.31002">
        <ele>249.1</ele>
        <time>2020-06-28T07:25:10Z</time>
      </trkpt>
      <trkpt lat="48.84494" lon="7.30997">
        <ele>248.9</ele>
        <time>2020-06-28T07:25:12Z</time>
      </trkpt>
      <trkpt lat="48.84498" lon="7.30991">
        <ele>250</ele>
        <time>2020-06-28T07:25:14Z</time>
      </trkpt>
      <trkpt lat="48.84502" lon="7.30984">
        <ele>250.7</ele>
        <time>2020-06-28T07:25:16Z</time>
      </trkpt>
      <trkpt lat="48.84507" lon="7.30978">
        <ele>250.9</ele>
        <time>2020-06-28T07:25:18Z</time>
      </trkpt>
      <trkpt lat="48.84511" lon="7.30973">
        <ele>251.6</ele>
        <time>2020-06-28T07:25:20Z</time>
      </trkpt>
      <trkpt lat="48.84515" lon="7.30966">
        <ele>252</ele>
        <time>2020-06-28T07:25:23Z</time>
      </trkpt>
      <trkpt lat="48.8452" lon="7.30959">
        <ele>252</ele>
        <time>2020-06-28T07:25:26Z</time>
      </trkpt>
      <trkpt lat="48.84524" lon="7.30954">
        <ele>252.4</ele>
        <time>2020-06-28T07:25:28Z</time>
      </trkpt>
      <trkpt lat="48.84528" lon="7.30949">
        <ele>252.7</ele>
        <time>2020-06-28T07:25:30Z</time>
      </trkpt>
      <trkpt lat="48.84532" lon="7.30944">
        <ele>253.1</ele>
        <time>2020-06-28T07:25:32Z</time>
      </trkpt>
      <trkpt lat="48.84535" lon="7.30939">
        <ele>252.8</ele>
        <time>2020-06-28T07:25:34Z</time>
      </trkpt>
      <trkpt lat="48.8454" lon="7.30933">
        <ele>253.4</ele>
        <time>2020-06-28T07:25:37Z</time>
      </trkpt>
      <trkpt lat="48.84544" lon="7.30928">
        <ele>253.7</ele>
        <time>2020-06-28T07:25:39Z</time>
      </trkpt>
      <trkpt lat="48.84548" lon="7.30924">
        <ele>254.4</ele>
        <time>2020-06-28T07:25:41Z</time>
      </trkpt>
      <trkpt lat="48.84551" lon="7.30919">
        <ele>255</ele>
        <time>2020-06-28T07:25:43Z</time>
      </trkpt>
      <trkpt lat="48.84555" lon="7.30913">
        <ele>254.8</ele>
        <time>2020-06-28T07:25:45Z</time>
      </trkpt>
      <trkpt lat="48.84559" lon="7.30908">
        <ele>254.9</ele>
        <time>2020-06-28T07:25:47Z</time>
      </trkpt>
      <trkpt lat="48.84563" lon="7.30903">
        <ele>255.4</ele>
        <time>2020-06-28T07:25:50Z</time>
      </trkpt>
      <trkpt lat="48.84559" lon="7.30903">
        <ele>255.1</ele>
        <time>2020-06-28T07:26:05Z</time>
      </trkpt>
      <trkpt lat="48.84566" lon="7.30901">
        <ele>254.2</ele>
        <time>2020-06-28T07:26:11Z</time>
      </trkpt>
      <trkpt lat="48.84571" lon="7.30901">
        <ele>253.3</ele>
        <time>2020-06-28T07:26:13Z</time>
      </trkpt>
      <trkpt lat="48.84577" lon="7.30899">
        <ele>251.5</ele>
        <time>2020-06-28T07:26:16Z</time>
      </trkpt>
      <trkpt lat="48.84581" lon="7.30897">
        <ele>250.7</ele>
        <time>2020-06-28T07:26:20Z</time>
      </trkpt>
      <trkpt lat="48.84586" lon="7.30895">
        <ele>251.4</ele>
        <time>2020-06-28T07:26:25Z</time>
      </trkpt>
      <trkpt lat="48.84591" lon="7.30892">
        <ele>252.8</ele>
        <time>2020-06-28T07:26:29Z</time>
      </trkpt>
      <trkpt lat="48.84595" lon="7.30887">
        <ele>254.8</ele>
        <time>2020-06-28T07:26:35Z</time>
      </trkpt>
      <trkpt lat="48.84599" lon="7.30885">
        <ele>255.7</ele>
        <time>2020-06-28T07:26:39Z</time>
      </trkpt>
      <trkpt lat="48.84604" lon="7.30883">
        <ele>256.4</ele>
        <time>2020-06-28T07:26:42Z</time>
      </trkpt>
      <trkpt lat="48.84611" lon="7.30882">
        <ele>256.4</ele>
        <time>2020-06-28T07:26:45Z</time>
      </trkpt>
      <trkpt lat="48.84616" lon="7.30883">
        <ele>256.7</ele>
        <time>2020-06-28T07:26:47Z</time>
      </trkpt>
      <trkpt lat="48.84621" lon="7.30884">
        <ele>256.1</ele>
        <time>2020-06-28T07:26:49Z</time>
      </trkpt>
      <trkpt lat="48.84626" lon="7.30885">
        <ele>256.4</ele>
        <time>2020-06-28T07:26:51Z</time>
      </trkpt>
      <trkpt lat="48.84633" lon="7.30883">
        <ele>256.7</ele>
        <time>2020-06-28T07:26:53Z</time>
      </trkpt>
      <trkpt lat="48.84638" lon="7.3088">
        <ele>257.2</ele>
        <time>2020-06-28T07:26:55Z</time>
      </trkpt>
      <trkpt lat="48.84643" lon="7.30879">
        <ele>257.2</ele>
        <time>2020-06-28T07:26:57Z</time>
      </trkpt>
      <trkpt lat="48.84649" lon="7.30877">
        <ele>256.6</ele>
        <time>2020-06-28T07:26:59Z</time>
      </trkpt>
      <trkpt lat="48.84655" lon="7.30875">
        <ele>256.9</ele>
        <time>2020-06-28T07:27:01Z</time>
      </trkpt>
      <trkpt lat="48.8466" lon="7.30871">
        <ele>257.1</ele>
        <time>2020-06-28T07:27:03Z</time>
      </trkpt>
      <trkpt lat="48.84666" lon="7.30868">
        <ele>257.8</ele>
        <time>2020-06-28T07:27:05Z</time>
      </trkpt>
      <trkpt lat="48.84671" lon="7.30865">
        <ele>258.7</ele>
        <time>2020-06-28T07:27:07Z</time>
      </trkpt>
      <trkpt lat="48.84676" lon="7.30862">
        <ele>259.4</ele>
        <time>2020-06-28T07:27:09Z</time>
      </trkpt>
      <trkpt lat="48.8468" lon="7.30859">
        <ele>259.2</ele>
        <time>2020-06-28T07:27:11Z</time>
      </trkpt>
      <trkpt lat="48.84685" lon="7.30859">
        <ele>258.3</ele>
        <time>2020-06-28T07:27:13Z</time>
      </trkpt>
      <trkpt lat="48.8469" lon="7.30861">
        <ele>257.9</ele>
        <time>2020-06-28T07:27:15Z</time>
      </trkpt>
      <trkpt lat="48.84694" lon="7.30863">
        <ele>258</ele>
        <time>2020-06-28T07:27:17Z</time>
      </trkpt>
      <trkpt lat="48.847" lon="7.30867">
        <ele>256.9</ele>
        <time>2020-06-28T07:27:19Z</time>
      </trkpt>
      <trkpt lat="48.84705" lon="7.30871">
        <ele>256.5</ele>
        <time>2020-06-28T07:27:21Z</time>
      </trkpt>
      <trkpt lat="48.84712" lon="7.30874">
        <ele>256.4</ele>
        <time>2020-06-28T07:27:23Z</time>
      </trkpt>
      <trkpt lat="48.84718" lon="7.30875">
        <ele>256.2</ele>
        <time>2020-06-28T07:27:25Z</time>
      </trkpt>
      <trkpt lat="48.84723" lon="7.30876">
        <ele>256.5</ele>
        <time>2020-06-28T07:27:27Z</time>
      </trkpt>
      <trkpt lat="48.84728" lon="7.30878">
        <ele>256.8</ele>
        <time>2020-06-28T07:27:29Z</time>
      </trkpt>
      <trkpt lat="48.84734" lon="7.30879">
        <ele>256.9</ele>
        <time>2020-06-28T07:27:31Z</time>
      </trkpt>
      <trkpt lat="48.8474" lon="7.3088">
        <ele>257.4</ele>
        <time>2020-06-28T07:27:33Z</time>
      </trkpt>
      <trkpt lat="48.84745" lon="7.30883">
        <ele>257.5</ele>
        <time>2020-06-28T07:27:35Z</time>
      </trkpt>
      <trkpt lat="48.84751" lon="7.30887">
        <ele>257</ele>
        <time>2020-06-28T07:27:38Z</time>
      </trkpt>
      <trkpt lat="48.84757" lon="7.30888">
        <ele>257.5</ele>
        <time>2020-06-28T07:27:41Z</time>
      </trkpt>
      <trkpt lat="48.84762" lon="7.30889">
        <ele>258.1</ele>
        <time>2020-06-28T07:27:43Z</time>
      </trkpt>
      <trkpt lat="48.84766" lon="7.30891">
        <ele>258.4</ele>
        <time>2020-06-28T07:27:45Z</time>
      </trkpt>
      <trkpt lat="48.84772" lon="7.30893">
        <ele>259.7</ele>
        <time>2020-06-28T07:27:48Z</time>
      </trkpt>
      <trkpt lat="48.84778" lon="7.30898">
        <ele>261.6</ele>
        <time>2020-06-28T07:27:51Z</time>
      </trkpt>
      <trkpt lat="48.84782" lon="7.30902">
        <ele>262.4</ele>
        <time>2020-06-28T07:27:53Z</time>
      </trkpt>
      <trkpt lat="48.84786" lon="7.30906">
        <ele>262.8</ele>
        <time>2020-06-28T07:27:55Z</time>
      </trkpt>
      <trkpt lat="48.84794" lon="7.30909">
        <ele>264.5</ele>
        <time>2020-06-28T07:27:58Z</time>
      </trkpt>
      <trkpt lat="48.848" lon="7.30907">
        <ele>265.4</ele>
        <time>2020-06-28T07:28:00Z</time>
      </trkpt>
      <trkpt lat="48.84807" lon="7.30905">
        <ele>265.8</ele>
        <time>2020-06-28T07:28:02Z</time>
      </trkpt>
      <trkpt lat="48.84813" lon="7.30905">
        <ele>266.4</ele>
        <time>2020-06-28T07:28:04Z</time>
      </trkpt>
      <trkpt lat="48.84819" lon="7.30905">
        <ele>266.3</ele>
        <time>2020-06-28T07:28:06Z</time>
      </trkpt>
      <trkpt lat="48.84824" lon="7.30905">
        <ele>266.9</ele>
        <time>2020-06-28T07:28:08Z</time>
      </trkpt>
      <trkpt lat="48.84829" lon="7.30905">
        <ele>267.6</ele>
        <time>2020-06-28T07:28:10Z</time>
      </trkpt>
      <trkpt lat="48.84834" lon="7.30906">
        <ele>267.8</ele>
        <time>2020-06-28T07:28:12Z</time>
      </trkpt>
      <trkpt lat="48.8484" lon="7.30908">
        <ele>268.1</ele>
        <time>2020-06-28T07:28:14Z</time>
      </trkpt>
      <trkpt lat="48.84847" lon="7.30911">
        <ele>267.7</ele>
        <time>2020-06-28T07:28:16Z</time>
      </trkpt>
      <trkpt lat="48.84853" lon="7.30913">
        <ele>267.5</ele>
        <time>2020-06-28T07:28:18Z</time>
      </trkpt>
      <trkpt lat="48.84858" lon="7.30915">
        <ele>267.7</ele>
        <time>2020-06-28T07:28:20Z</time>
      </trkpt>
      <trkpt lat="48.84864" lon="7.30917">
        <ele>267.9</ele>
        <time>2020-06-28T07:28:22Z</time>
      </trkpt>
      <trkpt lat="48.84869" lon="7.30918">
        <ele>267.9</ele>
        <time>2020-06-28T07:28:24Z</time>
      </trkpt>
      <trkpt lat="48.84874" lon="7.30919">
        <ele>268</ele>
        <time>2020-06-28T07:28:26Z</time>
      </trkpt>
      <trkpt lat="48.8488" lon="7.30921">
        <ele>268.5</ele>
        <time>2020-06-28T07:28:28Z</time>
      </trkpt>
      <trkpt lat="48.84885" lon="7.30922">
        <ele>269.2</ele>
        <time>2020-06-28T07:28:30Z</time>
      </trkpt>
      <trkpt lat="48.8489" lon="7.30925">
        <ele>269.4</ele>
        <time>2020-06-28T07:28:32Z</time>
      </trkpt>
      <trkpt lat="48.84895" lon="7.30927">
        <ele>269.8</ele>
        <time>2020-06-28T07:28:34Z</time>
      </trkpt>
      <trkpt lat="48.84899" lon="7.3093">
        <ele>270.1</ele>
        <time>2020-06-28T07:28:36Z</time>
      </trkpt>
      <trkpt lat="48.84903" lon="7.30933">
        <ele>270.6</ele>
        <time>2020-06-28T07:28:40Z</time>
      </trkpt>
      <trkpt lat="48.84907" lon="7.30939">
        <ele>271.8</ele>
        <time>2020-06-28T07:28:44Z</time>
      </trkpt>
      <trkpt lat="48.84911" lon="7.30943">
        <ele>273.2</ele>
        <time>2020-06-28T07:28:46Z</time>
      </trkpt>
      <trkpt lat="48.84916" lon="7.3095">
        <ele>274.5</ele>
        <time>2020-06-28T07:28:49Z</time>
      </trkpt>
      <trkpt lat="48.8492" lon="7.30955">
        <ele>275</ele>
        <time>2020-06-28T07:28:51Z</time>
      </trkpt>
      <trkpt lat="48.84924" lon="7.30963">
        <ele>275.8</ele>
        <time>2020-06-28T07:28:54Z</time>
      </trkpt>
      <trkpt lat="48.84927" lon="7.3097">
        <ele>276.3</ele>
        <time>2020-06-28T07:28:56Z</time>
      </trkpt>
      <trkpt lat="48.84931" lon="7.30977">
        <ele>275</ele>
        <time>2020-06-28T07:28:58Z</time>
      </trkpt>
      <trkpt lat="48.84935" lon="7.30985">
        <ele>272.3</ele>
        <time>2020-06-28T07:29:00Z</time>
      </trkpt>
      <trkpt lat="48.8494" lon="7.30993">
        <ele>269.9</ele>
        <time>2020-06-28T07:29:02Z</time>
      </trkpt>
      <trkpt lat="48.84944" lon="7.31">
        <ele>268</ele>
        <time>2020-06-28T07:29:04Z</time>
      </trkpt>
      <trkpt lat="48.84947" lon="7.31007">
        <ele>266.9</ele>
        <time>2020-06-28T07:29:06Z</time>
      </trkpt>
      <trkpt lat="48.8495" lon="7.31013">
        <ele>266.4</ele>
        <time>2020-06-28T07:29:08Z</time>
      </trkpt>
      <trkpt lat="48.84954" lon="7.3102">
        <ele>267.1</ele>
        <time>2020-06-28T07:29:11Z</time>
      </trkpt>
      <trkpt lat="48.84958" lon="7.31024">
        <ele>268.8</ele>
        <time>2020-06-28T07:29:13Z</time>
      </trkpt>
      <trkpt lat="48.84963" lon="7.31027">
        <ele>270.4</ele>
        <time>2020-06-28T07:29:15Z</time>
      </trkpt>
      <trkpt lat="48.84967" lon="7.3103">
        <ele>272.6</ele>
        <time>2020-06-28T07:29:17Z</time>
      </trkpt>
      <trkpt lat="48.84972" lon="7.31034">
        <ele>274.2</ele>
        <time>2020-06-28T07:29:19Z</time>
      </trkpt>
      <trkpt lat="48.84975" lon="7.31039">
        <ele>274.3</ele>
        <time>2020-06-28T07:29:21Z</time>
      </trkpt>
      <trkpt lat="48.84979" lon="7.31046">
        <ele>273.5</ele>
        <time>2020-06-28T07:29:23Z</time>
      </trkpt>
      <trkpt lat="48.84981" lon="7.31053">
        <ele>273.3</ele>
        <time>2020-06-28T07:29:25Z</time>
      </trkpt>
      <trkpt lat="48.84983" lon="7.3106">
        <ele>272.7</ele>
        <time>2020-06-28T07:29:27Z</time>
      </trkpt>
      <trkpt lat="48.84985" lon="7.31068">
        <ele>271.9</ele>
        <time>2020-06-28T07:29:29Z</time>
      </trkpt>
      <trkpt lat="48.8499" lon="7.31073">
        <ele>272.4</ele>
        <time>2020-06-28T07:29:31Z</time>
      </trkpt>
      <trkpt lat="48.84995" lon="7.31073">
        <ele>272.9</ele>
        <time>2020-06-28T07:29:33Z</time>
      </trkpt>
      <trkpt lat="48.85001" lon="7.31069">
        <ele>274.1</ele>
        <time>2020-06-28T07:29:36Z</time>
      </trkpt>
      <trkpt lat="48.85004" lon="7.31064">
        <ele>274.7</ele>
        <time>2020-06-28T07:29:38Z</time>
      </trkpt>
      <trkpt lat="48.85007" lon="7.31057">
        <ele>276</ele>
        <time>2020-06-28T07:29:41Z</time>
      </trkpt>
      <trkpt lat="48.8501" lon="7.31048">
        <ele>277</ele>
        <time>2020-06-28T07:29:45Z</time>
      </trkpt>
      <trkpt lat="48.85014" lon="7.3104">
        <ele>277.4</ele>
        <time>2020-06-28T07:29:48Z</time>
      </trkpt>
      <trkpt lat="48.85015" lon="7.31032">
        <ele>278</ele>
        <time>2020-06-28T07:29:50Z</time>
      </trkpt>
      <trkpt lat="48.85016" lon="7.31025">
        <ele>278.6</ele>
        <time>2020-06-28T07:29:52Z</time>
      </trkpt>
      <trkpt lat="48.85018" lon="7.31018">
        <ele>279.6</ele>
        <time>2020-06-28T07:29:54Z</time>
      </trkpt>
      <trkpt lat="48.85021" lon="7.31011">
        <ele>280.1</ele>
        <time>2020-06-28T07:29:56Z</time>
      </trkpt>
      <trkpt lat="48.85024" lon="7.31004">
        <ele>281.1</ele>
        <time>2020-06-28T07:29:58Z</time>
      </trkpt>
      <trkpt lat="48.85027" lon="7.30997">
        <ele>283.1</ele>
        <time>2020-06-28T07:30:01Z</time>
      </trkpt>
      <trkpt lat="48.85031" lon="7.30992">
        <ele>284</ele>
        <time>2020-06-28T07:30:06Z</time>
      </trkpt>
      <trkpt lat="48.85034" lon="7.30987">
        <ele>287.1</ele>
        <time>2020-06-28T07:30:16Z</time>
      </trkpt>
      <trkpt lat="48.85037" lon="7.30982">
        <ele>287.3</ele>
        <time>2020-06-28T07:30:19Z</time>
      </trkpt>
      <trkpt lat="48.85043" lon="7.30978">
        <ele>287.7</ele>
        <time>2020-06-28T07:30:22Z</time>
      </trkpt>
      <trkpt lat="48.85047" lon="7.30977">
        <ele>288.2</ele>
        <time>2020-06-28T07:30:24Z</time>
      </trkpt>
      <trkpt lat="48.85052" lon="7.30975">
        <ele>289</ele>
        <time>2020-06-28T07:30:26Z</time>
      </trkpt>
      <trkpt lat="48.85058" lon="7.30974">
        <ele>289.3</ele>
        <time>2020-06-28T07:30:28Z</time>
      </trkpt>
      <trkpt lat="48.85062" lon="7.30972">
        <ele>289.7</ele>
        <time>2020-06-28T07:30:30Z</time>
      </trkpt>
      <trkpt lat="48.85068" lon="7.3097">
        <ele>290.2</ele>
        <time>2020-06-28T07:30:32Z</time>
      </trkpt>
      <trkpt lat="48.85073" lon="7.30965">
        <ele>290.6</ele>
        <time>2020-06-28T07:30:34Z</time>
      </trkpt>
      <trkpt lat="48.85079" lon="7.30961">
        <ele>291.1</ele>
        <time>2020-06-28T07:30:36Z</time>
      </trkpt>
      <trkpt lat="48.85084" lon="7.30957">
        <ele>291.7</ele>
        <time>2020-06-28T07:30:38Z</time>
      </trkpt>
      <trkpt lat="48.85089" lon="7.30954">
        <ele>292.6</ele>
        <time>2020-06-28T07:30:40Z</time>
      </trkpt>
      <trkpt lat="48.85087" lon="7.30961">
        <ele>285.4</ele>
        <time>2020-06-28T07:31:00Z</time>
      </trkpt>
      <trkpt lat="48.85095" lon="7.3096">
        <ele>283.4</ele>
        <time>2020-06-28T07:31:12Z</time>
      </trkpt>
      <trkpt lat="48.85103" lon="7.30958">
        <ele>282.9</ele>
        <time>2020-06-28T07:31:14Z</time>
      </trkpt>
      <trkpt lat="48.8511" lon="7.30957">
        <ele>282.8</ele>
        <time>2020-06-28T07:31:16Z</time>
      </trkpt>
      <trkpt lat="48.85119" lon="7.30957">
        <ele>285.5</ele>
        <time>2020-06-28T07:31:18Z</time>
      </trkpt>
      <trkpt lat="48.85129" lon="7.3096">
        <ele>286.1</ele>
        <time>2020-06-28T07:31:21Z</time>
      </trkpt>
      <trkpt lat="48.85135" lon="7.30962">
        <ele>286.2</ele>
        <time>2020-06-28T07:31:23Z</time>
      </trkpt>
      <trkpt lat="48.8514" lon="7.30963">
        <ele>286.2</ele>
        <time>2020-06-28T07:31:25Z</time>
      </trkpt>
      <trkpt lat="48.85145" lon="7.30964">
        <ele>286.5</ele>
        <time>2020-06-28T07:31:27Z</time>
      </trkpt>
      <trkpt lat="48.85153" lon="7.30968">
        <ele>286.1</ele>
        <time>2020-06-28T07:31:30Z</time>
      </trkpt>
      <trkpt lat="48.85159" lon="7.30973">
        <ele>286.1</ele>
        <time>2020-06-28T07:31:32Z</time>
      </trkpt>
      <trkpt lat="48.85165" lon="7.30976">
        <ele>286.7</ele>
        <time>2020-06-28T07:31:34Z</time>
      </trkpt>
      <trkpt lat="48.85171" lon="7.3098">
        <ele>286.9</ele>
        <time>2020-06-28T07:31:36Z</time>
      </trkpt>
      <trkpt lat="48.85176" lon="7.30984">
        <ele>287.7</ele>
        <time>2020-06-28T07:31:38Z</time>
      </trkpt>
      <trkpt lat="48.85182" lon="7.30991">
        <ele>286.7</ele>
        <time>2020-06-28T07:31:40Z</time>
      </trkpt>
      <trkpt lat="48.85186" lon="7.30999">
        <ele>286.6</ele>
        <time>2020-06-28T07:31:42Z</time>
      </trkpt>
      <trkpt lat="48.8519" lon="7.31007">
        <ele>286</ele>
        <time>2020-06-28T07:31:44Z</time>
      </trkpt>
      <trkpt lat="48.85192" lon="7.31014">
        <ele>285.9</ele>
        <time>2020-06-28T07:31:46Z</time>
      </trkpt>
      <trkpt lat="48.85194" lon="7.3102">
        <ele>286.3</ele>
        <time>2020-06-28T07:31:48Z</time>
      </trkpt>
      <trkpt lat="48.85197" lon="7.31027">
        <ele>286.3</ele>
        <time>2020-06-28T07:31:50Z</time>
      </trkpt>
      <trkpt lat="48.85199" lon="7.31033">
        <ele>286.3</ele>
        <time>2020-06-28T07:31:52Z</time>
      </trkpt>
      <trkpt lat="48.85204" lon="7.31038">
        <ele>286.7</ele>
        <time>2020-06-28T07:31:54Z</time>
      </trkpt>
      <trkpt lat="48.85208" lon="7.31041">
        <ele>287.4</ele>
        <time>2020-06-28T07:31:56Z</time>
      </trkpt>
      <trkpt lat="48.85211" lon="7.31047">
        <ele>287.9</ele>
        <time>2020-06-28T07:31:58Z</time>
      </trkpt>
      <trkpt lat="48.85212" lon="7.31054">
        <ele>288</ele>
        <time>2020-06-28T07:32:00Z</time>
      </trkpt>
      <trkpt lat="48.85213" lon="7.31061">
        <ele>287.2</ele>
        <time>2020-06-28T07:32:02Z</time>
      </trkpt>
      <trkpt lat="48.85216" lon="7.31068">
        <ele>286.8</ele>
        <time>2020-06-28T07:32:04Z</time>
      </trkpt>
      <trkpt lat="48.85219" lon="7.31078">
        <ele>286.7</ele>
        <time>2020-06-28T07:32:07Z</time>
      </trkpt>
      <trkpt lat="48.85222" lon="7.31084">
        <ele>287.5</ele>
        <time>2020-06-28T07:32:09Z</time>
      </trkpt>
      <trkpt lat="48.85225" lon="7.3109">
        <ele>288</ele>
        <time>2020-06-28T07:32:11Z</time>
      </trkpt>
      <trkpt lat="48.85228" lon="7.31098">
        <ele>289</ele>
        <time>2020-06-28T07:32:13Z</time>
      </trkpt>
      <trkpt lat="48.8523" lon="7.31107">
        <ele>289.5</ele>
        <time>2020-06-28T07:32:15Z</time>
      </trkpt>
      <trkpt lat="48.85231" lon="7.31116">
        <ele>290.2</ele>
        <time>2020-06-28T07:32:17Z</time>
      </trkpt>
      <trkpt lat="48.85232" lon="7.31125">
        <ele>290.8</ele>
        <time>2020-06-28T07:32:19Z</time>
      </trkpt>
      <trkpt lat="48.85233" lon="7.31133">
        <ele>292.3</ele>
        <time>2020-06-28T07:32:21Z</time>
      </trkpt>
      <trkpt lat="48.85235" lon="7.3114">
        <ele>293.1</ele>
        <time>2020-06-28T07:32:23Z</time>
      </trkpt>
      <trkpt lat="48.85237" lon="7.31147">
        <ele>294.7</ele>
        <time>2020-06-28T07:32:25Z</time>
      </trkpt>
      <trkpt lat="48.85237" lon="7.31156">
        <ele>296</ele>
        <time>2020-06-28T07:32:27Z</time>
      </trkpt>
      <trkpt lat="48.85238" lon="7.31166">
        <ele>296.8</ele>
        <time>2020-06-28T07:32:29Z</time>
      </trkpt>
      <trkpt lat="48.85237" lon="7.31175">
        <ele>298.1</ele>
        <time>2020-06-28T07:32:31Z</time>
      </trkpt>
      <trkpt lat="48.85237" lon="7.31183">
        <ele>299.9</ele>
        <time>2020-06-28T07:32:34Z</time>
      </trkpt>
      <trkpt lat="48.85241" lon="7.31187">
        <ele>301</ele>
        <time>2020-06-28T07:32:37Z</time>
      </trkpt>
      <trkpt lat="48.85245" lon="7.31189">
        <ele>302.4</ele>
        <time>2020-06-28T07:32:39Z</time>
      </trkpt>
      <trkpt lat="48.85252" lon="7.31192">
        <ele>303.2</ele>
        <time>2020-06-28T07:32:41Z</time>
      </trkpt>
      <trkpt lat="48.85256" lon="7.31195">
        <ele>304.3</ele>
        <time>2020-06-28T07:32:43Z</time>
      </trkpt>
      <trkpt lat="48.85261" lon="7.31197">
        <ele>305.5</ele>
        <time>2020-06-28T07:32:46Z</time>
      </trkpt>
      <trkpt lat="48.85266" lon="7.31196">
        <ele>305.4</ele>
        <time>2020-06-28T07:32:49Z</time>
      </trkpt>
      <trkpt lat="48.85272" lon="7.31194">
        <ele>305.2</ele>
        <time>2020-06-28T07:32:52Z</time>
      </trkpt>
      <trkpt lat="48.85276" lon="7.31191">
        <ele>304.8</ele>
        <time>2020-06-28T07:32:54Z</time>
      </trkpt>
      <trkpt lat="48.85281" lon="7.31186">
        <ele>305.3</ele>
        <time>2020-06-28T07:32:57Z</time>
      </trkpt>
      <trkpt lat="48.85286" lon="7.31183">
        <ele>305.5</ele>
        <time>2020-06-28T07:33:00Z</time>
      </trkpt>
      <trkpt lat="48.85291" lon="7.31178">
        <ele>305.1</ele>
        <time>2020-06-28T07:33:03Z</time>
      </trkpt>
      <trkpt lat="48.85297" lon="7.31175">
        <ele>304.7</ele>
        <time>2020-06-28T07:33:06Z</time>
      </trkpt>
      <trkpt lat="48.85303" lon="7.31173">
        <ele>303.9</ele>
        <time>2020-06-28T07:33:09Z</time>
      </trkpt>
      <trkpt lat="48.85307" lon="7.31172">
        <ele>303.4</ele>
        <time>2020-06-28T07:33:11Z</time>
      </trkpt>
      <trkpt lat="48.85313" lon="7.31169">
        <ele>303.8</ele>
        <time>2020-06-28T07:33:14Z</time>
      </trkpt>
      <trkpt lat="48.85318" lon="7.31164">
        <ele>304.3</ele>
        <time>2020-06-28T07:33:16Z</time>
      </trkpt>
      <trkpt lat="48.85322" lon="7.31158">
        <ele>303.9</ele>
        <time>2020-06-28T07:33:18Z</time>
      </trkpt>
      <trkpt lat="48.85326" lon="7.31153">
        <ele>304.9</ele>
        <time>2020-06-28T07:33:20Z</time>
      </trkpt>
      <trkpt lat="48.85331" lon="7.31148">
        <ele>305.3</ele>
        <time>2020-06-28T07:33:22Z</time>
      </trkpt>
      <trkpt lat="48.85336" lon="7.31146">
        <ele>305.5</ele>
        <time>2020-06-28T07:33:24Z</time>
      </trkpt>
      <trkpt lat="48.85341" lon="7.31143">
        <ele>306.2</ele>
        <time>2020-06-28T07:33:27Z</time>
      </trkpt>
      <trkpt lat="48.85345" lon="7.3114">
        <ele>307.6</ele>
        <time>2020-06-28T07:33:30Z</time>
      </trkpt>
      <trkpt lat="48.85351" lon="7.31138">
        <ele>308.8</ele>
        <time>2020-06-28T07:33:33Z</time>
      </trkpt>
      <trkpt lat="48.85356" lon="7.31137">
        <ele>310.4</ele>
        <time>2020-06-28T07:33:37Z</time>
      </trkpt>
      <trkpt lat="48.85362" lon="7.31142">
        <ele>311.3</ele>
        <time>2020-06-28T07:33:40Z</time>
      </trkpt>
      <trkpt lat="48.85368" lon="7.31143">
        <ele>311.2</ele>
        <time>2020-06-28T07:33:43Z</time>
      </trkpt>
      <trkpt lat="48.85374" lon="7.31146">
        <ele>310</ele>
        <time>2020-06-28T07:33:46Z</time>
      </trkpt>
      <trkpt lat="48.85378" lon="7.3115">
        <ele>309.2</ele>
        <time>2020-06-28T07:33:48Z</time>
      </trkpt>
      <trkpt lat="48.85382" lon="7.31156">
        <ele>308.3</ele>
        <time>2020-06-28T07:33:50Z</time>
      </trkpt>
      <trkpt lat="48.85385" lon="7.31162">
        <ele>307</ele>
        <time>2020-06-28T07:33:52Z</time>
      </trkpt>
      <trkpt lat="48.8539" lon="7.31168">
        <ele>305.9</ele>
        <time>2020-06-28T07:33:54Z</time>
      </trkpt>
      <trkpt lat="48.85394" lon="7.31173">
        <ele>306.2</ele>
        <time>2020-06-28T07:33:56Z</time>
      </trkpt>
      <trkpt lat="48.85398" lon="7.31179">
        <ele>306.7</ele>
        <time>2020-06-28T07:33:58Z</time>
      </trkpt>
      <trkpt lat="48.85401" lon="7.31186">
        <ele>307.6</ele>
        <time>2020-06-28T07:34:01Z</time>
      </trkpt>
      <trkpt lat="48.85404" lon="7.31193">
        <ele>308.2</ele>
        <time>2020-06-28T07:34:03Z</time>
      </trkpt>
      <trkpt lat="48.85406" lon="7.312">
        <ele>308.3</ele>
        <time>2020-06-28T07:34:05Z</time>
      </trkpt>
      <trkpt lat="48.85406" lon="7.31207">
        <ele>308.6</ele>
        <time>2020-06-28T07:34:07Z</time>
      </trkpt>
      <trkpt lat="48.85407" lon="7.31213">
        <ele>308.6</ele>
        <time>2020-06-28T07:34:09Z</time>
      </trkpt>
      <trkpt lat="48.85409" lon="7.31223">
        <ele>309.3</ele>
        <time>2020-06-28T07:34:12Z</time>
      </trkpt>
      <trkpt lat="48.85411" lon="7.31232">
        <ele>309.3</ele>
        <time>2020-06-28T07:34:14Z</time>
      </trkpt>
      <trkpt lat="48.85413" lon="7.31239">
        <ele>308.9</ele>
        <time>2020-06-28T07:34:16Z</time>
      </trkpt>
      <trkpt lat="48.85414" lon="7.31246">
        <ele>308.2</ele>
        <time>2020-06-28T07:34:18Z</time>
      </trkpt>
      <trkpt lat="48.85417" lon="7.31255">
        <ele>308.5</ele>
        <time>2020-06-28T07:34:21Z</time>
      </trkpt>
      <trkpt lat="48.8542" lon="7.31261">
        <ele>308.1</ele>
        <time>2020-06-28T07:34:23Z</time>
      </trkpt>
      <trkpt lat="48.85421" lon="7.3127">
        <ele>308.3</ele>
        <time>2020-06-28T07:34:26Z</time>
      </trkpt>
      <trkpt lat="48.85421" lon="7.3128">
        <ele>308.8</ele>
        <time>2020-06-28T07:34:29Z</time>
      </trkpt>
      <trkpt lat="48.85422" lon="7.31287">
        <ele>309.3</ele>
        <time>2020-06-28T07:34:31Z</time>
      </trkpt>
      <trkpt lat="48.85424" lon="7.31296">
        <ele>309.1</ele>
        <time>2020-06-28T07:34:34Z</time>
      </trkpt>
      <trkpt lat="48.85426" lon="7.31305">
        <ele>309</ele>
        <time>2020-06-28T07:34:37Z</time>
      </trkpt>
      <trkpt lat="48.85427" lon="7.31312">
        <ele>308.4</ele>
        <time>2020-06-28T07:34:39Z</time>
      </trkpt>
      <trkpt lat="48.85428" lon="7.31321">
        <ele>308.4</ele>
        <time>2020-06-28T07:34:41Z</time>
      </trkpt>
      <trkpt lat="48.85429" lon="7.31328">
        <ele>309</ele>
        <time>2020-06-28T07:34:43Z</time>
      </trkpt>
      <trkpt lat="48.8543" lon="7.31335">
        <ele>309.3</ele>
        <time>2020-06-28T07:34:45Z</time>
      </trkpt>
      <trkpt lat="48.85431" lon="7.31344">
        <ele>310.6</ele>
        <time>2020-06-28T07:34:48Z</time>
      </trkpt>
      <trkpt lat="48.85432" lon="7.31353">
        <ele>311.8</ele>
        <time>2020-06-28T07:34:51Z</time>
      </trkpt>
      <trkpt lat="48.85432" lon="7.3136">
        <ele>312.2</ele>
        <time>2020-06-28T07:34:53Z</time>
      </trkpt>
      <trkpt lat="48.85432" lon="7.31367">
        <ele>312.8</ele>
        <time>2020-06-28T07:34:55Z</time>
      </trkpt>
      <trkpt lat="48.85432" lon="7.31375">
        <ele>313.7</ele>
        <time>2020-06-28T07:34:57Z</time>
      </trkpt>
      <trkpt lat="48.85431" lon="7.31385">
        <ele>315.2</ele>
        <time>2020-06-28T07:35:00Z</time>
      </trkpt>
      <trkpt lat="48.8543" lon="7.31394">
        <ele>316.8</ele>
        <time>2020-06-28T07:35:03Z</time>
      </trkpt>
      <trkpt lat="48.85428" lon="7.31401">
        <ele>317.8</ele>
        <time>2020-06-28T07:35:05Z</time>
      </trkpt>
      <trkpt lat="48.85426" lon="7.31409">
        <ele>319.3</ele>
        <time>2020-06-28T07:35:07Z</time>
      </trkpt>
      <trkpt lat="48.85424" lon="7.31415">
        <ele>319.2</ele>
        <time>2020-06-28T07:35:09Z</time>
      </trkpt>
      <trkpt lat="48.85422" lon="7.31424">
        <ele>320</ele>
        <time>2020-06-28T07:35:12Z</time>
      </trkpt>
      <trkpt lat="48.85421" lon="7.31431">
        <ele>320.7</ele>
        <time>2020-06-28T07:35:14Z</time>
      </trkpt>
      <trkpt lat="48.85421" lon="7.31438">
        <ele>321.2</ele>
        <time>2020-06-28T07:35:16Z</time>
      </trkpt>
      <trkpt lat="48.85419" lon="7.31447">
        <ele>320.5</ele>
        <time>2020-06-28T07:35:19Z</time>
      </trkpt>
      <trkpt lat="48.85417" lon="7.31456">
        <ele>320.5</ele>
        <time>2020-06-28T07:35:22Z</time>
      </trkpt>
      <trkpt lat="48.85416" lon="7.31465">
        <ele>320.4</ele>
        <time>2020-06-28T07:35:25Z</time>
      </trkpt>
      <trkpt lat="48.85419" lon="7.31474">
        <ele>319.4</ele>
        <time>2020-06-28T07:35:29Z</time>
      </trkpt>
      <trkpt lat="48.8542" lon="7.31481">
        <ele>319.5</ele>
        <time>2020-06-28T07:35:32Z</time>
      </trkpt>
      <trkpt lat="48.8542" lon="7.31489">
        <ele>320.1</ele>
        <time>2020-06-28T07:35:35Z</time>
      </trkpt>
      <trkpt lat="48.85418" lon="7.31497">
        <ele>320.3</ele>
        <time>2020-06-28T07:35:38Z</time>
      </trkpt>
      <trkpt lat="48.85417" lon="7.31507">
        <ele>321.7</ele>
        <time>2020-06-28T07:35:41Z</time>
      </trkpt>
      <trkpt lat="48.85416" lon="7.31516">
        <ele>322.3</ele>
        <time>2020-06-28T07:35:43Z</time>
      </trkpt>
      <trkpt lat="48.85415" lon="7.31525">
        <ele>322.6</ele>
        <time>2020-06-28T07:35:45Z</time>
      </trkpt>
      <trkpt lat="48.85414" lon="7.31533">
        <ele>323.1</ele>
        <time>2020-06-28T07:35:47Z</time>
      </trkpt>
      <trkpt lat="48.85412" lon="7.31544">
        <ele>324.3</ele>
        <time>2020-06-28T07:35:49Z</time>
      </trkpt>
      <trkpt lat="48.85411" lon="7.31554">
        <ele>324.7</ele>
        <time>2020-06-28T07:35:51Z</time>
      </trkpt>
      <trkpt lat="48.85411" lon="7.31564">
        <ele>325.5</ele>
        <time>2020-06-28T07:35:53Z</time>
      </trkpt>
      <trkpt lat="48.85413" lon="7.31572">
        <ele>326.2</ele>
        <time>2020-06-28T07:35:55Z</time>
      </trkpt>
      <trkpt lat="48.85416" lon="7.3158">
        <ele>326.5</ele>
        <time>2020-06-28T07:35:57Z</time>
      </trkpt>
      <trkpt lat="48.85419" lon="7.31586">
        <ele>327.5</ele>
        <time>2020-06-28T07:35:59Z</time>
      </trkpt>
      <trkpt lat="48.85421" lon="7.31593">
        <ele>328.9</ele>
        <time>2020-06-28T07:36:01Z</time>
      </trkpt>
      <trkpt lat="48.85424" lon="7.31599">
        <ele>328.5</ele>
        <time>2020-06-28T07:36:03Z</time>
      </trkpt>
      <trkpt lat="48.85425" lon="7.31609">
        <ele>327.9</ele>
        <time>2020-06-28T07:36:06Z</time>
      </trkpt>
      <trkpt lat="48.85424" lon="7.31616">
        <ele>328</ele>
        <time>2020-06-28T07:36:08Z</time>
      </trkpt>
      <trkpt lat="48.85425" lon="7.31625">
        <ele>329.1</ele>
        <time>2020-06-28T07:36:11Z</time>
      </trkpt>
      <trkpt lat="48.8543" lon="7.31632">
        <ele>330.1</ele>
        <time>2020-06-28T07:36:14Z</time>
      </trkpt>
      <trkpt lat="48.85432" lon="7.3164">
        <ele>331.1</ele>
        <time>2020-06-28T07:36:18Z</time>
      </trkpt>
      <trkpt lat="48.85432" lon="7.31647">
        <ele>332</ele>
        <time>2020-06-28T07:36:22Z</time>
      </trkpt>
      <trkpt lat="48.85429" lon="7.31654">
        <ele>333.2</ele>
        <time>2020-06-28T07:36:26Z</time>
      </trkpt>
      <trkpt lat="48.8543" lon="7.31664">
        <ele>334</ele>
        <time>2020-06-28T07:36:29Z</time>
      </trkpt>
      <trkpt lat="48.85431" lon="7.31672">
        <ele>334.6</ele>
        <time>2020-06-28T07:36:32Z</time>
      </trkpt>
      <trkpt lat="48.85433" lon="7.31681">
        <ele>335.8</ele>
        <time>2020-06-28T07:36:35Z</time>
      </trkpt>
      <trkpt lat="48.85435" lon="7.31691">
        <ele>336.4</ele>
        <time>2020-06-28T07:36:38Z</time>
      </trkpt>
      <trkpt lat="48.85437" lon="7.317">
        <ele>336.5</ele>
        <time>2020-06-28T07:36:41Z</time>
      </trkpt>
      <trkpt lat="48.85438" lon="7.31707">
        <ele>337.5</ele>
        <time>2020-06-28T07:36:44Z</time>
      </trkpt>
      <trkpt lat="48.8544" lon="7.31716">
        <ele>338</ele>
        <time>2020-06-28T07:36:47Z</time>
      </trkpt>
      <trkpt lat="48.85441" lon="7.31725">
        <ele>337.8</ele>
        <time>2020-06-28T07:36:50Z</time>
      </trkpt>
      <trkpt lat="48.85442" lon="7.31733">
        <ele>338.2</ele>
        <time>2020-06-28T07:36:53Z</time>
      </trkpt>
      <trkpt lat="48.85444" lon="7.31742">
        <ele>339.2</ele>
        <time>2020-06-28T07:36:57Z</time>
      </trkpt>
      <trkpt lat="48.85447" lon="7.31747">
        <ele>340.1</ele>
        <time>2020-06-28T07:37:00Z</time>
      </trkpt>
      <trkpt lat="48.8545" lon="7.31752">
        <ele>339.9</ele>
        <time>2020-06-28T07:37:03Z</time>
      </trkpt>
      <trkpt lat="48.85451" lon="7.31759">
        <ele>339.9</ele>
        <time>2020-06-28T07:37:06Z</time>
      </trkpt>
      <trkpt lat="48.85454" lon="7.31767">
        <ele>340.8</ele>
        <time>2020-06-28T07:37:09Z</time>
      </trkpt>
      <trkpt lat="48.85462" lon="7.31777">
        <ele>341</ele>
        <time>2020-06-28T07:37:11Z</time>
      </trkpt>
      <trkpt lat="48.8547" lon="7.31787">
        <ele>340.9</ele>
        <time>2020-06-28T07:37:13Z</time>
      </trkpt>
      <trkpt lat="48.85475" lon="7.31795">
        <ele>340.8</ele>
        <time>2020-06-28T07:37:15Z</time>
      </trkpt>
      <trkpt lat="48.85478" lon="7.31802">
        <ele>340.4</ele>
        <time>2020-06-28T07:37:17Z</time>
      </trkpt>
      <trkpt lat="48.85481" lon="7.31806">
        <ele>340.6</ele>
        <time>2020-06-28T07:37:19Z</time>
      </trkpt>
      <trkpt lat="48.85486" lon="7.31809">
        <ele>340.9</ele>
        <time>2020-06-28T07:37:21Z</time>
      </trkpt>
      <trkpt lat="48.85491" lon="7.31813">
        <ele>340.9</ele>
        <time>2020-06-28T07:37:23Z</time>
      </trkpt>
      <trkpt lat="48.85497" lon="7.31817">
        <ele>341</ele>
        <time>2020-06-28T07:37:26Z</time>
      </trkpt>
      <trkpt lat="48.855" lon="7.31824">
        <ele>341.5</ele>
        <time>2020-06-28T07:37:30Z</time>
      </trkpt>
      <trkpt lat="48.85505" lon="7.31829">
        <ele>341.8</ele>
        <time>2020-06-28T07:37:33Z</time>
      </trkpt>
      <trkpt lat="48.8551" lon="7.31832">
        <ele>342.7</ele>
        <time>2020-06-28T07:37:36Z</time>
      </trkpt>
      <trkpt lat="48.85515" lon="7.31834">
        <ele>342.6</ele>
        <time>2020-06-28T07:37:39Z</time>
      </trkpt>
      <trkpt lat="48.8552" lon="7.31836">
        <ele>347.9</ele>
        <time>2020-06-28T07:37:56Z</time>
      </trkpt>
      <trkpt lat="48.85526" lon="7.31841">
        <ele>347.3</ele>
        <time>2020-06-28T07:37:59Z</time>
      </trkpt>
      <trkpt lat="48.8553" lon="7.31846">
        <ele>346.6</ele>
        <time>2020-06-28T07:38:01Z</time>
      </trkpt>
      <trkpt lat="48.85535" lon="7.3185">
        <ele>346.4</ele>
        <time>2020-06-28T07:38:03Z</time>
      </trkpt>
      <trkpt lat="48.8554" lon="7.31854">
        <ele>346.2</ele>
        <time>2020-06-28T07:38:05Z</time>
      </trkpt>
      <trkpt lat="48.85546" lon="7.31857">
        <ele>346.1</ele>
        <time>2020-06-28T07:38:07Z</time>
      </trkpt>
      <trkpt lat="48.85551" lon="7.31859">
        <ele>345.8</ele>
        <time>2020-06-28T07:38:09Z</time>
      </trkpt>
      <trkpt lat="48.85557" lon="7.31861">
        <ele>345.7</ele>
        <time>2020-06-28T07:38:11Z</time>
      </trkpt>
      <trkpt lat="48.85561" lon="7.31863">
        <ele>345.7</ele>
        <time>2020-06-28T07:38:13Z</time>
      </trkpt>
      <trkpt lat="48.85567" lon="7.31863">
        <ele>345.2</ele>
        <time>2020-06-28T07:38:15Z</time>
      </trkpt>
      <trkpt lat="48.85572" lon="7.31863">
        <ele>344.9</ele>
        <time>2020-06-28T07:38:17Z</time>
      </trkpt>
      <trkpt lat="48.85577" lon="7.31863">
        <ele>344.7</ele>
        <time>2020-06-28T07:38:19Z</time>
      </trkpt>
      <trkpt lat="48.85583" lon="7.31863">
        <ele>345.1</ele>
        <time>2020-06-28T07:38:21Z</time>
      </trkpt>
      <trkpt lat="48.85588" lon="7.31861">
        <ele>345.5</ele>
        <time>2020-06-28T07:38:23Z</time>
      </trkpt>
      <trkpt lat="48.85593" lon="7.31859">
        <ele>346.3</ele>
        <time>2020-06-28T07:38:25Z</time>
      </trkpt>
      <trkpt lat="48.85599" lon="7.31857">
        <ele>346.7</ele>
        <time>2020-06-28T07:38:28Z</time>
      </trkpt>
      <trkpt lat="48.85605" lon="7.31854">
        <ele>346.6</ele>
        <time>2020-06-28T07:38:31Z</time>
      </trkpt>
      <trkpt lat="48.85611" lon="7.31853">
        <ele>346.9</ele>
        <time>2020-06-28T07:38:34Z</time>
      </trkpt>
      <trkpt lat="48.85617" lon="7.31851">
        <ele>347.6</ele>
        <time>2020-06-28T07:38:37Z</time>
      </trkpt>
      <trkpt lat="48.85621" lon="7.31848">
        <ele>348.1</ele>
        <time>2020-06-28T07:38:39Z</time>
      </trkpt>
      <trkpt lat="48.85627" lon="7.31847">
        <ele>348.7</ele>
        <time>2020-06-28T07:38:41Z</time>
      </trkpt>
      <trkpt lat="48.85632" lon="7.31843">
        <ele>350.1</ele>
        <time>2020-06-28T07:38:44Z</time>
      </trkpt>
      <trkpt lat="48.85638" lon="7.31839">
        <ele>351.3</ele>
        <time>2020-06-28T07:38:47Z</time>
      </trkpt>
      <trkpt lat="48.85643" lon="7.31833">
        <ele>352.9</ele>
        <time>2020-06-28T07:38:50Z</time>
      </trkpt>
      <trkpt lat="48.85647" lon="7.31825">
        <ele>354.5</ele>
        <time>2020-06-28T07:38:53Z</time>
      </trkpt>
      <trkpt lat="48.85652" lon="7.31819">
        <ele>355</ele>
        <time>2020-06-28T07:38:56Z</time>
      </trkpt>
      <trkpt lat="48.85657" lon="7.31818">
        <ele>356.3</ele>
        <time>2020-06-28T07:38:59Z</time>
      </trkpt>
      <trkpt lat="48.85663" lon="7.31821">
        <ele>356.5</ele>
        <time>2020-06-28T07:39:03Z</time>
      </trkpt>
      <trkpt lat="48.85668" lon="7.31823">
        <ele>356.1</ele>
        <time>2020-06-28T07:39:07Z</time>
      </trkpt>
      <trkpt lat="48.85673" lon="7.3182">
        <ele>355.3</ele>
        <time>2020-06-28T07:39:11Z</time>
      </trkpt>
      <trkpt lat="48.85674" lon="7.31811">
        <ele>354.8</ele>
        <time>2020-06-28T07:39:14Z</time>
      </trkpt>
      <trkpt lat="48.85672" lon="7.31805">
        <ele>354.6</ele>
        <time>2020-06-28T07:39:16Z</time>
      </trkpt>
      <trkpt lat="48.8567" lon="7.31798">
        <ele>354.5</ele>
        <time>2020-06-28T07:39:18Z</time>
      </trkpt>
      <trkpt lat="48.85667" lon="7.31791">
        <ele>354.4</ele>
        <time>2020-06-28T07:39:20Z</time>
      </trkpt>
      <trkpt lat="48.85663" lon="7.31783">
        <ele>354.1</ele>
        <time>2020-06-28T07:39:22Z</time>
      </trkpt>
      <trkpt lat="48.85661" lon="7.31775">
        <ele>353.9</ele>
        <time>2020-06-28T07:39:24Z</time>
      </trkpt>
      <trkpt lat="48.85661" lon="7.31767">
        <ele>353.7</ele>
        <time>2020-06-28T07:39:26Z</time>
      </trkpt>
      <trkpt lat="48.85661" lon="7.31759">
        <ele>353.5</ele>
        <time>2020-06-28T07:39:28Z</time>
      </trkpt>
      <trkpt lat="48.85662" lon="7.31751">
        <ele>353.5</ele>
        <time>2020-06-28T07:39:30Z</time>
      </trkpt>
      <trkpt lat="48.85663" lon="7.31743">
        <ele>353.1</ele>
        <time>2020-06-28T07:39:32Z</time>
      </trkpt>
      <trkpt lat="48.85665" lon="7.31735">
        <ele>352.9</ele>
        <time>2020-06-28T07:39:34Z</time>
      </trkpt>
      <trkpt lat="48.85666" lon="7.31726">
        <ele>352.6</ele>
        <time>2020-06-28T07:39:36Z</time>
      </trkpt>
      <trkpt lat="48.85668" lon="7.31717">
        <ele>352.7</ele>
        <time>2020-06-28T07:39:38Z</time>
      </trkpt>
      <trkpt lat="48.85672" lon="7.31708">
        <ele>352.3</ele>
        <time>2020-06-28T07:39:40Z</time>
      </trkpt>
      <trkpt lat="48.85674" lon="7.31699">
        <ele>352</ele>
        <time>2020-06-28T07:39:42Z</time>
      </trkpt>
      <trkpt lat="48.85676" lon="7.31689">
        <ele>351.7</ele>
        <time>2020-06-28T07:39:44Z</time>
      </trkpt>
      <trkpt lat="48.85678" lon="7.31681">
        <ele>351.5</ele>
        <time>2020-06-28T07:39:46Z</time>
      </trkpt>
      <trkpt lat="48.85679" lon="7.31674">
        <ele>351.4</ele>
        <time>2020-06-28T07:39:48Z</time>
      </trkpt>
      <trkpt lat="48.85681" lon="7.31666">
        <ele>351.2</ele>
        <time>2020-06-28T07:39:50Z</time>
      </trkpt>
      <trkpt lat="48.85683" lon="7.31655">
        <ele>350.9</ele>
        <time>2020-06-28T07:39:52Z</time>
      </trkpt>
      <trkpt lat="48.85683" lon="7.31643">
        <ele>350.6</ele>
        <time>2020-06-28T07:39:54Z</time>
      </trkpt>
      <trkpt lat="48.85684" lon="7.31631">
        <ele>350.2</ele>
        <time>2020-06-28T07:39:56Z</time>
      </trkpt>
      <trkpt lat="48.85686" lon="7.3162">
        <ele>349.9</ele>
        <time>2020-06-28T07:39:58Z</time>
      </trkpt>
      <trkpt lat="48.85688" lon="7.31609">
        <ele>349.4</ele>
        <time>2020-06-28T07:40:00Z</time>
      </trkpt>
      <trkpt lat="48.85689" lon="7.31599">
        <ele>348.8</ele>
        <time>2020-06-28T07:40:02Z</time>
      </trkpt>
      <trkpt lat="48.85691" lon="7.31588">
        <ele>348.4</ele>
        <time>2020-06-28T07:40:04Z</time>
      </trkpt>
      <trkpt lat="48.85692" lon="7.31575">
        <ele>348.2</ele>
        <time>2020-06-28T07:40:06Z</time>
      </trkpt>
      <trkpt lat="48.85691" lon="7.31563">
        <ele>347.6</ele>
        <time>2020-06-28T07:40:08Z</time>
      </trkpt>
      <trkpt lat="48.85689" lon="7.31555">
        <ele>347</ele>
        <time>2020-06-28T07:40:10Z</time>
      </trkpt>
      <trkpt lat="48.85686" lon="7.31543">
        <ele>346.6</ele>
        <time>2020-06-28T07:40:13Z</time>
      </trkpt>
      <trkpt lat="48.85685" lon="7.31535">
        <ele>345.9</ele>
        <time>2020-06-28T07:40:15Z</time>
      </trkpt>
      <trkpt lat="48.85683" lon="7.31527">
        <ele>345.8</ele>
        <time>2020-06-28T07:40:18Z</time>
      </trkpt>
      <trkpt lat="48.85679" lon="7.31534">
        <ele>341.8</ele>
        <time>2020-06-28T07:45:13Z</time>
      </trkpt>
      <trkpt lat="48.85674" lon="7.31535">
        <ele>342.8</ele>
        <time>2020-06-28T07:45:17Z</time>
      </trkpt>
      <trkpt lat="48.8567" lon="7.31542">
        <ele>343.6</ele>
        <time>2020-06-28T07:45:22Z</time>
      </trkpt>
      <trkpt lat="48.85669" lon="7.31549">
        <ele>344.5</ele>
        <time>2020-06-28T07:45:25Z</time>
      </trkpt>
      <trkpt lat="48.85667" lon="7.31558">
        <ele>345.1</ele>
        <time>2020-06-28T07:45:28Z</time>
      </trkpt>
      <trkpt lat="48.85666" lon="7.31565">
        <ele>345.3</ele>
        <time>2020-06-28T07:45:30Z</time>
      </trkpt>
      <trkpt lat="48.85665" lon="7.31572">
        <ele>345.2</ele>
        <time>2020-06-28T07:45:32Z</time>
      </trkpt>
      <trkpt lat="48.85664" lon="7.31579">
        <ele>345.4</ele>
        <time>2020-06-28T07:45:34Z</time>
      </trkpt>
      <trkpt lat="48.85663" lon="7.31586">
        <ele>345.7</ele>
        <time>2020-06-28T07:45:36Z</time>
      </trkpt>
      <trkpt lat="48.85662" lon="7.31593">
        <ele>346.2</ele>
        <time>2020-06-28T07:45:38Z</time>
      </trkpt>
      <trkpt lat="48.8566" lon="7.31601">
        <ele>347.3</ele>
        <time>2020-06-28T07:45:41Z</time>
      </trkpt>
      <trkpt lat="48.85657" lon="7.31607">
        <ele>348</ele>
        <time>2020-06-28T07:45:44Z</time>
      </trkpt>
      <trkpt lat="48.85656" lon="7.31616">
        <ele>348.3</ele>
        <time>2020-06-28T07:45:47Z</time>
      </trkpt>
      <trkpt lat="48.85656" lon="7.31624">
        <ele>348.2</ele>
        <time>2020-06-28T07:45:49Z</time>
      </trkpt>
      <trkpt lat="48.85654" lon="7.31632">
        <ele>348.2</ele>
        <time>2020-06-28T07:45:51Z</time>
      </trkpt>
      <trkpt lat="48.85652" lon="7.31639">
        <ele>348</ele>
        <time>2020-06-28T07:45:53Z</time>
      </trkpt>
      <trkpt lat="48.85646" lon="7.31646">
        <ele>347.2</ele>
        <time>2020-06-28T07:45:56Z</time>
      </trkpt>
      <trkpt lat="48.85644" lon="7.31652">
        <ele>346.9</ele>
        <time>2020-06-28T07:45:58Z</time>
      </trkpt>
      <trkpt lat="48.85642" lon="7.31659">
        <ele>346.6</ele>
        <time>2020-06-28T07:46:00Z</time>
      </trkpt>
      <trkpt lat="48.85641" lon="7.31666">
        <ele>347</ele>
        <time>2020-06-28T07:46:02Z</time>
      </trkpt>
      <trkpt lat="48.85639" lon="7.31673">
        <ele>347.4</ele>
        <time>2020-06-28T07:46:04Z</time>
      </trkpt>
      <trkpt lat="48.85639" lon="7.3168">
        <ele>347.6</ele>
        <time>2020-06-28T07:46:06Z</time>
      </trkpt>
      <trkpt lat="48.85639" lon="7.31687">
        <ele>348.5</ele>
        <time>2020-06-28T07:46:08Z</time>
      </trkpt>
      <trkpt lat="48.85637" lon="7.31694">
        <ele>349.4</ele>
        <time>2020-06-28T07:46:10Z</time>
      </trkpt>
      <trkpt lat="48.85636" lon="7.31701">
        <ele>349.7</ele>
        <time>2020-06-28T07:46:12Z</time>
      </trkpt>
      <trkpt lat="48.85635" lon="7.31708">
        <ele>349.8</ele>
        <time>2020-06-28T07:46:14Z</time>
      </trkpt>
      <trkpt lat="48.85637" lon="7.31715">
        <ele>350.4</ele>
        <time>2020-06-28T07:46:16Z</time>
      </trkpt>
      <trkpt lat="48.85641" lon="7.31722">
        <ele>351.1</ele>
        <time>2020-06-28T07:46:19Z</time>
      </trkpt>
      <trkpt lat="48.85645" lon="7.31728">
        <ele>351.8</ele>
        <time>2020-06-28T07:46:21Z</time>
      </trkpt>
      <trkpt lat="48.85648" lon="7.31733">
        <ele>352</ele>
        <time>2020-06-28T07:46:23Z</time>
      </trkpt>
      <trkpt lat="48.85652" lon="7.3174">
        <ele>353</ele>
        <time>2020-06-28T07:46:26Z</time>
      </trkpt>
      <trkpt lat="48.85657" lon="7.31747">
        <ele>353.6</ele>
        <time>2020-06-28T07:46:29Z</time>
      </trkpt>
      <trkpt lat="48.8566" lon="7.31755">
        <ele>353.6</ele>
        <time>2020-06-28T07:46:32Z</time>
      </trkpt>
      <trkpt lat="48.85659" lon="7.31764">
        <ele>353.1</ele>
        <time>2020-06-28T07:46:35Z</time>
      </trkpt>
      <trkpt lat="48.85658" lon="7.31773">
        <ele>352.5</ele>
        <time>2020-06-28T07:46:38Z</time>
      </trkpt>
      <trkpt lat="48.85659" lon="7.31781">
        <ele>352.5</ele>
        <time>2020-06-28T07:46:41Z</time>
      </trkpt>
      <trkpt lat="48.85662" lon="7.31788">
        <ele>352.7</ele>
        <time>2020-06-28T07:46:44Z</time>
      </trkpt>
      <trkpt lat="48.85665" lon="7.31796">
        <ele>353</ele>
        <time>2020-06-28T07:46:47Z</time>
      </trkpt>
      <trkpt lat="48.85669" lon="7.31803">
        <ele>352.6</ele>
        <time>2020-06-28T07:46:50Z</time>
      </trkpt>
      <trkpt lat="48.85674" lon="7.31809">
        <ele>352.1</ele>
        <time>2020-06-28T07:46:53Z</time>
      </trkpt>
      <trkpt lat="48.85676" lon="7.31817">
        <ele>351.9</ele>
        <time>2020-06-28T07:46:56Z</time>
      </trkpt>
      <trkpt lat="48.85678" lon="7.31824">
        <ele>352</ele>
        <time>2020-06-28T07:46:59Z</time>
      </trkpt>
      <trkpt lat="48.85678" lon="7.31832">
        <ele>351.5</ele>
        <time>2020-06-28T07:47:02Z</time>
      </trkpt>
      <trkpt lat="48.85676" lon="7.31841">
        <ele>351.5</ele>
        <time>2020-06-28T07:47:05Z</time>
      </trkpt>
      <trkpt lat="48.85673" lon="7.3185">
        <ele>352</ele>
        <time>2020-06-28T07:47:08Z</time>
      </trkpt>
      <trkpt lat="48.85672" lon="7.31857">
        <ele>352.4</ele>
        <time>2020-06-28T07:47:11Z</time>
      </trkpt>
      <trkpt lat="48.85671" lon="7.31865">
        <ele>352.8</ele>
        <time>2020-06-28T07:47:14Z</time>
      </trkpt>
      <trkpt lat="48.85668" lon="7.31873">
        <ele>352.9</ele>
        <time>2020-06-28T07:47:17Z</time>
      </trkpt>
      <trkpt lat="48.85666" lon="7.31883">
        <ele>352.2</ele>
        <time>2020-06-28T07:47:20Z</time>
      </trkpt>
      <trkpt lat="48.85661" lon="7.3189">
        <ele>352.1</ele>
        <time>2020-06-28T07:47:23Z</time>
      </trkpt>
      <trkpt lat="48.85657" lon="7.31896">
        <ele>352.4</ele>
        <time>2020-06-28T07:47:26Z</time>
      </trkpt>
      <trkpt lat="48.85653" lon="7.319">
        <ele>352.7</ele>
        <time>2020-06-28T07:47:29Z</time>
      </trkpt>
      <trkpt lat="48.85649" lon="7.31904">
        <ele>347.3</ele>
        <time>2020-06-28T07:47:32Z</time>
      </trkpt>
      <trkpt lat="48.85645" lon="7.3191">
        <ele>343.8</ele>
        <time>2020-06-28T07:47:35Z</time>
      </trkpt>
      <trkpt lat="48.85642" lon="7.31918">
        <ele>345</ele>
        <time>2020-06-28T07:47:38Z</time>
      </trkpt>
      <trkpt lat="48.8564" lon="7.31924">
        <ele>346.2</ele>
        <time>2020-06-28T07:47:40Z</time>
      </trkpt>
      <trkpt lat="48.85638" lon="7.31931">
        <ele>347.1</ele>
        <time>2020-06-28T07:47:42Z</time>
      </trkpt>
      <trkpt lat="48.85637" lon="7.3194">
        <ele>348.3</ele>
        <time>2020-06-28T07:47:44Z</time>
      </trkpt>
      <trkpt lat="48.85637" lon="7.31948">
        <ele>348.8</ele>
        <time>2020-06-28T07:47:46Z</time>
      </trkpt>
      <trkpt lat="48.85637" lon="7.31955">
        <ele>349.2</ele>
        <time>2020-06-28T07:47:48Z</time>
      </trkpt>
      <trkpt lat="48.85641" lon="7.31964">
        <ele>349.2</ele>
        <time>2020-06-28T07:47:51Z</time>
      </trkpt>
      <trkpt lat="48.85646" lon="7.3197">
        <ele>349.4</ele>
        <time>2020-06-28T07:47:54Z</time>
      </trkpt>
      <trkpt lat="48.85652" lon="7.31973">
        <ele>349.5</ele>
        <time>2020-06-28T07:47:56Z</time>
      </trkpt>
      <trkpt lat="48.85662" lon="7.31974">
        <ele>349</ele>
        <time>2020-06-28T07:47:59Z</time>
      </trkpt>
      <trkpt lat="48.8567" lon="7.31974">
        <ele>348.7</ele>
        <time>2020-06-28T07:48:01Z</time>
      </trkpt>
      <trkpt lat="48.85677" lon="7.31974">
        <ele>348.1</ele>
        <time>2020-06-28T07:48:03Z</time>
      </trkpt>
      <trkpt lat="48.85682" lon="7.31974">
        <ele>347.7</ele>
        <time>2020-06-28T07:48:05Z</time>
      </trkpt>
      <trkpt lat="48.85687" lon="7.31974">
        <ele>346.9</ele>
        <time>2020-06-28T07:48:07Z</time>
      </trkpt>
      <trkpt lat="48.85694" lon="7.31974">
        <ele>346.5</ele>
        <time>2020-06-28T07:48:09Z</time>
      </trkpt>
      <trkpt lat="48.85704" lon="7.31975">
        <ele>345.4</ele>
        <time>2020-06-28T07:48:12Z</time>
      </trkpt>
      <trkpt lat="48.85713" lon="7.31976">
        <ele>344.5</ele>
        <time>2020-06-28T07:48:14Z</time>
      </trkpt>
      <trkpt lat="48.85731" lon="7.31985">
        <ele>344</ele>
        <time>2020-06-28T07:48:17Z</time>
      </trkpt>
      <trkpt lat="48.85747" lon="7.32003">
        <ele>342.9</ele>
        <time>2020-06-28T07:48:20Z</time>
      </trkpt>
      <trkpt lat="48.85757" lon="7.32017">
        <ele>342.6</ele>
        <time>2020-06-28T07:48:22Z</time>
      </trkpt>
      <trkpt lat="48.85767" lon="7.32031">
        <ele>342.2</ele>
        <time>2020-06-28T07:48:24Z</time>
      </trkpt>
      <trkpt lat="48.85783" lon="7.32048">
        <ele>342.2</ele>
        <time>2020-06-28T07:48:27Z</time>
      </trkpt>
      <trkpt lat="48.85789" lon="7.32062">
        <ele>342.7</ele>
        <time>2020-06-28T07:48:29Z</time>
      </trkpt>
      <trkpt lat="48.85793" lon="7.32078">
        <ele>342.8</ele>
        <time>2020-06-28T07:48:31Z</time>
      </trkpt>
      <trkpt lat="48.85795" lon="7.32092">
        <ele>343.2</ele>
        <time>2020-06-28T07:48:33Z</time>
      </trkpt>
      <trkpt lat="48.85797" lon="7.32112">
        <ele>343.6</ele>
        <time>2020-06-28T07:48:36Z</time>
      </trkpt>
      <trkpt lat="48.85797" lon="7.32125">
        <ele>343.9</ele>
        <time>2020-06-28T07:48:38Z</time>
      </trkpt>
      <trkpt lat="48.85798" lon="7.32138">
        <ele>343.7</ele>
        <time>2020-06-28T07:48:40Z</time>
      </trkpt>
      <trkpt lat="48.85799" lon="7.3215">
        <ele>344.1</ele>
        <time>2020-06-28T07:48:42Z</time>
      </trkpt>
      <trkpt lat="48.85801" lon="7.32161">
        <ele>344.1</ele>
        <time>2020-06-28T07:48:44Z</time>
      </trkpt>
      <trkpt lat="48.85801" lon="7.32174">
        <ele>343.9</ele>
        <time>2020-06-28T07:48:46Z</time>
      </trkpt>
      <trkpt lat="48.85801" lon="7.32186">
        <ele>343.9</ele>
        <time>2020-06-28T07:48:48Z</time>
      </trkpt>
      <trkpt lat="48.85801" lon="7.32199">
        <ele>343.8</ele>
        <time>2020-06-28T07:48:50Z</time>
      </trkpt>
      <trkpt lat="48.858" lon="7.32213">
        <ele>343.7</ele>
        <time>2020-06-28T07:48:52Z</time>
      </trkpt>
      <trkpt lat="48.85799" lon="7.32227">
        <ele>343.4</ele>
        <time>2020-06-28T07:48:54Z</time>
      </trkpt>
      <trkpt lat="48.85798" lon="7.32241">
        <ele>343.5</ele>
        <time>2020-06-28T07:48:56Z</time>
      </trkpt>
      <trkpt lat="48.85796" lon="7.32262">
        <ele>343.7</ele>
        <time>2020-06-28T07:48:59Z</time>
      </trkpt>
      <trkpt lat="48.85793" lon="7.32276">
        <ele>343.8</ele>
        <time>2020-06-28T07:49:01Z</time>
      </trkpt>
      <trkpt lat="48.8579" lon="7.3229">
        <ele>344.1</ele>
        <time>2020-06-28T07:49:03Z</time>
      </trkpt>
      <trkpt lat="48.85788" lon="7.32304">
        <ele>344.5</ele>
        <time>2020-06-28T07:49:05Z</time>
      </trkpt>
      <trkpt lat="48.85785" lon="7.32317">
        <ele>344.4</ele>
        <time>2020-06-28T07:49:07Z</time>
      </trkpt>
      <trkpt lat="48.85781" lon="7.3233">
        <ele>344.3</ele>
        <time>2020-06-28T07:49:09Z</time>
      </trkpt>
      <trkpt lat="48.85778" lon="7.32343">
        <ele>343.7</ele>
        <time>2020-06-28T07:49:11Z</time>
      </trkpt>
      <trkpt lat="48.85773" lon="7.32356">
        <ele>343.7</ele>
        <time>2020-06-28T07:49:13Z</time>
      </trkpt>
      <trkpt lat="48.85769" lon="7.3237">
        <ele>343.6</ele>
        <time>2020-06-28T07:49:15Z</time>
      </trkpt>
      <trkpt lat="48.85765" lon="7.32386">
        <ele>343.5</ele>
        <time>2020-06-28T07:49:17Z</time>
      </trkpt>
      <trkpt lat="48.8576" lon="7.32403">
        <ele>343.4</ele>
        <time>2020-06-28T07:49:19Z</time>
      </trkpt>
      <trkpt lat="48.85755" lon="7.32419">
        <ele>343.2</ele>
        <time>2020-06-28T07:49:21Z</time>
      </trkpt>
      <trkpt lat="48.8575" lon="7.32435">
        <ele>343</ele>
        <time>2020-06-28T07:49:23Z</time>
      </trkpt>
      <trkpt lat="48.85745" lon="7.32449">
        <ele>342.8</ele>
        <time>2020-06-28T07:49:25Z</time>
      </trkpt>
      <trkpt lat="48.8574" lon="7.32464">
        <ele>342.9</ele>
        <time>2020-06-28T07:49:27Z</time>
      </trkpt>
      <trkpt lat="48.85734" lon="7.32478">
        <ele>343</ele>
        <time>2020-06-28T07:49:29Z</time>
      </trkpt>
      <trkpt lat="48.85729" lon="7.32493">
        <ele>343.3</ele>
        <time>2020-06-28T07:49:31Z</time>
      </trkpt>
      <trkpt lat="48.85724" lon="7.32507">
        <ele>343.3</ele>
        <time>2020-06-28T07:49:33Z</time>
      </trkpt>
      <trkpt lat="48.85718" lon="7.32519">
        <ele>343.4</ele>
        <time>2020-06-28T07:49:35Z</time>
      </trkpt>
      <trkpt lat="48.85714" lon="7.32532">
        <ele>343.4</ele>
        <time>2020-06-28T07:49:37Z</time>
      </trkpt>
      <trkpt lat="48.85709" lon="7.32546">
        <ele>342.9</ele>
        <time>2020-06-28T07:49:39Z</time>
      </trkpt>
      <trkpt lat="48.85705" lon="7.3256">
        <ele>342.6</ele>
        <time>2020-06-28T07:49:41Z</time>
      </trkpt>
      <trkpt lat="48.85703" lon="7.32577">
        <ele>342.2</ele>
        <time>2020-06-28T07:49:43Z</time>
      </trkpt>
      <trkpt lat="48.85701" lon="7.32594">
        <ele>342</ele>
        <time>2020-06-28T07:49:45Z</time>
      </trkpt>
      <trkpt lat="48.85701" lon="7.32612">
        <ele>341.6</ele>
        <time>2020-06-28T07:49:47Z</time>
      </trkpt>
      <trkpt lat="48.85702" lon="7.32633">
        <ele>341.1</ele>
        <time>2020-06-28T07:49:49Z</time>
      </trkpt>
      <trkpt lat="48.85704" lon="7.32654">
        <ele>340.5</ele>
        <time>2020-06-28T07:49:51Z</time>
      </trkpt>
      <trkpt lat="48.85707" lon="7.32676">
        <ele>339.8</ele>
        <time>2020-06-28T07:49:53Z</time>
      </trkpt>
      <trkpt lat="48.8571" lon="7.32698">
        <ele>339.3</ele>
        <time>2020-06-28T07:49:55Z</time>
      </trkpt>
      <trkpt lat="48.85714" lon="7.3272">
        <ele>339.1</ele>
        <time>2020-06-28T07:49:57Z</time>
      </trkpt>
      <trkpt lat="48.85719" lon="7.3274">
        <ele>339.3</ele>
        <time>2020-06-28T07:49:59Z</time>
      </trkpt>
      <trkpt lat="48.85724" lon="7.32758">
        <ele>339.4</ele>
        <time>2020-06-28T07:50:01Z</time>
      </trkpt>
      <trkpt lat="48.85729" lon="7.32778">
        <ele>339.6</ele>
        <time>2020-06-28T07:50:03Z</time>
      </trkpt>
      <trkpt lat="48.85736" lon="7.32799">
        <ele>339.9</ele>
        <time>2020-06-28T07:50:05Z</time>
      </trkpt>
      <trkpt lat="48.85744" lon="7.3282">
        <ele>340.4</ele>
        <time>2020-06-28T07:50:07Z</time>
      </trkpt>
      <trkpt lat="48.85749" lon="7.3284">
        <ele>340.1</ele>
        <time>2020-06-28T07:50:09Z</time>
      </trkpt>
      <trkpt lat="48.85755" lon="7.3286">
        <ele>339.8</ele>
        <time>2020-06-28T07:50:11Z</time>
      </trkpt>
      <trkpt lat="48.85761" lon="7.32878">
        <ele>339.4</ele>
        <time>2020-06-28T07:50:13Z</time>
      </trkpt>
      <trkpt lat="48.85768" lon="7.32896">
        <ele>338.8</ele>
        <time>2020-06-28T07:50:15Z</time>
      </trkpt>
      <trkpt lat="48.85774" lon="7.32915">
        <ele>338.1</ele>
        <time>2020-06-28T07:50:17Z</time>
      </trkpt>
      <trkpt lat="48.85782" lon="7.32931">
        <ele>337.7</ele>
        <time>2020-06-28T07:50:19Z</time>
      </trkpt>
      <trkpt lat="48.85788" lon="7.32951">
        <ele>337.3</ele>
        <time>2020-06-28T07:50:21Z</time>
      </trkpt>
      <trkpt lat="48.85793" lon="7.32969">
        <ele>337.4</ele>
        <time>2020-06-28T07:50:23Z</time>
      </trkpt>
      <trkpt lat="48.85797" lon="7.32989">
        <ele>337.6</ele>
        <time>2020-06-28T07:50:25Z</time>
      </trkpt>
      <trkpt lat="48.85801" lon="7.3301">
        <ele>338</ele>
        <time>2020-06-28T07:50:27Z</time>
      </trkpt>
      <trkpt lat="48.85805" lon="7.33028">
        <ele>337.7</ele>
        <time>2020-06-28T07:50:29Z</time>
      </trkpt>
      <trkpt lat="48.85808" lon="7.33047">
        <ele>337.7</ele>
        <time>2020-06-28T07:50:31Z</time>
      </trkpt>
      <trkpt lat="48.85812" lon="7.33066">
        <ele>338.2</ele>
        <time>2020-06-28T07:50:33Z</time>
      </trkpt>
      <trkpt lat="48.85816" lon="7.33086">
        <ele>337.9</ele>
        <time>2020-06-28T07:50:35Z</time>
      </trkpt>
      <trkpt lat="48.85818" lon="7.33105">
        <ele>338.5</ele>
        <time>2020-06-28T07:50:37Z</time>
      </trkpt>
      <trkpt lat="48.8582" lon="7.33124">
        <ele>338.8</ele>
        <time>2020-06-28T07:50:39Z</time>
      </trkpt>
      <trkpt lat="48.8582" lon="7.33142">
        <ele>339.5</ele>
        <time>2020-06-28T07:50:41Z</time>
      </trkpt>
      <trkpt lat="48.85822" lon="7.3316">
        <ele>340.1</ele>
        <time>2020-06-28T07:50:43Z</time>
      </trkpt>
      <trkpt lat="48.85821" lon="7.33178">
        <ele>340.5</ele>
        <time>2020-06-28T07:50:45Z</time>
      </trkpt>
      <trkpt lat="48.85822" lon="7.33197">
        <ele>341</ele>
        <time>2020-06-28T07:50:47Z</time>
      </trkpt>
      <trkpt lat="48.85823" lon="7.33216">
        <ele>341.3</ele>
        <time>2020-06-28T07:50:49Z</time>
      </trkpt>
      <trkpt lat="48.85823" lon="7.33234">
        <ele>341.5</ele>
        <time>2020-06-28T07:50:51Z</time>
      </trkpt>
      <trkpt lat="48.85823" lon="7.33253">
        <ele>341.3</ele>
        <time>2020-06-28T07:50:53Z</time>
      </trkpt>
      <trkpt lat="48.85821" lon="7.33271">
        <ele>341</ele>
        <time>2020-06-28T07:50:55Z</time>
      </trkpt>
      <trkpt lat="48.85817" lon="7.3329">
        <ele>340.9</ele>
        <time>2020-06-28T07:50:57Z</time>
      </trkpt>
      <trkpt lat="48.85815" lon="7.33308">
        <ele>340.5</ele>
        <time>2020-06-28T07:50:59Z</time>
      </trkpt>
      <trkpt lat="48.85811" lon="7.33326">
        <ele>340.1</ele>
        <time>2020-06-28T07:51:01Z</time>
      </trkpt>
      <trkpt lat="48.85808" lon="7.33344">
        <ele>339.9</ele>
        <time>2020-06-28T07:51:03Z</time>
      </trkpt>
      <trkpt lat="48.85805" lon="7.33361">
        <ele>339.7</ele>
        <time>2020-06-28T07:51:05Z</time>
      </trkpt>
      <trkpt lat="48.85803" lon="7.33379">
        <ele>340.1</ele>
        <time>2020-06-28T07:51:07Z</time>
      </trkpt>
      <trkpt lat="48.85801" lon="7.33396">
        <ele>340.1</ele>
        <time>2020-06-28T07:51:09Z</time>
      </trkpt>
      <trkpt lat="48.85797" lon="7.33412">
        <ele>340.3</ele>
        <time>2020-06-28T07:51:11Z</time>
      </trkpt>
      <trkpt lat="48.85791" lon="7.33426">
        <ele>340.5</ele>
        <time>2020-06-28T07:51:13Z</time>
      </trkpt>
      <trkpt lat="48.85784" lon="7.33439">
        <ele>340.9</ele>
        <time>2020-06-28T07:51:15Z</time>
      </trkpt>
      <trkpt lat="48.85776" lon="7.3345">
        <ele>341.3</ele>
        <time>2020-06-28T07:51:17Z</time>
      </trkpt>
      <trkpt lat="48.85769" lon="7.33461">
        <ele>341.9</ele>
        <time>2020-06-28T07:51:19Z</time>
      </trkpt>
      <trkpt lat="48.85764" lon="7.33471">
        <ele>342.3</ele>
        <time>2020-06-28T07:51:21Z</time>
      </trkpt>
      <trkpt lat="48.8576" lon="7.33482">
        <ele>342.6</ele>
        <time>2020-06-28T07:51:23Z</time>
      </trkpt>
      <trkpt lat="48.85755" lon="7.33494">
        <ele>342.9</ele>
        <time>2020-06-28T07:51:25Z</time>
      </trkpt>
      <trkpt lat="48.85752" lon="7.33506">
        <ele>343.1</ele>
        <time>2020-06-28T07:51:27Z</time>
      </trkpt>
      <trkpt lat="48.85749" lon="7.33518">
        <ele>343.2</ele>
        <time>2020-06-28T07:51:29Z</time>
      </trkpt>
      <trkpt lat="48.85748" lon="7.3353">
        <ele>343.7</ele>
        <time>2020-06-28T07:51:31Z</time>
      </trkpt>
      <trkpt lat="48.85747" lon="7.33542">
        <ele>343.8</ele>
        <time>2020-06-28T07:51:33Z</time>
      </trkpt>
      <trkpt lat="48.85747" lon="7.33554">
        <ele>344.2</ele>
        <time>2020-06-28T07:51:35Z</time>
      </trkpt>
      <trkpt lat="48.85748" lon="7.33565">
        <ele>344.6</ele>
        <time>2020-06-28T07:51:37Z</time>
      </trkpt>
      <trkpt lat="48.85749" lon="7.33577">
        <ele>345.1</ele>
        <time>2020-06-28T07:51:39Z</time>
      </trkpt>
      <trkpt lat="48.8575" lon="7.33588">
        <ele>345.5</ele>
        <time>2020-06-28T07:51:41Z</time>
      </trkpt>
      <trkpt lat="48.85752" lon="7.336">
        <ele>345.8</ele>
        <time>2020-06-28T07:51:43Z</time>
      </trkpt>
      <trkpt lat="48.85754" lon="7.33611">
        <ele>345.9</ele>
        <time>2020-06-28T07:51:45Z</time>
      </trkpt>
      <trkpt lat="48.85756" lon="7.33621">
        <ele>346.4</ele>
        <time>2020-06-28T07:51:47Z</time>
      </trkpt>
      <trkpt lat="48.8576" lon="7.33631">
        <ele>346.6</ele>
        <time>2020-06-28T07:51:49Z</time>
      </trkpt>
      <trkpt lat="48.85766" lon="7.33646">
        <ele>347.6</ele>
        <time>2020-06-28T07:51:52Z</time>
      </trkpt>
      <trkpt lat="48.8577" lon="7.33656">
        <ele>348.4</ele>
        <time>2020-06-28T07:51:54Z</time>
      </trkpt>
      <trkpt lat="48.85773" lon="7.33666">
        <ele>349.2</ele>
        <time>2020-06-28T07:51:56Z</time>
      </trkpt>
      <trkpt lat="48.85777" lon="7.33675">
        <ele>350.1</ele>
        <time>2020-06-28T07:51:58Z</time>
      </trkpt>
      <trkpt lat="48.8578" lon="7.33683">
        <ele>350.5</ele>
        <time>2020-06-28T07:52:00Z</time>
      </trkpt>
      <trkpt lat="48.85784" lon="7.33692">
        <ele>351.1</ele>
        <time>2020-06-28T07:52:02Z</time>
      </trkpt>
      <trkpt lat="48.85788" lon="7.33701">
        <ele>351.8</ele>
        <time>2020-06-28T07:52:04Z</time>
      </trkpt>
      <trkpt lat="48.85791" lon="7.33709">
        <ele>352.5</ele>
        <time>2020-06-28T07:52:06Z</time>
      </trkpt>
      <trkpt lat="48.85795" lon="7.33719">
        <ele>353</ele>
        <time>2020-06-28T07:52:08Z</time>
      </trkpt>
      <trkpt lat="48.85798" lon="7.33729">
        <ele>353.3</ele>
        <time>2020-06-28T07:52:10Z</time>
      </trkpt>
      <trkpt lat="48.85801" lon="7.33742">
        <ele>353.3</ele>
        <time>2020-06-28T07:52:12Z</time>
      </trkpt>
      <trkpt lat="48.85803" lon="7.33756">
        <ele>353.5</ele>
        <time>2020-06-28T07:52:14Z</time>
      </trkpt>
      <trkpt lat="48.85805" lon="7.3377">
        <ele>353.2</ele>
        <time>2020-06-28T07:52:16Z</time>
      </trkpt>
      <trkpt lat="48.85806" lon="7.33785">
        <ele>352.9</ele>
        <time>2020-06-28T07:52:18Z</time>
      </trkpt>
      <trkpt lat="48.85807" lon="7.33801">
        <ele>352.8</ele>
        <time>2020-06-28T07:52:20Z</time>
      </trkpt>
      <trkpt lat="48.85805" lon="7.33819">
        <ele>352.1</ele>
        <time>2020-06-28T07:52:22Z</time>
      </trkpt>
      <trkpt lat="48.85803" lon="7.33838">
        <ele>351.6</ele>
        <time>2020-06-28T07:52:24Z</time>
      </trkpt>
      <trkpt lat="48.858" lon="7.33866">
        <ele>351.7</ele>
        <time>2020-06-28T07:52:26Z</time>
      </trkpt>
      <trkpt lat="48.85798" lon="7.33883">
        <ele>351.3</ele>
        <time>2020-06-28T07:52:28Z</time>
      </trkpt>
      <trkpt lat="48.85795" lon="7.339">
        <ele>351.2</ele>
        <time>2020-06-28T07:52:30Z</time>
      </trkpt>
      <trkpt lat="48.85792" lon="7.33925">
        <ele>350.6</ele>
        <time>2020-06-28T07:52:33Z</time>
      </trkpt>
      <trkpt lat="48.8579" lon="7.33942">
        <ele>350.4</ele>
        <time>2020-06-28T07:52:35Z</time>
      </trkpt>
      <trkpt lat="48.85787" lon="7.33958">
        <ele>350.1</ele>
        <time>2020-06-28T07:52:37Z</time>
      </trkpt>
      <trkpt lat="48.85782" lon="7.33971">
        <ele>350</ele>
        <time>2020-06-28T07:52:39Z</time>
      </trkpt>
      <trkpt lat="48.85773" lon="7.33979">
        <ele>349.8</ele>
        <time>2020-06-28T07:52:41Z</time>
      </trkpt>
      <trkpt lat="48.85761" lon="7.33987">
        <ele>349.3</ele>
        <time>2020-06-28T07:52:44Z</time>
      </trkpt>
      <trkpt lat="48.85749" lon="7.33996">
        <ele>348.9</ele>
        <time>2020-06-28T07:52:46Z</time>
      </trkpt>
      <trkpt lat="48.85734" lon="7.34004">
        <ele>349.1</ele>
        <time>2020-06-28T07:52:48Z</time>
      </trkpt>
      <trkpt lat="48.85718" lon="7.34014">
        <ele>348.3</ele>
        <time>2020-06-28T07:52:50Z</time>
      </trkpt>
      <trkpt lat="48.85702" lon="7.34022">
        <ele>347.3</ele>
        <time>2020-06-28T07:52:52Z</time>
      </trkpt>
      <trkpt lat="48.85687" lon="7.34032">
        <ele>347.1</ele>
        <time>2020-06-28T07:52:54Z</time>
      </trkpt>
      <trkpt lat="48.85673" lon="7.34041">
        <ele>346.6</ele>
        <time>2020-06-28T07:52:56Z</time>
      </trkpt>
      <trkpt lat="48.85659" lon="7.3405">
        <ele>346.3</ele>
        <time>2020-06-28T07:52:58Z</time>
      </trkpt>
      <trkpt lat="48.85647" lon="7.34058">
        <ele>346.5</ele>
        <time>2020-06-28T07:53:00Z</time>
      </trkpt>
      <trkpt lat="48.85635" lon="7.34064">
        <ele>346.7</ele>
        <time>2020-06-28T07:53:02Z</time>
      </trkpt>
      <trkpt lat="48.85623" lon="7.34068">
        <ele>347</ele>
        <time>2020-06-28T07:53:04Z</time>
      </trkpt>
      <trkpt lat="48.85611" lon="7.34071">
        <ele>346.8</ele>
        <time>2020-06-28T07:53:06Z</time>
      </trkpt>
      <trkpt lat="48.85599" lon="7.34074">
        <ele>346.9</ele>
        <time>2020-06-28T07:53:08Z</time>
      </trkpt>
      <trkpt lat="48.85589" lon="7.34076">
        <ele>346.8</ele>
        <time>2020-06-28T07:53:10Z</time>
      </trkpt>
      <trkpt lat="48.85578" lon="7.34078">
        <ele>346.4</ele>
        <time>2020-06-28T07:53:12Z</time>
      </trkpt>
      <trkpt lat="48.85569" lon="7.3408">
        <ele>346</ele>
        <time>2020-06-28T07:53:14Z</time>
      </trkpt>
      <trkpt lat="48.85559" lon="7.34083">
        <ele>346</ele>
        <time>2020-06-28T07:53:16Z</time>
      </trkpt>
      <trkpt lat="48.8555" lon="7.34085">
        <ele>346</ele>
        <time>2020-06-28T07:53:18Z</time>
      </trkpt>
      <trkpt lat="48.85541" lon="7.34088">
        <ele>346.3</ele>
        <time>2020-06-28T07:53:20Z</time>
      </trkpt>
      <trkpt lat="48.85532" lon="7.34091">
        <ele>346.7</ele>
        <time>2020-06-28T07:53:22Z</time>
      </trkpt>
      <trkpt lat="48.85524" lon="7.34093">
        <ele>346.6</ele>
        <time>2020-06-28T07:53:24Z</time>
      </trkpt>
      <trkpt lat="48.85516" lon="7.34095">
        <ele>347.1</ele>
        <time>2020-06-28T07:53:26Z</time>
      </trkpt>
      <trkpt lat="48.85509" lon="7.34096">
        <ele>348</ele>
        <time>2020-06-28T07:53:28Z</time>
      </trkpt>
      <trkpt lat="48.85504" lon="7.34098">
        <ele>349.3</ele>
        <time>2020-06-28T07:53:30Z</time>
      </trkpt>
      <trkpt lat="48.85498" lon="7.34098">
        <ele>350.3</ele>
        <time>2020-06-28T07:53:32Z</time>
      </trkpt>
      <trkpt lat="48.85491" lon="7.34099">
        <ele>350.2</ele>
        <time>2020-06-28T07:53:34Z</time>
      </trkpt>
      <trkpt lat="48.85485" lon="7.34101">
        <ele>350.3</ele>
        <time>2020-06-28T07:53:36Z</time>
      </trkpt>
      <trkpt lat="48.85479" lon="7.34102">
        <ele>351.6</ele>
        <time>2020-06-28T07:53:38Z</time>
      </trkpt>
      <trkpt lat="48.85473" lon="7.34104">
        <ele>352.1</ele>
        <time>2020-06-28T07:53:40Z</time>
      </trkpt>
      <trkpt lat="48.85467" lon="7.34107">
        <ele>352.1</ele>
        <time>2020-06-28T07:53:42Z</time>
      </trkpt>
      <trkpt lat="48.8546" lon="7.34113">
        <ele>351.9</ele>
        <time>2020-06-28T07:53:44Z</time>
      </trkpt>
      <trkpt lat="48.85452" lon="7.34122">
        <ele>352</ele>
        <time>2020-06-28T07:53:46Z</time>
      </trkpt>
      <trkpt lat="48.85444" lon="7.34133">
        <ele>351.5</ele>
        <time>2020-06-28T07:53:48Z</time>
      </trkpt>
      <trkpt lat="48.85436" lon="7.34143">
        <ele>350.8</ele>
        <time>2020-06-28T07:53:50Z</time>
      </trkpt>
      <trkpt lat="48.85427" lon="7.34157">
        <ele>350.1</ele>
        <time>2020-06-28T07:53:52Z</time>
      </trkpt>
      <trkpt lat="48.85417" lon="7.34169">
        <ele>348.4</ele>
        <time>2020-06-28T07:53:54Z</time>
      </trkpt>
      <trkpt lat="48.85406" lon="7.34183">
        <ele>346.9</ele>
        <time>2020-06-28T07:53:56Z</time>
      </trkpt>
      <trkpt lat="48.85396" lon="7.34197">
        <ele>345.9</ele>
        <time>2020-06-28T07:53:58Z</time>
      </trkpt>
      <trkpt lat="48.85386" lon="7.3421">
        <ele>345.2</ele>
        <time>2020-06-28T07:54:00Z</time>
      </trkpt>
      <trkpt lat="48.85378" lon="7.34221">
        <ele>344.8</ele>
        <time>2020-06-28T07:54:02Z</time>
      </trkpt>
      <trkpt lat="48.8537" lon="7.34231">
        <ele>344.8</ele>
        <time>2020-06-28T07:54:04Z</time>
      </trkpt>
      <trkpt lat="48.85363" lon="7.34242">
        <ele>345</ele>
        <time>2020-06-28T07:54:06Z</time>
      </trkpt>
      <trkpt lat="48.85357" lon="7.34253">
        <ele>345.5</ele>
        <time>2020-06-28T07:54:08Z</time>
      </trkpt>
      <trkpt lat="48.85352" lon="7.3426">
        <ele>345.9</ele>
        <time>2020-06-28T07:54:10Z</time>
      </trkpt>
      <trkpt lat="48.85348" lon="7.34264">
        <ele>346.4</ele>
        <time>2020-06-28T07:54:12Z</time>
      </trkpt>
      <trkpt lat="48.85343" lon="7.34266">
        <ele>346.6</ele>
        <time>2020-06-28T07:54:14Z</time>
      </trkpt>
      <trkpt lat="48.85337" lon="7.34265">
        <ele>347.1</ele>
        <time>2020-06-28T07:54:16Z</time>
      </trkpt>
      <trkpt lat="48.85332" lon="7.34263">
        <ele>347.8</ele>
        <time>2020-06-28T07:54:18Z</time>
      </trkpt>
      <trkpt lat="48.85326" lon="7.34261">
        <ele>348.6</ele>
        <time>2020-06-28T07:54:20Z</time>
      </trkpt>
      <trkpt lat="48.85319" lon="7.34258">
        <ele>349.1</ele>
        <time>2020-06-28T07:54:22Z</time>
      </trkpt>
      <trkpt lat="48.85312" lon="7.34257">
        <ele>349.8</ele>
        <time>2020-06-28T07:54:24Z</time>
      </trkpt>
      <trkpt lat="48.85304" lon="7.34256">
        <ele>350.9</ele>
        <time>2020-06-28T07:54:26Z</time>
      </trkpt>
      <trkpt lat="48.85298" lon="7.34254">
        <ele>351.9</ele>
        <time>2020-06-28T07:54:28Z</time>
      </trkpt>
      <trkpt lat="48.85294" lon="7.34252">
        <ele>353.3</ele>
        <time>2020-06-28T07:54:30Z</time>
      </trkpt>
      <trkpt lat="48.85288" lon="7.3425">
        <ele>355.3</ele>
        <time>2020-06-28T07:54:33Z</time>
      </trkpt>
      <trkpt lat="48.85286" lon="7.34242">
        <ele>357</ele>
        <time>2020-06-28T07:54:37Z</time>
      </trkpt>
      <trkpt lat="48.85281" lon="7.34236">
        <ele>356.3</ele>
        <time>2020-06-28T07:54:40Z</time>
      </trkpt>
      <trkpt lat="48.85276" lon="7.34233">
        <ele>355.6</ele>
        <time>2020-06-28T07:54:42Z</time>
      </trkpt>
      <trkpt lat="48.85271" lon="7.34232">
        <ele>355.8</ele>
        <time>2020-06-28T07:54:44Z</time>
      </trkpt>
      <trkpt lat="48.85266" lon="7.34229">
        <ele>355.7</ele>
        <time>2020-06-28T07:54:46Z</time>
      </trkpt>
      <trkpt lat="48.85261" lon="7.34227">
        <ele>355.3</ele>
        <time>2020-06-28T07:54:48Z</time>
      </trkpt>
      <trkpt lat="48.85256" lon="7.34225">
        <ele>354.8</ele>
        <time>2020-06-28T07:54:50Z</time>
      </trkpt>
      <trkpt lat="48.85251" lon="7.34222">
        <ele>354.4</ele>
        <time>2020-06-28T07:54:52Z</time>
      </trkpt>
      <trkpt lat="48.85246" lon="7.34219">
        <ele>349.7</ele>
        <time>2020-06-28T07:54:54Z</time>
      </trkpt>
      <trkpt lat="48.85239" lon="7.34217">
        <ele>347.7</ele>
        <time>2020-06-28T07:54:56Z</time>
      </trkpt>
      <trkpt lat="48.85234" lon="7.34216">
        <ele>347.5</ele>
        <time>2020-06-28T07:54:58Z</time>
      </trkpt>
      <trkpt lat="48.85229" lon="7.34215">
        <ele>348.2</ele>
        <time>2020-06-28T07:55:00Z</time>
      </trkpt>
      <trkpt lat="48.85223" lon="7.34212">
        <ele>349.5</ele>
        <time>2020-06-28T07:55:03Z</time>
      </trkpt>
      <trkpt lat="48.85216" lon="7.34209">
        <ele>349.3</ele>
        <time>2020-06-28T07:55:06Z</time>
      </trkpt>
      <trkpt lat="48.85211" lon="7.34205">
        <ele>349.5</ele>
        <time>2020-06-28T07:55:08Z</time>
      </trkpt>
      <trkpt lat="48.85206" lon="7.34203">
        <ele>350.7</ele>
        <time>2020-06-28T07:55:10Z</time>
      </trkpt>
      <trkpt lat="48.85201" lon="7.342">
        <ele>351.3</ele>
        <time>2020-06-28T07:55:12Z</time>
      </trkpt>
      <trkpt lat="48.85197" lon="7.34197">
        <ele>352.3</ele>
        <time>2020-06-28T07:55:14Z</time>
      </trkpt>
      <trkpt lat="48.85193" lon="7.34194">
        <ele>353.3</ele>
        <time>2020-06-28T07:55:16Z</time>
      </trkpt>
      <trkpt lat="48.85188" lon="7.34193">
        <ele>354</ele>
        <time>2020-06-28T07:55:18Z</time>
      </trkpt>
      <trkpt lat="48.85184" lon="7.34194">
        <ele>354.8</ele>
        <time>2020-06-28T07:55:20Z</time>
      </trkpt>
      <trkpt lat="48.8518" lon="7.34196">
        <ele>355.5</ele>
        <time>2020-06-28T07:55:22Z</time>
      </trkpt>
      <trkpt lat="48.85175" lon="7.34198">
        <ele>355.4</ele>
        <time>2020-06-28T07:55:24Z</time>
      </trkpt>
      <trkpt lat="48.85169" lon="7.34201">
        <ele>355.1</ele>
        <time>2020-06-28T07:55:26Z</time>
      </trkpt>
      <trkpt lat="48.85162" lon="7.34202">
        <ele>354.7</ele>
        <time>2020-06-28T07:55:28Z</time>
      </trkpt>
      <trkpt lat="48.85155" lon="7.34203">
        <ele>349.6</ele>
        <time>2020-06-28T07:55:30Z</time>
      </trkpt>
      <trkpt lat="48.85148" lon="7.34204">
        <ele>349.1</ele>
        <time>2020-06-28T07:55:32Z</time>
      </trkpt>
      <trkpt lat="48.85142" lon="7.34205">
        <ele>348</ele>
        <time>2020-06-28T07:55:34Z</time>
      </trkpt>
      <trkpt lat="48.85136" lon="7.34203">
        <ele>347.9</ele>
        <time>2020-06-28T07:55:36Z</time>
      </trkpt>
      <trkpt lat="48.85129" lon="7.34201">
        <ele>347.7</ele>
        <time>2020-06-28T07:55:38Z</time>
      </trkpt>
      <trkpt lat="48.85122" lon="7.342">
        <ele>349.3</ele>
        <time>2020-06-28T07:55:40Z</time>
      </trkpt>
      <trkpt lat="48.85117" lon="7.34201">
        <ele>350.6</ele>
        <time>2020-06-28T07:55:42Z</time>
      </trkpt>
      <trkpt lat="48.85113" lon="7.34202">
        <ele>355.9</ele>
        <time>2020-06-28T07:55:44Z</time>
      </trkpt>
      <trkpt lat="48.85108" lon="7.34205">
        <ele>358</ele>
        <time>2020-06-28T07:55:46Z</time>
      </trkpt>
      <trkpt lat="48.85104" lon="7.34208">
        <ele>359.9</ele>
        <time>2020-06-28T07:55:48Z</time>
      </trkpt>
      <trkpt lat="48.85099" lon="7.34209">
        <ele>361.4</ele>
        <time>2020-06-28T07:55:50Z</time>
      </trkpt>
      <trkpt lat="48.85093" lon="7.3421">
        <ele>362</ele>
        <time>2020-06-28T07:55:54Z</time>
      </trkpt>
      <trkpt lat="48.85089" lon="7.34215">
        <ele>361.9</ele>
        <time>2020-06-28T07:55:57Z</time>
      </trkpt>
      <trkpt lat="48.85084" lon="7.34218">
        <ele>361.3</ele>
        <time>2020-06-28T07:56:05Z</time>
      </trkpt>
      <trkpt lat="48.85088" lon="7.34213">
        <ele>363.1</ele>
        <time>2020-06-28T07:56:40Z</time>
      </trkpt>
      <trkpt lat="48.85084" lon="7.34207">
        <ele>363.1</ele>
        <time>2020-06-28T07:56:44Z</time>
      </trkpt>
      <trkpt lat="48.85079" lon="7.34206">
        <ele>362.2</ele>
        <time>2020-06-28T07:56:46Z</time>
      </trkpt>
      <trkpt lat="48.85074" lon="7.34205">
        <ele>361.5</ele>
        <time>2020-06-28T07:56:48Z</time>
      </trkpt>
      <trkpt lat="48.85068" lon="7.34204">
        <ele>360.6</ele>
        <time>2020-06-28T07:56:50Z</time>
      </trkpt>
      <trkpt lat="48.85063" lon="7.34201">
        <ele>359.9</ele>
        <time>2020-06-28T07:56:52Z</time>
      </trkpt>
      <trkpt lat="48.85058" lon="7.34198">
        <ele>359.3</ele>
        <time>2020-06-28T07:56:54Z</time>
      </trkpt>
      <trkpt lat="48.85053" lon="7.34196">
        <ele>358.6</ele>
        <time>2020-06-28T07:56:56Z</time>
      </trkpt>
      <trkpt lat="48.85048" lon="7.34193">
        <ele>358.1</ele>
        <time>2020-06-28T07:56:58Z</time>
      </trkpt>
      <trkpt lat="48.85043" lon="7.34191">
        <ele>357.9</ele>
        <time>2020-06-28T07:57:00Z</time>
      </trkpt>
      <trkpt lat="48.85037" lon="7.34189">
        <ele>357.8</ele>
        <time>2020-06-28T07:57:02Z</time>
      </trkpt>
      <trkpt lat="48.85031" lon="7.34188">
        <ele>357.9</ele>
        <time>2020-06-28T07:57:04Z</time>
      </trkpt>
      <trkpt lat="48.85024" lon="7.34189">
        <ele>358.4</ele>
        <time>2020-06-28T07:57:06Z</time>
      </trkpt>
      <trkpt lat="48.85018" lon="7.3419">
        <ele>358.9</ele>
        <time>2020-06-28T07:57:08Z</time>
      </trkpt>
      <trkpt lat="48.85011" lon="7.34193">
        <ele>359.4</ele>
        <time>2020-06-28T07:57:10Z</time>
      </trkpt>
      <trkpt lat="48.85003" lon="7.34198">
        <ele>360.2</ele>
        <time>2020-06-28T07:57:12Z</time>
      </trkpt>
      <trkpt lat="48.84998" lon="7.34202">
        <ele>360.9</ele>
        <time>2020-06-28T07:57:14Z</time>
      </trkpt>
      <trkpt lat="48.84993" lon="7.34205">
        <ele>361.5</ele>
        <time>2020-06-28T07:57:16Z</time>
      </trkpt>
      <trkpt lat="48.84998" lon="7.3421">
        <ele>363.4</ele>
        <time>2020-06-28T07:57:23Z</time>
      </trkpt>
      <trkpt lat="48.85006" lon="7.34211">
        <ele>364</ele>
        <time>2020-06-28T07:57:25Z</time>
      </trkpt>
      <trkpt lat="48.85014" lon="7.34219">
        <ele>364.2</ele>
        <time>2020-06-28T07:57:27Z</time>
      </trkpt>
      <trkpt lat="48.85019" lon="7.34224">
        <ele>363.3</ele>
        <time>2020-06-28T07:57:29Z</time>
      </trkpt>
      <trkpt lat="48.85011" lon="7.34225">
        <ele>359.4</ele>
        <time>2020-06-28T07:57:35Z</time>
      </trkpt>
      <trkpt lat="48.85005" lon="7.34224">
        <ele>358</ele>
        <time>2020-06-28T07:57:37Z</time>
      </trkpt>
      <trkpt lat="48.84998" lon="7.34227">
        <ele>357.3</ele>
        <time>2020-06-28T07:57:39Z</time>
      </trkpt>
      <trkpt lat="48.84989" lon="7.3423">
        <ele>356.1</ele>
        <time>2020-06-28T07:57:41Z</time>
      </trkpt>
      <trkpt lat="48.84973" lon="7.34236">
        <ele>353.8</ele>
        <time>2020-06-28T07:57:44Z</time>
      </trkpt>
      <trkpt lat="48.84963" lon="7.34241">
        <ele>352.1</ele>
        <time>2020-06-28T07:57:46Z</time>
      </trkpt>
      <trkpt lat="48.84953" lon="7.34247">
        <ele>349.9</ele>
        <time>2020-06-28T07:57:48Z</time>
      </trkpt>
      <trkpt lat="48.84944" lon="7.34254">
        <ele>348.5</ele>
        <time>2020-06-28T07:57:50Z</time>
      </trkpt>
      <trkpt lat="48.84936" lon="7.34261">
        <ele>347.6</ele>
        <time>2020-06-28T07:57:52Z</time>
      </trkpt>
      <trkpt lat="48.84929" lon="7.34274">
        <ele>346.1</ele>
        <time>2020-06-28T07:57:54Z</time>
      </trkpt>
      <trkpt lat="48.84921" lon="7.34296">
        <ele>344</ele>
        <time>2020-06-28T07:57:57Z</time>
      </trkpt>
      <trkpt lat="48.84914" lon="7.34305">
        <ele>343.2</ele>
        <time>2020-06-28T07:57:59Z</time>
      </trkpt>
      <trkpt lat="48.84908" lon="7.3431">
        <ele>340.3</ele>
        <time>2020-06-28T07:58:02Z</time>
      </trkpt>
      <trkpt lat="48.84901" lon="7.34312">
        <ele>333.3</ele>
        <time>2020-06-28T07:58:42Z</time>
      </trkpt>
      <trkpt lat="48.84893" lon="7.34312">
        <ele>332.4</ele>
        <time>2020-06-28T07:58:44Z</time>
      </trkpt>
      <trkpt lat="48.84876" lon="7.3431">
        <ele>330.6</ele>
        <time>2020-06-28T07:58:47Z</time>
      </trkpt>
      <trkpt lat="48.84867" lon="7.34308">
        <ele>329.9</ele>
        <time>2020-06-28T07:58:49Z</time>
      </trkpt>
      <trkpt lat="48.84858" lon="7.34308">
        <ele>328.6</ele>
        <time>2020-06-28T07:58:51Z</time>
      </trkpt>
      <trkpt lat="48.84848" lon="7.34307">
        <ele>327.4</ele>
        <time>2020-06-28T07:58:53Z</time>
      </trkpt>
      <trkpt lat="48.84841" lon="7.34307">
        <ele>325.8</ele>
        <time>2020-06-28T07:58:55Z</time>
      </trkpt>
      <trkpt lat="48.84825" lon="7.34305">
        <ele>324.1</ele>
        <time>2020-06-28T07:58:58Z</time>
      </trkpt>
      <trkpt lat="48.84814" lon="7.34295">
        <ele>322.3</ele>
        <time>2020-06-28T07:59:01Z</time>
      </trkpt>
      <trkpt lat="48.84804" lon="7.34287">
        <ele>321.4</ele>
        <time>2020-06-28T07:59:04Z</time>
      </trkpt>
      <trkpt lat="48.84798" lon="7.34282">
        <ele>321</ele>
        <time>2020-06-28T07:59:06Z</time>
      </trkpt>
      <trkpt lat="48.84793" lon="7.34278">
        <ele>320.6</ele>
        <time>2020-06-28T07:59:08Z</time>
      </trkpt>
      <trkpt lat="48.84788" lon="7.34274">
        <ele>319.5</ele>
        <time>2020-06-28T07:59:11Z</time>
      </trkpt>
      <trkpt lat="48.84785" lon="7.34267">
        <ele>317.9</ele>
        <time>2020-06-28T07:59:14Z</time>
      </trkpt>
      <trkpt lat="48.84781" lon="7.34261">
        <ele>317.3</ele>
        <time>2020-06-28T07:59:16Z</time>
      </trkpt>
      <trkpt lat="48.84777" lon="7.34254">
        <ele>316.6</ele>
        <time>2020-06-28T07:59:18Z</time>
      </trkpt>
      <trkpt lat="48.84772" lon="7.34247">
        <ele>316</ele>
        <time>2020-06-28T07:59:20Z</time>
      </trkpt>
      <trkpt lat="48.84763" lon="7.34238">
        <ele>315.8</ele>
        <time>2020-06-28T07:59:22Z</time>
      </trkpt>
      <trkpt lat="48.8475" lon="7.34228">
        <ele>315.3</ele>
        <time>2020-06-28T07:59:24Z</time>
      </trkpt>
      <trkpt lat="48.84738" lon="7.34218">
        <ele>315.2</ele>
        <time>2020-06-28T07:59:26Z</time>
      </trkpt>
      <trkpt lat="48.84728" lon="7.34209">
        <ele>314.4</ele>
        <time>2020-06-28T07:59:28Z</time>
      </trkpt>
      <trkpt lat="48.8472" lon="7.34203">
        <ele>314</ele>
        <time>2020-06-28T07:59:30Z</time>
      </trkpt>
      <trkpt lat="48.84711" lon="7.34196">
        <ele>313.1</ele>
        <time>2020-06-28T07:59:32Z</time>
      </trkpt>
      <trkpt lat="48.84707" lon="7.34192">
        <ele>312.4</ele>
        <time>2020-06-28T07:59:34Z</time>
      </trkpt>
      <trkpt lat="48.84702" lon="7.34188">
        <ele>311.3</ele>
        <time>2020-06-28T07:59:36Z</time>
      </trkpt>
      <trkpt lat="48.847" lon="7.34182">
        <ele>308</ele>
        <time>2020-06-28T07:59:47Z</time>
      </trkpt>
      <trkpt lat="48.84703" lon="7.34186">
        <ele>308.7</ele>
        <time>2020-06-28T08:00:03Z</time>
      </trkpt>
      <trkpt lat="48.84707" lon="7.34194">
        <ele>308.5</ele>
        <time>2020-06-28T08:00:06Z</time>
      </trkpt>
      <trkpt lat="48.84711" lon="7.34209">
        <ele>307.4</ele>
        <time>2020-06-28T08:00:08Z</time>
      </trkpt>
      <trkpt lat="48.84717" lon="7.34228">
        <ele>306.1</ele>
        <time>2020-06-28T08:00:10Z</time>
      </trkpt>
      <trkpt lat="48.84724" lon="7.34251">
        <ele>304.9</ele>
        <time>2020-06-28T08:00:12Z</time>
      </trkpt>
      <trkpt lat="48.84734" lon="7.34276">
        <ele>303.7</ele>
        <time>2020-06-28T08:00:14Z</time>
      </trkpt>
      <trkpt lat="48.8474" lon="7.34299">
        <ele>301.9</ele>
        <time>2020-06-28T08:00:16Z</time>
      </trkpt>
      <trkpt lat="48.84745" lon="7.34321">
        <ele>299.7</ele>
        <time>2020-06-28T08:00:18Z</time>
      </trkpt>
      <trkpt lat="48.84746" lon="7.34343">
        <ele>297.8</ele>
        <time>2020-06-28T08:00:20Z</time>
      </trkpt>
      <trkpt lat="48.84743" lon="7.34364">
        <ele>294.8</ele>
        <time>2020-06-28T08:00:22Z</time>
      </trkpt>
      <trkpt lat="48.84744" lon="7.34384">
        <ele>293.1</ele>
        <time>2020-06-28T08:00:24Z</time>
      </trkpt>
      <trkpt lat="48.84746" lon="7.34395">
        <ele>291.8</ele>
        <time>2020-06-28T08:00:26Z</time>
      </trkpt>
      <trkpt lat="48.8474" lon="7.34396">
        <ele>287.7</ele>
        <time>2020-06-28T08:00:36Z</time>
      </trkpt>
      <trkpt lat="48.84733" lon="7.34399">
        <ele>286.5</ele>
        <time>2020-06-28T08:00:38Z</time>
      </trkpt>
      <trkpt lat="48.84726" lon="7.34403">
        <ele>285.5</ele>
        <time>2020-06-28T08:00:40Z</time>
      </trkpt>
      <trkpt lat="48.84721" lon="7.3441">
        <ele>284.2</ele>
        <time>2020-06-28T08:00:42Z</time>
      </trkpt>
      <trkpt lat="48.84721" lon="7.34421">
        <ele>283.6</ele>
        <time>2020-06-28T08:00:44Z</time>
      </trkpt>
      <trkpt lat="48.84723" lon="7.34432">
        <ele>283.1</ele>
        <time>2020-06-28T08:00:46Z</time>
      </trkpt>
      <trkpt lat="48.84726" lon="7.34443">
        <ele>282.8</ele>
        <time>2020-06-28T08:00:48Z</time>
      </trkpt>
      <trkpt lat="48.84729" lon="7.34456">
        <ele>282.8</ele>
        <time>2020-06-28T08:00:50Z</time>
      </trkpt>
      <trkpt lat="48.84732" lon="7.3447">
        <ele>282.7</ele>
        <time>2020-06-28T08:00:52Z</time>
      </trkpt>
      <trkpt lat="48.84734" lon="7.34483">
        <ele>282.8</ele>
        <time>2020-06-28T08:00:54Z</time>
      </trkpt>
      <trkpt lat="48.84736" lon="7.34502">
        <ele>282.4</ele>
        <time>2020-06-28T08:00:57Z</time>
      </trkpt>
      <trkpt lat="48.84738" lon="7.34515">
        <ele>282.2</ele>
        <time>2020-06-28T08:00:59Z</time>
      </trkpt>
      <trkpt lat="48.84738" lon="7.34529">
        <ele>281.4</ele>
        <time>2020-06-28T08:01:01Z</time>
      </trkpt>
      <trkpt lat="48.84738" lon="7.34542">
        <ele>281.2</ele>
        <time>2020-06-28T08:01:03Z</time>
      </trkpt>
      <trkpt lat="48.84734" lon="7.34563">
        <ele>280.1</ele>
        <time>2020-06-28T08:01:06Z</time>
      </trkpt>
      <trkpt lat="48.84726" lon="7.34582">
        <ele>279.4</ele>
        <time>2020-06-28T08:01:09Z</time>
      </trkpt>
      <trkpt lat="48.8472" lon="7.34594">
        <ele>279.1</ele>
        <time>2020-06-28T08:01:11Z</time>
      </trkpt>
      <trkpt lat="48.84714" lon="7.34605">
        <ele>278.3</ele>
        <time>2020-06-28T08:01:13Z</time>
      </trkpt>
      <trkpt lat="48.84706" lon="7.34617">
        <ele>277.2</ele>
        <time>2020-06-28T08:01:15Z</time>
      </trkpt>
      <trkpt lat="48.84699" lon="7.34629">
        <ele>275.9</ele>
        <time>2020-06-28T08:01:17Z</time>
      </trkpt>
      <trkpt lat="48.84692" lon="7.3464">
        <ele>282.1</ele>
        <time>2020-06-28T08:01:19Z</time>
      </trkpt>
      <trkpt lat="48.84681" lon="7.34657">
        <ele>285.7</ele>
        <time>2020-06-28T08:01:22Z</time>
      </trkpt>
      <trkpt lat="48.84674" lon="7.34666">
        <ele>286.2</ele>
        <time>2020-06-28T08:01:24Z</time>
      </trkpt>
      <trkpt lat="48.84662" lon="7.34679">
        <ele>291.3</ele>
        <time>2020-06-28T08:01:27Z</time>
      </trkpt>
      <trkpt lat="48.84648" lon="7.34683">
        <ele>288.7</ele>
        <time>2020-06-28T08:01:30Z</time>
      </trkpt>
      <trkpt lat="48.84638" lon="7.34687">
        <ele>287.3</ele>
        <time>2020-06-28T08:01:32Z</time>
      </trkpt>
      <trkpt lat="48.84628" lon="7.34693">
        <ele>284.6</ele>
        <time>2020-06-28T08:01:34Z</time>
      </trkpt>
      <trkpt lat="48.84619" lon="7.347">
        <ele>281</ele>
        <time>2020-06-28T08:01:36Z</time>
      </trkpt>
      <trkpt lat="48.84612" lon="7.3471">
        <ele>278.3</ele>
        <time>2020-06-28T08:01:38Z</time>
      </trkpt>
      <trkpt lat="48.84609" lon="7.3473">
        <ele>276.5</ele>
        <time>2020-06-28T08:01:41Z</time>
      </trkpt>
      <trkpt lat="48.84609" lon="7.34744">
        <ele>275.5</ele>
        <time>2020-06-28T08:01:43Z</time>
      </trkpt>
      <trkpt lat="48.84608" lon="7.34757">
        <ele>274.7</ele>
        <time>2020-06-28T08:01:45Z</time>
      </trkpt>
      <trkpt lat="48.84609" lon="7.34772">
        <ele>274.8</ele>
        <time>2020-06-28T08:01:47Z</time>
      </trkpt>
      <trkpt lat="48.84609" lon="7.34785">
        <ele>275.2</ele>
        <time>2020-06-28T08:01:49Z</time>
      </trkpt>
      <trkpt lat="48.84606" lon="7.34798">
        <ele>275.2</ele>
        <time>2020-06-28T08:01:51Z</time>
      </trkpt>
      <trkpt lat="48.84601" lon="7.3481">
        <ele>275.1</ele>
        <time>2020-06-28T08:01:53Z</time>
      </trkpt>
      <trkpt lat="48.84595" lon="7.34822">
        <ele>274.5</ele>
        <time>2020-06-28T08:01:55Z</time>
      </trkpt>
      <trkpt lat="48.84588" lon="7.34831">
        <ele>285.5</ele>
        <time>2020-06-28T08:01:57Z</time>
      </trkpt>
      <trkpt lat="48.84581" lon="7.34837">
        <ele>290.3</ele>
        <time>2020-06-28T08:01:59Z</time>
      </trkpt>
      <trkpt lat="48.84574" lon="7.34841">
        <ele>292.2</ele>
        <time>2020-06-28T08:02:01Z</time>
      </trkpt>
      <trkpt lat="48.84565" lon="7.34845">
        <ele>292</ele>
        <time>2020-06-28T08:02:03Z</time>
      </trkpt>
      <trkpt lat="48.84556" lon="7.34859">
        <ele>305</ele>
        <time>2020-06-28T08:02:06Z</time>
      </trkpt>
      <trkpt lat="48.84557" lon="7.34873">
        <ele>306</ele>
        <time>2020-06-28T08:02:09Z</time>
      </trkpt>
      <trkpt lat="48.8456" lon="7.34883">
        <ele>303.3</ele>
        <time>2020-06-28T08:02:11Z</time>
      </trkpt>
      <trkpt lat="48.84561" lon="7.34896">
        <ele>307.5</ele>
        <time>2020-06-28T08:02:13Z</time>
      </trkpt>
      <trkpt lat="48.84561" lon="7.3491">
        <ele>310.8</ele>
        <time>2020-06-28T08:02:15Z</time>
      </trkpt>
      <trkpt lat="48.84562" lon="7.34927">
        <ele>306.3</ele>
        <time>2020-06-28T08:02:17Z</time>
      </trkpt>
      <trkpt lat="48.84562" lon="7.34942">
        <ele>301.2</ele>
        <time>2020-06-28T08:02:19Z</time>
      </trkpt>
      <trkpt lat="48.84563" lon="7.34958">
        <ele>296.5</ele>
        <time>2020-06-28T08:02:21Z</time>
      </trkpt>
      <trkpt lat="48.84562" lon="7.34973">
        <ele>292</ele>
        <time>2020-06-28T08:02:23Z</time>
      </trkpt>
      <trkpt lat="48.84559" lon="7.34987">
        <ele>294.2</ele>
        <time>2020-06-28T08:02:25Z</time>
      </trkpt>
      <trkpt lat="48.84555" lon="7.35001">
        <ele>289.1</ele>
        <time>2020-06-28T08:02:27Z</time>
      </trkpt>
      <trkpt lat="48.84552" lon="7.35016">
        <ele>286.2</ele>
        <time>2020-06-28T08:02:29Z</time>
      </trkpt>
      <trkpt lat="48.8455" lon="7.35034">
        <ele>282.4</ele>
        <time>2020-06-28T08:02:31Z</time>
      </trkpt>
      <trkpt lat="48.84547" lon="7.35054">
        <ele>278.9</ele>
        <time>2020-06-28T08:02:33Z</time>
      </trkpt>
      <trkpt lat="48.8454" lon="7.35072">
        <ele>275.8</ele>
        <time>2020-06-28T08:02:35Z</time>
      </trkpt>
      <trkpt lat="48.84531" lon="7.3509">
        <ele>274</ele>
        <time>2020-06-28T08:02:37Z</time>
      </trkpt>
      <trkpt lat="48.8452" lon="7.35108">
        <ele>272</ele>
        <time>2020-06-28T08:02:39Z</time>
      </trkpt>
      <trkpt lat="48.8451" lon="7.35127">
        <ele>269.9</ele>
        <time>2020-06-28T08:02:41Z</time>
      </trkpt>
      <trkpt lat="48.84501" lon="7.35145">
        <ele>268.8</ele>
        <time>2020-06-28T08:02:43Z</time>
      </trkpt>
      <trkpt lat="48.84484" lon="7.35161">
        <ele>266.9</ele>
        <time>2020-06-28T08:02:46Z</time>
      </trkpt>
      <trkpt lat="48.84469" lon="7.35169">
        <ele>266</ele>
        <time>2020-06-28T08:02:48Z</time>
      </trkpt>
      <trkpt lat="48.84453" lon="7.35181">
        <ele>264.7</ele>
        <time>2020-06-28T08:02:50Z</time>
      </trkpt>
      <trkpt lat="48.84435" lon="7.35195">
        <ele>263.4</ele>
        <time>2020-06-28T08:02:52Z</time>
      </trkpt>
      <trkpt lat="48.84418" lon="7.35213">
        <ele>262.6</ele>
        <time>2020-06-28T08:02:54Z</time>
      </trkpt>
      <trkpt lat="48.84403" lon="7.35234">
        <ele>261.8</ele>
        <time>2020-06-28T08:02:56Z</time>
      </trkpt>
      <trkpt lat="48.84389" lon="7.35253">
        <ele>259.6</ele>
        <time>2020-06-28T08:02:58Z</time>
      </trkpt>
      <trkpt lat="48.84371" lon="7.35264">
        <ele>257</ele>
        <time>2020-06-28T08:03:00Z</time>
      </trkpt>
      <trkpt lat="48.84352" lon="7.35273">
        <ele>256.3</ele>
        <time>2020-06-28T08:03:02Z</time>
      </trkpt>
      <trkpt lat="48.84333" lon="7.35286">
        <ele>255.9</ele>
        <time>2020-06-28T08:03:04Z</time>
      </trkpt>
      <trkpt lat="48.84321" lon="7.35293">
        <ele>256.2</ele>
        <time>2020-06-28T08:03:06Z</time>
      </trkpt>
      <trkpt lat="48.8431" lon="7.35298">
        <ele>256.6</ele>
        <time>2020-06-28T08:03:08Z</time>
      </trkpt>
      <trkpt lat="48.84303" lon="7.35299">
        <ele>257.3</ele>
        <time>2020-06-28T08:03:10Z</time>
      </trkpt>
      <trkpt lat="48.84298" lon="7.353">
        <ele>257.5</ele>
        <time>2020-06-28T08:03:12Z</time>
      </trkpt>
      <trkpt lat="48.84293" lon="7.35301">
        <ele>257.6</ele>
        <time>2020-06-28T08:03:14Z</time>
      </trkpt>
      <trkpt lat="48.84286" lon="7.353">
        <ele>257.7</ele>
        <time>2020-06-28T08:03:16Z</time>
      </trkpt>
      <trkpt lat="48.8428" lon="7.353">
        <ele>257.2</ele>
        <time>2020-06-28T08:03:19Z</time>
      </trkpt>
      <trkpt lat="48.84275" lon="7.35301">
        <ele>257.4</ele>
        <time>2020-06-28T08:03:22Z</time>
      </trkpt>
      <trkpt lat="48.84268" lon="7.35301">
        <ele>257</ele>
        <time>2020-06-28T08:03:26Z</time>
      </trkpt>
      <trkpt lat="48.84262" lon="7.353">
        <ele>257.5</ele>
        <time>2020-06-28T08:03:30Z</time>
      </trkpt>
      <trkpt lat="48.84257" lon="7.35298">
        <ele>257.9</ele>
        <time>2020-06-28T08:03:32Z</time>
      </trkpt>
      <trkpt lat="48.84253" lon="7.35294">
        <ele>257.4</ele>
        <time>2020-06-28T08:03:34Z</time>
      </trkpt>
      <trkpt lat="48.84247" lon="7.3529">
        <ele>258.4</ele>
        <time>2020-06-28T08:03:37Z</time>
      </trkpt>
      <trkpt lat="48.84242" lon="7.35287">
        <ele>260</ele>
        <time>2020-06-28T08:03:40Z</time>
      </trkpt>
      <trkpt lat="48.84238" lon="7.35285">
        <ele>260.3</ele>
        <time>2020-06-28T08:03:42Z</time>
      </trkpt>
      <trkpt lat="48.84233" lon="7.35283">
        <ele>261.1</ele>
        <time>2020-06-28T08:03:44Z</time>
      </trkpt>
      <trkpt lat="48.84227" lon="7.35281">
        <ele>261.8</ele>
        <time>2020-06-28T08:03:47Z</time>
      </trkpt>
      <trkpt lat="48.84221" lon="7.3528">
        <ele>262.8</ele>
        <time>2020-06-28T08:03:50Z</time>
      </trkpt>
      <trkpt lat="48.84216" lon="7.35277">
        <ele>263</ele>
        <time>2020-06-28T08:03:52Z</time>
      </trkpt>
      <trkpt lat="48.84211" lon="7.35275">
        <ele>263.6</ele>
        <time>2020-06-28T08:03:54Z</time>
      </trkpt>
      <trkpt lat="48.84206" lon="7.35272">
        <ele>264.5</ele>
        <time>2020-06-28T08:03:57Z</time>
      </trkpt>
      <trkpt lat="48.84202" lon="7.3527">
        <ele>264.7</ele>
        <time>2020-06-28T08:03:59Z</time>
      </trkpt>
      <trkpt lat="48.84197" lon="7.35268">
        <ele>265.3</ele>
        <time>2020-06-28T08:04:01Z</time>
      </trkpt>
      <trkpt lat="48.84192" lon="7.35266">
        <ele>265.2</ele>
        <time>2020-06-28T08:04:03Z</time>
      </trkpt>
      <trkpt lat="48.84187" lon="7.35264">
        <ele>265.3</ele>
        <time>2020-06-28T08:04:05Z</time>
      </trkpt>
      <trkpt lat="48.84181" lon="7.35261">
        <ele>264.5</ele>
        <time>2020-06-28T08:04:08Z</time>
      </trkpt>
      <trkpt lat="48.84175" lon="7.35259">
        <ele>264.3</ele>
        <time>2020-06-28T08:04:11Z</time>
      </trkpt>
      <trkpt lat="48.8417" lon="7.35258">
        <ele>264.1</ele>
        <time>2020-06-28T08:04:13Z</time>
      </trkpt>
      <trkpt lat="48.84165" lon="7.35259">
        <ele>263.5</ele>
        <time>2020-06-28T08:04:15Z</time>
      </trkpt>
      <trkpt lat="48.8416" lon="7.35259">
        <ele>263.6</ele>
        <time>2020-06-28T08:04:17Z</time>
      </trkpt>
      <trkpt lat="48.84155" lon="7.35258">
        <ele>263.5</ele>
        <time>2020-06-28T08:04:20Z</time>
      </trkpt>
      <trkpt lat="48.84149" lon="7.35257">
        <ele>263.7</ele>
        <time>2020-06-28T08:04:23Z</time>
      </trkpt>
      <trkpt lat="48.84144" lon="7.35256">
        <ele>264.9</ele>
        <time>2020-06-28T08:04:26Z</time>
      </trkpt>
      <trkpt lat="48.8414" lon="7.35254">
        <ele>265.6</ele>
        <time>2020-06-28T08:04:29Z</time>
      </trkpt>
      <trkpt lat="48.84134" lon="7.35252">
        <ele>266</ele>
        <time>2020-06-28T08:04:32Z</time>
      </trkpt>
      <trkpt lat="48.84128" lon="7.35248">
        <ele>265.7</ele>
        <time>2020-06-28T08:04:35Z</time>
      </trkpt>
      <trkpt lat="48.84122" lon="7.35246">
        <ele>264.1</ele>
        <time>2020-06-28T08:04:37Z</time>
      </trkpt>
      <trkpt lat="48.84116" lon="7.35246">
        <ele>264.1</ele>
        <time>2020-06-28T08:04:39Z</time>
      </trkpt>
      <trkpt lat="48.8411" lon="7.35246">
        <ele>264.6</ele>
        <time>2020-06-28T08:04:41Z</time>
      </trkpt>
      <trkpt lat="48.84104" lon="7.35246">
        <ele>264.8</ele>
        <time>2020-06-28T08:04:43Z</time>
      </trkpt>
      <trkpt lat="48.84099" lon="7.35244">
        <ele>266.1</ele>
        <time>2020-06-28T08:04:45Z</time>
      </trkpt>
      <trkpt lat="48.84094" lon="7.35244">
        <ele>269</ele>
        <time>2020-06-28T08:04:51Z</time>
      </trkpt>
      <trkpt lat="48.84089" lon="7.35245">
        <ele>270</ele>
        <time>2020-06-28T08:04:53Z</time>
      </trkpt>
      <trkpt lat="48.84082" lon="7.35248">
        <ele>270.7</ele>
        <time>2020-06-28T08:04:55Z</time>
      </trkpt>
      <trkpt lat="48.84076" lon="7.3525">
        <ele>271.1</ele>
        <time>2020-06-28T08:04:57Z</time>
      </trkpt>
      <trkpt lat="48.84067" lon="7.3525">
        <ele>272.1</ele>
        <time>2020-06-28T08:05:00Z</time>
      </trkpt>
      <trkpt lat="48.84061" lon="7.35251">
        <ele>272.4</ele>
        <time>2020-06-28T08:05:02Z</time>
      </trkpt>
      <trkpt lat="48.84055" lon="7.35252">
        <ele>272.7</ele>
        <time>2020-06-28T08:05:04Z</time>
      </trkpt>
      <trkpt lat="48.84052" lon="7.35258">
        <ele>270.9</ele>
        <time>2020-06-28T08:05:07Z</time>
      </trkpt>
      <trkpt lat="48.8405" lon="7.35266">
        <ele>270.1</ele>
        <time>2020-06-28T08:05:11Z</time>
      </trkpt>
      <trkpt lat="48.84049" lon="7.35273">
        <ele>269.5</ele>
        <time>2020-06-28T08:05:14Z</time>
      </trkpt>
      <trkpt lat="48.84046" lon="7.3528">
        <ele>269.2</ele>
        <time>2020-06-28T08:05:17Z</time>
      </trkpt>
      <trkpt lat="48.84043" lon="7.35287">
        <ele>272.3</ele>
        <time>2020-06-28T08:05:20Z</time>
      </trkpt>
      <trkpt lat="48.84039" lon="7.35293">
        <ele>274</ele>
        <time>2020-06-28T08:05:23Z</time>
      </trkpt>
      <trkpt lat="48.84034" lon="7.35299">
        <ele>274.8</ele>
        <time>2020-06-28T08:05:26Z</time>
      </trkpt>
      <trkpt lat="48.84029" lon="7.35305">
        <ele>274.9</ele>
        <time>2020-06-28T08:05:29Z</time>
      </trkpt>
      <trkpt lat="48.84023" lon="7.35307">
        <ele>275.7</ele>
        <time>2020-06-28T08:05:32Z</time>
      </trkpt>
      <trkpt lat="48.84018" lon="7.35309">
        <ele>275.8</ele>
        <time>2020-06-28T08:05:34Z</time>
      </trkpt>
      <trkpt lat="48.84015" lon="7.35314">
        <ele>275.9</ele>
        <time>2020-06-28T08:05:37Z</time>
      </trkpt>
      <trkpt lat="48.8401" lon="7.35319">
        <ele>276.6</ele>
        <time>2020-06-28T08:05:41Z</time>
      </trkpt>
      <trkpt lat="48.84005" lon="7.35322">
        <ele>276.8</ele>
        <time>2020-06-28T08:05:45Z</time>
      </trkpt>
      <trkpt lat="48.84002" lon="7.35326">
        <ele>276.4</ele>
        <time>2020-06-28T08:05:53Z</time>
      </trkpt>
      <trkpt lat="48.84" lon="7.35332">
        <ele>275.5</ele>
        <time>2020-06-28T08:05:57Z</time>
      </trkpt>
      <trkpt lat="48.83999" lon="7.3534">
        <ele>277.1</ele>
        <time>2020-06-28T08:06:01Z</time>
      </trkpt>
      <trkpt lat="48.84003" lon="7.35335">
        <ele>280.5</ele>
        <time>2020-06-28T08:06:24Z</time>
      </trkpt>
      <trkpt lat="48.84005" lon="7.35342">
        <ele>280.6</ele>
        <time>2020-06-28T08:06:43Z</time>
      </trkpt>
      <trkpt lat="48.84001" lon="7.35347">
        <ele>279.4</ele>
        <time>2020-06-28T08:06:49Z</time>
      </trkpt>
      <trkpt lat="48.83995" lon="7.3535">
        <ele>279</ele>
        <time>2020-06-28T08:06:52Z</time>
      </trkpt>
      <trkpt lat="48.83991" lon="7.35352">
        <ele>279.2</ele>
        <time>2020-06-28T08:06:55Z</time>
      </trkpt>
      <trkpt lat="48.83984" lon="7.35356">
        <ele>280.3</ele>
        <time>2020-06-28T08:06:58Z</time>
      </trkpt>
      <trkpt lat="48.83979" lon="7.35358">
        <ele>281.1</ele>
        <time>2020-06-28T08:07:00Z</time>
      </trkpt>
      <trkpt lat="48.83973" lon="7.35358">
        <ele>282.8</ele>
        <time>2020-06-28T08:07:03Z</time>
      </trkpt>
      <trkpt lat="48.83969" lon="7.35361">
        <ele>283.6</ele>
        <time>2020-06-28T08:07:08Z</time>
      </trkpt>
      <trkpt lat="48.83967" lon="7.35368">
        <ele>283.6</ele>
        <time>2020-06-28T08:07:14Z</time>
      </trkpt>
      <trkpt lat="48.83963" lon="7.35373">
        <ele>281.8</ele>
        <time>2020-06-28T08:07:18Z</time>
      </trkpt>
      <trkpt lat="48.83961" lon="7.35379">
        <ele>281</ele>
        <time>2020-06-28T08:07:24Z</time>
      </trkpt>
      <trkpt lat="48.83958" lon="7.35386">
        <ele>279.9</ele>
        <time>2020-06-28T08:07:27Z</time>
      </trkpt>
      <trkpt lat="48.83956" lon="7.35392">
        <ele>280.4</ele>
        <time>2020-06-28T08:07:30Z</time>
      </trkpt>
      <trkpt lat="48.83951" lon="7.35397">
        <ele>280</ele>
        <time>2020-06-28T08:07:33Z</time>
      </trkpt>
      <trkpt lat="48.83947" lon="7.35399">
        <ele>279.6</ele>
        <time>2020-06-28T08:07:35Z</time>
      </trkpt>
      <trkpt lat="48.83942" lon="7.35401">
        <ele>279</ele>
        <time>2020-06-28T08:07:37Z</time>
      </trkpt>
      <trkpt lat="48.83937" lon="7.35403">
        <ele>278.3</ele>
        <time>2020-06-28T08:07:39Z</time>
      </trkpt>
      <trkpt lat="48.83933" lon="7.35406">
        <ele>279.2</ele>
        <time>2020-06-28T08:07:41Z</time>
      </trkpt>
      <trkpt lat="48.83928" lon="7.3541">
        <ele>279.4</ele>
        <time>2020-06-28T08:07:43Z</time>
      </trkpt>
      <trkpt lat="48.83922" lon="7.35414">
        <ele>279.9</ele>
        <time>2020-06-28T08:07:45Z</time>
      </trkpt>
      <trkpt lat="48.83916" lon="7.35418">
        <ele>280.5</ele>
        <time>2020-06-28T08:07:47Z</time>
      </trkpt>
      <trkpt lat="48.83912" lon="7.35423">
        <ele>281.2</ele>
        <time>2020-06-28T08:07:49Z</time>
      </trkpt>
      <trkpt lat="48.83909" lon="7.35429">
        <ele>282.1</ele>
        <time>2020-06-28T08:07:52Z</time>
      </trkpt>
      <trkpt lat="48.83907" lon="7.35436">
        <ele>283.6</ele>
        <time>2020-06-28T08:07:57Z</time>
      </trkpt>
      <trkpt lat="48.83903" lon="7.35441">
        <ele>283.3</ele>
        <time>2020-06-28T08:08:00Z</time>
      </trkpt>
      <trkpt lat="48.83901" lon="7.35448">
        <ele>283.1</ele>
        <time>2020-06-28T08:08:04Z</time>
      </trkpt>
      <trkpt lat="48.83895" lon="7.35453">
        <ele>283.2</ele>
        <time>2020-06-28T08:08:07Z</time>
      </trkpt>
      <trkpt lat="48.83892" lon="7.35458">
        <ele>282.8</ele>
        <time>2020-06-28T08:08:09Z</time>
      </trkpt>
      <trkpt lat="48.83888" lon="7.35464">
        <ele>282.7</ele>
        <time>2020-06-28T08:08:11Z</time>
      </trkpt>
      <trkpt lat="48.83886" lon="7.3547">
        <ele>282.9</ele>
        <time>2020-06-28T08:08:13Z</time>
      </trkpt>
      <trkpt lat="48.83881" lon="7.35477">
        <ele>283.1</ele>
        <time>2020-06-28T08:08:16Z</time>
      </trkpt>
      <trkpt lat="48.8388" lon="7.35485">
        <ele>283.4</ele>
        <time>2020-06-28T08:08:20Z</time>
      </trkpt>
      <trkpt lat="48.83878" lon="7.35492">
        <ele>283</ele>
        <time>2020-06-28T08:08:23Z</time>
      </trkpt>
      <trkpt lat="48.83876" lon="7.35498">
        <ele>282.8</ele>
        <time>2020-06-28T08:08:25Z</time>
      </trkpt>
      <trkpt lat="48.83871" lon="7.35503">
        <ele>282.9</ele>
        <time>2020-06-28T08:08:27Z</time>
      </trkpt>
      <trkpt lat="48.83868" lon="7.35508">
        <ele>283.9</ele>
        <time>2020-06-28T08:08:29Z</time>
      </trkpt>
      <trkpt lat="48.83864" lon="7.35513">
        <ele>284.4</ele>
        <time>2020-06-28T08:08:31Z</time>
      </trkpt>
      <trkpt lat="48.83861" lon="7.3552">
        <ele>285.4</ele>
        <time>2020-06-28T08:08:33Z</time>
      </trkpt>
      <trkpt lat="48.83859" lon="7.35526">
        <ele>286.5</ele>
        <time>2020-06-28T08:08:35Z</time>
      </trkpt>
      <trkpt lat="48.83857" lon="7.35534">
        <ele>286.3</ele>
        <time>2020-06-28T08:08:37Z</time>
      </trkpt>
      <trkpt lat="48.83855" lon="7.35541">
        <ele>286.7</ele>
        <time>2020-06-28T08:08:39Z</time>
      </trkpt>
      <trkpt lat="48.83854" lon="7.3555">
        <ele>286.6</ele>
        <time>2020-06-28T08:08:42Z</time>
      </trkpt>
      <trkpt lat="48.83851" lon="7.35557">
        <ele>286.9</ele>
        <time>2020-06-28T08:08:45Z</time>
      </trkpt>
      <trkpt lat="48.83847" lon="7.35562">
        <ele>288.2</ele>
        <time>2020-06-28T08:08:48Z</time>
      </trkpt>
      <trkpt lat="48.83845" lon="7.35568">
        <ele>288.9</ele>
        <time>2020-06-28T08:08:53Z</time>
      </trkpt>
      <trkpt lat="48.83843" lon="7.35576">
        <ele>289.3</ele>
        <time>2020-06-28T08:08:58Z</time>
      </trkpt>
      <trkpt lat="48.83847" lon="7.35582">
        <ele>289.9</ele>
        <time>2020-06-28T08:09:03Z</time>
      </trkpt>
      <trkpt lat="48.83848" lon="7.35589">
        <ele>290.5</ele>
        <time>2020-06-28T08:09:07Z</time>
      </trkpt>
      <trkpt lat="48.83847" lon="7.35596">
        <ele>291.6</ele>
        <time>2020-06-28T08:09:11Z</time>
      </trkpt>
      <trkpt lat="48.83842" lon="7.35601">
        <ele>292.2</ele>
        <time>2020-06-28T08:09:15Z</time>
      </trkpt>
      <trkpt lat="48.83838" lon="7.35604">
        <ele>292.3</ele>
        <time>2020-06-28T08:09:20Z</time>
      </trkpt>
      <trkpt lat="48.83836" lon="7.3561">
        <ele>295.4</ele>
        <time>2020-06-28T08:09:29Z</time>
      </trkpt>
      <trkpt lat="48.83834" lon="7.35618">
        <ele>296.5</ele>
        <time>2020-06-28T08:09:33Z</time>
      </trkpt>
      <trkpt lat="48.83833" lon="7.35625">
        <ele>297.6</ele>
        <time>2020-06-28T08:09:36Z</time>
      </trkpt>
      <trkpt lat="48.83833" lon="7.35634">
        <ele>297.7</ele>
        <time>2020-06-28T08:09:39Z</time>
      </trkpt>
      <trkpt lat="48.83832" lon="7.35641">
        <ele>298</ele>
        <time>2020-06-28T08:09:41Z</time>
      </trkpt>
      <trkpt lat="48.83832" lon="7.35651">
        <ele>298.6</ele>
        <time>2020-06-28T08:09:44Z</time>
      </trkpt>
      <trkpt lat="48.83831" lon="7.35658">
        <ele>299</ele>
        <time>2020-06-28T08:09:46Z</time>
      </trkpt>
      <trkpt lat="48.83831" lon="7.35665">
        <ele>299</ele>
        <time>2020-06-28T08:09:48Z</time>
      </trkpt>
      <trkpt lat="48.83832" lon="7.35672">
        <ele>298.5</ele>
        <time>2020-06-28T08:09:50Z</time>
      </trkpt>
      <trkpt lat="48.83831" lon="7.35682">
        <ele>297.9</ele>
        <time>2020-06-28T08:09:53Z</time>
      </trkpt>
      <trkpt lat="48.83831" lon="7.35691">
        <ele>298.1</ele>
        <time>2020-06-28T08:09:56Z</time>
      </trkpt>
      <trkpt lat="48.83832" lon="7.35699">
        <ele>297.5</ele>
        <time>2020-06-28T08:10:00Z</time>
      </trkpt>
      <trkpt lat="48.83832" lon="7.35706">
        <ele>297.3</ele>
        <time>2020-06-28T08:10:03Z</time>
      </trkpt>
      <trkpt lat="48.83828" lon="7.35713">
        <ele>298.5</ele>
        <time>2020-06-28T08:10:06Z</time>
      </trkpt>
      <trkpt lat="48.83825" lon="7.35718">
        <ele>300.2</ele>
        <time>2020-06-28T08:10:09Z</time>
      </trkpt>
      <trkpt lat="48.83824" lon="7.35725">
        <ele>310.9</ele>
        <time>2020-06-28T08:10:19Z</time>
      </trkpt>
      <trkpt lat="48.83825" lon="7.35731">
        <ele>307</ele>
        <time>2020-06-28T08:10:26Z</time>
      </trkpt>
      <trkpt lat="48.83827" lon="7.3574">
        <ele>306.1</ele>
        <time>2020-06-28T08:10:30Z</time>
      </trkpt>
      <trkpt lat="48.83827" lon="7.35749">
        <ele>305.5</ele>
        <time>2020-06-28T08:10:33Z</time>
      </trkpt>
      <trkpt lat="48.83828" lon="7.35756">
        <ele>303.6</ele>
        <time>2020-06-28T08:10:36Z</time>
      </trkpt>
      <trkpt lat="48.83831" lon="7.35764">
        <ele>302.7</ele>
        <time>2020-06-28T08:10:39Z</time>
      </trkpt>
      <trkpt lat="48.83832" lon="7.35772">
        <ele>301.7</ele>
        <time>2020-06-28T08:10:42Z</time>
      </trkpt>
      <trkpt lat="48.83833" lon="7.35779">
        <ele>301.2</ele>
        <time>2020-06-28T08:10:45Z</time>
      </trkpt>
      <trkpt lat="48.8383" lon="7.35785">
        <ele>301.2</ele>
        <time>2020-06-28T08:10:49Z</time>
      </trkpt>
      <trkpt lat="48.83829" lon="7.35794">
        <ele>300.8</ele>
        <time>2020-06-28T08:10:52Z</time>
      </trkpt>
      <trkpt lat="48.83831" lon="7.35803">
        <ele>301</ele>
        <time>2020-06-28T08:10:55Z</time>
      </trkpt>
      <trkpt lat="48.83831" lon="7.35811">
        <ele>300</ele>
        <time>2020-06-28T08:10:58Z</time>
      </trkpt>
      <trkpt lat="48.83831" lon="7.35819">
        <ele>300.4</ele>
        <time>2020-06-28T08:11:01Z</time>
      </trkpt>
      <trkpt lat="48.83829" lon="7.35829">
        <ele>301.2</ele>
        <time>2020-06-28T08:11:04Z</time>
      </trkpt>
      <trkpt lat="48.83827" lon="7.35839">
        <ele>301.9</ele>
        <time>2020-06-28T08:11:07Z</time>
      </trkpt>
      <trkpt lat="48.83827" lon="7.35846">
        <ele>302.4</ele>
        <time>2020-06-28T08:11:10Z</time>
      </trkpt>
      <trkpt lat="48.83828" lon="7.35854">
        <ele>302.6</ele>
        <time>2020-06-28T08:11:13Z</time>
      </trkpt>
      <trkpt lat="48.83826" lon="7.35863">
        <ele>310.7</ele>
        <time>2020-06-28T08:11:16Z</time>
      </trkpt>
      <trkpt lat="48.83825" lon="7.3587">
        <ele>311.7</ele>
        <time>2020-06-28T08:11:19Z</time>
      </trkpt>
      <trkpt lat="48.83825" lon="7.35878">
        <ele>313.4</ele>
        <time>2020-06-28T08:11:23Z</time>
      </trkpt>
      <trkpt lat="48.83825" lon="7.35886">
        <ele>314</ele>
        <time>2020-06-28T08:11:26Z</time>
      </trkpt>
      <trkpt lat="48.83825" lon="7.35894">
        <ele>313.7</ele>
        <time>2020-06-28T08:11:29Z</time>
      </trkpt>
      <trkpt lat="48.83824" lon="7.35903">
        <ele>312.9</ele>
        <time>2020-06-28T08:11:33Z</time>
      </trkpt>
      <trkpt lat="48.83825" lon="7.35911">
        <ele>312.6</ele>
        <time>2020-06-28T08:11:37Z</time>
      </trkpt>
      <trkpt lat="48.83826" lon="7.35918">
        <ele>312.6</ele>
        <time>2020-06-28T08:11:40Z</time>
      </trkpt>
      <trkpt lat="48.83826" lon="7.35925">
        <ele>312.5</ele>
        <time>2020-06-28T08:11:43Z</time>
      </trkpt>
      <trkpt lat="48.83826" lon="7.35934">
        <ele>313.3</ele>
        <time>2020-06-28T08:11:46Z</time>
      </trkpt>
      <trkpt lat="48.83826" lon="7.35943">
        <ele>318.2</ele>
        <time>2020-06-28T08:11:49Z</time>
      </trkpt>
      <trkpt lat="48.83826" lon="7.35951">
        <ele>319.7</ele>
        <time>2020-06-28T08:11:52Z</time>
      </trkpt>
      <trkpt lat="48.83822" lon="7.35956">
        <ele>320.6</ele>
        <time>2020-06-28T08:11:56Z</time>
      </trkpt>
      <trkpt lat="48.83818" lon="7.35959">
        <ele>321.2</ele>
        <time>2020-06-28T08:11:59Z</time>
      </trkpt>
      <trkpt lat="48.83813" lon="7.35964">
        <ele>321.4</ele>
        <time>2020-06-28T08:12:02Z</time>
      </trkpt>
      <trkpt lat="48.83806" lon="7.35967">
        <ele>322.3</ele>
        <time>2020-06-28T08:12:05Z</time>
      </trkpt>
      <trkpt lat="48.83801" lon="7.35969">
        <ele>323.5</ele>
        <time>2020-06-28T08:12:07Z</time>
      </trkpt>
      <trkpt lat="48.83798" lon="7.35973">
        <ele>324.1</ele>
        <time>2020-06-28T08:12:10Z</time>
      </trkpt>
      <trkpt lat="48.83793" lon="7.35977">
        <ele>324.2</ele>
        <time>2020-06-28T08:12:14Z</time>
      </trkpt>
      <trkpt lat="48.83788" lon="7.35979">
        <ele>325.9</ele>
        <time>2020-06-28T08:12:17Z</time>
      </trkpt>
      <trkpt lat="48.83786" lon="7.35986">
        <ele>324.2</ele>
        <time>2020-06-28T08:12:20Z</time>
      </trkpt>
      <trkpt lat="48.8378" lon="7.35987">
        <ele>323.3</ele>
        <time>2020-06-28T08:12:22Z</time>
      </trkpt>
      <trkpt lat="48.83773" lon="7.35987">
        <ele>321.9</ele>
        <time>2020-06-28T08:12:24Z</time>
      </trkpt>
      <trkpt lat="48.83764" lon="7.35987">
        <ele>319.4</ele>
        <time>2020-06-28T08:12:27Z</time>
      </trkpt>
      <trkpt lat="48.83757" lon="7.35987">
        <ele>318.9</ele>
        <time>2020-06-28T08:12:30Z</time>
      </trkpt>
      <trkpt lat="48.83748" lon="7.35987">
        <ele>318.9</ele>
        <time>2020-06-28T08:12:33Z</time>
      </trkpt>
      <trkpt lat="48.83743" lon="7.3599">
        <ele>317.8</ele>
        <time>2020-06-28T08:12:36Z</time>
      </trkpt>
      <trkpt lat="48.83738" lon="7.3599">
        <ele>316.4</ele>
        <time>2020-06-28T08:12:40Z</time>
      </trkpt>
      <trkpt lat="48.83734" lon="7.35986">
        <ele>317.5</ele>
        <time>2020-06-28T08:12:43Z</time>
      </trkpt>
      <trkpt lat="48.83729" lon="7.35982">
        <ele>318.4</ele>
        <time>2020-06-28T08:12:47Z</time>
      </trkpt>
      <trkpt lat="48.83725" lon="7.35978">
        <ele>318.4</ele>
        <time>2020-06-28T08:12:53Z</time>
      </trkpt>
      <trkpt lat="48.8372" lon="7.35974">
        <ele>318.3</ele>
        <time>2020-06-28T08:12:56Z</time>
      </trkpt>
      <trkpt lat="48.83716" lon="7.3597">
        <ele>318.2</ele>
        <time>2020-06-28T08:12:58Z</time>
      </trkpt>
      <trkpt lat="48.8371" lon="7.35966">
        <ele>316.9</ele>
        <time>2020-06-28T08:13:02Z</time>
      </trkpt>
      <trkpt lat="48.83706" lon="7.35964">
        <ele>316.5</ele>
        <time>2020-06-28T08:13:04Z</time>
      </trkpt>
      <trkpt lat="48.83701" lon="7.35961">
        <ele>316.4</ele>
        <time>2020-06-28T08:13:06Z</time>
      </trkpt>
      <trkpt lat="48.83695" lon="7.35958">
        <ele>318.4</ele>
        <time>2020-06-28T08:13:09Z</time>
      </trkpt>
      <trkpt lat="48.8369" lon="7.35955">
        <ele>319.1</ele>
        <time>2020-06-28T08:13:11Z</time>
      </trkpt>
      <trkpt lat="48.83685" lon="7.35953">
        <ele>318.3</ele>
        <time>2020-06-28T08:13:13Z</time>
      </trkpt>
      <trkpt lat="48.83676" lon="7.35951">
        <ele>317.3</ele>
        <time>2020-06-28T08:13:16Z</time>
      </trkpt>
      <trkpt lat="48.83671" lon="7.35947">
        <ele>316.1</ele>
        <time>2020-06-28T08:13:19Z</time>
      </trkpt>
      <trkpt lat="48.83666" lon="7.35942">
        <ele>315.6</ele>
        <time>2020-06-28T08:13:22Z</time>
      </trkpt>
      <trkpt lat="48.83663" lon="7.35937">
        <ele>314.8</ele>
        <time>2020-06-28T08:13:25Z</time>
      </trkpt>
      <trkpt lat="48.83661" lon="7.35929">
        <ele>315.9</ele>
        <time>2020-06-28T08:13:29Z</time>
      </trkpt>
      <trkpt lat="48.83657" lon="7.35923">
        <ele>318.3</ele>
        <time>2020-06-28T08:13:33Z</time>
      </trkpt>
      <trkpt lat="48.83652" lon="7.3592">
        <ele>318.6</ele>
        <time>2020-06-28T08:13:36Z</time>
      </trkpt>
      <trkpt lat="48.83648" lon="7.35917">
        <ele>319.3</ele>
        <time>2020-06-28T08:13:38Z</time>
      </trkpt>
      <trkpt lat="48.83643" lon="7.35914">
        <ele>320</ele>
        <time>2020-06-28T08:13:41Z</time>
      </trkpt>
      <trkpt lat="48.83638" lon="7.3591">
        <ele>321.1</ele>
        <time>2020-06-28T08:13:44Z</time>
      </trkpt>
      <trkpt lat="48.83634" lon="7.35906">
        <ele>322</ele>
        <time>2020-06-28T08:13:47Z</time>
      </trkpt>
      <trkpt lat="48.83631" lon="7.359">
        <ele>322.4</ele>
        <time>2020-06-28T08:13:51Z</time>
      </trkpt>
      <trkpt lat="48.83626" lon="7.35895">
        <ele>322.9</ele>
        <time>2020-06-28T08:13:55Z</time>
      </trkpt>
      <trkpt lat="48.8362" lon="7.35892">
        <ele>322.5</ele>
        <time>2020-06-28T08:13:59Z</time>
      </trkpt>
      <trkpt lat="48.83613" lon="7.35888">
        <ele>321.6</ele>
        <time>2020-06-28T08:14:02Z</time>
      </trkpt>
      <trkpt lat="48.83606" lon="7.35886">
        <ele>321.1</ele>
        <time>2020-06-28T08:14:04Z</time>
      </trkpt>
      <trkpt lat="48.83599" lon="7.35884">
        <ele>321.3</ele>
        <time>2020-06-28T08:14:06Z</time>
      </trkpt>
      <trkpt lat="48.83595" lon="7.35881">
        <ele>321.8</ele>
        <time>2020-06-28T08:14:08Z</time>
      </trkpt>
      <trkpt lat="48.8359" lon="7.35878">
        <ele>321.7</ele>
        <time>2020-06-28T08:14:10Z</time>
      </trkpt>
      <trkpt lat="48.83586" lon="7.35877">
        <ele>321.4</ele>
        <time>2020-06-28T08:14:12Z</time>
      </trkpt>
      <trkpt lat="48.8358" lon="7.35876">
        <ele>321.6</ele>
        <time>2020-06-28T08:14:15Z</time>
      </trkpt>
      <trkpt lat="48.83575" lon="7.35874">
        <ele>321</ele>
        <time>2020-06-28T08:14:18Z</time>
      </trkpt>
      <trkpt lat="48.8357" lon="7.35871">
        <ele>321.2</ele>
        <time>2020-06-28T08:14:21Z</time>
      </trkpt>
      <trkpt lat="48.83565" lon="7.3587">
        <ele>322</ele>
        <time>2020-06-28T08:14:25Z</time>
      </trkpt>
      <trkpt lat="48.8356" lon="7.35867">
        <ele>322.6</ele>
        <time>2020-06-28T08:14:28Z</time>
      </trkpt>
      <trkpt lat="48.83556" lon="7.35865">
        <ele>323.1</ele>
        <time>2020-06-28T08:14:31Z</time>
      </trkpt>
      <trkpt lat="48.83551" lon="7.35864">
        <ele>323.7</ele>
        <time>2020-06-28T08:14:34Z</time>
      </trkpt>
      <trkpt lat="48.83546" lon="7.35863">
        <ele>325</ele>
        <time>2020-06-28T08:14:37Z</time>
      </trkpt>
      <trkpt lat="48.83541" lon="7.3586">
        <ele>325.8</ele>
        <time>2020-06-28T08:14:41Z</time>
      </trkpt>
      <trkpt lat="48.83537" lon="7.35856">
        <ele>326.7</ele>
        <time>2020-06-28T08:14:44Z</time>
      </trkpt>
      <trkpt lat="48.83533" lon="7.35852">
        <ele>327.4</ele>
        <time>2020-06-28T08:14:46Z</time>
      </trkpt>
      <trkpt lat="48.83527" lon="7.35849">
        <ele>328.9</ele>
        <time>2020-06-28T08:14:49Z</time>
      </trkpt>
      <trkpt lat="48.83521" lon="7.35847">
        <ele>330.6</ele>
        <time>2020-06-28T08:14:52Z</time>
      </trkpt>
      <trkpt lat="48.83515" lon="7.35844">
        <ele>331.4</ele>
        <time>2020-06-28T08:14:56Z</time>
      </trkpt>
      <trkpt lat="48.83509" lon="7.35842">
        <ele>333.1</ele>
        <time>2020-06-28T08:15:00Z</time>
      </trkpt>
      <trkpt lat="48.83504" lon="7.3584">
        <ele>334.1</ele>
        <time>2020-06-28T08:15:03Z</time>
      </trkpt>
      <trkpt lat="48.83499" lon="7.3584">
        <ele>335.2</ele>
        <time>2020-06-28T08:15:06Z</time>
      </trkpt>
      <trkpt lat="48.83494" lon="7.35843">
        <ele>336.5</ele>
        <time>2020-06-28T08:15:10Z</time>
      </trkpt>
      <trkpt lat="48.8349" lon="7.35848">
        <ele>337.1</ele>
        <time>2020-06-28T08:15:13Z</time>
      </trkpt>
      <trkpt lat="48.83488" lon="7.35854">
        <ele>337.4</ele>
        <time>2020-06-28T08:15:16Z</time>
      </trkpt>
      <trkpt lat="48.83487" lon="7.35862">
        <ele>338.4</ele>
        <time>2020-06-28T08:15:22Z</time>
      </trkpt>
      <trkpt lat="48.83491" lon="7.35865">
        <ele>337.3</ele>
        <time>2020-06-28T08:15:32Z</time>
      </trkpt>
      <trkpt lat="48.83494" lon="7.35871">
        <ele>336.5</ele>
        <time>2020-06-28T08:16:11Z</time>
      </trkpt>
      <trkpt lat="48.83499" lon="7.35874">
        <ele>336.8</ele>
        <time>2020-06-28T08:16:17Z</time>
      </trkpt>
      <trkpt lat="48.83501" lon="7.3588">
        <ele>335.9</ele>
        <time>2020-06-28T08:16:23Z</time>
      </trkpt>
      <trkpt lat="48.83498" lon="7.35886">
        <ele>335.3</ele>
        <time>2020-06-28T08:16:29Z</time>
      </trkpt>
      <trkpt lat="48.83496" lon="7.35893">
        <ele>336.3</ele>
        <time>2020-06-28T08:16:35Z</time>
      </trkpt>
      <trkpt lat="48.83493" lon="7.35898">
        <ele>338.6</ele>
        <time>2020-06-28T08:16:44Z</time>
      </trkpt>
      <trkpt lat="48.83488" lon="7.35902">
        <ele>340.1</ele>
        <time>2020-06-28T08:16:48Z</time>
      </trkpt>
      <trkpt lat="48.83484" lon="7.35906">
        <ele>341.3</ele>
        <time>2020-06-28T08:16:51Z</time>
      </trkpt>
      <trkpt lat="48.83478" lon="7.3591">
        <ele>341.9</ele>
        <time>2020-06-28T08:16:54Z</time>
      </trkpt>
      <trkpt lat="48.83473" lon="7.35914">
        <ele>340.4</ele>
        <time>2020-06-28T08:16:57Z</time>
      </trkpt>
      <trkpt lat="48.83469" lon="7.35921">
        <ele>340.2</ele>
        <time>2020-06-28T08:17:01Z</time>
      </trkpt>
      <trkpt lat="48.83465" lon="7.35925">
        <ele>339.6</ele>
        <time>2020-06-28T08:17:05Z</time>
      </trkpt>
      <trkpt lat="48.83461" lon="7.35928">
        <ele>339.8</ele>
        <time>2020-06-28T08:17:13Z</time>
      </trkpt>
      <trkpt lat="48.83456" lon="7.3593">
        <ele>338.8</ele>
        <time>2020-06-28T08:17:30Z</time>
      </trkpt>
      <trkpt lat="48.83453" lon="7.35934">
        <ele>338.2</ele>
        <time>2020-06-28T08:17:43Z</time>
      </trkpt>
      <trkpt lat="48.8345" lon="7.3594">
        <ele>338</ele>
        <time>2020-06-28T08:17:47Z</time>
      </trkpt>
      <trkpt lat="48.83447" lon="7.35946">
        <ele>339.2</ele>
        <time>2020-06-28T08:17:50Z</time>
      </trkpt>
      <trkpt lat="48.83443" lon="7.35953">
        <ele>339.6</ele>
        <time>2020-06-28T08:17:53Z</time>
      </trkpt>
      <trkpt lat="48.83441" lon="7.3596">
        <ele>339.5</ele>
        <time>2020-06-28T08:17:55Z</time>
      </trkpt>
      <trkpt lat="48.8344" lon="7.35967">
        <ele>339.7</ele>
        <time>2020-06-28T08:17:57Z</time>
      </trkpt>
      <trkpt lat="48.83439" lon="7.35976">
        <ele>339.2</ele>
        <time>2020-06-28T08:18:00Z</time>
      </trkpt>
      <trkpt lat="48.83437" lon="7.35985">
        <ele>338.3</ele>
        <time>2020-06-28T08:18:03Z</time>
      </trkpt>
      <trkpt lat="48.83435" lon="7.35992">
        <ele>337.5</ele>
        <time>2020-06-28T08:18:07Z</time>
      </trkpt>
      <trkpt lat="48.83434" lon="7.35999">
        <ele>336.9</ele>
        <time>2020-06-28T08:18:17Z</time>
      </trkpt>
      <trkpt lat="48.83433" lon="7.36006">
        <ele>338.8</ele>
        <time>2020-06-28T08:18:22Z</time>
      </trkpt>
      <trkpt lat="48.83435" lon="7.36013">
        <ele>340.8</ele>
        <time>2020-06-28T08:18:25Z</time>
      </trkpt>
      <trkpt lat="48.83432" lon="7.3602">
        <ele>342.2</ele>
        <time>2020-06-28T08:18:29Z</time>
      </trkpt>
      <trkpt lat="48.8343" lon="7.36027">
        <ele>343.2</ele>
        <time>2020-06-28T08:18:32Z</time>
      </trkpt>
      <trkpt lat="48.83429" lon="7.36035">
        <ele>345.8</ele>
        <time>2020-06-28T08:18:35Z</time>
      </trkpt>
      <trkpt lat="48.83427" lon="7.36043">
        <ele>348.1</ele>
        <time>2020-06-28T08:18:38Z</time>
      </trkpt>
      <trkpt lat="48.83425" lon="7.36052">
        <ele>350.3</ele>
        <time>2020-06-28T08:18:41Z</time>
      </trkpt>
      <trkpt lat="48.83424" lon="7.36059">
        <ele>352.2</ele>
        <time>2020-06-28T08:18:44Z</time>
      </trkpt>
      <trkpt lat="48.83421" lon="7.36066">
        <ele>354.1</ele>
        <time>2020-06-28T08:18:47Z</time>
      </trkpt>
      <trkpt lat="48.83421" lon="7.36075">
        <ele>355.6</ele>
        <time>2020-06-28T08:18:50Z</time>
      </trkpt>
      <trkpt lat="48.83422" lon="7.36083">
        <ele>356.6</ele>
        <time>2020-06-28T08:18:53Z</time>
      </trkpt>
      <trkpt lat="48.83423" lon="7.36092">
        <ele>356.6</ele>
        <time>2020-06-28T08:18:57Z</time>
      </trkpt>
      <trkpt lat="48.8342" lon="7.36097">
        <ele>356.2</ele>
        <time>2020-06-28T08:19:02Z</time>
      </trkpt>
      <trkpt lat="48.83419" lon="7.36104">
        <ele>351.3</ele>
        <time>2020-06-28T08:19:10Z</time>
      </trkpt>
      <trkpt lat="48.83418" lon="7.36111">
        <ele>353</ele>
        <time>2020-06-28T08:19:15Z</time>
      </trkpt>
      <trkpt lat="48.83416" lon="7.36119">
        <ele>351.6</ele>
        <time>2020-06-28T08:19:19Z</time>
      </trkpt>
      <trkpt lat="48.83414" lon="7.36125">
        <ele>355.6</ele>
        <time>2020-06-28T08:19:27Z</time>
      </trkpt>
      <trkpt lat="48.83412" lon="7.36132">
        <ele>359</ele>
        <time>2020-06-28T08:19:32Z</time>
      </trkpt>
      <trkpt lat="48.83409" lon="7.36139">
        <ele>355.2</ele>
        <time>2020-06-28T08:19:36Z</time>
      </trkpt>
      <trkpt lat="48.83407" lon="7.36145">
        <ele>345.4</ele>
        <time>2020-06-28T08:19:39Z</time>
      </trkpt>
      <trkpt lat="48.83407" lon="7.36155">
        <ele>346</ele>
        <time>2020-06-28T08:19:42Z</time>
      </trkpt>
      <trkpt lat="48.83409" lon="7.36163">
        <ele>349</ele>
        <time>2020-06-28T08:19:45Z</time>
      </trkpt>
      <trkpt lat="48.83408" lon="7.36172">
        <ele>352.4</ele>
        <time>2020-06-28T08:19:48Z</time>
      </trkpt>
      <trkpt lat="48.83407" lon="7.36179">
        <ele>354.9</ele>
        <time>2020-06-28T08:19:51Z</time>
      </trkpt>
      <trkpt lat="48.83405" lon="7.36187">
        <ele>345.5</ele>
        <time>2020-06-28T08:19:55Z</time>
      </trkpt>
      <trkpt lat="48.83404" lon="7.36194">
        <ele>347.1</ele>
        <time>2020-06-28T08:19:58Z</time>
      </trkpt>
      <trkpt lat="48.83401" lon="7.362">
        <ele>352.5</ele>
        <time>2020-06-28T08:20:01Z</time>
      </trkpt>
      <trkpt lat="48.834" lon="7.36207">
        <ele>359</ele>
        <time>2020-06-28T08:20:05Z</time>
      </trkpt>
      <trkpt lat="48.83399" lon="7.36214">
        <ele>349.8</ele>
        <time>2020-06-28T08:20:11Z</time>
      </trkpt>
      <trkpt lat="48.83401" lon="7.36223">
        <ele>351.8</ele>
        <time>2020-06-28T08:20:15Z</time>
      </trkpt>
      <trkpt lat="48.83403" lon="7.36231">
        <ele>354.4</ele>
        <time>2020-06-28T08:20:19Z</time>
      </trkpt>
      <trkpt lat="48.83401" lon="7.36239">
        <ele>357.7</ele>
        <time>2020-06-28T08:20:26Z</time>
      </trkpt>
      <trkpt lat="48.83398" lon="7.36244">
        <ele>358.6</ele>
        <time>2020-06-28T08:20:29Z</time>
      </trkpt>
      <trkpt lat="48.83396" lon="7.3625">
        <ele>359.6</ele>
        <time>2020-06-28T08:20:33Z</time>
      </trkpt>
      <trkpt lat="48.83396" lon="7.36257">
        <ele>360.4</ele>
        <time>2020-06-28T08:20:37Z</time>
      </trkpt>
      <trkpt lat="48.83392" lon="7.36264">
        <ele>361.6</ele>
        <time>2020-06-28T08:20:41Z</time>
      </trkpt>
      <trkpt lat="48.83388" lon="7.36269">
        <ele>343.8</ele>
        <time>2020-06-28T08:20:44Z</time>
      </trkpt>
      <trkpt lat="48.83385" lon="7.36275">
        <ele>338.9</ele>
        <time>2020-06-28T08:20:48Z</time>
      </trkpt>
      <trkpt lat="48.83382" lon="7.36282">
        <ele>346.9</ele>
        <time>2020-06-28T08:20:54Z</time>
      </trkpt>
      <trkpt lat="48.83377" lon="7.36284">
        <ele>356.2</ele>
        <time>2020-06-28T08:20:58Z</time>
      </trkpt>
      <trkpt lat="48.83371" lon="7.36283">
        <ele>363.2</ele>
        <time>2020-06-28T08:21:01Z</time>
      </trkpt>
      <trkpt lat="48.83366" lon="7.36283">
        <ele>368.1</ele>
        <time>2020-06-28T08:21:04Z</time>
      </trkpt>
      <trkpt lat="48.8336" lon="7.36283">
        <ele>351.3</ele>
        <time>2020-06-28T08:21:07Z</time>
      </trkpt>
      <trkpt lat="48.83353" lon="7.36283">
        <ele>352.5</ele>
        <time>2020-06-28T08:21:10Z</time>
      </trkpt>
      <trkpt lat="48.83348" lon="7.36283">
        <ele>340.9</ele>
        <time>2020-06-28T08:21:12Z</time>
      </trkpt>
      <trkpt lat="48.83343" lon="7.36282">
        <ele>343.9</ele>
        <time>2020-06-28T08:21:15Z</time>
      </trkpt>
      <trkpt lat="48.83336" lon="7.36282">
        <ele>352</ele>
        <time>2020-06-28T08:21:18Z</time>
      </trkpt>
      <trkpt lat="48.8333" lon="7.36282">
        <ele>359.5</ele>
        <time>2020-06-28T08:21:21Z</time>
      </trkpt>
      <trkpt lat="48.83324" lon="7.36281">
        <ele>366.5</ele>
        <time>2020-06-28T08:21:24Z</time>
      </trkpt>
      <trkpt lat="48.83317" lon="7.36278">
        <ele>372</ele>
        <time>2020-06-28T08:21:27Z</time>
      </trkpt>
      <trkpt lat="48.83311" lon="7.36275">
        <ele>373.7</ele>
        <time>2020-06-28T08:21:29Z</time>
      </trkpt>
      <trkpt lat="48.83306" lon="7.36272">
        <ele>375.6</ele>
        <time>2020-06-28T08:21:31Z</time>
      </trkpt>
      <trkpt lat="48.83301" lon="7.36269">
        <ele>377.1</ele>
        <time>2020-06-28T08:21:33Z</time>
      </trkpt>
      <trkpt lat="48.83296" lon="7.36268">
        <ele>378.2</ele>
        <time>2020-06-28T08:21:36Z</time>
      </trkpt>
      <trkpt lat="48.83291" lon="7.36269">
        <ele>381.7</ele>
        <time>2020-06-28T08:21:44Z</time>
      </trkpt>
      <trkpt lat="48.83286" lon="7.36267">
        <ele>368.3</ele>
        <time>2020-06-28T08:21:48Z</time>
      </trkpt>
      <trkpt lat="48.83281" lon="7.36263">
        <ele>373.3</ele>
        <time>2020-06-28T08:21:54Z</time>
      </trkpt>
      <trkpt lat="48.83276" lon="7.36259">
        <ele>376.4</ele>
        <time>2020-06-28T08:21:57Z</time>
      </trkpt>
      <trkpt lat="48.83271" lon="7.36258">
        <ele>369</ele>
        <time>2020-06-28T08:21:59Z</time>
      </trkpt>
      <trkpt lat="48.83265" lon="7.36257">
        <ele>370.3</ele>
        <time>2020-06-28T08:22:02Z</time>
      </trkpt>
      <trkpt lat="48.83259" lon="7.36257">
        <ele>372.8</ele>
        <time>2020-06-28T08:22:05Z</time>
      </trkpt>
      <trkpt lat="48.83254" lon="7.36255">
        <ele>375.6</ele>
        <time>2020-06-28T08:22:08Z</time>
      </trkpt>
      <trkpt lat="48.83249" lon="7.36255">
        <ele>379</ele>
        <time>2020-06-28T08:22:11Z</time>
      </trkpt>
      <trkpt lat="48.83245" lon="7.36254">
        <ele>381.1</ele>
        <time>2020-06-28T08:22:14Z</time>
      </trkpt>
      <trkpt lat="48.83238" lon="7.3625">
        <ele>382.6</ele>
        <time>2020-06-28T08:22:17Z</time>
      </trkpt>
      <trkpt lat="48.83233" lon="7.36246">
        <ele>384</ele>
        <time>2020-06-28T08:22:20Z</time>
      </trkpt>
      <trkpt lat="48.83229" lon="7.36242">
        <ele>385.2</ele>
        <time>2020-06-28T08:22:24Z</time>
      </trkpt>
      <trkpt lat="48.83225" lon="7.36239">
        <ele>385.1</ele>
        <time>2020-06-28T08:22:27Z</time>
      </trkpt>
      <trkpt lat="48.83219" lon="7.36239">
        <ele>384.7</ele>
        <time>2020-06-28T08:22:31Z</time>
      </trkpt>
      <trkpt lat="48.83214" lon="7.3624">
        <ele>384.3</ele>
        <time>2020-06-28T08:22:34Z</time>
      </trkpt>
      <trkpt lat="48.83208" lon="7.36241">
        <ele>383.7</ele>
        <time>2020-06-28T08:22:38Z</time>
      </trkpt>
      <trkpt lat="48.83203" lon="7.36241">
        <ele>382.6</ele>
        <time>2020-06-28T08:22:42Z</time>
      </trkpt>
      <trkpt lat="48.83197" lon="7.36241">
        <ele>382.3</ele>
        <time>2020-06-28T08:22:46Z</time>
      </trkpt>
      <trkpt lat="48.83192" lon="7.3624">
        <ele>382.9</ele>
        <time>2020-06-28T08:22:48Z</time>
      </trkpt>
      <trkpt lat="48.83187" lon="7.36238">
        <ele>383.3</ele>
        <time>2020-06-28T08:22:50Z</time>
      </trkpt>
      <trkpt lat="48.83181" lon="7.36238">
        <ele>383.6</ele>
        <time>2020-06-28T08:22:53Z</time>
      </trkpt>
      <trkpt lat="48.83177" lon="7.36237">
        <ele>383.6</ele>
        <time>2020-06-28T08:22:55Z</time>
      </trkpt>
      <trkpt lat="48.83166" lon="7.36231">
        <ele>383.5</ele>
        <time>2020-06-28T08:22:58Z</time>
      </trkpt>
      <trkpt lat="48.83158" lon="7.36226">
        <ele>383.2</ele>
        <time>2020-06-28T08:22:59Z</time>
      </trkpt>
      <trkpt lat="48.83147" lon="7.36217">
        <ele>382.9</ele>
        <time>2020-06-28T08:23:01Z</time>
      </trkpt>
      <trkpt lat="48.83137" lon="7.36206">
        <ele>382.2</ele>
        <time>2020-06-28T08:23:03Z</time>
      </trkpt>
      <trkpt lat="48.83127" lon="7.36194">
        <ele>381.6</ele>
        <time>2020-06-28T08:23:05Z</time>
      </trkpt>
      <trkpt lat="48.83116" lon="7.36184">
        <ele>380.7</ele>
        <time>2020-06-28T08:23:07Z</time>
      </trkpt>
      <trkpt lat="48.83104" lon="7.36176">
        <ele>380.2</ele>
        <time>2020-06-28T08:23:09Z</time>
      </trkpt>
      <trkpt lat="48.83094" lon="7.36172">
        <ele>380.2</ele>
        <time>2020-06-28T08:23:12Z</time>
      </trkpt>
      <trkpt lat="48.83086" lon="7.36168">
        <ele>379.9</ele>
        <time>2020-06-28T08:23:14Z</time>
      </trkpt>
      <trkpt lat="48.8308" lon="7.36164">
        <ele>379.6</ele>
        <time>2020-06-28T08:23:15Z</time>
      </trkpt>
      <trkpt lat="48.83074" lon="7.36162">
        <ele>379.2</ele>
        <time>2020-06-28T08:23:17Z</time>
      </trkpt>
      <trkpt lat="48.8307" lon="7.36158">
        <ele>378.7</ele>
        <time>2020-06-28T08:23:27Z</time>
      </trkpt>
      <trkpt lat="48.83066" lon="7.36156">
        <ele>381.5</ele>
        <time>2020-06-28T08:24:22Z</time>
      </trkpt>
      <trkpt lat="48.83063" lon="7.36151">
        <ele>383.5</ele>
        <time>2020-06-28T08:24:49Z</time>
      </trkpt>
      <trkpt lat="48.83063" lon="7.36158">
        <ele>385.1</ele>
        <time>2020-06-28T08:27:33Z</time>
      </trkpt>
      <trkpt lat="48.83057" lon="7.36157">
        <ele>384.8</ele>
        <time>2020-06-28T08:27:45Z</time>
      </trkpt>
      <trkpt lat="48.83052" lon="7.36153">
        <ele>382.7</ele>
        <time>2020-06-28T08:27:51Z</time>
      </trkpt>
      <trkpt lat="48.83047" lon="7.36153">
        <ele>380.2</ele>
        <time>2020-06-28T08:27:56Z</time>
      </trkpt>
      <trkpt lat="48.83042" lon="7.36151">
        <ele>378.5</ele>
        <time>2020-06-28T08:28:00Z</time>
      </trkpt>
      <trkpt lat="48.83036" lon="7.3615">
        <ele>376.3</ele>
        <time>2020-06-28T08:28:03Z</time>
      </trkpt>
      <trkpt lat="48.8303" lon="7.36149">
        <ele>374.7</ele>
        <time>2020-06-28T08:28:06Z</time>
      </trkpt>
      <trkpt lat="48.83026" lon="7.36149">
        <ele>373.5</ele>
        <time>2020-06-28T08:28:07Z</time>
      </trkpt>
      <trkpt lat="48.83018" lon="7.36153">
        <ele>373.4</ele>
        <time>2020-06-28T08:28:09Z</time>
      </trkpt>
      <trkpt lat="48.8301" lon="7.36159">
        <ele>373.3</ele>
        <time>2020-06-28T08:28:11Z</time>
      </trkpt>
      <trkpt lat="48.83002" lon="7.36167">
        <ele>373.6</ele>
        <time>2020-06-28T08:28:13Z</time>
      </trkpt>
      <trkpt lat="48.82993" lon="7.36175">
        <ele>374.1</ele>
        <time>2020-06-28T08:28:15Z</time>
      </trkpt>
      <trkpt lat="48.82976" lon="7.36182">
        <ele>374.1</ele>
        <time>2020-06-28T08:28:17Z</time>
      </trkpt>
      <trkpt lat="48.8296" lon="7.36189">
        <ele>374</ele>
        <time>2020-06-28T08:28:19Z</time>
      </trkpt>
      <trkpt lat="48.82943" lon="7.36196">
        <ele>373.5</ele>
        <time>2020-06-28T08:28:22Z</time>
      </trkpt>
      <trkpt lat="48.82928" lon="7.36196">
        <ele>372.3</ele>
        <time>2020-06-28T08:28:23Z</time>
      </trkpt>
      <trkpt lat="48.82917" lon="7.36193">
        <ele>370.7</ele>
        <time>2020-06-28T08:28:25Z</time>
      </trkpt>
      <trkpt lat="48.82909" lon="7.36187">
        <ele>369.4</ele>
        <time>2020-06-28T08:28:27Z</time>
      </trkpt>
      <trkpt lat="48.829" lon="7.3618">
        <ele>368.4</ele>
        <time>2020-06-28T08:28:29Z</time>
      </trkpt>
      <trkpt lat="48.82892" lon="7.36181">
        <ele>367.6</ele>
        <time>2020-06-28T08:28:31Z</time>
      </trkpt>
      <trkpt lat="48.8289" lon="7.36189">
        <ele>365.6</ele>
        <time>2020-06-28T08:28:34Z</time>
      </trkpt>
      <trkpt lat="48.82893" lon="7.36197">
        <ele>364.9</ele>
        <time>2020-06-28T08:28:36Z</time>
      </trkpt>
      <trkpt lat="48.82898" lon="7.36207">
        <ele>364.6</ele>
        <time>2020-06-28T08:28:39Z</time>
      </trkpt>
      <trkpt lat="48.82903" lon="7.36216">
        <ele>364.2</ele>
        <time>2020-06-28T08:28:41Z</time>
      </trkpt>
      <trkpt lat="48.82905" lon="7.36225">
        <ele>364.1</ele>
        <time>2020-06-28T08:28:42Z</time>
      </trkpt>
      <trkpt lat="48.82903" lon="7.36231">
        <ele>363.7</ele>
        <time>2020-06-28T08:28:44Z</time>
      </trkpt>
      <trkpt lat="48.82895" lon="7.36232">
        <ele>363.1</ele>
        <time>2020-06-28T08:28:46Z</time>
      </trkpt>
      <trkpt lat="48.82885" lon="7.36231">
        <ele>362</ele>
        <time>2020-06-28T08:28:48Z</time>
      </trkpt>
      <trkpt lat="48.82874" lon="7.3623">
        <ele>360.6</ele>
        <time>2020-06-28T08:28:50Z</time>
      </trkpt>
      <trkpt lat="48.82862" lon="7.36231">
        <ele>359.8</ele>
        <time>2020-06-28T08:28:52Z</time>
      </trkpt>
      <trkpt lat="48.82852" lon="7.36232">
        <ele>358.7</ele>
        <time>2020-06-28T08:28:54Z</time>
      </trkpt>
      <trkpt lat="48.82842" lon="7.36233">
        <ele>357.8</ele>
        <time>2020-06-28T08:28:56Z</time>
      </trkpt>
      <trkpt lat="48.82835" lon="7.36233">
        <ele>356.9</ele>
        <time>2020-06-28T08:28:59Z</time>
      </trkpt>
      <trkpt lat="48.82829" lon="7.36231">
        <ele>356.3</ele>
        <time>2020-06-28T08:29:00Z</time>
      </trkpt>
      <trkpt lat="48.82821" lon="7.36231">
        <ele>355.6</ele>
        <time>2020-06-28T08:29:02Z</time>
      </trkpt>
      <trkpt lat="48.82812" lon="7.36232">
        <ele>355.1</ele>
        <time>2020-06-28T08:29:04Z</time>
      </trkpt>
      <trkpt lat="48.82806" lon="7.36233">
        <ele>354.6</ele>
        <time>2020-06-28T08:29:06Z</time>
      </trkpt>
      <trkpt lat="48.82801" lon="7.36235">
        <ele>354.1</ele>
        <time>2020-06-28T08:29:08Z</time>
      </trkpt>
      <trkpt lat="48.82795" lon="7.36237">
        <ele>353.8</ele>
        <time>2020-06-28T08:29:11Z</time>
      </trkpt>
      <trkpt lat="48.82787" lon="7.3624">
        <ele>353.4</ele>
        <time>2020-06-28T08:29:12Z</time>
      </trkpt>
      <trkpt lat="48.8278" lon="7.36245">
        <ele>353.1</ele>
        <time>2020-06-28T08:29:14Z</time>
      </trkpt>
      <trkpt lat="48.82768" lon="7.3625">
        <ele>352.6</ele>
        <time>2020-06-28T08:29:16Z</time>
      </trkpt>
      <trkpt lat="48.82756" lon="7.36254">
        <ele>352.2</ele>
        <time>2020-06-28T08:29:18Z</time>
      </trkpt>
      <trkpt lat="48.8274" lon="7.36257">
        <ele>351.5</ele>
        <time>2020-06-28T08:29:21Z</time>
      </trkpt>
      <trkpt lat="48.82724" lon="7.36259">
        <ele>351</ele>
        <time>2020-06-28T08:29:22Z</time>
      </trkpt>
      <trkpt lat="48.82708" lon="7.36258">
        <ele>350.6</ele>
        <time>2020-06-28T08:29:24Z</time>
      </trkpt>
      <trkpt lat="48.82694" lon="7.36257">
        <ele>349.7</ele>
        <time>2020-06-28T08:29:26Z</time>
      </trkpt>
      <trkpt lat="48.82681" lon="7.36255">
        <ele>349.2</ele>
        <time>2020-06-28T08:29:28Z</time>
      </trkpt>
      <trkpt lat="48.82672" lon="7.36255">
        <ele>348.8</ele>
        <time>2020-06-28T08:29:30Z</time>
      </trkpt>
      <trkpt lat="48.82663" lon="7.36253">
        <ele>349.1</ele>
        <time>2020-06-28T08:29:33Z</time>
      </trkpt>
      <trkpt lat="48.82657" lon="7.36252">
        <ele>356.8</ele>
        <time>2020-06-28T08:29:35Z</time>
      </trkpt>
      <trkpt lat="48.82649" lon="7.36255">
        <ele>361.1</ele>
        <time>2020-06-28T08:29:36Z</time>
      </trkpt>
      <trkpt lat="48.82642" lon="7.36257">
        <ele>361.1</ele>
        <time>2020-06-28T08:29:38Z</time>
      </trkpt>
      <trkpt lat="48.82631" lon="7.36255">
        <ele>360.2</ele>
        <time>2020-06-28T08:29:40Z</time>
      </trkpt>
      <trkpt lat="48.82623" lon="7.36254">
        <ele>358.5</ele>
        <time>2020-06-28T08:29:43Z</time>
      </trkpt>
      <trkpt lat="48.82616" lon="7.36253">
        <ele>356.1</ele>
        <time>2020-06-28T08:29:44Z</time>
      </trkpt>
      <trkpt lat="48.82608" lon="7.36251">
        <ele>353.7</ele>
        <time>2020-06-28T08:29:46Z</time>
      </trkpt>
      <trkpt lat="48.82601" lon="7.36249">
        <ele>352.4</ele>
        <time>2020-06-28T08:29:49Z</time>
      </trkpt>
      <trkpt lat="48.82593" lon="7.36245">
        <ele>351.3</ele>
        <time>2020-06-28T08:29:50Z</time>
      </trkpt>
      <trkpt lat="48.82585" lon="7.36245">
        <ele>349.8</ele>
        <time>2020-06-28T08:29:52Z</time>
      </trkpt>
      <trkpt lat="48.82578" lon="7.36248">
        <ele>348.6</ele>
        <time>2020-06-28T08:29:54Z</time>
      </trkpt>
      <trkpt lat="48.82572" lon="7.36253">
        <ele>345.7</ele>
        <time>2020-06-28T08:29:56Z</time>
      </trkpt>
      <trkpt lat="48.82562" lon="7.36257">
        <ele>342.3</ele>
        <time>2020-06-28T08:29:58Z</time>
      </trkpt>
      <trkpt lat="48.8255" lon="7.36261">
        <ele>339</ele>
        <time>2020-06-28T08:30:00Z</time>
      </trkpt>
      <trkpt lat="48.82538" lon="7.36265">
        <ele>335.4</ele>
        <time>2020-06-28T08:30:02Z</time>
      </trkpt>
      <trkpt lat="48.82526" lon="7.36267">
        <ele>332.7</ele>
        <time>2020-06-28T08:30:04Z</time>
      </trkpt>
      <trkpt lat="48.82514" lon="7.36267">
        <ele>330.8</ele>
        <time>2020-06-28T08:30:06Z</time>
      </trkpt>
      <trkpt lat="48.82504" lon="7.36264">
        <ele>328.9</ele>
        <time>2020-06-28T08:30:08Z</time>
      </trkpt>
      <trkpt lat="48.82495" lon="7.36259">
        <ele>336.9</ele>
        <time>2020-06-28T08:30:10Z</time>
      </trkpt>
      <trkpt lat="48.82484" lon="7.36255">
        <ele>336.4</ele>
        <time>2020-06-28T08:30:13Z</time>
      </trkpt>
      <trkpt lat="48.82478" lon="7.36252">
        <ele>334.2</ele>
        <time>2020-06-28T08:30:14Z</time>
      </trkpt>
      <trkpt lat="48.82471" lon="7.36255">
        <ele>331.2</ele>
        <time>2020-06-28T08:30:16Z</time>
      </trkpt>
      <trkpt lat="48.82465" lon="7.36261">
        <ele>328.3</ele>
        <time>2020-06-28T08:30:18Z</time>
      </trkpt>
      <trkpt lat="48.82461" lon="7.36269">
        <ele>326</ele>
        <time>2020-06-28T08:30:21Z</time>
      </trkpt>
      <trkpt lat="48.82456" lon="7.36278">
        <ele>324.2</ele>
        <time>2020-06-28T08:30:22Z</time>
      </trkpt>
      <trkpt lat="48.82451" lon="7.36285">
        <ele>322.6</ele>
        <time>2020-06-28T08:30:24Z</time>
      </trkpt>
      <trkpt lat="48.8245" lon="7.36297">
        <ele>321.1</ele>
        <time>2020-06-28T08:30:26Z</time>
      </trkpt>
      <trkpt lat="48.82448" lon="7.36309">
        <ele>319.3</ele>
        <time>2020-06-28T08:30:28Z</time>
      </trkpt>
      <trkpt lat="48.82444" lon="7.36321">
        <ele>317.2</ele>
        <time>2020-06-28T08:30:30Z</time>
      </trkpt>
      <trkpt lat="48.82439" lon="7.36335">
        <ele>315.4</ele>
        <time>2020-06-28T08:30:32Z</time>
      </trkpt>
      <trkpt lat="48.82436" lon="7.36347">
        <ele>314</ele>
        <time>2020-06-28T08:30:35Z</time>
      </trkpt>
      <trkpt lat="48.82436" lon="7.36359">
        <ele>311.9</ele>
        <time>2020-06-28T08:30:36Z</time>
      </trkpt>
      <trkpt lat="48.82435" lon="7.36372">
        <ele>310.8</ele>
        <time>2020-06-28T08:30:38Z</time>
      </trkpt>
      <trkpt lat="48.82432" lon="7.36386">
        <ele>309.8</ele>
        <time>2020-06-28T08:30:40Z</time>
      </trkpt>
      <trkpt lat="48.82429" lon="7.364">
        <ele>308.6</ele>
        <time>2020-06-28T08:30:43Z</time>
      </trkpt>
      <trkpt lat="48.82425" lon="7.36414">
        <ele>308</ele>
        <time>2020-06-28T08:30:44Z</time>
      </trkpt>
      <trkpt lat="48.82421" lon="7.3643">
        <ele>307.4</ele>
        <time>2020-06-28T08:30:46Z</time>
      </trkpt>
      <trkpt lat="48.82419" lon="7.36447">
        <ele>307.3</ele>
        <time>2020-06-28T08:30:48Z</time>
      </trkpt>
      <trkpt lat="48.82415" lon="7.36461">
        <ele>307.3</ele>
        <time>2020-06-28T08:30:50Z</time>
      </trkpt>
      <trkpt lat="48.82412" lon="7.36474">
        <ele>305.9</ele>
        <time>2020-06-28T08:30:52Z</time>
      </trkpt>
      <trkpt lat="48.8241" lon="7.36488">
        <ele>305.2</ele>
        <time>2020-06-28T08:30:54Z</time>
      </trkpt>
      <trkpt lat="48.82409" lon="7.365">
        <ele>303.1</ele>
        <time>2020-06-28T08:30:56Z</time>
      </trkpt>
      <trkpt lat="48.82408" lon="7.36511">
        <ele>300.5</ele>
        <time>2020-06-28T08:30:58Z</time>
      </trkpt>
      <trkpt lat="48.82407" lon="7.36524">
        <ele>299</ele>
        <time>2020-06-28T08:31:00Z</time>
      </trkpt>
      <trkpt lat="48.82407" lon="7.36537">
        <ele>296.2</ele>
        <time>2020-06-28T08:31:02Z</time>
      </trkpt>
      <trkpt lat="48.82407" lon="7.36548">
        <ele>294.8</ele>
        <time>2020-06-28T08:31:04Z</time>
      </trkpt>
      <trkpt lat="48.82406" lon="7.36557">
        <ele>293.9</ele>
        <time>2020-06-28T08:31:06Z</time>
      </trkpt>
      <trkpt lat="48.82404" lon="7.36566">
        <ele>291.3</ele>
        <time>2020-06-28T08:31:08Z</time>
      </trkpt>
      <trkpt lat="48.82404" lon="7.36577">
        <ele>289.5</ele>
        <time>2020-06-28T08:31:10Z</time>
      </trkpt>
      <trkpt lat="48.82404" lon="7.36588">
        <ele>287.5</ele>
        <time>2020-06-28T08:31:13Z</time>
      </trkpt>
      <trkpt lat="48.82403" lon="7.36599">
        <ele>286.8</ele>
        <time>2020-06-28T08:31:14Z</time>
      </trkpt>
      <trkpt lat="48.82402" lon="7.36611">
        <ele>285.7</ele>
        <time>2020-06-28T08:31:17Z</time>
      </trkpt>
      <trkpt lat="48.82401" lon="7.36621">
        <ele>284.3</ele>
        <time>2020-06-28T08:31:18Z</time>
      </trkpt>
      <trkpt lat="48.824" lon="7.36632">
        <ele>283.6</ele>
        <time>2020-06-28T08:31:20Z</time>
      </trkpt>
      <trkpt lat="48.82399" lon="7.36643">
        <ele>282.8</ele>
        <time>2020-06-28T08:31:22Z</time>
      </trkpt>
      <trkpt lat="48.82397" lon="7.36652">
        <ele>282.3</ele>
        <time>2020-06-28T08:31:24Z</time>
      </trkpt>
      <trkpt lat="48.82396" lon="7.36662">
        <ele>281.9</ele>
        <time>2020-06-28T08:31:26Z</time>
      </trkpt>
      <trkpt lat="48.82396" lon="7.36671">
        <ele>281.6</ele>
        <time>2020-06-28T08:31:28Z</time>
      </trkpt>
      <trkpt lat="48.82395" lon="7.36682">
        <ele>281.6</ele>
        <time>2020-06-28T08:31:30Z</time>
      </trkpt>
      <trkpt lat="48.82393" lon="7.36692">
        <ele>282.5</ele>
        <time>2020-06-28T08:31:32Z</time>
      </trkpt>
      <trkpt lat="48.82392" lon="7.36702">
        <ele>283.5</ele>
        <time>2020-06-28T08:31:34Z</time>
      </trkpt>
      <trkpt lat="48.8239" lon="7.36709">
        <ele>284.7</ele>
        <time>2020-06-28T08:31:36Z</time>
      </trkpt>
      <trkpt lat="48.82387" lon="7.36717">
        <ele>285.5</ele>
        <time>2020-06-28T08:31:40Z</time>
      </trkpt>
      <trkpt lat="48.82386" lon="7.36724">
        <ele>286.4</ele>
        <time>2020-06-28T08:31:42Z</time>
      </trkpt>
      <trkpt lat="48.82384" lon="7.36731">
        <ele>284.9</ele>
        <time>2020-06-28T08:31:44Z</time>
      </trkpt>
      <trkpt lat="48.82385" lon="7.36741">
        <ele>283.7</ele>
        <time>2020-06-28T08:31:46Z</time>
      </trkpt>
      <trkpt lat="48.82387" lon="7.3675">
        <ele>280.8</ele>
        <time>2020-06-28T08:31:48Z</time>
      </trkpt>
      <trkpt lat="48.82388" lon="7.36759">
        <ele>279.5</ele>
        <time>2020-06-28T08:31:50Z</time>
      </trkpt>
      <trkpt lat="48.8239" lon="7.36768">
        <ele>278.6</ele>
        <time>2020-06-28T08:31:52Z</time>
      </trkpt>
      <trkpt lat="48.82391" lon="7.36775">
        <ele>276.4</ele>
        <time>2020-06-28T08:31:54Z</time>
      </trkpt>
      <trkpt lat="48.82391" lon="7.36784">
        <ele>274.9</ele>
        <time>2020-06-28T08:31:56Z</time>
      </trkpt>
      <trkpt lat="48.82391" lon="7.36793">
        <ele>273.3</ele>
        <time>2020-06-28T08:31:59Z</time>
      </trkpt>
      <trkpt lat="48.82391" lon="7.368">
        <ele>272.3</ele>
        <time>2020-06-28T08:32:01Z</time>
      </trkpt>
      <trkpt lat="48.82386" lon="7.36812">
        <ele>270.9</ele>
        <time>2020-06-28T08:32:04Z</time>
      </trkpt>
      <trkpt lat="48.82382" lon="7.36821">
        <ele>270.5</ele>
        <time>2020-06-28T08:32:05Z</time>
      </trkpt>
      <trkpt lat="48.82379" lon="7.3683">
        <ele>269.9</ele>
        <time>2020-06-28T08:32:07Z</time>
      </trkpt>
      <trkpt lat="48.82376" lon="7.36838">
        <ele>269.5</ele>
        <time>2020-06-28T08:32:10Z</time>
      </trkpt>
      <trkpt lat="48.82372" lon="7.36844">
        <ele>269.9</ele>
        <time>2020-06-28T08:32:12Z</time>
      </trkpt>
      <trkpt lat="48.82367" lon="7.36838">
        <ele>270.9</ele>
        <time>2020-06-28T08:32:16Z</time>
      </trkpt>
      <trkpt lat="48.82363" lon="7.36832">
        <ele>271</ele>
        <time>2020-06-28T08:32:19Z</time>
      </trkpt>
      <trkpt lat="48.82359" lon="7.36835">
        <ele>270.8</ele>
        <time>2020-06-28T08:32:23Z</time>
      </trkpt>
      <trkpt lat="48.82355" lon="7.36839">
        <ele>268</ele>
        <time>2020-06-28T08:32:30Z</time>
      </trkpt>
      <trkpt lat="48.8235" lon="7.36841">
        <ele>267</ele>
        <time>2020-06-28T08:32:33Z</time>
      </trkpt>
      <trkpt lat="48.82345" lon="7.36843">
        <ele>266.6</ele>
        <time>2020-06-28T08:32:35Z</time>
      </trkpt>
      <trkpt lat="48.82341" lon="7.36847">
        <ele>265.4</ele>
        <time>2020-06-28T08:32:37Z</time>
      </trkpt>
      <trkpt lat="48.82339" lon="7.36855">
        <ele>264.5</ele>
        <time>2020-06-28T08:32:40Z</time>
      </trkpt>
      <trkpt lat="48.82336" lon="7.36864">
        <ele>263.9</ele>
        <time>2020-06-28T08:32:42Z</time>
      </trkpt>
      <trkpt lat="48.82336" lon="7.36872">
        <ele>263.7</ele>
        <time>2020-06-28T08:32:47Z</time>
      </trkpt>
      <trkpt lat="48.82338" lon="7.36884">
        <ele>262.9</ele>
        <time>2020-06-28T08:32:50Z</time>
      </trkpt>
      <trkpt lat="48.8234" lon="7.36891">
        <ele>262.7</ele>
        <time>2020-06-28T08:32:52Z</time>
      </trkpt>
      <trkpt lat="48.82343" lon="7.369">
        <ele>262.8</ele>
        <time>2020-06-28T08:32:53Z</time>
      </trkpt>
      <trkpt lat="48.82345" lon="7.36906">
        <ele>262.4</ele>
        <time>2020-06-28T08:32:56Z</time>
      </trkpt>
      <trkpt lat="48.82347" lon="7.36913">
        <ele>261.5</ele>
        <time>2020-06-28T08:32:59Z</time>
      </trkpt>
      <trkpt lat="48.82348" lon="7.36923">
        <ele>261.6</ele>
        <time>2020-06-28T08:33:01Z</time>
      </trkpt>
      <trkpt lat="48.82348" lon="7.36932">
        <ele>261.1</ele>
        <time>2020-06-28T08:33:03Z</time>
      </trkpt>
      <trkpt lat="48.82345" lon="7.36942">
        <ele>261</ele>
        <time>2020-06-28T08:33:06Z</time>
      </trkpt>
      <trkpt lat="48.82343" lon="7.3695">
        <ele>260.9</ele>
        <time>2020-06-28T08:33:08Z</time>
      </trkpt>
      <trkpt lat="48.82343" lon="7.36959">
        <ele>261.4</ele>
        <time>2020-06-28T08:33:10Z</time>
      </trkpt>
      <trkpt lat="48.82344" lon="7.36968">
        <ele>261.2</ele>
        <time>2020-06-28T08:33:12Z</time>
      </trkpt>
      <trkpt lat="48.82345" lon="7.36977">
        <ele>260.8</ele>
        <time>2020-06-28T08:33:14Z</time>
      </trkpt>
      <trkpt lat="48.82345" lon="7.36986">
        <ele>259.9</ele>
        <time>2020-06-28T08:33:16Z</time>
      </trkpt>
      <trkpt lat="48.82344" lon="7.36996">
        <ele>259</ele>
        <time>2020-06-28T08:33:18Z</time>
      </trkpt>
      <trkpt lat="48.82344" lon="7.37003">
        <ele>257.9</ele>
        <time>2020-06-28T08:33:20Z</time>
      </trkpt>
      <trkpt lat="48.82345" lon="7.37012">
        <ele>255.6</ele>
        <time>2020-06-28T08:33:23Z</time>
      </trkpt>
      <trkpt lat="48.82348" lon="7.37019">
        <ele>254.9</ele>
        <time>2020-06-28T08:33:27Z</time>
      </trkpt>
      <trkpt lat="48.82349" lon="7.37028">
        <ele>255</ele>
        <time>2020-06-28T08:33:30Z</time>
      </trkpt>
      <trkpt lat="48.8235" lon="7.37037">
        <ele>254.4</ele>
        <time>2020-06-28T08:33:32Z</time>
      </trkpt>
      <trkpt lat="48.82352" lon="7.37045">
        <ele>253.2</ele>
        <time>2020-06-28T08:33:34Z</time>
      </trkpt>
      <trkpt lat="48.82356" lon="7.37053">
        <ele>252.7</ele>
        <time>2020-06-28T08:33:36Z</time>
      </trkpt>
      <trkpt lat="48.82359" lon="7.37062">
        <ele>252.2</ele>
        <time>2020-06-28T08:33:38Z</time>
      </trkpt>
      <trkpt lat="48.8236" lon="7.37069">
        <ele>251.1</ele>
        <time>2020-06-28T08:33:40Z</time>
      </trkpt>
      <trkpt lat="48.82364" lon="7.3708">
        <ele>250.6</ele>
        <time>2020-06-28T08:33:42Z</time>
      </trkpt>
      <trkpt lat="48.82367" lon="7.37091">
        <ele>249.8</ele>
        <time>2020-06-28T08:33:44Z</time>
      </trkpt>
      <trkpt lat="48.82368" lon="7.37102">
        <ele>248.8</ele>
        <time>2020-06-28T08:33:46Z</time>
      </trkpt>
      <trkpt lat="48.82368" lon="7.37114">
        <ele>248</ele>
        <time>2020-06-28T08:33:48Z</time>
      </trkpt>
      <trkpt lat="48.82368" lon="7.37125">
        <ele>247.3</ele>
        <time>2020-06-28T08:33:50Z</time>
      </trkpt>
      <trkpt lat="48.82365" lon="7.37133">
        <ele>247.2</ele>
        <time>2020-06-28T08:33:52Z</time>
      </trkpt>
      <trkpt lat="48.82361" lon="7.3714">
        <ele>247</ele>
        <time>2020-06-28T08:33:54Z</time>
      </trkpt>
      <trkpt lat="48.82357" lon="7.37146">
        <ele>247.2</ele>
        <time>2020-06-28T08:33:56Z</time>
      </trkpt>
      <trkpt lat="48.82351" lon="7.37154">
        <ele>247.2</ele>
        <time>2020-06-28T08:33:58Z</time>
      </trkpt>
      <trkpt lat="48.82345" lon="7.37161">
        <ele>246.8</ele>
        <time>2020-06-28T08:34:00Z</time>
      </trkpt>
      <trkpt lat="48.8234" lon="7.37165">
        <ele>245.6</ele>
        <time>2020-06-28T08:34:02Z</time>
      </trkpt>
      <trkpt lat="48.82335" lon="7.37169">
        <ele>245.3</ele>
        <time>2020-06-28T08:34:04Z</time>
      </trkpt>
      <trkpt lat="48.8233" lon="7.37173">
        <ele>244.9</ele>
        <time>2020-06-28T08:34:06Z</time>
      </trkpt>
      <trkpt lat="48.82325" lon="7.37176">
        <ele>244.7</ele>
        <time>2020-06-28T08:34:08Z</time>
      </trkpt>
      <trkpt lat="48.8232" lon="7.37179">
        <ele>244.8</ele>
        <time>2020-06-28T08:34:11Z</time>
      </trkpt>
      <trkpt lat="48.82316" lon="7.37182">
        <ele>245.2</ele>
        <time>2020-06-28T08:34:13Z</time>
      </trkpt>
      <trkpt lat="48.82311" lon="7.37188">
        <ele>244.6</ele>
        <time>2020-06-28T08:34:16Z</time>
      </trkpt>
      <trkpt lat="48.82308" lon="7.37196">
        <ele>243.7</ele>
        <time>2020-06-28T08:34:19Z</time>
      </trkpt>
      <trkpt lat="48.82305" lon="7.37201">
        <ele>244</ele>
        <time>2020-06-28T08:34:22Z</time>
      </trkpt>
      <trkpt lat="48.82299" lon="7.37204">
        <ele>243.3</ele>
        <time>2020-06-28T08:34:26Z</time>
      </trkpt>
      <trkpt lat="48.82294" lon="7.37208">
        <ele>242.3</ele>
        <time>2020-06-28T08:34:29Z</time>
      </trkpt>
      <trkpt lat="48.82289" lon="7.37211">
        <ele>241.5</ele>
        <time>2020-06-28T08:34:31Z</time>
      </trkpt>
      <trkpt lat="48.82284" lon="7.37215">
        <ele>241</ele>
        <time>2020-06-28T08:34:33Z</time>
      </trkpt>
      <trkpt lat="48.82278" lon="7.3722">
        <ele>240.2</ele>
        <time>2020-06-28T08:34:36Z</time>
      </trkpt>
      <trkpt lat="48.82273" lon="7.37223">
        <ele>239.7</ele>
        <time>2020-06-28T08:34:38Z</time>
      </trkpt>
      <trkpt lat="48.82267" lon="7.37227">
        <ele>239.6</ele>
        <time>2020-06-28T08:34:40Z</time>
      </trkpt>
      <trkpt lat="48.82261" lon="7.3723">
        <ele>239.9</ele>
        <time>2020-06-28T08:34:42Z</time>
      </trkpt>
      <trkpt lat="48.82256" lon="7.37234">
        <ele>240.7</ele>
        <time>2020-06-28T08:34:44Z</time>
      </trkpt>
      <trkpt lat="48.8225" lon="7.37238">
        <ele>240.9</ele>
        <time>2020-06-28T08:34:46Z</time>
      </trkpt>
      <trkpt lat="48.82245" lon="7.37243">
        <ele>241.1</ele>
        <time>2020-06-28T08:34:48Z</time>
      </trkpt>
      <trkpt lat="48.8224" lon="7.37249">
        <ele>242</ele>
        <time>2020-06-28T08:34:50Z</time>
      </trkpt>
      <trkpt lat="48.82234" lon="7.37253">
        <ele>242.5</ele>
        <time>2020-06-28T08:34:52Z</time>
      </trkpt>
      <trkpt lat="48.8223" lon="7.37256">
        <ele>242.8</ele>
        <time>2020-06-28T08:34:54Z</time>
      </trkpt>
      <trkpt lat="48.82225" lon="7.3726">
        <ele>243</ele>
        <time>2020-06-28T08:34:56Z</time>
      </trkpt>
      <trkpt lat="48.82221" lon="7.37264">
        <ele>242.8</ele>
        <time>2020-06-28T08:34:58Z</time>
      </trkpt>
      <trkpt lat="48.82216" lon="7.37267">
        <ele>242.4</ele>
        <time>2020-06-28T08:35:00Z</time>
      </trkpt>
      <trkpt lat="48.82212" lon="7.37269">
        <ele>242.5</ele>
        <time>2020-06-28T08:35:02Z</time>
      </trkpt>
      <trkpt lat="48.82207" lon="7.37271">
        <ele>242.6</ele>
        <time>2020-06-28T08:35:04Z</time>
      </trkpt>
      <trkpt lat="48.82202" lon="7.37274">
        <ele>242.8</ele>
        <time>2020-06-28T08:35:06Z</time>
      </trkpt>
      <trkpt lat="48.82197" lon="7.37277">
        <ele>242.9</ele>
        <time>2020-06-28T08:35:08Z</time>
      </trkpt>
      <trkpt lat="48.82193" lon="7.37281">
        <ele>243.2</ele>
        <time>2020-06-28T08:35:10Z</time>
      </trkpt>
      <trkpt lat="48.82189" lon="7.37286">
        <ele>242.5</ele>
        <time>2020-06-28T08:35:12Z</time>
      </trkpt>
      <trkpt lat="48.82184" lon="7.37292">
        <ele>242.8</ele>
        <time>2020-06-28T08:35:15Z</time>
      </trkpt>
      <trkpt lat="48.82179" lon="7.37298">
        <ele>243.3</ele>
        <time>2020-06-28T08:35:18Z</time>
      </trkpt>
      <trkpt lat="48.82174" lon="7.37303">
        <ele>244.4</ele>
        <time>2020-06-28T08:35:21Z</time>
      </trkpt>
      <trkpt lat="48.82169" lon="7.37309">
        <ele>244.5</ele>
        <time>2020-06-28T08:35:24Z</time>
      </trkpt>
      <trkpt lat="48.82165" lon="7.37313">
        <ele>245.2</ele>
        <time>2020-06-28T08:35:26Z</time>
      </trkpt>
      <trkpt lat="48.82161" lon="7.37315">
        <ele>245.1</ele>
        <time>2020-06-28T08:35:28Z</time>
      </trkpt>
      <trkpt lat="48.82156" lon="7.3732">
        <ele>245.2</ele>
        <time>2020-06-28T08:35:30Z</time>
      </trkpt>
      <trkpt lat="48.82151" lon="7.37324">
        <ele>245.9</ele>
        <time>2020-06-28T08:35:32Z</time>
      </trkpt>
      <trkpt lat="48.82147" lon="7.3733">
        <ele>245.8</ele>
        <time>2020-06-28T08:35:34Z</time>
      </trkpt>
      <trkpt lat="48.82142" lon="7.37335">
        <ele>244.9</ele>
        <time>2020-06-28T08:35:37Z</time>
      </trkpt>
      <trkpt lat="48.82137" lon="7.3734">
        <ele>244.3</ele>
        <time>2020-06-28T08:35:39Z</time>
      </trkpt>
      <trkpt lat="48.82132" lon="7.37344">
        <ele>243.5</ele>
        <time>2020-06-28T08:35:41Z</time>
      </trkpt>
      <trkpt lat="48.82126" lon="7.37347">
        <ele>243.7</ele>
        <time>2020-06-28T08:35:43Z</time>
      </trkpt>
      <trkpt lat="48.8212" lon="7.37349">
        <ele>244</ele>
        <time>2020-06-28T08:35:45Z</time>
      </trkpt>
      <trkpt lat="48.82114" lon="7.37352">
        <ele>244</ele>
        <time>2020-06-28T08:35:47Z</time>
      </trkpt>
      <trkpt lat="48.82109" lon="7.37355">
        <ele>244.2</ele>
        <time>2020-06-28T08:35:49Z</time>
      </trkpt>
      <trkpt lat="48.82103" lon="7.3736">
        <ele>244.3</ele>
        <time>2020-06-28T08:35:51Z</time>
      </trkpt>
      <trkpt lat="48.82097" lon="7.37367">
        <ele>244.6</ele>
        <time>2020-06-28T08:35:53Z</time>
      </trkpt>
      <trkpt lat="48.82091" lon="7.37375">
        <ele>245</ele>
        <time>2020-06-28T08:35:55Z</time>
      </trkpt>
      <trkpt lat="48.82087" lon="7.37381">
        <ele>244.4</ele>
        <time>2020-06-28T08:35:57Z</time>
      </trkpt>
      <trkpt lat="48.82083" lon="7.37386">
        <ele>244.2</ele>
        <time>2020-06-28T08:35:59Z</time>
      </trkpt>
      <trkpt lat="48.82078" lon="7.37391">
        <ele>243.9</ele>
        <time>2020-06-28T08:36:01Z</time>
      </trkpt>
      <trkpt lat="48.82073" lon="7.37396">
        <ele>243.6</ele>
        <time>2020-06-28T08:36:03Z</time>
      </trkpt>
      <trkpt lat="48.82068" lon="7.37402">
        <ele>244</ele>
        <time>2020-06-28T08:36:05Z</time>
      </trkpt>
      <trkpt lat="48.82064" lon="7.37407">
        <ele>244.3</ele>
        <time>2020-06-28T08:36:07Z</time>
      </trkpt>
      <trkpt lat="48.82061" lon="7.37414">
        <ele>244.7</ele>
        <time>2020-06-28T08:36:09Z</time>
      </trkpt>
      <trkpt lat="48.82056" lon="7.37421">
        <ele>244.9</ele>
        <time>2020-06-28T08:36:11Z</time>
      </trkpt>
      <trkpt lat="48.8205" lon="7.37425">
        <ele>245.3</ele>
        <time>2020-06-28T08:36:13Z</time>
      </trkpt>
      <trkpt lat="48.82046" lon="7.37426">
        <ele>245</ele>
        <time>2020-06-28T08:36:15Z</time>
      </trkpt>
      <trkpt lat="48.82037" lon="7.37429">
        <ele>243.7</ele>
        <time>2020-06-28T08:36:18Z</time>
      </trkpt>
      <trkpt lat="48.82028" lon="7.37432">
        <ele>241.9</ele>
        <time>2020-06-28T08:36:21Z</time>
      </trkpt>
      <trkpt lat="48.82023" lon="7.37435">
        <ele>241.6</ele>
        <time>2020-06-28T08:36:23Z</time>
      </trkpt>
      <trkpt lat="48.82017" lon="7.37438">
        <ele>241.3</ele>
        <time>2020-06-28T08:36:25Z</time>
      </trkpt>
      <trkpt lat="48.82011" lon="7.37442">
        <ele>241.1</ele>
        <time>2020-06-28T08:36:27Z</time>
      </trkpt>
      <trkpt lat="48.82007" lon="7.37445">
        <ele>240.4</ele>
        <time>2020-06-28T08:36:29Z</time>
      </trkpt>
      <trkpt lat="48.82002" lon="7.37446">
        <ele>239.4</ele>
        <time>2020-06-28T08:36:31Z</time>
      </trkpt>
      <trkpt lat="48.81997" lon="7.37448">
        <ele>238.9</ele>
        <time>2020-06-28T08:36:33Z</time>
      </trkpt>
      <trkpt lat="48.81991" lon="7.37449">
        <ele>237.9</ele>
        <time>2020-06-28T08:36:36Z</time>
      </trkpt>
      <trkpt lat="48.81987" lon="7.37448">
        <ele>233.2</ele>
        <time>2020-06-28T08:37:04Z</time>
      </trkpt>
      <trkpt lat="48.81987" lon="7.37441">
        <ele>224.4</ele>
        <time>2020-06-28T08:37:32Z</time>
      </trkpt>
      <trkpt lat="48.81982" lon="7.37438">
        <ele>227.6</ele>
        <time>2020-06-28T08:38:47Z</time>
      </trkpt>
      <trkpt lat="48.81957" lon="7.37435">
        <ele>226.3</ele>
        <time>2020-06-28T08:38:49Z</time>
      </trkpt>
      <trkpt lat="48.81946" lon="7.37436">
        <ele>225.8</ele>
        <time>2020-06-28T08:38:51Z</time>
      </trkpt>
      <trkpt lat="48.81938" lon="7.37438">
        <ele>225.9</ele>
        <time>2020-06-28T08:38:53Z</time>
      </trkpt>
      <trkpt lat="48.81931" lon="7.37439">
        <ele>226</ele>
        <time>2020-06-28T08:38:58Z</time>
      </trkpt>
      <trkpt lat="48.81917" lon="7.37436">
        <ele>224.5</ele>
        <time>2020-06-28T08:39:00Z</time>
      </trkpt>
      <trkpt lat="48.81906" lon="7.37436">
        <ele>223.3</ele>
        <time>2020-06-28T08:39:05Z</time>
      </trkpt>
      <trkpt lat="48.81882" lon="7.37433">
        <ele>221.3</ele>
        <time>2020-06-28T08:39:07Z</time>
      </trkpt>
      <trkpt lat="48.81877" lon="7.3743">
        <ele>219.7</ele>
        <time>2020-06-28T08:39:09Z</time>
      </trkpt>
      <trkpt lat="48.81873" lon="7.37426">
        <ele>217</ele>
        <time>2020-06-28T08:39:14Z</time>
      </trkpt>
      <trkpt lat="48.81868" lon="7.37426">
        <ele>214.2</ele>
        <time>2020-06-28T08:39:21Z</time>
      </trkpt>
      <trkpt lat="48.81871" lon="7.37434">
        <ele>215.7</ele>
        <time>2020-06-28T08:39:37Z</time>
      </trkpt>
      <trkpt lat="48.81875" lon="7.37439">
        <ele>215</ele>
        <time>2020-06-28T08:39:39Z</time>
      </trkpt>
      <trkpt lat="48.8188" lon="7.37444">
        <ele>213.3</ele>
        <time>2020-06-28T08:39:41Z</time>
      </trkpt>
      <trkpt lat="48.81885" lon="7.37449">
        <ele>212.6</ele>
        <time>2020-06-28T08:39:43Z</time>
      </trkpt>
      <trkpt lat="48.81881" lon="7.37453">
        <ele>211.9</ele>
        <time>2020-06-28T08:39:48Z</time>
      </trkpt>
      <trkpt lat="48.81873" lon="7.37452">
        <ele>211.5</ele>
        <time>2020-06-28T08:39:50Z</time>
      </trkpt>
      <trkpt lat="48.81866" lon="7.37453">
        <ele>211.2</ele>
        <time>2020-06-28T08:39:52Z</time>
      </trkpt>
      <trkpt lat="48.81859" lon="7.37454">
        <ele>211</ele>
        <time>2020-06-28T08:39:54Z</time>
      </trkpt>
      <trkpt lat="48.81851" lon="7.37452">
        <ele>211</ele>
        <time>2020-06-28T08:39:56Z</time>
      </trkpt>
      <trkpt lat="48.81844" lon="7.37448">
        <ele>211.1</ele>
        <time>2020-06-28T08:39:58Z</time>
      </trkpt>
      <trkpt lat="48.81835" lon="7.37444">
        <ele>210.8</ele>
        <time>2020-06-28T08:40:00Z</time>
      </trkpt>
      <trkpt lat="48.81827" lon="7.3744">
        <ele>210.4</ele>
        <time>2020-06-28T08:40:02Z</time>
      </trkpt>
      <trkpt lat="48.81818" lon="7.37435">
        <ele>209.8</ele>
        <time>2020-06-28T08:40:04Z</time>
      </trkpt>
      <trkpt lat="48.81811" lon="7.37428">
        <ele>209.2</ele>
        <time>2020-06-28T08:40:06Z</time>
      </trkpt>
      <trkpt lat="48.81803" lon="7.37422">
        <ele>209.2</ele>
        <time>2020-06-28T08:40:08Z</time>
      </trkpt>
      <trkpt lat="48.81791" lon="7.37418">
        <ele>208.9</ele>
        <time>2020-06-28T08:40:13Z</time>
      </trkpt>
      <trkpt lat="48.81763" lon="7.37417">
        <ele>208.2</ele>
        <time>2020-06-28T08:40:15Z</time>
      </trkpt>
      <trkpt lat="48.8175" lon="7.37417">
        <ele>208.6</ele>
        <time>2020-06-28T08:40:17Z</time>
      </trkpt>
      <trkpt lat="48.81738" lon="7.37416">
        <ele>208.5</ele>
        <time>2020-06-28T08:40:19Z</time>
      </trkpt>
      <trkpt lat="48.81725" lon="7.37415">
        <ele>208</ele>
        <time>2020-06-28T08:40:21Z</time>
      </trkpt>
      <trkpt lat="48.81713" lon="7.37416">
        <ele>207.1</ele>
        <time>2020-06-28T08:40:23Z</time>
      </trkpt>
      <trkpt lat="48.81699" lon="7.37419">
        <ele>206.7</ele>
        <time>2020-06-28T08:40:25Z</time>
      </trkpt>
      <trkpt lat="48.81686" lon="7.37422">
        <ele>206.8</ele>
        <time>2020-06-28T08:40:27Z</time>
      </trkpt>
      <trkpt lat="48.81673" lon="7.37423">
        <ele>206.6</ele>
        <time>2020-06-28T08:40:29Z</time>
      </trkpt>
      <trkpt lat="48.81662" lon="7.37427">
        <ele>205.7</ele>
        <time>2020-06-28T08:40:31Z</time>
      </trkpt>
      <trkpt lat="48.81652" lon="7.37431">
        <ele>203.8</ele>
        <time>2020-06-28T08:40:33Z</time>
      </trkpt>
      <trkpt lat="48.81642" lon="7.37436">
        <ele>202.5</ele>
        <time>2020-06-28T08:40:35Z</time>
      </trkpt>
      <trkpt lat="48.81633" lon="7.37441">
        <ele>201</ele>
        <time>2020-06-28T08:40:37Z</time>
      </trkpt>
      <trkpt lat="48.81622" lon="7.37447">
        <ele>200.4</ele>
        <time>2020-06-28T08:40:39Z</time>
      </trkpt>
      <trkpt lat="48.81612" lon="7.37452">
        <ele>200.2</ele>
        <time>2020-06-28T08:40:41Z</time>
      </trkpt>
      <trkpt lat="48.81602" lon="7.3746">
        <ele>201.3</ele>
        <time>2020-06-28T08:40:43Z</time>
      </trkpt>
      <trkpt lat="48.81593" lon="7.37469">
        <ele>202</ele>
        <time>2020-06-28T08:40:45Z</time>
      </trkpt>
      <trkpt lat="48.81584" lon="7.37477">
        <ele>202.3</ele>
        <time>2020-06-28T08:40:47Z</time>
      </trkpt>
      <trkpt lat="48.81574" lon="7.37484">
        <ele>202.3</ele>
        <time>2020-06-28T08:40:49Z</time>
      </trkpt>
      <trkpt lat="48.81566" lon="7.37492">
        <ele>202</ele>
        <time>2020-06-28T08:40:51Z</time>
      </trkpt>
      <trkpt lat="48.81558" lon="7.37501">
        <ele>201.7</ele>
        <time>2020-06-28T08:40:53Z</time>
      </trkpt>
      <trkpt lat="48.81552" lon="7.37512">
        <ele>200.8</ele>
        <time>2020-06-28T08:40:55Z</time>
      </trkpt>
      <trkpt lat="48.81544" lon="7.37522">
        <ele>200.4</ele>
        <time>2020-06-28T08:40:57Z</time>
      </trkpt>
      <trkpt lat="48.81536" lon="7.37531">
        <ele>199</ele>
        <time>2020-06-28T08:40:59Z</time>
      </trkpt>
      <trkpt lat="48.81527" lon="7.3754">
        <ele>199.1</ele>
        <time>2020-06-28T08:41:01Z</time>
      </trkpt>
      <trkpt lat="48.81518" lon="7.37547">
        <ele>199.6</ele>
        <time>2020-06-28T08:41:03Z</time>
      </trkpt>
      <trkpt lat="48.8151" lon="7.37554">
        <ele>200.5</ele>
        <time>2020-06-28T08:41:05Z</time>
      </trkpt>
      <trkpt lat="48.81501" lon="7.37563">
        <ele>201.1</ele>
        <time>2020-06-28T08:41:07Z</time>
      </trkpt>
      <trkpt lat="48.81494" lon="7.37571">
        <ele>200.6</ele>
        <time>2020-06-28T08:41:09Z</time>
      </trkpt>
      <trkpt lat="48.81486" lon="7.37577">
        <ele>200.9</ele>
        <time>2020-06-28T08:41:11Z</time>
      </trkpt>
      <trkpt lat="48.81477" lon="7.37584">
        <ele>201.8</ele>
        <time>2020-06-28T08:41:13Z</time>
      </trkpt>
      <trkpt lat="48.81469" lon="7.37591">
        <ele>202.2</ele>
        <time>2020-06-28T08:41:15Z</time>
      </trkpt>
      <trkpt lat="48.81459" lon="7.37595">
        <ele>201.9</ele>
        <time>2020-06-28T08:41:17Z</time>
      </trkpt>
      <trkpt lat="48.81449" lon="7.37597">
        <ele>200.6</ele>
        <time>2020-06-28T08:41:19Z</time>
      </trkpt>
      <trkpt lat="48.81439" lon="7.37598">
        <ele>199.5</ele>
        <time>2020-06-28T08:41:21Z</time>
      </trkpt>
      <trkpt lat="48.81429" lon="7.37599">
        <ele>199.2</ele>
        <time>2020-06-28T08:41:23Z</time>
      </trkpt>
      <trkpt lat="48.81418" lon="7.37597">
        <ele>199.2</ele>
        <time>2020-06-28T08:41:25Z</time>
      </trkpt>
      <trkpt lat="48.81408" lon="7.37595">
        <ele>199.2</ele>
        <time>2020-06-28T08:41:27Z</time>
      </trkpt>
      <trkpt lat="48.81396" lon="7.37594">
        <ele>198.6</ele>
        <time>2020-06-28T08:41:29Z</time>
      </trkpt>
      <trkpt lat="48.81386" lon="7.37593">
        <ele>198.6</ele>
        <time>2020-06-28T08:41:31Z</time>
      </trkpt>
      <trkpt lat="48.81378" lon="7.37596">
        <ele>197.5</ele>
        <time>2020-06-28T08:41:33Z</time>
      </trkpt>
      <trkpt lat="48.81371" lon="7.37603">
        <ele>196.7</ele>
        <time>2020-06-28T08:41:35Z</time>
      </trkpt>
      <trkpt lat="48.81363" lon="7.37613">
        <ele>196.6</ele>
        <time>2020-06-28T08:41:37Z</time>
      </trkpt>
      <trkpt lat="48.81353" lon="7.37623">
        <ele>196.8</ele>
        <time>2020-06-28T08:41:39Z</time>
      </trkpt>
      <trkpt lat="48.81341" lon="7.37634">
        <ele>197.7</ele>
        <time>2020-06-28T08:41:41Z</time>
      </trkpt>
      <trkpt lat="48.81331" lon="7.37645">
        <ele>199.1</ele>
        <time>2020-06-28T08:41:43Z</time>
      </trkpt>
      <trkpt lat="48.81322" lon="7.37652">
        <ele>200.2</ele>
        <time>2020-06-28T08:41:45Z</time>
      </trkpt>
      <trkpt lat="48.81309" lon="7.37659">
        <ele>201.1</ele>
        <time>2020-06-28T08:41:47Z</time>
      </trkpt>
      <trkpt lat="48.81298" lon="7.37664">
        <ele>201.9</ele>
        <time>2020-06-28T08:41:51Z</time>
      </trkpt>
      <trkpt lat="48.81286" lon="7.37672">
        <ele>201.6</ele>
        <time>2020-06-28T08:41:54Z</time>
      </trkpt>
      <trkpt lat="48.8128" lon="7.37678">
        <ele>202.2</ele>
        <time>2020-06-28T08:41:56Z</time>
      </trkpt>
      <trkpt lat="48.8127" lon="7.37682">
        <ele>201.9</ele>
        <time>2020-06-28T08:41:58Z</time>
      </trkpt>
      <trkpt lat="48.81261" lon="7.37687">
        <ele>201.7</ele>
        <time>2020-06-28T08:42:00Z</time>
      </trkpt>
      <trkpt lat="48.81251" lon="7.37691">
        <ele>201.4</ele>
        <time>2020-06-28T08:42:02Z</time>
      </trkpt>
      <trkpt lat="48.8124" lon="7.37696">
        <ele>201</ele>
        <time>2020-06-28T08:42:04Z</time>
      </trkpt>
      <trkpt lat="48.8123" lon="7.377">
        <ele>200.7</ele>
        <time>2020-06-28T08:42:06Z</time>
      </trkpt>
      <trkpt lat="48.81219" lon="7.37706">
        <ele>200.4</ele>
        <time>2020-06-28T08:42:08Z</time>
      </trkpt>
      <trkpt lat="48.81212" lon="7.37709">
        <ele>221.3</ele>
        <time>2020-06-28T08:42:10Z</time>
      </trkpt>
      <trkpt lat="48.81206" lon="7.37714">
        <ele>221</ele>
        <time>2020-06-28T08:42:12Z</time>
      </trkpt>
      <trkpt lat="48.81192" lon="7.37716">
        <ele>220.2</ele>
        <time>2020-06-28T08:42:15Z</time>
      </trkpt>
      <trkpt lat="48.81182" lon="7.37715">
        <ele>216.5</ele>
        <time>2020-06-28T08:42:17Z</time>
      </trkpt>
      <trkpt lat="48.81171" lon="7.37712">
        <ele>214</ele>
        <time>2020-06-28T08:42:19Z</time>
      </trkpt>
      <trkpt lat="48.8116" lon="7.37707">
        <ele>212</ele>
        <time>2020-06-28T08:42:21Z</time>
      </trkpt>
      <trkpt lat="48.81145" lon="7.377">
        <ele>208.1</ele>
        <time>2020-06-28T08:42:24Z</time>
      </trkpt>
      <trkpt lat="48.81134" lon="7.37696">
        <ele>206.3</ele>
        <time>2020-06-28T08:42:26Z</time>
      </trkpt>
      <trkpt lat="48.81116" lon="7.37689">
        <ele>203.2</ele>
        <time>2020-06-28T08:42:29Z</time>
      </trkpt>
      <trkpt lat="48.81104" lon="7.37684">
        <ele>219.1</ele>
        <time>2020-06-28T08:42:31Z</time>
      </trkpt>
      <trkpt lat="48.81093" lon="7.37681">
        <ele>216.8</ele>
        <time>2020-06-28T08:42:33Z</time>
      </trkpt>
      <trkpt lat="48.81082" lon="7.37679">
        <ele>216.5</ele>
        <time>2020-06-28T08:42:35Z</time>
      </trkpt>
      <trkpt lat="48.81072" lon="7.37679">
        <ele>213</ele>
        <time>2020-06-28T08:42:37Z</time>
      </trkpt>
      <trkpt lat="48.81056" lon="7.37678">
        <ele>208.1</ele>
        <time>2020-06-28T08:42:40Z</time>
      </trkpt>
      <trkpt lat="48.81046" lon="7.37679">
        <ele>205.3</ele>
        <time>2020-06-28T08:42:41Z</time>
      </trkpt>
      <trkpt lat="48.81035" lon="7.37682">
        <ele>203.5</ele>
        <time>2020-06-28T08:42:43Z</time>
      </trkpt>
      <trkpt lat="48.81023" lon="7.37687">
        <ele>201.9</ele>
        <time>2020-06-28T08:42:45Z</time>
      </trkpt>
      <trkpt lat="48.81014" lon="7.37691">
        <ele>200.7</ele>
        <time>2020-06-28T08:42:47Z</time>
      </trkpt>
      <trkpt lat="48.81003" lon="7.37696">
        <ele>200.1</ele>
        <time>2020-06-28T08:42:49Z</time>
      </trkpt>
      <trkpt lat="48.80995" lon="7.37701">
        <ele>199.7</ele>
        <time>2020-06-28T08:42:51Z</time>
      </trkpt>
      <trkpt lat="48.80985" lon="7.37702">
        <ele>200.1</ele>
        <time>2020-06-28T08:42:53Z</time>
      </trkpt>
      <trkpt lat="48.80977" lon="7.3771">
        <ele>200.2</ele>
        <time>2020-06-28T08:42:55Z</time>
      </trkpt>
      <trkpt lat="48.80969" lon="7.37719">
        <ele>200.1</ele>
        <time>2020-06-28T08:42:57Z</time>
      </trkpt>
      <trkpt lat="48.80961" lon="7.37729">
        <ele>199.4</ele>
        <time>2020-06-28T08:42:59Z</time>
      </trkpt>
      <trkpt lat="48.80951" lon="7.37737">
        <ele>199.3</ele>
        <time>2020-06-28T08:43:01Z</time>
      </trkpt>
      <trkpt lat="48.80942" lon="7.37742">
        <ele>201.6</ele>
        <time>2020-06-28T08:43:04Z</time>
      </trkpt>
      <trkpt lat="48.80929" lon="7.37754">
        <ele>201.7</ele>
        <time>2020-06-28T08:43:06Z</time>
      </trkpt>
      <trkpt lat="48.80918" lon="7.37759">
        <ele>201.5</ele>
        <time>2020-06-28T08:43:08Z</time>
      </trkpt>
      <trkpt lat="48.80907" lon="7.37765">
        <ele>201.8</ele>
        <time>2020-06-28T08:43:10Z</time>
      </trkpt>
      <trkpt lat="48.80897" lon="7.37773">
        <ele>202.3</ele>
        <time>2020-06-28T08:43:12Z</time>
      </trkpt>
      <trkpt lat="48.80887" lon="7.37781">
        <ele>202.2</ele>
        <time>2020-06-28T08:43:14Z</time>
      </trkpt>
      <trkpt lat="48.80879" lon="7.3779">
        <ele>202.3</ele>
        <time>2020-06-28T08:43:16Z</time>
      </trkpt>
      <trkpt lat="48.80869" lon="7.37798">
        <ele>202.8</ele>
        <time>2020-06-28T08:43:18Z</time>
      </trkpt>
      <trkpt lat="48.8086" lon="7.37808">
        <ele>202</ele>
        <time>2020-06-28T08:43:20Z</time>
      </trkpt>
      <trkpt lat="48.80853" lon="7.37818">
        <ele>200.7</ele>
        <time>2020-06-28T08:43:22Z</time>
      </trkpt>
      <trkpt lat="48.80846" lon="7.37828">
        <ele>199.2</ele>
        <time>2020-06-28T08:43:24Z</time>
      </trkpt>
      <trkpt lat="48.80838" lon="7.37838">
        <ele>198.1</ele>
        <time>2020-06-28T08:43:26Z</time>
      </trkpt>
      <trkpt lat="48.80831" lon="7.37849">
        <ele>196.9</ele>
        <time>2020-06-28T08:43:28Z</time>
      </trkpt>
      <trkpt lat="48.80822" lon="7.37859">
        <ele>196.4</ele>
        <time>2020-06-28T08:43:31Z</time>
      </trkpt>
      <trkpt lat="48.80816" lon="7.37871">
        <ele>196.2</ele>
        <time>2020-06-28T08:43:33Z</time>
      </trkpt>
      <trkpt lat="48.80805" lon="7.37888">
        <ele>195.7</ele>
        <time>2020-06-28T08:43:36Z</time>
      </trkpt>
      <trkpt lat="48.80796" lon="7.37897">
        <ele>195.7</ele>
        <time>2020-06-28T08:43:37Z</time>
      </trkpt>
      <trkpt lat="48.80785" lon="7.37904">
        <ele>195.4</ele>
        <time>2020-06-28T08:43:40Z</time>
      </trkpt>
      <trkpt lat="48.80774" lon="7.37909">
        <ele>195.2</ele>
        <time>2020-06-28T08:43:42Z</time>
      </trkpt>
      <trkpt lat="48.80754" lon="7.37909">
        <ele>195.8</ele>
        <time>2020-06-28T08:43:44Z</time>
      </trkpt>
      <trkpt lat="48.80741" lon="7.37906">
        <ele>195.6</ele>
        <time>2020-06-28T08:43:46Z</time>
      </trkpt>
      <trkpt lat="48.80728" lon="7.37901">
        <ele>195.6</ele>
        <time>2020-06-28T08:43:48Z</time>
      </trkpt>
      <trkpt lat="48.80716" lon="7.37896">
        <ele>195.9</ele>
        <time>2020-06-28T08:43:50Z</time>
      </trkpt>
      <trkpt lat="48.80704" lon="7.37895">
        <ele>195.7</ele>
        <time>2020-06-28T08:43:52Z</time>
      </trkpt>
      <trkpt lat="48.80691" lon="7.37892">
        <ele>195.9</ele>
        <time>2020-06-28T08:43:55Z</time>
      </trkpt>
      <trkpt lat="48.80678" lon="7.3789">
        <ele>196.2</ele>
        <time>2020-06-28T08:43:57Z</time>
      </trkpt>
      <trkpt lat="48.80657" lon="7.37891">
        <ele>196</ele>
        <time>2020-06-28T08:43:59Z</time>
      </trkpt>
      <trkpt lat="48.80646" lon="7.37895">
        <ele>195.8</ele>
        <time>2020-06-28T08:44:01Z</time>
      </trkpt>
      <trkpt lat="48.80635" lon="7.37902">
        <ele>195.6</ele>
        <time>2020-06-28T08:44:03Z</time>
      </trkpt>
      <trkpt lat="48.80623" lon="7.37912">
        <ele>196.6</ele>
        <time>2020-06-28T08:44:06Z</time>
      </trkpt>
      <trkpt lat="48.80607" lon="7.37927">
        <ele>196.4</ele>
        <time>2020-06-28T08:44:08Z</time>
      </trkpt>
      <trkpt lat="48.80597" lon="7.37937">
        <ele>196.1</ele>
        <time>2020-06-28T08:44:10Z</time>
      </trkpt>
      <trkpt lat="48.80587" lon="7.37948">
        <ele>195.6</ele>
        <time>2020-06-28T08:44:12Z</time>
      </trkpt>
      <trkpt lat="48.80578" lon="7.37956">
        <ele>193.5</ele>
        <time>2020-06-28T08:44:14Z</time>
      </trkpt>
      <trkpt lat="48.80565" lon="7.37974">
        <ele>193</ele>
        <time>2020-06-28T08:44:17Z</time>
      </trkpt>
      <trkpt lat="48.80556" lon="7.37986">
        <ele>193</ele>
        <time>2020-06-28T08:44:19Z</time>
      </trkpt>
      <trkpt lat="48.80547" lon="7.37998">
        <ele>192.4</ele>
        <time>2020-06-28T08:44:21Z</time>
      </trkpt>
      <trkpt lat="48.80538" lon="7.38011">
        <ele>192.1</ele>
        <time>2020-06-28T08:44:23Z</time>
      </trkpt>
      <trkpt lat="48.80524" lon="7.38028">
        <ele>191.8</ele>
        <time>2020-06-28T08:44:26Z</time>
      </trkpt>
      <trkpt lat="48.80515" lon="7.38039">
        <ele>191.7</ele>
        <time>2020-06-28T08:44:28Z</time>
      </trkpt>
      <trkpt lat="48.80506" lon="7.38046">
        <ele>191.6</ele>
        <time>2020-06-28T08:44:30Z</time>
      </trkpt>
      <trkpt lat="48.80496" lon="7.38053">
        <ele>191.3</ele>
        <time>2020-06-28T08:44:32Z</time>
      </trkpt>
      <trkpt lat="48.80485" lon="7.38059">
        <ele>190.8</ele>
        <time>2020-06-28T08:44:34Z</time>
      </trkpt>
      <trkpt lat="48.80474" lon="7.38062">
        <ele>189.8</ele>
        <time>2020-06-28T08:44:36Z</time>
      </trkpt>
      <trkpt lat="48.80456" lon="7.38062">
        <ele>189.3</ele>
        <time>2020-06-28T08:44:39Z</time>
      </trkpt>
      <trkpt lat="48.80445" lon="7.3806">
        <ele>189.1</ele>
        <time>2020-06-28T08:44:41Z</time>
      </trkpt>
      <trkpt lat="48.80432" lon="7.38061">
        <ele>189.5</ele>
        <time>2020-06-28T08:44:43Z</time>
      </trkpt>
      <trkpt lat="48.80415" lon="7.38064">
        <ele>190</ele>
        <time>2020-06-28T08:44:46Z</time>
      </trkpt>
      <trkpt lat="48.80403" lon="7.38066">
        <ele>190.2</ele>
        <time>2020-06-28T08:44:48Z</time>
      </trkpt>
      <trkpt lat="48.80387" lon="7.3807">
        <ele>190.5</ele>
        <time>2020-06-28T08:44:51Z</time>
      </trkpt>
      <trkpt lat="48.80377" lon="7.38073">
        <ele>190.6</ele>
        <time>2020-06-28T08:44:53Z</time>
      </trkpt>
      <trkpt lat="48.80368" lon="7.38075">
        <ele>190.5</ele>
        <time>2020-06-28T08:44:55Z</time>
      </trkpt>
      <trkpt lat="48.8036" lon="7.38078">
        <ele>190.2</ele>
        <time>2020-06-28T08:44:57Z</time>
      </trkpt>
      <trkpt lat="48.8035" lon="7.38081">
        <ele>189.8</ele>
        <time>2020-06-28T08:45:00Z</time>
      </trkpt>
      <trkpt lat="48.80344" lon="7.38078">
        <ele>189.4</ele>
        <time>2020-06-28T08:45:03Z</time>
      </trkpt>
      <trkpt lat="48.8034" lon="7.38074">
        <ele>189</ele>
        <time>2020-06-28T08:45:05Z</time>
      </trkpt>
      <trkpt lat="48.80336" lon="7.38067">
        <ele>188.6</ele>
        <time>2020-06-28T08:45:07Z</time>
      </trkpt>
      <trkpt lat="48.80333" lon="7.38059">
        <ele>188.9</ele>
        <time>2020-06-28T08:45:09Z</time>
      </trkpt>
      <trkpt lat="48.8033" lon="7.3805">
        <ele>189.6</ele>
        <time>2020-06-28T08:45:11Z</time>
      </trkpt>
      <trkpt lat="48.80326" lon="7.3804">
        <ele>190</ele>
        <time>2020-06-28T08:45:13Z</time>
      </trkpt>
      <trkpt lat="48.8032" lon="7.38031">
        <ele>190.3</ele>
        <time>2020-06-28T08:45:15Z</time>
      </trkpt>
      <trkpt lat="48.80314" lon="7.38025">
        <ele>190.6</ele>
        <time>2020-06-28T08:45:17Z</time>
      </trkpt>
      <trkpt lat="48.80306" lon="7.38023">
        <ele>190.7</ele>
        <time>2020-06-28T08:45:19Z</time>
      </trkpt>
      <trkpt lat="48.80299" lon="7.38025">
        <ele>191</ele>
        <time>2020-06-28T08:45:21Z</time>
      </trkpt>
      <trkpt lat="48.80293" lon="7.38029">
        <ele>191.1</ele>
        <time>2020-06-28T08:45:23Z</time>
      </trkpt>
      <trkpt lat="48.80286" lon="7.38032">
        <ele>191.6</ele>
        <time>2020-06-28T08:45:25Z</time>
      </trkpt>
      <trkpt lat="48.80278" lon="7.38036">
        <ele>191.7</ele>
        <time>2020-06-28T08:45:27Z</time>
      </trkpt>
      <trkpt lat="48.8027" lon="7.38039">
        <ele>191.9</ele>
        <time>2020-06-28T08:45:29Z</time>
      </trkpt>
      <trkpt lat="48.80262" lon="7.38041">
        <ele>192</ele>
        <time>2020-06-28T08:45:31Z</time>
      </trkpt>
      <trkpt lat="48.80254" lon="7.38041">
        <ele>192.3</ele>
        <time>2020-06-28T08:45:33Z</time>
      </trkpt>
      <trkpt lat="48.80248" lon="7.38036">
        <ele>191.6</ele>
        <time>2020-06-28T08:45:35Z</time>
      </trkpt>
      <trkpt lat="48.80243" lon="7.38028">
        <ele>191.3</ele>
        <time>2020-06-28T08:45:37Z</time>
      </trkpt>
      <trkpt lat="48.80237" lon="7.38015">
        <ele>190.3</ele>
        <time>2020-06-28T08:45:40Z</time>
      </trkpt>
      <trkpt lat="48.80234" lon="7.38006">
        <ele>190.2</ele>
        <time>2020-06-28T08:45:42Z</time>
      </trkpt>
      <trkpt lat="48.80232" lon="7.37991">
        <ele>189.4</ele>
        <time>2020-06-28T08:45:45Z</time>
      </trkpt>
      <trkpt lat="48.80232" lon="7.37979">
        <ele>189</ele>
        <time>2020-06-28T08:45:47Z</time>
      </trkpt>
      <trkpt lat="48.80231" lon="7.37967">
        <ele>188.3</ele>
        <time>2020-06-28T08:45:49Z</time>
      </trkpt>
      <trkpt lat="48.8023" lon="7.37954">
        <ele>188.4</ele>
        <time>2020-06-28T08:45:51Z</time>
      </trkpt>
      <trkpt lat="48.80229" lon="7.37942">
        <ele>187.8</ele>
        <time>2020-06-28T08:45:53Z</time>
      </trkpt>
      <trkpt lat="48.80227" lon="7.37928">
        <ele>187.7</ele>
        <time>2020-06-28T08:45:55Z</time>
      </trkpt>
      <trkpt lat="48.80224" lon="7.37915">
        <ele>188.4</ele>
        <time>2020-06-28T08:45:57Z</time>
      </trkpt>
      <trkpt lat="48.80221" lon="7.37901">
        <ele>189</ele>
        <time>2020-06-28T08:45:59Z</time>
      </trkpt>
      <trkpt lat="48.80218" lon="7.37888">
        <ele>189.7</ele>
        <time>2020-06-28T08:46:01Z</time>
      </trkpt>
      <trkpt lat="48.80215" lon="7.37874">
        <ele>191.6</ele>
        <time>2020-06-28T08:46:03Z</time>
      </trkpt>
      <trkpt lat="48.80213" lon="7.37859">
        <ele>193.1</ele>
        <time>2020-06-28T08:46:05Z</time>
      </trkpt>
      <trkpt lat="48.80211" lon="7.37841">
        <ele>194.2</ele>
        <time>2020-06-28T08:46:07Z</time>
      </trkpt>
      <trkpt lat="48.8021" lon="7.37824">
        <ele>194.7</ele>
        <time>2020-06-28T08:46:09Z</time>
      </trkpt>
      <trkpt lat="48.80209" lon="7.37807">
        <ele>195.6</ele>
        <time>2020-06-28T08:46:11Z</time>
      </trkpt>
      <trkpt lat="48.80206" lon="7.37791">
        <ele>195.8</ele>
        <time>2020-06-28T08:46:13Z</time>
      </trkpt>
      <trkpt lat="48.80205" lon="7.37774">
        <ele>196.4</ele>
        <time>2020-06-28T08:46:15Z</time>
      </trkpt>
      <trkpt lat="48.80202" lon="7.37759">
        <ele>197</ele>
        <time>2020-06-28T08:46:17Z</time>
      </trkpt>
      <trkpt lat="48.80198" lon="7.37746">
        <ele>196.9</ele>
        <time>2020-06-28T08:46:19Z</time>
      </trkpt>
      <trkpt lat="48.80194" lon="7.37732">
        <ele>197.2</ele>
        <time>2020-06-28T08:46:21Z</time>
      </trkpt>
      <trkpt lat="48.80191" lon="7.37718">
        <ele>197</ele>
        <time>2020-06-28T08:46:23Z</time>
      </trkpt>
      <trkpt lat="48.80189" lon="7.37704">
        <ele>196.9</ele>
        <time>2020-06-28T08:46:25Z</time>
      </trkpt>
      <trkpt lat="48.80185" lon="7.37691">
        <ele>195.8</ele>
        <time>2020-06-28T08:46:27Z</time>
      </trkpt>
      <trkpt lat="48.8018" lon="7.3768">
        <ele>195.6</ele>
        <time>2020-06-28T08:46:29Z</time>
      </trkpt>
      <trkpt lat="48.80174" lon="7.37668">
        <ele>195.3</ele>
        <time>2020-06-28T08:46:31Z</time>
      </trkpt>
      <trkpt lat="48.8017" lon="7.37654">
        <ele>194.1</ele>
        <time>2020-06-28T08:46:33Z</time>
      </trkpt>
      <trkpt lat="48.80165" lon="7.37644">
        <ele>193.4</ele>
        <time>2020-06-28T08:46:35Z</time>
      </trkpt>
      <trkpt lat="48.80161" lon="7.37633">
        <ele>193</ele>
        <time>2020-06-28T08:46:37Z</time>
      </trkpt>
      <trkpt lat="48.80158" lon="7.37623">
        <ele>193.1</ele>
        <time>2020-06-28T08:46:39Z</time>
      </trkpt>
      <trkpt lat="48.80154" lon="7.37612">
        <ele>193.3</ele>
        <time>2020-06-28T08:46:41Z</time>
      </trkpt>
      <trkpt lat="48.80151" lon="7.37602">
        <ele>193.1</ele>
        <time>2020-06-28T08:46:43Z</time>
      </trkpt>
      <trkpt lat="48.80149" lon="7.37592">
        <ele>193.1</ele>
        <time>2020-06-28T08:46:45Z</time>
      </trkpt>
      <trkpt lat="48.80146" lon="7.37581">
        <ele>193.3</ele>
        <time>2020-06-28T08:46:47Z</time>
      </trkpt>
      <trkpt lat="48.80141" lon="7.37569">
        <ele>193.3</ele>
        <time>2020-06-28T08:46:49Z</time>
      </trkpt>
      <trkpt lat="48.80136" lon="7.37559">
        <ele>193.3</ele>
        <time>2020-06-28T08:46:51Z</time>
      </trkpt>
      <trkpt lat="48.80132" lon="7.37546">
        <ele>193.7</ele>
        <time>2020-06-28T08:46:53Z</time>
      </trkpt>
      <trkpt lat="48.80129" lon="7.37536">
        <ele>192.9</ele>
        <time>2020-06-28T08:46:55Z</time>
      </trkpt>
      <trkpt lat="48.80127" lon="7.37527">
        <ele>192.7</ele>
        <time>2020-06-28T08:46:57Z</time>
      </trkpt>
      <trkpt lat="48.80123" lon="7.37515">
        <ele>193.1</ele>
        <time>2020-06-28T08:46:59Z</time>
      </trkpt>
      <trkpt lat="48.80119" lon="7.37503">
        <ele>194.1</ele>
        <time>2020-06-28T08:47:01Z</time>
      </trkpt>
      <trkpt lat="48.80111" lon="7.37485">
        <ele>195.7</ele>
        <time>2020-06-28T08:47:03Z</time>
      </trkpt>
      <trkpt lat="48.80106" lon="7.37467">
        <ele>197.3</ele>
        <time>2020-06-28T08:47:05Z</time>
      </trkpt>
      <trkpt lat="48.80102" lon="7.37451">
        <ele>198.3</ele>
        <time>2020-06-28T08:47:07Z</time>
      </trkpt>
      <trkpt lat="48.80097" lon="7.37437">
        <ele>196.9</ele>
        <time>2020-06-28T08:47:09Z</time>
      </trkpt>
      <trkpt lat="48.80093" lon="7.37424">
        <ele>197.7</ele>
        <time>2020-06-28T08:47:11Z</time>
      </trkpt>
      <trkpt lat="48.8009" lon="7.37414">
        <ele>198.9</ele>
        <time>2020-06-28T08:47:13Z</time>
      </trkpt>
      <trkpt lat="48.80086" lon="7.37401">
        <ele>198.9</ele>
        <time>2020-06-28T08:47:15Z</time>
      </trkpt>
      <trkpt lat="48.80084" lon="7.3739">
        <ele>201.8</ele>
        <time>2020-06-28T08:47:17Z</time>
      </trkpt>
      <trkpt lat="48.80081" lon="7.3738">
        <ele>204.5</ele>
        <time>2020-06-28T08:47:19Z</time>
      </trkpt>
      <trkpt lat="48.80078" lon="7.37367">
        <ele>206.4</ele>
        <time>2020-06-28T08:47:21Z</time>
      </trkpt>
      <trkpt lat="48.80075" lon="7.37354">
        <ele>208.3</ele>
        <time>2020-06-28T08:47:23Z</time>
      </trkpt>
      <trkpt lat="48.80071" lon="7.37336">
        <ele>209.2</ele>
        <time>2020-06-28T08:47:25Z</time>
      </trkpt>
      <trkpt lat="48.80067" lon="7.37319">
        <ele>209.3</ele>
        <time>2020-06-28T08:47:27Z</time>
      </trkpt>
      <trkpt lat="48.80065" lon="7.37303">
        <ele>209.2</ele>
        <time>2020-06-28T08:47:29Z</time>
      </trkpt>
      <trkpt lat="48.80063" lon="7.37288">
        <ele>209.2</ele>
        <time>2020-06-28T08:47:31Z</time>
      </trkpt>
      <trkpt lat="48.8006" lon="7.37275">
        <ele>209.2</ele>
        <time>2020-06-28T08:47:33Z</time>
      </trkpt>
      <trkpt lat="48.80056" lon="7.37263">
        <ele>209.5</ele>
        <time>2020-06-28T08:47:35Z</time>
      </trkpt>
      <trkpt lat="48.80052" lon="7.3725">
        <ele>208.6</ele>
        <time>2020-06-28T08:47:37Z</time>
      </trkpt>
      <trkpt lat="48.80049" lon="7.37235">
        <ele>206.7</ele>
        <time>2020-06-28T08:47:39Z</time>
      </trkpt>
      <trkpt lat="48.80047" lon="7.3722">
        <ele>205.5</ele>
        <time>2020-06-28T08:47:41Z</time>
      </trkpt>
      <trkpt lat="48.80046" lon="7.37205">
        <ele>204.6</ele>
        <time>2020-06-28T08:47:43Z</time>
      </trkpt>
      <trkpt lat="48.80045" lon="7.3719">
        <ele>203.4</ele>
        <time>2020-06-28T08:47:45Z</time>
      </trkpt>
      <trkpt lat="48.80044" lon="7.37175">
        <ele>202.2</ele>
        <time>2020-06-28T08:47:47Z</time>
      </trkpt>
      <trkpt lat="48.80044" lon="7.3716">
        <ele>201.2</ele>
        <time>2020-06-28T08:47:49Z</time>
      </trkpt>
      <trkpt lat="48.80044" lon="7.37145">
        <ele>200.1</ele>
        <time>2020-06-28T08:47:51Z</time>
      </trkpt>
      <trkpt lat="48.80044" lon="7.37132">
        <ele>198.7</ele>
        <time>2020-06-28T08:47:53Z</time>
      </trkpt>
      <trkpt lat="48.80043" lon="7.37118">
        <ele>197.9</ele>
        <time>2020-06-28T08:47:55Z</time>
      </trkpt>
      <trkpt lat="48.80041" lon="7.37103">
        <ele>197.2</ele>
        <time>2020-06-28T08:47:57Z</time>
      </trkpt>
      <trkpt lat="48.8004" lon="7.37088">
        <ele>195.9</ele>
        <time>2020-06-28T08:47:59Z</time>
      </trkpt>
      <trkpt lat="48.80039" lon="7.37075">
        <ele>194.7</ele>
        <time>2020-06-28T08:48:01Z</time>
      </trkpt>
      <trkpt lat="48.80037" lon="7.37064">
        <ele>194</ele>
        <time>2020-06-28T08:48:03Z</time>
      </trkpt>
      <trkpt lat="48.80038" lon="7.37052">
        <ele>193.5</ele>
        <time>2020-06-28T08:48:05Z</time>
      </trkpt>
      <trkpt lat="48.8004" lon="7.37038">
        <ele>193.9</ele>
        <time>2020-06-28T08:48:07Z</time>
      </trkpt>
      <trkpt lat="48.80041" lon="7.37021">
        <ele>194.4</ele>
        <time>2020-06-28T08:48:10Z</time>
      </trkpt>
      <trkpt lat="48.80041" lon="7.37011">
        <ele>194.4</ele>
        <time>2020-06-28T08:48:12Z</time>
      </trkpt>
      <trkpt lat="48.80041" lon="7.37001">
        <ele>194.5</ele>
        <time>2020-06-28T08:48:14Z</time>
      </trkpt>
      <trkpt lat="48.8004" lon="7.3699">
        <ele>193.7</ele>
        <time>2020-06-28T08:48:16Z</time>
      </trkpt>
      <trkpt lat="48.8004" lon="7.36979">
        <ele>194.4</ele>
        <time>2020-06-28T08:48:18Z</time>
      </trkpt>
      <trkpt lat="48.80042" lon="7.36967">
        <ele>193.8</ele>
        <time>2020-06-28T08:48:20Z</time>
      </trkpt>
      <trkpt lat="48.80043" lon="7.36954">
        <ele>193.5</ele>
        <time>2020-06-28T08:48:22Z</time>
      </trkpt>
      <trkpt lat="48.80044" lon="7.36943">
        <ele>193.2</ele>
        <time>2020-06-28T08:48:24Z</time>
      </trkpt>
      <trkpt lat="48.80045" lon="7.3693">
        <ele>192.3</ele>
        <time>2020-06-28T08:48:26Z</time>
      </trkpt>
      <trkpt lat="48.80045" lon="7.36909">
        <ele>191.6</ele>
        <time>2020-06-28T08:48:28Z</time>
      </trkpt>
      <trkpt lat="48.80044" lon="7.3689">
        <ele>190.8</ele>
        <time>2020-06-28T08:48:30Z</time>
      </trkpt>
      <trkpt lat="48.80043" lon="7.36871">
        <ele>190.5</ele>
        <time>2020-06-28T08:48:32Z</time>
      </trkpt>
      <trkpt lat="48.80046" lon="7.36844">
        <ele>190.1</ele>
        <time>2020-06-28T08:48:35Z</time>
      </trkpt>
      <trkpt lat="48.80045" lon="7.36826">
        <ele>191.3</ele>
        <time>2020-06-28T08:48:37Z</time>
      </trkpt>
      <trkpt lat="48.80045" lon="7.3681">
        <ele>191.9</ele>
        <time>2020-06-28T08:48:39Z</time>
      </trkpt>
      <trkpt lat="48.80046" lon="7.36795">
        <ele>192.9</ele>
        <time>2020-06-28T08:48:41Z</time>
      </trkpt>
      <trkpt lat="48.80045" lon="7.36784">
        <ele>193.7</ele>
        <time>2020-06-28T08:48:43Z</time>
      </trkpt>
      <trkpt lat="48.80045" lon="7.36772">
        <ele>194.7</ele>
        <time>2020-06-28T08:48:45Z</time>
      </trkpt>
      <trkpt lat="48.80045" lon="7.3676">
        <ele>194.8</ele>
        <time>2020-06-28T08:48:47Z</time>
      </trkpt>
      <trkpt lat="48.80046" lon="7.36746">
        <ele>194.9</ele>
        <time>2020-06-28T08:48:49Z</time>
      </trkpt>
      <trkpt lat="48.80047" lon="7.36734">
        <ele>195.2</ele>
        <time>2020-06-28T08:48:51Z</time>
      </trkpt>
      <trkpt lat="48.80046" lon="7.36721">
        <ele>195.6</ele>
        <time>2020-06-28T08:48:53Z</time>
      </trkpt>
      <trkpt lat="48.80047" lon="7.36709">
        <ele>196.7</ele>
        <time>2020-06-28T08:48:55Z</time>
      </trkpt>
      <trkpt lat="48.80048" lon="7.3669">
        <ele>197.6</ele>
        <time>2020-06-28T08:48:58Z</time>
      </trkpt>
      <trkpt lat="48.80047" lon="7.36676">
        <ele>198.2</ele>
        <time>2020-06-28T08:49:00Z</time>
      </trkpt>
      <trkpt lat="48.80047" lon="7.36664">
        <ele>198.8</ele>
        <time>2020-06-28T08:49:02Z</time>
      </trkpt>
      <trkpt lat="48.80047" lon="7.36651">
        <ele>199</ele>
        <time>2020-06-28T08:49:04Z</time>
      </trkpt>
      <trkpt lat="48.80044" lon="7.36631">
        <ele>198.4</ele>
        <time>2020-06-28T08:49:06Z</time>
      </trkpt>
      <trkpt lat="48.80043" lon="7.36615">
        <ele>198.4</ele>
        <time>2020-06-28T08:49:08Z</time>
      </trkpt>
      <trkpt lat="48.8004" lon="7.366">
        <ele>198.8</ele>
        <time>2020-06-28T08:49:10Z</time>
      </trkpt>
      <trkpt lat="48.80037" lon="7.36586">
        <ele>199.2</ele>
        <time>2020-06-28T08:49:12Z</time>
      </trkpt>
      <trkpt lat="48.80035" lon="7.36572">
        <ele>199.4</ele>
        <time>2020-06-28T08:49:14Z</time>
      </trkpt>
      <trkpt lat="48.80034" lon="7.36558">
        <ele>199.6</ele>
        <time>2020-06-28T08:49:16Z</time>
      </trkpt>
      <trkpt lat="48.80031" lon="7.36546">
        <ele>199.9</ele>
        <time>2020-06-28T08:49:18Z</time>
      </trkpt>
      <trkpt lat="48.80028" lon="7.36532">
        <ele>200.2</ele>
        <time>2020-06-28T08:49:20Z</time>
      </trkpt>
      <trkpt lat="48.80024" lon="7.36517">
        <ele>200.2</ele>
        <time>2020-06-28T08:49:22Z</time>
      </trkpt>
      <trkpt lat="48.80022" lon="7.36504">
        <ele>199</ele>
        <time>2020-06-28T08:49:24Z</time>
      </trkpt>
      <trkpt lat="48.80021" lon="7.36489">
        <ele>198.1</ele>
        <time>2020-06-28T08:49:26Z</time>
      </trkpt>
      <trkpt lat="48.8002" lon="7.3647">
        <ele>196.9</ele>
        <time>2020-06-28T08:49:29Z</time>
      </trkpt>
      <trkpt lat="48.80018" lon="7.36457">
        <ele>196.3</ele>
        <time>2020-06-28T08:49:31Z</time>
      </trkpt>
      <trkpt lat="48.80016" lon="7.36444">
        <ele>196.5</ele>
        <time>2020-06-28T08:49:33Z</time>
      </trkpt>
      <trkpt lat="48.80014" lon="7.36431">
        <ele>196.3</ele>
        <time>2020-06-28T08:49:35Z</time>
      </trkpt>
      <trkpt lat="48.80012" lon="7.3642">
        <ele>196.3</ele>
        <time>2020-06-28T08:49:37Z</time>
      </trkpt>
      <trkpt lat="48.80009" lon="7.36407">
        <ele>196.3</ele>
        <time>2020-06-28T08:49:39Z</time>
      </trkpt>
      <trkpt lat="48.80006" lon="7.36394">
        <ele>196.2</ele>
        <time>2020-06-28T08:49:41Z</time>
      </trkpt>
      <trkpt lat="48.80003" lon="7.36382">
        <ele>196.8</ele>
        <time>2020-06-28T08:49:43Z</time>
      </trkpt>
      <trkpt lat="48.8" lon="7.36369">
        <ele>197.7</ele>
        <time>2020-06-28T08:49:45Z</time>
      </trkpt>
      <trkpt lat="48.79997" lon="7.36357">
        <ele>198.5</ele>
        <time>2020-06-28T08:49:47Z</time>
      </trkpt>
      <trkpt lat="48.79993" lon="7.36346">
        <ele>199.6</ele>
        <time>2020-06-28T08:49:49Z</time>
      </trkpt>
      <trkpt lat="48.79989" lon="7.36335">
        <ele>200.2</ele>
        <time>2020-06-28T08:49:51Z</time>
      </trkpt>
      <trkpt lat="48.79984" lon="7.36322">
        <ele>200.1</ele>
        <time>2020-06-28T08:49:53Z</time>
      </trkpt>
      <trkpt lat="48.79978" lon="7.3631">
        <ele>200.4</ele>
        <time>2020-06-28T08:49:55Z</time>
      </trkpt>
      <trkpt lat="48.79973" lon="7.36299">
        <ele>200.3</ele>
        <time>2020-06-28T08:49:57Z</time>
      </trkpt>
      <trkpt lat="48.79969" lon="7.3629">
        <ele>200.6</ele>
        <time>2020-06-28T08:49:59Z</time>
      </trkpt>
      <trkpt lat="48.79964" lon="7.36274">
        <ele>200.6</ele>
        <time>2020-06-28T08:50:02Z</time>
      </trkpt>
      <trkpt lat="48.79962" lon="7.36264">
        <ele>200.7</ele>
        <time>2020-06-28T08:50:04Z</time>
      </trkpt>
      <trkpt lat="48.79959" lon="7.36255">
        <ele>200.7</ele>
        <time>2020-06-28T08:50:06Z</time>
      </trkpt>
      <trkpt lat="48.79958" lon="7.36245">
        <ele>200.5</ele>
        <time>2020-06-28T08:50:08Z</time>
      </trkpt>
      <trkpt lat="48.79957" lon="7.36236">
        <ele>201.2</ele>
        <time>2020-06-28T08:50:10Z</time>
      </trkpt>
      <trkpt lat="48.79956" lon="7.36227">
        <ele>202.3</ele>
        <time>2020-06-28T08:50:12Z</time>
      </trkpt>
      <trkpt lat="48.79954" lon="7.36217">
        <ele>203.2</ele>
        <time>2020-06-28T08:50:14Z</time>
      </trkpt>
      <trkpt lat="48.79952" lon="7.36207">
        <ele>200</ele>
        <time>2020-06-28T08:50:16Z</time>
      </trkpt>
      <trkpt lat="48.79948" lon="7.36197">
        <ele>199.8</ele>
        <time>2020-06-28T08:50:18Z</time>
      </trkpt>
      <trkpt lat="48.79943" lon="7.36186">
        <ele>199.4</ele>
        <time>2020-06-28T08:50:20Z</time>
      </trkpt>
      <trkpt lat="48.79938" lon="7.36176">
        <ele>198.7</ele>
        <time>2020-06-28T08:50:22Z</time>
      </trkpt>
      <trkpt lat="48.79934" lon="7.36169">
        <ele>198.3</ele>
        <time>2020-06-28T08:50:24Z</time>
      </trkpt>
      <trkpt lat="48.79929" lon="7.36159">
        <ele>198.2</ele>
        <time>2020-06-28T08:50:26Z</time>
      </trkpt>
      <trkpt lat="48.79924" lon="7.36149">
        <ele>198.4</ele>
        <time>2020-06-28T08:50:28Z</time>
      </trkpt>
      <trkpt lat="48.79917" lon="7.36132">
        <ele>197.3</ele>
        <time>2020-06-28T08:50:30Z</time>
      </trkpt>
      <trkpt lat="48.79911" lon="7.36117">
        <ele>197.6</ele>
        <time>2020-06-28T08:50:32Z</time>
      </trkpt>
      <trkpt lat="48.79907" lon="7.36104">
        <ele>197.9</ele>
        <time>2020-06-28T08:50:34Z</time>
      </trkpt>
      <trkpt lat="48.79903" lon="7.3609">
        <ele>198.3</ele>
        <time>2020-06-28T08:50:36Z</time>
      </trkpt>
      <trkpt lat="48.799" lon="7.36077">
        <ele>199.3</ele>
        <time>2020-06-28T08:50:38Z</time>
      </trkpt>
      <trkpt lat="48.79896" lon="7.36063">
        <ele>199.5</ele>
        <time>2020-06-28T08:50:40Z</time>
      </trkpt>
      <trkpt lat="48.79892" lon="7.36052">
        <ele>200</ele>
        <time>2020-06-28T08:50:42Z</time>
      </trkpt>
      <trkpt lat="48.7989" lon="7.36041">
        <ele>199.9</ele>
        <time>2020-06-28T08:50:44Z</time>
      </trkpt>
      <trkpt lat="48.79887" lon="7.3603">
        <ele>199.7</ele>
        <time>2020-06-28T08:50:46Z</time>
      </trkpt>
      <trkpt lat="48.79884" lon="7.36017">
        <ele>199.2</ele>
        <time>2020-06-28T08:50:48Z</time>
      </trkpt>
      <trkpt lat="48.79881" lon="7.36007">
        <ele>198.3</ele>
        <time>2020-06-28T08:50:50Z</time>
      </trkpt>
      <trkpt lat="48.79881" lon="7.35997">
        <ele>197.8</ele>
        <time>2020-06-28T08:50:52Z</time>
      </trkpt>
      <trkpt lat="48.7988" lon="7.35988">
        <ele>197.2</ele>
        <time>2020-06-28T08:50:55Z</time>
      </trkpt>
      <trkpt lat="48.79881" lon="7.3598">
        <ele>196.2</ele>
        <time>2020-06-28T08:50:57Z</time>
      </trkpt>
      <trkpt lat="48.79879" lon="7.35972">
        <ele>195.6</ele>
        <time>2020-06-28T08:50:59Z</time>
      </trkpt>
      <trkpt lat="48.79878" lon="7.35965">
        <ele>194.5</ele>
        <time>2020-06-28T08:51:03Z</time>
      </trkpt>
      <trkpt lat="48.79877" lon="7.35958">
        <ele>194.5</ele>
        <time>2020-06-28T08:51:08Z</time>
      </trkpt>
      <trkpt lat="48.79876" lon="7.3595">
        <ele>194.2</ele>
        <time>2020-06-28T08:51:12Z</time>
      </trkpt>
      <trkpt lat="48.79875" lon="7.35943">
        <ele>194.4</ele>
        <time>2020-06-28T08:51:15Z</time>
      </trkpt>
      <trkpt lat="48.79873" lon="7.35934">
        <ele>193.9</ele>
        <time>2020-06-28T08:51:18Z</time>
      </trkpt>
      <trkpt lat="48.79869" lon="7.35927">
        <ele>193.1</ele>
        <time>2020-06-28T08:51:20Z</time>
      </trkpt>
      <trkpt lat="48.79864" lon="7.35919">
        <ele>192.5</ele>
        <time>2020-06-28T08:51:22Z</time>
      </trkpt>
      <trkpt lat="48.79861" lon="7.35912">
        <ele>191</ele>
        <time>2020-06-28T08:51:24Z</time>
      </trkpt>
      <trkpt lat="48.79857" lon="7.35903">
        <ele>190.3</ele>
        <time>2020-06-28T08:51:26Z</time>
      </trkpt>
      <trkpt lat="48.79856" lon="7.35892">
        <ele>190.3</ele>
        <time>2020-06-28T08:51:28Z</time>
      </trkpt>
      <trkpt lat="48.79855" lon="7.3588">
        <ele>190.1</ele>
        <time>2020-06-28T08:51:30Z</time>
      </trkpt>
      <trkpt lat="48.79854" lon="7.3587">
        <ele>190.2</ele>
        <time>2020-06-28T08:51:32Z</time>
      </trkpt>
      <trkpt lat="48.79853" lon="7.35858">
        <ele>190.7</ele>
        <time>2020-06-28T08:51:34Z</time>
      </trkpt>
      <trkpt lat="48.79851" lon="7.35847">
        <ele>192.7</ele>
        <time>2020-06-28T08:51:36Z</time>
      </trkpt>
      <trkpt lat="48.79848" lon="7.35836">
        <ele>194.3</ele>
        <time>2020-06-28T08:51:38Z</time>
      </trkpt>
      <trkpt lat="48.79845" lon="7.35824">
        <ele>195.7</ele>
        <time>2020-06-28T08:51:40Z</time>
      </trkpt>
      <trkpt lat="48.79841" lon="7.35811">
        <ele>197</ele>
        <time>2020-06-28T08:51:42Z</time>
      </trkpt>
      <trkpt lat="48.79837" lon="7.35791">
        <ele>198.1</ele>
        <time>2020-06-28T08:51:44Z</time>
      </trkpt>
      <trkpt lat="48.79834" lon="7.35774">
        <ele>199</ele>
        <time>2020-06-28T08:51:46Z</time>
      </trkpt>
      <trkpt lat="48.7983" lon="7.35762">
        <ele>200.6</ele>
        <time>2020-06-28T08:51:48Z</time>
      </trkpt>
      <trkpt lat="48.79826" lon="7.35751">
        <ele>202.1</ele>
        <time>2020-06-28T08:51:50Z</time>
      </trkpt>
      <trkpt lat="48.79824" lon="7.35739">
        <ele>202.7</ele>
        <time>2020-06-28T08:51:52Z</time>
      </trkpt>
      <trkpt lat="48.79823" lon="7.3573">
        <ele>203.7</ele>
        <time>2020-06-28T08:51:54Z</time>
      </trkpt>
      <trkpt lat="48.79821" lon="7.35722">
        <ele>204.5</ele>
        <time>2020-06-28T08:51:56Z</time>
      </trkpt>
      <trkpt lat="48.79818" lon="7.35713">
        <ele>205.6</ele>
        <time>2020-06-28T08:51:58Z</time>
      </trkpt>
      <trkpt lat="48.79816" lon="7.35702">
        <ele>205.7</ele>
        <time>2020-06-28T08:52:00Z</time>
      </trkpt>
      <trkpt lat="48.79815" lon="7.35688">
        <ele>206.3</ele>
        <time>2020-06-28T08:52:02Z</time>
      </trkpt>
      <trkpt lat="48.79816" lon="7.35676">
        <ele>206.6</ele>
        <time>2020-06-28T08:52:04Z</time>
      </trkpt>
      <trkpt lat="48.79815" lon="7.35665">
        <ele>206.6</ele>
        <time>2020-06-28T08:52:06Z</time>
      </trkpt>
      <trkpt lat="48.79815" lon="7.35654">
        <ele>206.1</ele>
        <time>2020-06-28T08:52:08Z</time>
      </trkpt>
      <trkpt lat="48.79813" lon="7.35645">
        <ele>205.9</ele>
        <time>2020-06-28T08:52:10Z</time>
      </trkpt>
      <trkpt lat="48.79812" lon="7.35636">
        <ele>205.8</ele>
        <time>2020-06-28T08:52:12Z</time>
      </trkpt>
      <trkpt lat="48.7981" lon="7.35628">
        <ele>204.4</ele>
        <time>2020-06-28T08:52:14Z</time>
      </trkpt>
      <trkpt lat="48.79808" lon="7.35621">
        <ele>203.7</ele>
        <time>2020-06-28T08:52:16Z</time>
      </trkpt>
      <trkpt lat="48.79806" lon="7.35614">
        <ele>202.3</ele>
        <time>2020-06-28T08:52:18Z</time>
      </trkpt>
      <trkpt lat="48.79804" lon="7.35607">
        <ele>201.4</ele>
        <time>2020-06-28T08:52:20Z</time>
      </trkpt>
      <trkpt lat="48.79802" lon="7.35601">
        <ele>201.2</ele>
        <time>2020-06-28T08:52:22Z</time>
      </trkpt>
      <trkpt lat="48.79801" lon="7.35594">
        <ele>200.3</ele>
        <time>2020-06-28T08:52:24Z</time>
      </trkpt>
      <trkpt lat="48.798" lon="7.35587">
        <ele>199.7</ele>
        <time>2020-06-28T08:52:26Z</time>
      </trkpt>
      <trkpt lat="48.79798" lon="7.35581">
        <ele>199.6</ele>
        <time>2020-06-28T08:52:28Z</time>
      </trkpt>
      <trkpt lat="48.79795" lon="7.35575">
        <ele>199.7</ele>
        <time>2020-06-28T08:52:30Z</time>
      </trkpt>
      <trkpt lat="48.79792" lon="7.35568">
        <ele>198.8</ele>
        <time>2020-06-28T08:52:32Z</time>
      </trkpt>
      <trkpt lat="48.7979" lon="7.35561">
        <ele>199.6</ele>
        <time>2020-06-28T08:52:34Z</time>
      </trkpt>
      <trkpt lat="48.79788" lon="7.35554">
        <ele>200.2</ele>
        <time>2020-06-28T08:52:36Z</time>
      </trkpt>
      <trkpt lat="48.79785" lon="7.35545">
        <ele>202.1</ele>
        <time>2020-06-28T08:52:39Z</time>
      </trkpt>
      <trkpt lat="48.79782" lon="7.35537">
        <ele>202.9</ele>
        <time>2020-06-28T08:52:42Z</time>
      </trkpt>
      <trkpt lat="48.7978" lon="7.35528">
        <ele>203.1</ele>
        <time>2020-06-28T08:52:45Z</time>
      </trkpt>
      <trkpt lat="48.79778" lon="7.35522">
        <ele>204</ele>
        <time>2020-06-28T08:52:47Z</time>
      </trkpt>
      <trkpt lat="48.79775" lon="7.35514">
        <ele>204.9</ele>
        <time>2020-06-28T08:52:49Z</time>
      </trkpt>
      <trkpt lat="48.79773" lon="7.35506">
        <ele>206.4</ele>
        <time>2020-06-28T08:52:51Z</time>
      </trkpt>
      <trkpt lat="48.7977" lon="7.35498">
        <ele>206.1</ele>
        <time>2020-06-28T08:52:53Z</time>
      </trkpt>
      <trkpt lat="48.79768" lon="7.35489">
        <ele>206.5</ele>
        <time>2020-06-28T08:52:55Z</time>
      </trkpt>
      <trkpt lat="48.79766" lon="7.35481">
        <ele>206.1</ele>
        <time>2020-06-28T08:52:57Z</time>
      </trkpt>
      <trkpt lat="48.79764" lon="7.35473">
        <ele>206.9</ele>
        <time>2020-06-28T08:52:59Z</time>
      </trkpt>
      <trkpt lat="48.79762" lon="7.35465">
        <ele>207.2</ele>
        <time>2020-06-28T08:53:01Z</time>
      </trkpt>
      <trkpt lat="48.7976" lon="7.35456">
        <ele>206.9</ele>
        <time>2020-06-28T08:53:03Z</time>
      </trkpt>
      <trkpt lat="48.79758" lon="7.35448">
        <ele>205.7</ele>
        <time>2020-06-28T08:53:05Z</time>
      </trkpt>
      <trkpt lat="48.79757" lon="7.35439">
        <ele>204.3</ele>
        <time>2020-06-28T08:53:08Z</time>
      </trkpt>
      <trkpt lat="48.79758" lon="7.35428">
        <ele>201.3</ele>
        <time>2020-06-28T08:53:11Z</time>
      </trkpt>
      <trkpt lat="48.79759" lon="7.35421">
        <ele>199.7</ele>
        <time>2020-06-28T08:53:13Z</time>
      </trkpt>
      <trkpt lat="48.7976" lon="7.35413">
        <ele>198.5</ele>
        <time>2020-06-28T08:53:15Z</time>
      </trkpt>
      <trkpt lat="48.79761" lon="7.35405">
        <ele>197.5</ele>
        <time>2020-06-28T08:53:17Z</time>
      </trkpt>
      <trkpt lat="48.79761" lon="7.35396">
        <ele>196.7</ele>
        <time>2020-06-28T08:53:19Z</time>
      </trkpt>
      <trkpt lat="48.79761" lon="7.35389">
        <ele>196</ele>
        <time>2020-06-28T08:53:21Z</time>
      </trkpt>
      <trkpt lat="48.79761" lon="7.35379">
        <ele>194.7</ele>
        <time>2020-06-28T08:53:24Z</time>
      </trkpt>
      <trkpt lat="48.79761" lon="7.35372">
        <ele>193.6</ele>
        <time>2020-06-28T08:53:26Z</time>
      </trkpt>
      <trkpt lat="48.79762" lon="7.35365">
        <ele>193.6</ele>
        <time>2020-06-28T08:53:28Z</time>
      </trkpt>
      <trkpt lat="48.79762" lon="7.35357">
        <ele>193.2</ele>
        <time>2020-06-28T08:53:30Z</time>
      </trkpt>
      <trkpt lat="48.79763" lon="7.3535">
        <ele>193.1</ele>
        <time>2020-06-28T08:53:32Z</time>
      </trkpt>
      <trkpt lat="48.79764" lon="7.35341">
        <ele>193.1</ele>
        <time>2020-06-28T08:53:34Z</time>
      </trkpt>
      <trkpt lat="48.79764" lon="7.35332">
        <ele>192.5</ele>
        <time>2020-06-28T08:53:36Z</time>
      </trkpt>
      <trkpt lat="48.79764" lon="7.35322">
        <ele>192.4</ele>
        <time>2020-06-28T08:53:38Z</time>
      </trkpt>
      <trkpt lat="48.79764" lon="7.35309">
        <ele>192.9</ele>
        <time>2020-06-28T08:53:41Z</time>
      </trkpt>
      <trkpt lat="48.79763" lon="7.353">
        <ele>193.5</ele>
        <time>2020-06-28T08:53:43Z</time>
      </trkpt>
      <trkpt lat="48.79762" lon="7.35292">
        <ele>194</ele>
        <time>2020-06-28T08:53:45Z</time>
      </trkpt>
      <trkpt lat="48.79762" lon="7.35284">
        <ele>193.7</ele>
        <time>2020-06-28T08:53:47Z</time>
      </trkpt>
      <trkpt lat="48.79762" lon="7.35277">
        <ele>194</ele>
        <time>2020-06-28T08:53:49Z</time>
      </trkpt>
      <trkpt lat="48.79764" lon="7.35266">
        <ele>194.2</ele>
        <time>2020-06-28T08:53:52Z</time>
      </trkpt>
      <trkpt lat="48.79764" lon="7.35259">
        <ele>194.1</ele>
        <time>2020-06-28T08:53:54Z</time>
      </trkpt>
      <trkpt lat="48.79765" lon="7.35249">
        <ele>193.2</ele>
        <time>2020-06-28T08:53:57Z</time>
      </trkpt>
      <trkpt lat="48.79767" lon="7.35238">
        <ele>192.4</ele>
        <time>2020-06-28T08:54:00Z</time>
      </trkpt>
      <trkpt lat="48.79767" lon="7.35228">
        <ele>192.8</ele>
        <time>2020-06-28T08:54:02Z</time>
      </trkpt>
      <trkpt lat="48.79766" lon="7.3522">
        <ele>192.9</ele>
        <time>2020-06-28T08:54:04Z</time>
      </trkpt>
      <trkpt lat="48.79766" lon="7.35213">
        <ele>193.8</ele>
        <time>2020-06-28T08:54:06Z</time>
      </trkpt>
      <trkpt lat="48.79765" lon="7.35204">
        <ele>194.3</ele>
        <time>2020-06-28T08:54:08Z</time>
      </trkpt>
      <trkpt lat="48.79762" lon="7.35194">
        <ele>195.5</ele>
        <time>2020-06-28T08:54:10Z</time>
      </trkpt>
      <trkpt lat="48.79761" lon="7.35186">
        <ele>196.4</ele>
        <time>2020-06-28T08:54:12Z</time>
      </trkpt>
      <trkpt lat="48.79761" lon="7.35179">
        <ele>197.2</ele>
        <time>2020-06-28T08:54:14Z</time>
      </trkpt>
      <trkpt lat="48.79762" lon="7.35172">
        <ele>199</ele>
        <time>2020-06-28T08:54:16Z</time>
      </trkpt>
      <trkpt lat="48.79765" lon="7.35162">
        <ele>200.2</ele>
        <time>2020-06-28T08:54:18Z</time>
      </trkpt>
      <trkpt lat="48.79768" lon="7.35149">
        <ele>201.4</ele>
        <time>2020-06-28T08:54:20Z</time>
      </trkpt>
      <trkpt lat="48.79767" lon="7.35139">
        <ele>202.3</ele>
        <time>2020-06-28T08:54:22Z</time>
      </trkpt>
      <trkpt lat="48.79768" lon="7.35127">
        <ele>202.5</ele>
        <time>2020-06-28T08:54:25Z</time>
      </trkpt>
      <trkpt lat="48.79767" lon="7.35119">
        <ele>202.3</ele>
        <time>2020-06-28T08:54:27Z</time>
      </trkpt>
      <trkpt lat="48.79764" lon="7.35104">
        <ele>202.1</ele>
        <time>2020-06-28T08:54:30Z</time>
      </trkpt>
      <trkpt lat="48.79762" lon="7.35088">
        <ele>201.4</ele>
        <time>2020-06-28T08:54:33Z</time>
      </trkpt>
      <trkpt lat="48.7976" lon="7.35072">
        <ele>200.6</ele>
        <time>2020-06-28T08:54:36Z</time>
      </trkpt>
      <trkpt lat="48.79759" lon="7.3506">
        <ele>200</ele>
        <time>2020-06-28T08:54:38Z</time>
      </trkpt>
      <trkpt lat="48.79758" lon="7.35048">
        <ele>199.5</ele>
        <time>2020-06-28T08:54:40Z</time>
      </trkpt>
      <trkpt lat="48.79756" lon="7.35035">
        <ele>199.1</ele>
        <time>2020-06-28T08:54:42Z</time>
      </trkpt>
      <trkpt lat="48.79753" lon="7.35022">
        <ele>198.4</ele>
        <time>2020-06-28T08:54:44Z</time>
      </trkpt>
      <trkpt lat="48.7975" lon="7.35007">
        <ele>198.2</ele>
        <time>2020-06-28T08:54:46Z</time>
      </trkpt>
      <trkpt lat="48.79747" lon="7.34994">
        <ele>198</ele>
        <time>2020-06-28T08:54:48Z</time>
      </trkpt>
      <trkpt lat="48.79745" lon="7.34983">
        <ele>197.6</ele>
        <time>2020-06-28T08:54:50Z</time>
      </trkpt>
      <trkpt lat="48.79743" lon="7.34973">
        <ele>197.5</ele>
        <time>2020-06-28T08:54:52Z</time>
      </trkpt>
      <trkpt lat="48.7974" lon="7.34954">
        <ele>197.3</ele>
        <time>2020-06-28T08:54:55Z</time>
      </trkpt>
      <trkpt lat="48.79739" lon="7.34937">
        <ele>196.9</ele>
        <time>2020-06-28T08:54:58Z</time>
      </trkpt>
      <trkpt lat="48.7974" lon="7.34927">
        <ele>197.1</ele>
        <time>2020-06-28T08:55:00Z</time>
      </trkpt>
      <trkpt lat="48.79741" lon="7.34916">
        <ele>197.7</ele>
        <time>2020-06-28T08:55:02Z</time>
      </trkpt>
      <trkpt lat="48.79742" lon="7.34905">
        <ele>197.8</ele>
        <time>2020-06-28T08:55:04Z</time>
      </trkpt>
      <trkpt lat="48.79743" lon="7.34895">
        <ele>198</ele>
        <time>2020-06-28T08:55:06Z</time>
      </trkpt>
      <trkpt lat="48.79743" lon="7.34885">
        <ele>198</ele>
        <time>2020-06-28T08:55:08Z</time>
      </trkpt>
      <trkpt lat="48.79743" lon="7.34875">
        <ele>197.4</ele>
        <time>2020-06-28T08:55:10Z</time>
      </trkpt>
      <trkpt lat="48.79742" lon="7.34865">
        <ele>197.2</ele>
        <time>2020-06-28T08:55:12Z</time>
      </trkpt>
      <trkpt lat="48.7974" lon="7.34852">
        <ele>196.7</ele>
        <time>2020-06-28T08:55:15Z</time>
      </trkpt>
      <trkpt lat="48.79738" lon="7.34843">
        <ele>196.8</ele>
        <time>2020-06-28T08:55:18Z</time>
      </trkpt>
      <trkpt lat="48.79737" lon="7.34836">
        <ele>196.7</ele>
        <time>2020-06-28T08:55:20Z</time>
      </trkpt>
      <trkpt lat="48.79734" lon="7.3483">
        <ele>196.9</ele>
        <time>2020-06-28T08:55:22Z</time>
      </trkpt>
      <trkpt lat="48.79731" lon="7.34823">
        <ele>196.8</ele>
        <time>2020-06-28T08:55:24Z</time>
      </trkpt>
      <trkpt lat="48.79729" lon="7.34816">
        <ele>197</ele>
        <time>2020-06-28T08:55:26Z</time>
      </trkpt>
      <trkpt lat="48.79727" lon="7.34808">
        <ele>197.5</ele>
        <time>2020-06-28T08:55:28Z</time>
      </trkpt>
      <trkpt lat="48.79727" lon="7.348">
        <ele>197.4</ele>
        <time>2020-06-28T08:55:30Z</time>
      </trkpt>
      <trkpt lat="48.79727" lon="7.34793">
        <ele>198.8</ele>
        <time>2020-06-28T08:55:32Z</time>
      </trkpt>
      <trkpt lat="48.79727" lon="7.34785">
        <ele>199.6</ele>
        <time>2020-06-28T08:55:34Z</time>
      </trkpt>
      <trkpt lat="48.79727" lon="7.34777">
        <ele>199.4</ele>
        <time>2020-06-28T08:55:36Z</time>
      </trkpt>
      <trkpt lat="48.79727" lon="7.34768">
        <ele>199.1</ele>
        <time>2020-06-28T08:55:38Z</time>
      </trkpt>
      <trkpt lat="48.79727" lon="7.34759">
        <ele>198.7</ele>
        <time>2020-06-28T08:55:40Z</time>
      </trkpt>
      <trkpt lat="48.79727" lon="7.3475">
        <ele>198</ele>
        <time>2020-06-28T08:55:42Z</time>
      </trkpt>
      <trkpt lat="48.79727" lon="7.34742">
        <ele>197.2</ele>
        <time>2020-06-28T08:55:44Z</time>
      </trkpt>
      <trkpt lat="48.79727" lon="7.34733">
        <ele>198</ele>
        <time>2020-06-28T08:55:46Z</time>
      </trkpt>
      <trkpt lat="48.79726" lon="7.34723">
        <ele>198.2</ele>
        <time>2020-06-28T08:55:48Z</time>
      </trkpt>
      <trkpt lat="48.79726" lon="7.34713">
        <ele>197.6</ele>
        <time>2020-06-28T08:55:50Z</time>
      </trkpt>
      <trkpt lat="48.79726" lon="7.34702">
        <ele>197.8</ele>
        <time>2020-06-28T08:55:52Z</time>
      </trkpt>
      <trkpt lat="48.79726" lon="7.34693">
        <ele>198.3</ele>
        <time>2020-06-28T08:55:54Z</time>
      </trkpt>
      <trkpt lat="48.79725" lon="7.34683">
        <ele>199.4</ele>
        <time>2020-06-28T08:55:56Z</time>
      </trkpt>
      <trkpt lat="48.79724" lon="7.34674">
        <ele>199.5</ele>
        <time>2020-06-28T08:55:58Z</time>
      </trkpt>
      <trkpt lat="48.79724" lon="7.34667">
        <ele>200.4</ele>
        <time>2020-06-28T08:56:00Z</time>
      </trkpt>
      <trkpt lat="48.79722" lon="7.34659">
        <ele>201.1</ele>
        <time>2020-06-28T08:56:02Z</time>
      </trkpt>
      <trkpt lat="48.79721" lon="7.3465">
        <ele>202.3</ele>
        <time>2020-06-28T08:56:04Z</time>
      </trkpt>
      <trkpt lat="48.79719" lon="7.3464">
        <ele>204</ele>
        <time>2020-06-28T08:56:07Z</time>
      </trkpt>
      <trkpt lat="48.79717" lon="7.34634">
        <ele>205.6</ele>
        <time>2020-06-28T08:56:09Z</time>
      </trkpt>
      <trkpt lat="48.79716" lon="7.34627">
        <ele>206.8</ele>
        <time>2020-06-28T08:56:11Z</time>
      </trkpt>
      <trkpt lat="48.79716" lon="7.34618">
        <ele>207.5</ele>
        <time>2020-06-28T08:56:13Z</time>
      </trkpt>
      <trkpt lat="48.79718" lon="7.34607">
        <ele>208.3</ele>
        <time>2020-06-28T08:56:15Z</time>
      </trkpt>
      <trkpt lat="48.79718" lon="7.34598">
        <ele>209.4</ele>
        <time>2020-06-28T08:56:17Z</time>
      </trkpt>
      <trkpt lat="48.79717" lon="7.34584">
        <ele>211</ele>
        <time>2020-06-28T08:56:20Z</time>
      </trkpt>
      <trkpt lat="48.79715" lon="7.34576">
        <ele>212.3</ele>
        <time>2020-06-28T08:56:22Z</time>
      </trkpt>
      <trkpt lat="48.79712" lon="7.34568">
        <ele>212.5</ele>
        <time>2020-06-28T08:56:24Z</time>
      </trkpt>
      <trkpt lat="48.79709" lon="7.34561">
        <ele>213.3</ele>
        <time>2020-06-28T08:56:26Z</time>
      </trkpt>
      <trkpt lat="48.79708" lon="7.34553">
        <ele>213.5</ele>
        <time>2020-06-28T08:56:30Z</time>
      </trkpt>
      <trkpt lat="48.79707" lon="7.34544">
        <ele>214</ele>
        <time>2020-06-28T08:56:33Z</time>
      </trkpt>
      <trkpt lat="48.79706" lon="7.34537">
        <ele>214.5</ele>
        <time>2020-06-28T08:56:35Z</time>
      </trkpt>
      <trkpt lat="48.79705" lon="7.34529">
        <ele>214.5</ele>
        <time>2020-06-28T08:56:38Z</time>
      </trkpt>
      <trkpt lat="48.79703" lon="7.34522">
        <ele>214.4</ele>
        <time>2020-06-28T08:56:41Z</time>
      </trkpt>
      <trkpt lat="48.79701" lon="7.34515">
        <ele>214.1</ele>
        <time>2020-06-28T08:56:43Z</time>
      </trkpt>
      <trkpt lat="48.79701" lon="7.34506">
        <ele>213.8</ele>
        <time>2020-06-28T08:56:45Z</time>
      </trkpt>
      <trkpt lat="48.797" lon="7.34497">
        <ele>213.3</ele>
        <time>2020-06-28T08:56:47Z</time>
      </trkpt>
      <trkpt lat="48.79701" lon="7.34488">
        <ele>213.4</ele>
        <time>2020-06-28T08:56:49Z</time>
      </trkpt>
      <trkpt lat="48.797" lon="7.34479">
        <ele>213.1</ele>
        <time>2020-06-28T08:56:51Z</time>
      </trkpt>
      <trkpt lat="48.797" lon="7.3447">
        <ele>212.9</ele>
        <time>2020-06-28T08:56:53Z</time>
      </trkpt>
      <trkpt lat="48.79699" lon="7.34461">
        <ele>212.6</ele>
        <time>2020-06-28T08:56:55Z</time>
      </trkpt>
      <trkpt lat="48.79699" lon="7.34451">
        <ele>212.8</ele>
        <time>2020-06-28T08:56:57Z</time>
      </trkpt>
      <trkpt lat="48.79697" lon="7.34441">
        <ele>212.7</ele>
        <time>2020-06-28T08:56:59Z</time>
      </trkpt>
      <trkpt lat="48.79694" lon="7.34432">
        <ele>212.6</ele>
        <time>2020-06-28T08:57:01Z</time>
      </trkpt>
      <trkpt lat="48.79692" lon="7.34421">
        <ele>212</ele>
        <time>2020-06-28T08:57:03Z</time>
      </trkpt>
      <trkpt lat="48.79689" lon="7.34412">
        <ele>212.3</ele>
        <time>2020-06-28T08:57:05Z</time>
      </trkpt>
      <trkpt lat="48.79686" lon="7.34404">
        <ele>214.1</ele>
        <time>2020-06-28T08:57:07Z</time>
      </trkpt>
      <trkpt lat="48.79684" lon="7.34396">
        <ele>215</ele>
        <time>2020-06-28T08:57:09Z</time>
      </trkpt>
      <trkpt lat="48.79682" lon="7.34387">
        <ele>216.1</ele>
        <time>2020-06-28T08:57:11Z</time>
      </trkpt>
      <trkpt lat="48.79679" lon="7.34379">
        <ele>216.5</ele>
        <time>2020-06-28T08:57:13Z</time>
      </trkpt>
      <trkpt lat="48.79676" lon="7.3437">
        <ele>217</ele>
        <time>2020-06-28T08:57:15Z</time>
      </trkpt>
      <trkpt lat="48.79673" lon="7.34359">
        <ele>216.5</ele>
        <time>2020-06-28T08:57:17Z</time>
      </trkpt>
      <trkpt lat="48.79669" lon="7.3435">
        <ele>216.4</ele>
        <time>2020-06-28T08:57:19Z</time>
      </trkpt>
      <trkpt lat="48.79665" lon="7.3434">
        <ele>215.8</ele>
        <time>2020-06-28T08:57:21Z</time>
      </trkpt>
      <trkpt lat="48.79661" lon="7.3433">
        <ele>214.7</ele>
        <time>2020-06-28T08:57:23Z</time>
      </trkpt>
      <trkpt lat="48.79657" lon="7.3432">
        <ele>214.2</ele>
        <time>2020-06-28T08:57:25Z</time>
      </trkpt>
      <trkpt lat="48.79655" lon="7.34311">
        <ele>213.9</ele>
        <time>2020-06-28T08:57:27Z</time>
      </trkpt>
      <trkpt lat="48.79653" lon="7.34303">
        <ele>214.4</ele>
        <time>2020-06-28T08:57:29Z</time>
      </trkpt>
      <trkpt lat="48.79653" lon="7.34294">
        <ele>214.2</ele>
        <time>2020-06-28T08:57:31Z</time>
      </trkpt>
      <trkpt lat="48.79656" lon="7.34285">
        <ele>213.8</ele>
        <time>2020-06-28T08:57:33Z</time>
      </trkpt>
      <trkpt lat="48.79658" lon="7.34274">
        <ele>213.1</ele>
        <time>2020-06-28T08:57:35Z</time>
      </trkpt>
      <trkpt lat="48.7966" lon="7.34263">
        <ele>211.9</ele>
        <time>2020-06-28T08:57:37Z</time>
      </trkpt>
      <trkpt lat="48.79662" lon="7.34252">
        <ele>211</ele>
        <time>2020-06-28T08:57:39Z</time>
      </trkpt>
      <trkpt lat="48.79665" lon="7.3424">
        <ele>210.2</ele>
        <time>2020-06-28T08:57:41Z</time>
      </trkpt>
      <trkpt lat="48.79666" lon="7.34228">
        <ele>208.2</ele>
        <time>2020-06-28T08:57:43Z</time>
      </trkpt>
      <trkpt lat="48.79667" lon="7.34218">
        <ele>205.8</ele>
        <time>2020-06-28T08:57:45Z</time>
      </trkpt>
      <trkpt lat="48.79666" lon="7.34206">
        <ele>204.6</ele>
        <time>2020-06-28T08:57:47Z</time>
      </trkpt>
      <trkpt lat="48.79664" lon="7.34195">
        <ele>203.4</ele>
        <time>2020-06-28T08:57:49Z</time>
      </trkpt>
      <trkpt lat="48.7966" lon="7.34184">
        <ele>203.1</ele>
        <time>2020-06-28T08:57:51Z</time>
      </trkpt>
      <trkpt lat="48.79656" lon="7.34175">
        <ele>202.6</ele>
        <time>2020-06-28T08:57:53Z</time>
      </trkpt>
      <trkpt lat="48.79651" lon="7.34167">
        <ele>201.6</ele>
        <time>2020-06-28T08:57:55Z</time>
      </trkpt>
      <trkpt lat="48.79647" lon="7.34157">
        <ele>200.5</ele>
        <time>2020-06-28T08:57:57Z</time>
      </trkpt>
      <trkpt lat="48.79644" lon="7.34147">
        <ele>199.9</ele>
        <time>2020-06-28T08:57:59Z</time>
      </trkpt>
      <trkpt lat="48.79641" lon="7.34136">
        <ele>198.6</ele>
        <time>2020-06-28T08:58:01Z</time>
      </trkpt>
      <trkpt lat="48.79638" lon="7.34125">
        <ele>198.7</ele>
        <time>2020-06-28T08:58:03Z</time>
      </trkpt>
      <trkpt lat="48.79635" lon="7.34113">
        <ele>199.2</ele>
        <time>2020-06-28T08:58:05Z</time>
      </trkpt>
      <trkpt lat="48.79632" lon="7.34101">
        <ele>199.3</ele>
        <time>2020-06-28T08:58:07Z</time>
      </trkpt>
      <trkpt lat="48.7963" lon="7.34092">
        <ele>199.4</ele>
        <time>2020-06-28T08:58:09Z</time>
      </trkpt>
      <trkpt lat="48.79629" lon="7.34082">
        <ele>198.5</ele>
        <time>2020-06-28T08:58:11Z</time>
      </trkpt>
      <trkpt lat="48.79631" lon="7.3407">
        <ele>197.6</ele>
        <time>2020-06-28T08:58:13Z</time>
      </trkpt>
      <trkpt lat="48.79635" lon="7.34051">
        <ele>196.1</ele>
        <time>2020-06-28T08:58:16Z</time>
      </trkpt>
      <trkpt lat="48.79636" lon="7.34037">
        <ele>195.9</ele>
        <time>2020-06-28T08:58:18Z</time>
      </trkpt>
      <trkpt lat="48.79638" lon="7.34024">
        <ele>195.5</ele>
        <time>2020-06-28T08:58:20Z</time>
      </trkpt>
      <trkpt lat="48.79638" lon="7.34012">
        <ele>195.8</ele>
        <time>2020-06-28T08:58:22Z</time>
      </trkpt>
      <trkpt lat="48.79638" lon="7.34001">
        <ele>196.9</ele>
        <time>2020-06-28T08:58:24Z</time>
      </trkpt>
      <trkpt lat="48.79639" lon="7.33988">
        <ele>197.6</ele>
        <time>2020-06-28T08:58:26Z</time>
      </trkpt>
      <trkpt lat="48.79642" lon="7.33978">
        <ele>197.9</ele>
        <time>2020-06-28T08:58:28Z</time>
      </trkpt>
      <trkpt lat="48.79646" lon="7.33969">
        <ele>198.3</ele>
        <time>2020-06-28T08:58:30Z</time>
      </trkpt>
      <trkpt lat="48.79648" lon="7.33961">
        <ele>199.2</ele>
        <time>2020-06-28T08:58:32Z</time>
      </trkpt>
      <trkpt lat="48.79649" lon="7.33954">
        <ele>199</ele>
        <time>2020-06-28T08:58:34Z</time>
      </trkpt>
      <trkpt lat="48.79646" lon="7.33948">
        <ele>199.2</ele>
        <time>2020-06-28T08:58:36Z</time>
      </trkpt>
      <trkpt lat="48.79642" lon="7.33941">
        <ele>199.6</ele>
        <time>2020-06-28T08:58:38Z</time>
      </trkpt>
      <trkpt lat="48.79639" lon="7.33934">
        <ele>199.6</ele>
        <time>2020-06-28T08:58:40Z</time>
      </trkpt>
      <trkpt lat="48.79634" lon="7.33927">
        <ele>200.3</ele>
        <time>2020-06-28T08:58:42Z</time>
      </trkpt>
      <trkpt lat="48.7963" lon="7.33921">
        <ele>200.9</ele>
        <time>2020-06-28T08:58:44Z</time>
      </trkpt>
      <trkpt lat="48.79625" lon="7.33917">
        <ele>201.3</ele>
        <time>2020-06-28T08:58:46Z</time>
      </trkpt>
      <trkpt lat="48.79621" lon="7.33912">
        <ele>200.9</ele>
        <time>2020-06-28T08:58:48Z</time>
      </trkpt>
      <trkpt lat="48.79618" lon="7.33906">
        <ele>201</ele>
        <time>2020-06-28T08:58:50Z</time>
      </trkpt>
      <trkpt lat="48.79616" lon="7.33899">
        <ele>201</ele>
        <time>2020-06-28T08:58:52Z</time>
      </trkpt>
      <trkpt lat="48.79615" lon="7.33892">
        <ele>201.1</ele>
        <time>2020-06-28T08:58:54Z</time>
      </trkpt>
      <trkpt lat="48.79613" lon="7.33885">
        <ele>201</ele>
        <time>2020-06-28T08:58:56Z</time>
      </trkpt>
      <trkpt lat="48.7961" lon="7.33876">
        <ele>201.4</ele>
        <time>2020-06-28T08:58:59Z</time>
      </trkpt>
      <trkpt lat="48.79606" lon="7.33871">
        <ele>201.4</ele>
        <time>2020-06-28T08:59:01Z</time>
      </trkpt>
      <trkpt lat="48.79602" lon="7.33863">
        <ele>201</ele>
        <time>2020-06-28T08:59:03Z</time>
      </trkpt>
      <trkpt lat="48.79598" lon="7.33854">
        <ele>201.1</ele>
        <time>2020-06-28T08:59:05Z</time>
      </trkpt>
      <trkpt lat="48.79596" lon="7.33844">
        <ele>200.6</ele>
        <time>2020-06-28T08:59:07Z</time>
      </trkpt>
      <trkpt lat="48.79594" lon="7.33831">
        <ele>200.2</ele>
        <time>2020-06-28T08:59:09Z</time>
      </trkpt>
      <trkpt lat="48.79593" lon="7.33818">
        <ele>200.1</ele>
        <time>2020-06-28T08:59:11Z</time>
      </trkpt>
      <trkpt lat="48.79594" lon="7.33806">
        <ele>199.9</ele>
        <time>2020-06-28T08:59:13Z</time>
      </trkpt>
      <trkpt lat="48.79594" lon="7.33796">
        <ele>199.7</ele>
        <time>2020-06-28T08:59:15Z</time>
      </trkpt>
      <trkpt lat="48.79593" lon="7.33787">
        <ele>199.6</ele>
        <time>2020-06-28T08:59:17Z</time>
      </trkpt>
      <trkpt lat="48.79595" lon="7.3378">
        <ele>199.6</ele>
        <time>2020-06-28T08:59:19Z</time>
      </trkpt>
      <trkpt lat="48.79597" lon="7.33774">
        <ele>199.2</ele>
        <time>2020-06-28T08:59:21Z</time>
      </trkpt>
      <trkpt lat="48.79599" lon="7.33768">
        <ele>198.7</ele>
        <time>2020-06-28T08:59:23Z</time>
      </trkpt>
      <trkpt lat="48.79602" lon="7.33759">
        <ele>198</ele>
        <time>2020-06-28T08:59:26Z</time>
      </trkpt>
      <trkpt lat="48.79605" lon="7.3375">
        <ele>198.1</ele>
        <time>2020-06-28T08:59:29Z</time>
      </trkpt>
      <trkpt lat="48.79607" lon="7.33744">
        <ele>198.4</ele>
        <time>2020-06-28T08:59:31Z</time>
      </trkpt>
      <trkpt lat="48.79609" lon="7.33735">
        <ele>198.5</ele>
        <time>2020-06-28T08:59:34Z</time>
      </trkpt>
      <trkpt lat="48.79609" lon="7.33727">
        <ele>198</ele>
        <time>2020-06-28T08:59:36Z</time>
      </trkpt>
      <trkpt lat="48.79609" lon="7.33719">
        <ele>197.7</ele>
        <time>2020-06-28T08:59:38Z</time>
      </trkpt>
      <trkpt lat="48.79608" lon="7.33712">
        <ele>197.7</ele>
        <time>2020-06-28T08:59:40Z</time>
      </trkpt>
      <trkpt lat="48.79607" lon="7.33701">
        <ele>197.6</ele>
        <time>2020-06-28T08:59:43Z</time>
      </trkpt>
      <trkpt lat="48.79606" lon="7.33693">
        <ele>197.8</ele>
        <time>2020-06-28T08:59:46Z</time>
      </trkpt>
      <trkpt lat="48.79607" lon="7.33682">
        <ele>198.5</ele>
        <time>2020-06-28T08:59:49Z</time>
      </trkpt>
      <trkpt lat="48.79608" lon="7.33672">
        <ele>199.5</ele>
        <time>2020-06-28T08:59:52Z</time>
      </trkpt>
      <trkpt lat="48.79608" lon="7.33665">
        <ele>199.8</ele>
        <time>2020-06-28T08:59:55Z</time>
      </trkpt>
      <trkpt lat="48.79608" lon="7.33658">
        <ele>200.1</ele>
        <time>2020-06-28T08:59:58Z</time>
      </trkpt>
      <trkpt lat="48.79607" lon="7.33648">
        <ele>199.7</ele>
        <time>2020-06-28T09:00:01Z</time>
      </trkpt>
      <trkpt lat="48.79607" lon="7.3364">
        <ele>199.5</ele>
        <time>2020-06-28T09:00:04Z</time>
      </trkpt>
      <trkpt lat="48.79607" lon="7.3363">
        <ele>200.3</ele>
        <time>2020-06-28T09:00:07Z</time>
      </trkpt>
      <trkpt lat="48.79607" lon="7.33621">
        <ele>201.9</ele>
        <time>2020-06-28T09:00:10Z</time>
      </trkpt>
      <trkpt lat="48.79607" lon="7.33614">
        <ele>203.5</ele>
        <time>2020-06-28T09:00:13Z</time>
      </trkpt>
      <trkpt lat="48.79607" lon="7.33607">
        <ele>204.7</ele>
        <time>2020-06-28T09:00:16Z</time>
      </trkpt>
      <trkpt lat="48.79607" lon="7.33597">
        <ele>205.9</ele>
        <time>2020-06-28T09:00:19Z</time>
      </trkpt>
      <trkpt lat="48.79607" lon="7.33589">
        <ele>207.5</ele>
        <time>2020-06-28T09:00:22Z</time>
      </trkpt>
      <trkpt lat="48.79604" lon="7.33582">
        <ele>208.8</ele>
        <time>2020-06-28T09:00:26Z</time>
      </trkpt>
      <trkpt lat="48.79602" lon="7.33573">
        <ele>209.6</ele>
        <time>2020-06-28T09:00:29Z</time>
      </trkpt>
      <trkpt lat="48.79604" lon="7.33563">
        <ele>210.8</ele>
        <time>2020-06-28T09:00:32Z</time>
      </trkpt>
      <trkpt lat="48.79606" lon="7.33553">
        <ele>210</ele>
        <time>2020-06-28T09:00:35Z</time>
      </trkpt>
      <trkpt lat="48.79608" lon="7.33545">
        <ele>209.2</ele>
        <time>2020-06-28T09:00:38Z</time>
      </trkpt>
      <trkpt lat="48.7961" lon="7.33538">
        <ele>208.8</ele>
        <time>2020-06-28T09:00:41Z</time>
      </trkpt>
      <trkpt lat="48.79611" lon="7.33531">
        <ele>208.7</ele>
        <time>2020-06-28T09:00:44Z</time>
      </trkpt>
      <trkpt lat="48.79611" lon="7.33524">
        <ele>208.9</ele>
        <time>2020-06-28T09:00:47Z</time>
      </trkpt>
      <trkpt lat="48.79612" lon="7.33515">
        <ele>208.4</ele>
        <time>2020-06-28T09:00:51Z</time>
      </trkpt>
      <trkpt lat="48.79614" lon="7.33507">
        <ele>207.6</ele>
        <time>2020-06-28T09:00:54Z</time>
      </trkpt>
      <trkpt lat="48.79617" lon="7.33498">
        <ele>206.8</ele>
        <time>2020-06-28T09:00:57Z</time>
      </trkpt>
      <trkpt lat="48.79619" lon="7.3349">
        <ele>205.9</ele>
        <time>2020-06-28T09:01:00Z</time>
      </trkpt>
      <trkpt lat="48.79623" lon="7.33483">
        <ele>205.5</ele>
        <time>2020-06-28T09:01:03Z</time>
      </trkpt>
      <trkpt lat="48.79624" lon="7.33476">
        <ele>205.9</ele>
        <time>2020-06-28T09:01:05Z</time>
      </trkpt>
      <trkpt lat="48.79625" lon="7.33467">
        <ele>207.2</ele>
        <time>2020-06-28T09:01:07Z</time>
      </trkpt>
      <trkpt lat="48.79626" lon="7.3346">
        <ele>208.5</ele>
        <time>2020-06-28T09:01:09Z</time>
      </trkpt>
      <trkpt lat="48.79628" lon="7.33454">
        <ele>210</ele>
        <time>2020-06-28T09:01:11Z</time>
      </trkpt>
      <trkpt lat="48.7963" lon="7.33446">
        <ele>211.4</ele>
        <time>2020-06-28T09:01:13Z</time>
      </trkpt>
      <trkpt lat="48.79633" lon="7.33438">
        <ele>212.3</ele>
        <time>2020-06-28T09:01:15Z</time>
      </trkpt>
      <trkpt lat="48.79635" lon="7.33431">
        <ele>213.8</ele>
        <time>2020-06-28T09:01:17Z</time>
      </trkpt>
      <trkpt lat="48.79637" lon="7.33422">
        <ele>214.9</ele>
        <time>2020-06-28T09:01:20Z</time>
      </trkpt>
      <trkpt lat="48.79639" lon="7.33413">
        <ele>215.3</ele>
        <time>2020-06-28T09:01:23Z</time>
      </trkpt>
      <trkpt lat="48.79642" lon="7.33404">
        <ele>215.9</ele>
        <time>2020-06-28T09:01:26Z</time>
      </trkpt>
      <trkpt lat="48.79645" lon="7.33397">
        <ele>217</ele>
        <time>2020-06-28T09:01:28Z</time>
      </trkpt>
      <trkpt lat="48.79647" lon="7.33392">
        <ele>217.1</ele>
        <time>2020-06-28T09:01:30Z</time>
      </trkpt>
      <trkpt lat="48.79651" lon="7.33387">
        <ele>217</ele>
        <time>2020-06-28T09:01:32Z</time>
      </trkpt>
      <trkpt lat="48.79654" lon="7.33381">
        <ele>216.9</ele>
        <time>2020-06-28T09:01:34Z</time>
      </trkpt>
      <trkpt lat="48.79657" lon="7.33375">
        <ele>217.4</ele>
        <time>2020-06-28T09:01:36Z</time>
      </trkpt>
      <trkpt lat="48.7966" lon="7.33366">
        <ele>217.7</ele>
        <time>2020-06-28T09:01:39Z</time>
      </trkpt>
      <trkpt lat="48.79661" lon="7.3336">
        <ele>217.8</ele>
        <time>2020-06-28T09:01:41Z</time>
      </trkpt>
      <trkpt lat="48.7967" lon="7.33345">
        <ele>219.1</ele>
        <time>2020-06-28T09:01:44Z</time>
      </trkpt>
      <trkpt lat="48.79675" lon="7.33337">
        <ele>220.1</ele>
        <time>2020-06-28T09:01:46Z</time>
      </trkpt>
      <trkpt lat="48.79683" lon="7.33326">
        <ele>221.1</ele>
        <time>2020-06-28T09:01:49Z</time>
      </trkpt>
      <trkpt lat="48.79689" lon="7.33317">
        <ele>221.9</ele>
        <time>2020-06-28T09:01:51Z</time>
      </trkpt>
      <trkpt lat="48.79695" lon="7.33307">
        <ele>222.5</ele>
        <time>2020-06-28T09:01:53Z</time>
      </trkpt>
      <trkpt lat="48.79704" lon="7.33293">
        <ele>223</ele>
        <time>2020-06-28T09:01:55Z</time>
      </trkpt>
      <trkpt lat="48.79712" lon="7.33279">
        <ele>224.4</ele>
        <time>2020-06-28T09:01:57Z</time>
      </trkpt>
      <trkpt lat="48.7972" lon="7.33265">
        <ele>217.6</ele>
        <time>2020-06-28T09:01:59Z</time>
      </trkpt>
      <trkpt lat="48.79728" lon="7.33252">
        <ele>216.8</ele>
        <time>2020-06-28T09:02:01Z</time>
      </trkpt>
      <trkpt lat="48.79736" lon="7.33239">
        <ele>217</ele>
        <time>2020-06-28T09:02:03Z</time>
      </trkpt>
      <trkpt lat="48.79746" lon="7.33227">
        <ele>217</ele>
        <time>2020-06-28T09:02:05Z</time>
      </trkpt>
      <trkpt lat="48.79753" lon="7.33212">
        <ele>217.4</ele>
        <time>2020-06-28T09:02:07Z</time>
      </trkpt>
      <trkpt lat="48.7976" lon="7.33198">
        <ele>217</ele>
        <time>2020-06-28T09:02:09Z</time>
      </trkpt>
      <trkpt lat="48.79766" lon="7.33183">
        <ele>217.2</ele>
        <time>2020-06-28T09:02:11Z</time>
      </trkpt>
      <trkpt lat="48.79773" lon="7.33169">
        <ele>216.8</ele>
        <time>2020-06-28T09:02:13Z</time>
      </trkpt>
      <trkpt lat="48.79779" lon="7.33154">
        <ele>216.4</ele>
        <time>2020-06-28T09:02:15Z</time>
      </trkpt>
      <trkpt lat="48.79785" lon="7.33139">
        <ele>216</ele>
        <time>2020-06-28T09:02:17Z</time>
      </trkpt>
      <trkpt lat="48.7979" lon="7.33124">
        <ele>215.6</ele>
        <time>2020-06-28T09:02:19Z</time>
      </trkpt>
      <trkpt lat="48.79795" lon="7.33111">
        <ele>214.8</ele>
        <time>2020-06-28T09:02:21Z</time>
      </trkpt>
      <trkpt lat="48.79801" lon="7.33098">
        <ele>214.1</ele>
        <time>2020-06-28T09:02:23Z</time>
      </trkpt>
      <trkpt lat="48.79805" lon="7.33082">
        <ele>213.6</ele>
        <time>2020-06-28T09:02:25Z</time>
      </trkpt>
      <trkpt lat="48.79809" lon="7.33065">
        <ele>212.9</ele>
        <time>2020-06-28T09:02:27Z</time>
      </trkpt>
      <trkpt lat="48.79812" lon="7.33048">
        <ele>212.3</ele>
        <time>2020-06-28T09:02:29Z</time>
      </trkpt>
      <trkpt lat="48.79814" lon="7.33032">
        <ele>211.5</ele>
        <time>2020-06-28T09:02:31Z</time>
      </trkpt>
      <trkpt lat="48.79818" lon="7.33018">
        <ele>210.8</ele>
        <time>2020-06-28T09:02:33Z</time>
      </trkpt>
      <trkpt lat="48.7982" lon="7.33">
        <ele>210.1</ele>
        <time>2020-06-28T09:02:35Z</time>
      </trkpt>
      <trkpt lat="48.79824" lon="7.32982">
        <ele>208.3</ele>
        <time>2020-06-28T09:02:37Z</time>
      </trkpt>
      <trkpt lat="48.79827" lon="7.32962">
        <ele>207.1</ele>
        <time>2020-06-28T09:02:39Z</time>
      </trkpt>
      <trkpt lat="48.79829" lon="7.32944">
        <ele>206.2</ele>
        <time>2020-06-28T09:02:41Z</time>
      </trkpt>
      <trkpt lat="48.7983" lon="7.32928">
        <ele>205.7</ele>
        <time>2020-06-28T09:02:43Z</time>
      </trkpt>
      <trkpt lat="48.79831" lon="7.3291">
        <ele>205.1</ele>
        <time>2020-06-28T09:02:45Z</time>
      </trkpt>
      <trkpt lat="48.79831" lon="7.32892">
        <ele>203.3</ele>
        <time>2020-06-28T09:02:47Z</time>
      </trkpt>
      <trkpt lat="48.79832" lon="7.32874">
        <ele>202.5</ele>
        <time>2020-06-28T09:02:49Z</time>
      </trkpt>
      <trkpt lat="48.79834" lon="7.32856">
        <ele>202</ele>
        <time>2020-06-28T09:02:51Z</time>
      </trkpt>
      <trkpt lat="48.79834" lon="7.32839">
        <ele>201.5</ele>
        <time>2020-06-28T09:02:53Z</time>
      </trkpt>
      <trkpt lat="48.79835" lon="7.32822">
        <ele>200.9</ele>
        <time>2020-06-28T09:02:55Z</time>
      </trkpt>
      <trkpt lat="48.79835" lon="7.32808">
        <ele>200.7</ele>
        <time>2020-06-28T09:02:57Z</time>
      </trkpt>
      <trkpt lat="48.79836" lon="7.32791">
        <ele>200.6</ele>
        <time>2020-06-28T09:02:59Z</time>
      </trkpt>
      <trkpt lat="48.79836" lon="7.32775">
        <ele>200.2</ele>
        <time>2020-06-28T09:03:01Z</time>
      </trkpt>
      <trkpt lat="48.79836" lon="7.32759">
        <ele>200.1</ele>
        <time>2020-06-28T09:03:03Z</time>
      </trkpt>
      <trkpt lat="48.79836" lon="7.32744">
        <ele>200.5</ele>
        <time>2020-06-28T09:03:05Z</time>
      </trkpt>
      <trkpt lat="48.79834" lon="7.32728">
        <ele>200.9</ele>
        <time>2020-06-28T09:03:07Z</time>
      </trkpt>
      <trkpt lat="48.79835" lon="7.3271">
        <ele>202.3</ele>
        <time>2020-06-28T09:03:09Z</time>
      </trkpt>
      <trkpt lat="48.79836" lon="7.32694">
        <ele>202.7</ele>
        <time>2020-06-28T09:03:11Z</time>
      </trkpt>
      <trkpt lat="48.79837" lon="7.32679">
        <ele>202.5</ele>
        <time>2020-06-28T09:03:13Z</time>
      </trkpt>
      <trkpt lat="48.79837" lon="7.32663">
        <ele>202.8</ele>
        <time>2020-06-28T09:03:15Z</time>
      </trkpt>
      <trkpt lat="48.79838" lon="7.32647">
        <ele>201.1</ele>
        <time>2020-06-28T09:03:17Z</time>
      </trkpt>
      <trkpt lat="48.79838" lon="7.3263">
        <ele>200.6</ele>
        <time>2020-06-28T09:03:19Z</time>
      </trkpt>
      <trkpt lat="48.7984" lon="7.32614">
        <ele>200.3</ele>
        <time>2020-06-28T09:03:21Z</time>
      </trkpt>
      <trkpt lat="48.79843" lon="7.32596">
        <ele>200.3</ele>
        <time>2020-06-28T09:03:23Z</time>
      </trkpt>
      <trkpt lat="48.79846" lon="7.32579">
        <ele>200.5</ele>
        <time>2020-06-28T09:03:25Z</time>
      </trkpt>
      <trkpt lat="48.79848" lon="7.32562">
        <ele>200.6</ele>
        <time>2020-06-28T09:03:27Z</time>
      </trkpt>
      <trkpt lat="48.7985" lon="7.32547">
        <ele>200.9</ele>
        <time>2020-06-28T09:03:29Z</time>
      </trkpt>
      <trkpt lat="48.79853" lon="7.32529">
        <ele>200.9</ele>
        <time>2020-06-28T09:03:31Z</time>
      </trkpt>
      <trkpt lat="48.79856" lon="7.32512">
        <ele>200.9</ele>
        <time>2020-06-28T09:03:33Z</time>
      </trkpt>
      <trkpt lat="48.79858" lon="7.32496">
        <ele>200.1</ele>
        <time>2020-06-28T09:03:35Z</time>
      </trkpt>
      <trkpt lat="48.7986" lon="7.3248">
        <ele>199.8</ele>
        <time>2020-06-28T09:03:37Z</time>
      </trkpt>
      <trkpt lat="48.79863" lon="7.32455">
        <ele>199.2</ele>
        <time>2020-06-28T09:03:40Z</time>
      </trkpt>
      <trkpt lat="48.79865" lon="7.32438">
        <ele>199.2</ele>
        <time>2020-06-28T09:03:42Z</time>
      </trkpt>
      <trkpt lat="48.79865" lon="7.32421">
        <ele>199.7</ele>
        <time>2020-06-28T09:03:44Z</time>
      </trkpt>
      <trkpt lat="48.79866" lon="7.32408">
        <ele>199.9</ele>
        <time>2020-06-28T09:03:46Z</time>
      </trkpt>
      <trkpt lat="48.79867" lon="7.32394">
        <ele>199.7</ele>
        <time>2020-06-28T09:03:48Z</time>
      </trkpt>
      <trkpt lat="48.79869" lon="7.32379">
        <ele>198.9</ele>
        <time>2020-06-28T09:03:50Z</time>
      </trkpt>
      <trkpt lat="48.79871" lon="7.32364">
        <ele>198.4</ele>
        <time>2020-06-28T09:03:52Z</time>
      </trkpt>
      <trkpt lat="48.79874" lon="7.32348">
        <ele>197.6</ele>
        <time>2020-06-28T09:03:54Z</time>
      </trkpt>
      <trkpt lat="48.79878" lon="7.32332">
        <ele>196.8</ele>
        <time>2020-06-28T09:03:56Z</time>
      </trkpt>
      <trkpt lat="48.79881" lon="7.32317">
        <ele>196.4</ele>
        <time>2020-06-28T09:03:58Z</time>
      </trkpt>
      <trkpt lat="48.79883" lon="7.32301">
        <ele>196.1</ele>
        <time>2020-06-28T09:04:00Z</time>
      </trkpt>
      <trkpt lat="48.79885" lon="7.32287">
        <ele>195.7</ele>
        <time>2020-06-28T09:04:02Z</time>
      </trkpt>
      <trkpt lat="48.79887" lon="7.32274">
        <ele>196</ele>
        <time>2020-06-28T09:04:04Z</time>
      </trkpt>
      <trkpt lat="48.79889" lon="7.32261">
        <ele>196.1</ele>
        <time>2020-06-28T09:04:06Z</time>
      </trkpt>
      <trkpt lat="48.79891" lon="7.32247">
        <ele>195.9</ele>
        <time>2020-06-28T09:04:08Z</time>
      </trkpt>
      <trkpt lat="48.79892" lon="7.32234">
        <ele>195.9</ele>
        <time>2020-06-28T09:04:10Z</time>
      </trkpt>
      <trkpt lat="48.79892" lon="7.3222">
        <ele>196</ele>
        <time>2020-06-28T09:04:12Z</time>
      </trkpt>
      <trkpt lat="48.79893" lon="7.32208">
        <ele>196.1</ele>
        <time>2020-06-28T09:04:14Z</time>
      </trkpt>
      <trkpt lat="48.79893" lon="7.32197">
        <ele>196.4</ele>
        <time>2020-06-28T09:04:16Z</time>
      </trkpt>
      <trkpt lat="48.79893" lon="7.32185">
        <ele>196.3</ele>
        <time>2020-06-28T09:04:18Z</time>
      </trkpt>
      <trkpt lat="48.79893" lon="7.32173">
        <ele>196.4</ele>
        <time>2020-06-28T09:04:20Z</time>
      </trkpt>
      <trkpt lat="48.79892" lon="7.3216">
        <ele>196.4</ele>
        <time>2020-06-28T09:04:22Z</time>
      </trkpt>
      <trkpt lat="48.79889" lon="7.32148">
        <ele>196.5</ele>
        <time>2020-06-28T09:04:24Z</time>
      </trkpt>
      <trkpt lat="48.79886" lon="7.32136">
        <ele>196.6</ele>
        <time>2020-06-28T09:04:26Z</time>
      </trkpt>
      <trkpt lat="48.79885" lon="7.32123">
        <ele>196.3</ele>
        <time>2020-06-28T09:04:28Z</time>
      </trkpt>
      <trkpt lat="48.79884" lon="7.3211">
        <ele>196.1</ele>
        <time>2020-06-28T09:04:30Z</time>
      </trkpt>
      <trkpt lat="48.79884" lon="7.32097">
        <ele>195.9</ele>
        <time>2020-06-28T09:04:32Z</time>
      </trkpt>
      <trkpt lat="48.79884" lon="7.32084">
        <ele>195.7</ele>
        <time>2020-06-28T09:04:34Z</time>
      </trkpt>
      <trkpt lat="48.79885" lon="7.32071">
        <ele>195.7</ele>
        <time>2020-06-28T09:04:36Z</time>
      </trkpt>
      <trkpt lat="48.79886" lon="7.32059">
        <ele>195.9</ele>
        <time>2020-06-28T09:04:38Z</time>
      </trkpt>
      <trkpt lat="48.79886" lon="7.32048">
        <ele>196.6</ele>
        <time>2020-06-28T09:04:40Z</time>
      </trkpt>
      <trkpt lat="48.79885" lon="7.32038">
        <ele>197</ele>
        <time>2020-06-28T09:04:42Z</time>
      </trkpt>
      <trkpt lat="48.79883" lon="7.32027">
        <ele>197.5</ele>
        <time>2020-06-28T09:04:44Z</time>
      </trkpt>
      <trkpt lat="48.79881" lon="7.32015">
        <ele>198.3</ele>
        <time>2020-06-28T09:04:46Z</time>
      </trkpt>
      <trkpt lat="48.79879" lon="7.32006">
        <ele>199.8</ele>
        <time>2020-06-28T09:04:48Z</time>
      </trkpt>
      <trkpt lat="48.79876" lon="7.31997">
        <ele>200.9</ele>
        <time>2020-06-28T09:04:50Z</time>
      </trkpt>
      <trkpt lat="48.79875" lon="7.31987">
        <ele>201.8</ele>
        <time>2020-06-28T09:04:52Z</time>
      </trkpt>
      <trkpt lat="48.79875" lon="7.31976">
        <ele>202.3</ele>
        <time>2020-06-28T09:04:54Z</time>
      </trkpt>
      <trkpt lat="48.79875" lon="7.31966">
        <ele>203.3</ele>
        <time>2020-06-28T09:04:56Z</time>
      </trkpt>
      <trkpt lat="48.79874" lon="7.31955">
        <ele>203.6</ele>
        <time>2020-06-28T09:04:58Z</time>
      </trkpt>
      <trkpt lat="48.79874" lon="7.31944">
        <ele>203.6</ele>
        <time>2020-06-28T09:05:00Z</time>
      </trkpt>
      <trkpt lat="48.79873" lon="7.31931">
        <ele>203.5</ele>
        <time>2020-06-28T09:05:02Z</time>
      </trkpt>
      <trkpt lat="48.79872" lon="7.31921">
        <ele>203.8</ele>
        <time>2020-06-28T09:05:04Z</time>
      </trkpt>
      <trkpt lat="48.79872" lon="7.3191">
        <ele>203.3</ele>
        <time>2020-06-28T09:05:06Z</time>
      </trkpt>
      <trkpt lat="48.79872" lon="7.31901">
        <ele>203.9</ele>
        <time>2020-06-28T09:05:08Z</time>
      </trkpt>
      <trkpt lat="48.79872" lon="7.3189">
        <ele>203.9</ele>
        <time>2020-06-28T09:05:10Z</time>
      </trkpt>
      <trkpt lat="48.79872" lon="7.31871">
        <ele>203.8</ele>
        <time>2020-06-28T09:05:12Z</time>
      </trkpt>
      <trkpt lat="48.79871" lon="7.31856">
        <ele>203.3</ele>
        <time>2020-06-28T09:05:14Z</time>
      </trkpt>
      <trkpt lat="48.79869" lon="7.31843">
        <ele>203.1</ele>
        <time>2020-06-28T09:05:16Z</time>
      </trkpt>
      <trkpt lat="48.79868" lon="7.3183">
        <ele>203.2</ele>
        <time>2020-06-28T09:05:18Z</time>
      </trkpt>
      <trkpt lat="48.79864" lon="7.31817">
        <ele>204</ele>
        <time>2020-06-28T09:05:20Z</time>
      </trkpt>
      <trkpt lat="48.79861" lon="7.31804">
        <ele>203.9</ele>
        <time>2020-06-28T09:05:22Z</time>
      </trkpt>
      <trkpt lat="48.79858" lon="7.31791">
        <ele>203.9</ele>
        <time>2020-06-28T09:05:24Z</time>
      </trkpt>
      <trkpt lat="48.79856" lon="7.3178">
        <ele>204.3</ele>
        <time>2020-06-28T09:05:26Z</time>
      </trkpt>
      <trkpt lat="48.79853" lon="7.31767">
        <ele>204.4</ele>
        <time>2020-06-28T09:05:28Z</time>
      </trkpt>
      <trkpt lat="48.79851" lon="7.31756">
        <ele>204.1</ele>
        <time>2020-06-28T09:05:30Z</time>
      </trkpt>
      <trkpt lat="48.79849" lon="7.31743">
        <ele>204</ele>
        <time>2020-06-28T09:05:32Z</time>
      </trkpt>
      <trkpt lat="48.79847" lon="7.3173">
        <ele>203.8</ele>
        <time>2020-06-28T09:05:34Z</time>
      </trkpt>
      <trkpt lat="48.79848" lon="7.31711">
        <ele>204</ele>
        <time>2020-06-28T09:05:37Z</time>
      </trkpt>
      <trkpt lat="48.79847" lon="7.31696">
        <ele>204.6</ele>
        <time>2020-06-28T09:05:39Z</time>
      </trkpt>
      <trkpt lat="48.79845" lon="7.31683">
        <ele>205.1</ele>
        <time>2020-06-28T09:05:41Z</time>
      </trkpt>
      <trkpt lat="48.79842" lon="7.3167">
        <ele>205.7</ele>
        <time>2020-06-28T09:05:43Z</time>
      </trkpt>
      <trkpt lat="48.79841" lon="7.31655">
        <ele>203.7</ele>
        <time>2020-06-28T09:05:45Z</time>
      </trkpt>
      <trkpt lat="48.7984" lon="7.31641">
        <ele>201.6</ele>
        <time>2020-06-28T09:05:47Z</time>
      </trkpt>
      <trkpt lat="48.7984" lon="7.31629">
        <ele>200</ele>
        <time>2020-06-28T09:05:49Z</time>
      </trkpt>
      <trkpt lat="48.79838" lon="7.31616">
        <ele>199.5</ele>
        <time>2020-06-28T09:05:51Z</time>
      </trkpt>
      <trkpt lat="48.79838" lon="7.31604">
        <ele>199.5</ele>
        <time>2020-06-28T09:05:53Z</time>
      </trkpt>
      <trkpt lat="48.79837" lon="7.31592">
        <ele>199.6</ele>
        <time>2020-06-28T09:05:55Z</time>
      </trkpt>
      <trkpt lat="48.79837" lon="7.31579">
        <ele>200.4</ele>
        <time>2020-06-28T09:05:57Z</time>
      </trkpt>
      <trkpt lat="48.79837" lon="7.31567">
        <ele>201.2</ele>
        <time>2020-06-28T09:05:59Z</time>
      </trkpt>
      <trkpt lat="48.79836" lon="7.3155">
        <ele>201.1</ele>
        <time>2020-06-28T09:06:01Z</time>
      </trkpt>
      <trkpt lat="48.79836" lon="7.31533">
        <ele>200.4</ele>
        <time>2020-06-28T09:06:03Z</time>
      </trkpt>
      <trkpt lat="48.79835" lon="7.31512">
        <ele>199.9</ele>
        <time>2020-06-28T09:06:06Z</time>
      </trkpt>
      <trkpt lat="48.79833" lon="7.31499">
        <ele>200.2</ele>
        <time>2020-06-28T09:06:08Z</time>
      </trkpt>
      <trkpt lat="48.79832" lon="7.31484">
        <ele>200.7</ele>
        <time>2020-06-28T09:06:10Z</time>
      </trkpt>
      <trkpt lat="48.79829" lon="7.31469">
        <ele>200.9</ele>
        <time>2020-06-28T09:06:12Z</time>
      </trkpt>
      <trkpt lat="48.79828" lon="7.31457">
        <ele>201.1</ele>
        <time>2020-06-28T09:06:14Z</time>
      </trkpt>
      <trkpt lat="48.79826" lon="7.31443">
        <ele>201</ele>
        <time>2020-06-28T09:06:16Z</time>
      </trkpt>
      <trkpt lat="48.79824" lon="7.31428">
        <ele>200.2</ele>
        <time>2020-06-28T09:06:18Z</time>
      </trkpt>
      <trkpt lat="48.79821" lon="7.31409">
        <ele>199.1</ele>
        <time>2020-06-28T09:06:21Z</time>
      </trkpt>
      <trkpt lat="48.79821" lon="7.31395">
        <ele>197.6</ele>
        <time>2020-06-28T09:06:23Z</time>
      </trkpt>
      <trkpt lat="48.7982" lon="7.31381">
        <ele>196.3</ele>
        <time>2020-06-28T09:06:25Z</time>
      </trkpt>
      <trkpt lat="48.79818" lon="7.3136">
        <ele>195.1</ele>
        <time>2020-06-28T09:06:28Z</time>
      </trkpt>
      <trkpt lat="48.79815" lon="7.31342">
        <ele>194.4</ele>
        <time>2020-06-28T09:06:31Z</time>
      </trkpt>
      <trkpt lat="48.79813" lon="7.31324">
        <ele>193.5</ele>
        <time>2020-06-28T09:06:34Z</time>
      </trkpt>
      <trkpt lat="48.79813" lon="7.31314">
        <ele>192.9</ele>
        <time>2020-06-28T09:06:36Z</time>
      </trkpt>
      <trkpt lat="48.79811" lon="7.313">
        <ele>193.6</ele>
        <time>2020-06-28T09:06:38Z</time>
      </trkpt>
      <trkpt lat="48.79809" lon="7.31287">
        <ele>194.2</ele>
        <time>2020-06-28T09:06:40Z</time>
      </trkpt>
      <trkpt lat="48.79807" lon="7.31271">
        <ele>194.6</ele>
        <time>2020-06-28T09:06:42Z</time>
      </trkpt>
      <trkpt lat="48.79806" lon="7.31256">
        <ele>195.1</ele>
        <time>2020-06-28T09:06:44Z</time>
      </trkpt>
      <trkpt lat="48.79806" lon="7.31239">
        <ele>195.2</ele>
        <time>2020-06-28T09:06:46Z</time>
      </trkpt>
      <trkpt lat="48.79807" lon="7.31221">
        <ele>195.2</ele>
        <time>2020-06-28T09:06:48Z</time>
      </trkpt>
      <trkpt lat="48.7981" lon="7.31205">
        <ele>195.1</ele>
        <time>2020-06-28T09:06:50Z</time>
      </trkpt>
      <trkpt lat="48.79814" lon="7.3119">
        <ele>195</ele>
        <time>2020-06-28T09:06:52Z</time>
      </trkpt>
      <trkpt lat="48.79819" lon="7.31176">
        <ele>195.1</ele>
        <time>2020-06-28T09:06:54Z</time>
      </trkpt>
      <trkpt lat="48.79825" lon="7.31164">
        <ele>194.8</ele>
        <time>2020-06-28T09:06:56Z</time>
      </trkpt>
      <trkpt lat="48.79832" lon="7.31153">
        <ele>194.3</ele>
        <time>2020-06-28T09:06:58Z</time>
      </trkpt>
      <trkpt lat="48.79839" lon="7.31144">
        <ele>194</ele>
        <time>2020-06-28T09:07:00Z</time>
      </trkpt>
      <trkpt lat="48.79847" lon="7.31136">
        <ele>193.7</ele>
        <time>2020-06-28T09:07:02Z</time>
      </trkpt>
      <trkpt lat="48.79855" lon="7.31128">
        <ele>193.1</ele>
        <time>2020-06-28T09:07:04Z</time>
      </trkpt>
      <trkpt lat="48.79862" lon="7.3112">
        <ele>192</ele>
        <time>2020-06-28T09:07:06Z</time>
      </trkpt>
      <trkpt lat="48.79865" lon="7.31111">
        <ele>191.5</ele>
        <time>2020-06-28T09:07:08Z</time>
      </trkpt>
      <trkpt lat="48.79863" lon="7.31105">
        <ele>190.8</ele>
        <time>2020-06-28T09:07:10Z</time>
      </trkpt>
      <trkpt lat="48.79858" lon="7.311">
        <ele>190.2</ele>
        <time>2020-06-28T09:07:12Z</time>
      </trkpt>
      <trkpt lat="48.79852" lon="7.31095">
        <ele>190.3</ele>
        <time>2020-06-28T09:07:14Z</time>
      </trkpt>
      <trkpt lat="48.79846" lon="7.31089">
        <ele>190.4</ele>
        <time>2020-06-28T09:07:16Z</time>
      </trkpt>
      <trkpt lat="48.7984" lon="7.31082">
        <ele>190.4</ele>
        <time>2020-06-28T09:07:18Z</time>
      </trkpt>
      <trkpt lat="48.79835" lon="7.31075">
        <ele>190.8</ele>
        <time>2020-06-28T09:07:20Z</time>
      </trkpt>
      <trkpt lat="48.7983" lon="7.31067">
        <ele>190.7</ele>
        <time>2020-06-28T09:07:22Z</time>
      </trkpt>
      <trkpt lat="48.79825" lon="7.31057">
        <ele>190.9</ele>
        <time>2020-06-28T09:07:24Z</time>
      </trkpt>
      <trkpt lat="48.79821" lon="7.31048">
        <ele>191.2</ele>
        <time>2020-06-28T09:07:26Z</time>
      </trkpt>
      <trkpt lat="48.79817" lon="7.31037">
        <ele>191.4</ele>
        <time>2020-06-28T09:07:28Z</time>
      </trkpt>
      <trkpt lat="48.79814" lon="7.31026">
        <ele>191.5</ele>
        <time>2020-06-28T09:07:30Z</time>
      </trkpt>
      <trkpt lat="48.79811" lon="7.31014">
        <ele>191.6</ele>
        <time>2020-06-28T09:07:32Z</time>
      </trkpt>
      <trkpt lat="48.79809" lon="7.31001">
        <ele>191.7</ele>
        <time>2020-06-28T09:07:34Z</time>
      </trkpt>
      <trkpt lat="48.79808" lon="7.30988">
        <ele>191.8</ele>
        <time>2020-06-28T09:07:36Z</time>
      </trkpt>
      <trkpt lat="48.79806" lon="7.30975">
        <ele>191.9</ele>
        <time>2020-06-28T09:07:38Z</time>
      </trkpt>
      <trkpt lat="48.79804" lon="7.30962">
        <ele>191.9</ele>
        <time>2020-06-28T09:07:40Z</time>
      </trkpt>
      <trkpt lat="48.79804" lon="7.30949">
        <ele>192</ele>
        <time>2020-06-28T09:07:42Z</time>
      </trkpt>
      <trkpt lat="48.79803" lon="7.30935">
        <ele>191.8</ele>
        <time>2020-06-28T09:07:44Z</time>
      </trkpt>
      <trkpt lat="48.79802" lon="7.30922">
        <ele>192</ele>
        <time>2020-06-28T09:07:46Z</time>
      </trkpt>
      <trkpt lat="48.79802" lon="7.30909">
        <ele>192</ele>
        <time>2020-06-28T09:07:48Z</time>
      </trkpt>
      <trkpt lat="48.79803" lon="7.30896">
        <ele>192.1</ele>
        <time>2020-06-28T09:07:50Z</time>
      </trkpt>
      <trkpt lat="48.79804" lon="7.30881">
        <ele>192.1</ele>
        <time>2020-06-28T09:07:52Z</time>
      </trkpt>
      <trkpt lat="48.79804" lon="7.30866">
        <ele>192.1</ele>
        <time>2020-06-28T09:07:54Z</time>
      </trkpt>
      <trkpt lat="48.79804" lon="7.30851">
        <ele>192.1</ele>
        <time>2020-06-28T09:07:56Z</time>
      </trkpt>
      <trkpt lat="48.79804" lon="7.30837">
        <ele>192.1</ele>
        <time>2020-06-28T09:07:58Z</time>
      </trkpt>
      <trkpt lat="48.79804" lon="7.30824">
        <ele>191.9</ele>
        <time>2020-06-28T09:08:00Z</time>
      </trkpt>
      <trkpt lat="48.79804" lon="7.30815">
        <ele>192.4</ele>
        <time>2020-06-28T09:08:02Z</time>
      </trkpt>
      <trkpt lat="48.79804" lon="7.30807">
        <ele>192.9</ele>
        <time>2020-06-28T09:08:04Z</time>
      </trkpt>
      <trkpt lat="48.79803" lon="7.30799">
        <ele>193.3</ele>
        <time>2020-06-28T09:08:06Z</time>
      </trkpt>
      <trkpt lat="48.79802" lon="7.30791">
        <ele>193.3</ele>
        <time>2020-06-28T09:08:08Z</time>
      </trkpt>
      <trkpt lat="48.79801" lon="7.30782">
        <ele>193.3</ele>
        <time>2020-06-28T09:08:10Z</time>
      </trkpt>
      <trkpt lat="48.798" lon="7.30774">
        <ele>193.3</ele>
        <time>2020-06-28T09:08:12Z</time>
      </trkpt>
      <trkpt lat="48.798" lon="7.30765">
        <ele>193.7</ele>
        <time>2020-06-28T09:08:14Z</time>
      </trkpt>
      <trkpt lat="48.79799" lon="7.30757">
        <ele>193.9</ele>
        <time>2020-06-28T09:08:16Z</time>
      </trkpt>
      <trkpt lat="48.79799" lon="7.30747">
        <ele>194.2</ele>
        <time>2020-06-28T09:08:18Z</time>
      </trkpt>
      <trkpt lat="48.79797" lon="7.30735">
        <ele>195</ele>
        <time>2020-06-28T09:08:21Z</time>
      </trkpt>
      <trkpt lat="48.79797" lon="7.30724">
        <ele>195.8</ele>
        <time>2020-06-28T09:08:24Z</time>
      </trkpt>
      <trkpt lat="48.79796" lon="7.30714">
        <ele>197.3</ele>
        <time>2020-06-28T09:08:27Z</time>
      </trkpt>
      <trkpt lat="48.79793" lon="7.30704">
        <ele>199</ele>
        <time>2020-06-28T09:08:30Z</time>
      </trkpt>
      <trkpt lat="48.79792" lon="7.30694">
        <ele>200</ele>
        <time>2020-06-28T09:08:32Z</time>
      </trkpt>
      <trkpt lat="48.79792" lon="7.30685">
        <ele>198.3</ele>
        <time>2020-06-28T09:08:34Z</time>
      </trkpt>
      <trkpt lat="48.79791" lon="7.30676">
        <ele>199.2</ele>
        <time>2020-06-28T09:08:36Z</time>
      </trkpt>
      <trkpt lat="48.79791" lon="7.30666">
        <ele>200</ele>
        <time>2020-06-28T09:08:38Z</time>
      </trkpt>
      <trkpt lat="48.7979" lon="7.30655">
        <ele>201.7</ele>
        <time>2020-06-28T09:08:40Z</time>
      </trkpt>
      <trkpt lat="48.79788" lon="7.30646">
        <ele>204</ele>
        <time>2020-06-28T09:08:42Z</time>
      </trkpt>
      <trkpt lat="48.79786" lon="7.30635">
        <ele>205.6</ele>
        <time>2020-06-28T09:08:44Z</time>
      </trkpt>
      <trkpt lat="48.79784" lon="7.30624">
        <ele>207.1</ele>
        <time>2020-06-28T09:08:46Z</time>
      </trkpt>
      <trkpt lat="48.79783" lon="7.30613">
        <ele>208.4</ele>
        <time>2020-06-28T09:08:48Z</time>
      </trkpt>
      <trkpt lat="48.79784" lon="7.30603">
        <ele>209.6</ele>
        <time>2020-06-28T09:08:50Z</time>
      </trkpt>
      <trkpt lat="48.79783" lon="7.30594">
        <ele>210.6</ele>
        <time>2020-06-28T09:08:52Z</time>
      </trkpt>
      <trkpt lat="48.79782" lon="7.30583">
        <ele>211.4</ele>
        <time>2020-06-28T09:08:54Z</time>
      </trkpt>
      <trkpt lat="48.7978" lon="7.30574">
        <ele>211.8</ele>
        <time>2020-06-28T09:08:56Z</time>
      </trkpt>
      <trkpt lat="48.79778" lon="7.30563">
        <ele>212.3</ele>
        <time>2020-06-28T09:08:58Z</time>
      </trkpt>
      <trkpt lat="48.79777" lon="7.30553">
        <ele>212</ele>
        <time>2020-06-28T09:09:00Z</time>
      </trkpt>
      <trkpt lat="48.79778" lon="7.30543">
        <ele>212.7</ele>
        <time>2020-06-28T09:09:02Z</time>
      </trkpt>
      <trkpt lat="48.79779" lon="7.30532">
        <ele>213</ele>
        <time>2020-06-28T09:09:04Z</time>
      </trkpt>
      <trkpt lat="48.79779" lon="7.30519">
        <ele>212.7</ele>
        <time>2020-06-28T09:09:06Z</time>
      </trkpt>
      <trkpt lat="48.79778" lon="7.30507">
        <ele>212</ele>
        <time>2020-06-28T09:09:08Z</time>
      </trkpt>
      <trkpt lat="48.79777" lon="7.30495">
        <ele>212</ele>
        <time>2020-06-28T09:09:10Z</time>
      </trkpt>
      <trkpt lat="48.79776" lon="7.30482">
        <ele>211.2</ele>
        <time>2020-06-28T09:09:12Z</time>
      </trkpt>
      <trkpt lat="48.79777" lon="7.30462">
        <ele>211.5</ele>
        <time>2020-06-28T09:09:14Z</time>
      </trkpt>
      <trkpt lat="48.79777" lon="7.30447">
        <ele>211.4</ele>
        <time>2020-06-28T09:09:16Z</time>
      </trkpt>
      <trkpt lat="48.79777" lon="7.30436">
        <ele>211.7</ele>
        <time>2020-06-28T09:09:18Z</time>
      </trkpt>
      <trkpt lat="48.79776" lon="7.30427">
        <ele>212.4</ele>
        <time>2020-06-28T09:09:20Z</time>
      </trkpt>
      <trkpt lat="48.79775" lon="7.30418">
        <ele>212.8</ele>
        <time>2020-06-28T09:09:22Z</time>
      </trkpt>
      <trkpt lat="48.79774" lon="7.3041">
        <ele>212.8</ele>
        <time>2020-06-28T09:09:24Z</time>
      </trkpt>
      <trkpt lat="48.79775" lon="7.30402">
        <ele>213.5</ele>
        <time>2020-06-28T09:09:26Z</time>
      </trkpt>
      <trkpt lat="48.79776" lon="7.30392">
        <ele>213.7</ele>
        <time>2020-06-28T09:09:28Z</time>
      </trkpt>
      <trkpt lat="48.79777" lon="7.30381">
        <ele>214.4</ele>
        <time>2020-06-28T09:09:30Z</time>
      </trkpt>
      <trkpt lat="48.7978" lon="7.30371">
        <ele>214.1</ele>
        <time>2020-06-28T09:09:32Z</time>
      </trkpt>
      <trkpt lat="48.79781" lon="7.30361">
        <ele>213</ele>
        <time>2020-06-28T09:09:34Z</time>
      </trkpt>
      <trkpt lat="48.79783" lon="7.30349">
        <ele>212.5</ele>
        <time>2020-06-28T09:09:36Z</time>
      </trkpt>
      <trkpt lat="48.79785" lon="7.30338">
        <ele>211.7</ele>
        <time>2020-06-28T09:09:38Z</time>
      </trkpt>
      <trkpt lat="48.79788" lon="7.30326">
        <ele>211.5</ele>
        <time>2020-06-28T09:09:40Z</time>
      </trkpt>
      <trkpt lat="48.79792" lon="7.30315">
        <ele>210.9</ele>
        <time>2020-06-28T09:09:42Z</time>
      </trkpt>
      <trkpt lat="48.79795" lon="7.30304">
        <ele>210.4</ele>
        <time>2020-06-28T09:09:44Z</time>
      </trkpt>
      <trkpt lat="48.79798" lon="7.30291">
        <ele>209.6</ele>
        <time>2020-06-28T09:09:46Z</time>
      </trkpt>
      <trkpt lat="48.79801" lon="7.30277">
        <ele>209.3</ele>
        <time>2020-06-28T09:09:48Z</time>
      </trkpt>
      <trkpt lat="48.79802" lon="7.30265">
        <ele>210</ele>
        <time>2020-06-28T09:09:50Z</time>
      </trkpt>
      <trkpt lat="48.79802" lon="7.30255">
        <ele>209.9</ele>
        <time>2020-06-28T09:09:52Z</time>
      </trkpt>
      <trkpt lat="48.79801" lon="7.30244">
        <ele>209.7</ele>
        <time>2020-06-28T09:09:54Z</time>
      </trkpt>
      <trkpt lat="48.79794" lon="7.30227">
        <ele>209.7</ele>
        <time>2020-06-28T09:09:57Z</time>
      </trkpt>
      <trkpt lat="48.79788" lon="7.30214">
        <ele>210</ele>
        <time>2020-06-28T09:10:00Z</time>
      </trkpt>
      <trkpt lat="48.79785" lon="7.30203">
        <ele>209.9</ele>
        <time>2020-06-28T09:10:02Z</time>
      </trkpt>
      <trkpt lat="48.7978" lon="7.3019">
        <ele>210.5</ele>
        <time>2020-06-28T09:10:05Z</time>
      </trkpt>
      <trkpt lat="48.79777" lon="7.30179">
        <ele>210.9</ele>
        <time>2020-06-28T09:10:07Z</time>
      </trkpt>
      <trkpt lat="48.79774" lon="7.30167">
        <ele>210.5</ele>
        <time>2020-06-28T09:10:09Z</time>
      </trkpt>
      <trkpt lat="48.79772" lon="7.30154">
        <ele>210.6</ele>
        <time>2020-06-28T09:10:11Z</time>
      </trkpt>
      <trkpt lat="48.79769" lon="7.30136">
        <ele>210.3</ele>
        <time>2020-06-28T09:10:14Z</time>
      </trkpt>
      <trkpt lat="48.79767" lon="7.30121">
        <ele>210</ele>
        <time>2020-06-28T09:10:16Z</time>
      </trkpt>
      <trkpt lat="48.79764" lon="7.30108">
        <ele>209.6</ele>
        <time>2020-06-28T09:10:18Z</time>
      </trkpt>
      <trkpt lat="48.79761" lon="7.30095">
        <ele>209.3</ele>
        <time>2020-06-28T09:10:20Z</time>
      </trkpt>
      <trkpt lat="48.79756" lon="7.30083">
        <ele>209</ele>
        <time>2020-06-28T09:10:22Z</time>
      </trkpt>
      <trkpt lat="48.79752" lon="7.30072">
        <ele>208.9</ele>
        <time>2020-06-28T09:10:24Z</time>
      </trkpt>
      <trkpt lat="48.79748" lon="7.30062">
        <ele>208.8</ele>
        <time>2020-06-28T09:10:26Z</time>
      </trkpt>
      <trkpt lat="48.79744" lon="7.30054">
        <ele>210.1</ele>
        <time>2020-06-28T09:10:28Z</time>
      </trkpt>
      <trkpt lat="48.79738" lon="7.30046">
        <ele>211</ele>
        <time>2020-06-28T09:10:30Z</time>
      </trkpt>
      <trkpt lat="48.79732" lon="7.3004">
        <ele>212.7</ele>
        <time>2020-06-28T09:10:32Z</time>
      </trkpt>
      <trkpt lat="48.79727" lon="7.30035">
        <ele>214.4</ele>
        <time>2020-06-28T09:10:34Z</time>
      </trkpt>
      <trkpt lat="48.79723" lon="7.30027">
        <ele>215.1</ele>
        <time>2020-06-28T09:10:36Z</time>
      </trkpt>
      <trkpt lat="48.79718" lon="7.30019">
        <ele>216.3</ele>
        <time>2020-06-28T09:10:38Z</time>
      </trkpt>
      <trkpt lat="48.79714" lon="7.30011">
        <ele>217.6</ele>
        <time>2020-06-28T09:10:40Z</time>
      </trkpt>
      <trkpt lat="48.79711" lon="7.30003">
        <ele>218.7</ele>
        <time>2020-06-28T09:10:42Z</time>
      </trkpt>
      <trkpt lat="48.79708" lon="7.29994">
        <ele>219.3</ele>
        <time>2020-06-28T09:10:44Z</time>
      </trkpt>
      <trkpt lat="48.79705" lon="7.29983">
        <ele>219.4</ele>
        <time>2020-06-28T09:10:46Z</time>
      </trkpt>
      <trkpt lat="48.79702" lon="7.29973">
        <ele>219.6</ele>
        <time>2020-06-28T09:10:48Z</time>
      </trkpt>
      <trkpt lat="48.79697" lon="7.29963">
        <ele>219.5</ele>
        <time>2020-06-28T09:10:50Z</time>
      </trkpt>
      <trkpt lat="48.79694" lon="7.29953">
        <ele>218.9</ele>
        <time>2020-06-28T09:10:52Z</time>
      </trkpt>
      <trkpt lat="48.79691" lon="7.29942">
        <ele>217.7</ele>
        <time>2020-06-28T09:10:54Z</time>
      </trkpt>
      <trkpt lat="48.79687" lon="7.29929">
        <ele>217.1</ele>
        <time>2020-06-28T09:10:56Z</time>
      </trkpt>
      <trkpt lat="48.7968" lon="7.29912">
        <ele>216.2</ele>
        <time>2020-06-28T09:10:59Z</time>
      </trkpt>
      <trkpt lat="48.79677" lon="7.29904">
        <ele>215.6</ele>
        <time>2020-06-28T09:11:01Z</time>
      </trkpt>
      <trkpt lat="48.79672" lon="7.29893">
        <ele>215.1</ele>
        <time>2020-06-28T09:11:04Z</time>
      </trkpt>
      <trkpt lat="48.79667" lon="7.29886">
        <ele>215.1</ele>
        <time>2020-06-28T09:11:06Z</time>
      </trkpt>
      <trkpt lat="48.79661" lon="7.29876">
        <ele>215.6</ele>
        <time>2020-06-28T09:11:09Z</time>
      </trkpt>
      <trkpt lat="48.79657" lon="7.29868">
        <ele>216.2</ele>
        <time>2020-06-28T09:11:11Z</time>
      </trkpt>
      <trkpt lat="48.79652" lon="7.2986">
        <ele>216.8</ele>
        <time>2020-06-28T09:11:13Z</time>
      </trkpt>
      <trkpt lat="48.79647" lon="7.29853">
        <ele>217.8</ele>
        <time>2020-06-28T09:11:15Z</time>
      </trkpt>
      <trkpt lat="48.79643" lon="7.29846">
        <ele>218.7</ele>
        <time>2020-06-28T09:11:17Z</time>
      </trkpt>
      <trkpt lat="48.7964" lon="7.29838">
        <ele>219.7</ele>
        <time>2020-06-28T09:11:19Z</time>
      </trkpt>
      <trkpt lat="48.79636" lon="7.2983">
        <ele>220.2</ele>
        <time>2020-06-28T09:11:21Z</time>
      </trkpt>
      <trkpt lat="48.79633" lon="7.29823">
        <ele>220.6</ele>
        <time>2020-06-28T09:11:23Z</time>
      </trkpt>
      <trkpt lat="48.7963" lon="7.29816">
        <ele>220.5</ele>
        <time>2020-06-28T09:11:25Z</time>
      </trkpt>
      <trkpt lat="48.79626" lon="7.29809">
        <ele>220.8</ele>
        <time>2020-06-28T09:11:27Z</time>
      </trkpt>
      <trkpt lat="48.79622" lon="7.29802">
        <ele>220.5</ele>
        <time>2020-06-28T09:11:29Z</time>
      </trkpt>
      <trkpt lat="48.79618" lon="7.29794">
        <ele>220.5</ele>
        <time>2020-06-28T09:11:31Z</time>
      </trkpt>
      <trkpt lat="48.79614" lon="7.29788">
        <ele>220.4</ele>
        <time>2020-06-28T09:11:33Z</time>
      </trkpt>
      <trkpt lat="48.7961" lon="7.29781">
        <ele>220.4</ele>
        <time>2020-06-28T09:11:35Z</time>
      </trkpt>
      <trkpt lat="48.79606" lon="7.29774">
        <ele>220.5</ele>
        <time>2020-06-28T09:11:37Z</time>
      </trkpt>
      <trkpt lat="48.79603" lon="7.29766">
        <ele>220.9</ele>
        <time>2020-06-28T09:11:39Z</time>
      </trkpt>
      <trkpt lat="48.79598" lon="7.29759">
        <ele>221.6</ele>
        <time>2020-06-28T09:11:41Z</time>
      </trkpt>
      <trkpt lat="48.79593" lon="7.29752">
        <ele>222.1</ele>
        <time>2020-06-28T09:11:43Z</time>
      </trkpt>
      <trkpt lat="48.79589" lon="7.29745">
        <ele>222.8</ele>
        <time>2020-06-28T09:11:45Z</time>
      </trkpt>
      <trkpt lat="48.79586" lon="7.29736">
        <ele>222.9</ele>
        <time>2020-06-28T09:11:47Z</time>
      </trkpt>
      <trkpt lat="48.79583" lon="7.29728">
        <ele>223.3</ele>
        <time>2020-06-28T09:11:49Z</time>
      </trkpt>
      <trkpt lat="48.79579" lon="7.29718">
        <ele>224.1</ele>
        <time>2020-06-28T09:11:51Z</time>
      </trkpt>
      <trkpt lat="48.79575" lon="7.2971">
        <ele>224.6</ele>
        <time>2020-06-28T09:11:53Z</time>
      </trkpt>
      <trkpt lat="48.7957" lon="7.29701">
        <ele>225</ele>
        <time>2020-06-28T09:11:55Z</time>
      </trkpt>
      <trkpt lat="48.79566" lon="7.29692">
        <ele>225.7</ele>
        <time>2020-06-28T09:11:57Z</time>
      </trkpt>
      <trkpt lat="48.7956" lon="7.29683">
        <ele>226.1</ele>
        <time>2020-06-28T09:11:59Z</time>
      </trkpt>
      <trkpt lat="48.79554" lon="7.29676">
        <ele>226.4</ele>
        <time>2020-06-28T09:12:01Z</time>
      </trkpt>
      <trkpt lat="48.79548" lon="7.29669">
        <ele>226.5</ele>
        <time>2020-06-28T09:12:03Z</time>
      </trkpt>
      <trkpt lat="48.79543" lon="7.29662">
        <ele>226.6</ele>
        <time>2020-06-28T09:12:05Z</time>
      </trkpt>
      <trkpt lat="48.79537" lon="7.29654">
        <ele>226.2</ele>
        <time>2020-06-28T09:12:07Z</time>
      </trkpt>
      <trkpt lat="48.79532" lon="7.29646">
        <ele>226.2</ele>
        <time>2020-06-28T09:12:09Z</time>
      </trkpt>
      <trkpt lat="48.79526" lon="7.29636">
        <ele>226.2</ele>
        <time>2020-06-28T09:12:11Z</time>
      </trkpt>
      <trkpt lat="48.7952" lon="7.29626">
        <ele>226.3</ele>
        <time>2020-06-28T09:12:13Z</time>
      </trkpt>
      <trkpt lat="48.79514" lon="7.29615">
        <ele>226.7</ele>
        <time>2020-06-28T09:12:15Z</time>
      </trkpt>
      <trkpt lat="48.79508" lon="7.29604">
        <ele>226.7</ele>
        <time>2020-06-28T09:12:17Z</time>
      </trkpt>
      <trkpt lat="48.79503" lon="7.29593">
        <ele>226.9</ele>
        <time>2020-06-28T09:12:19Z</time>
      </trkpt>
      <trkpt lat="48.79498" lon="7.29583">
        <ele>227.1</ele>
        <time>2020-06-28T09:12:21Z</time>
      </trkpt>
      <trkpt lat="48.79492" lon="7.29574">
        <ele>227.6</ele>
        <time>2020-06-28T09:12:23Z</time>
      </trkpt>
      <trkpt lat="48.79487" lon="7.29563">
        <ele>228.5</ele>
        <time>2020-06-28T09:12:25Z</time>
      </trkpt>
      <trkpt lat="48.79481" lon="7.29552">
        <ele>229.4</ele>
        <time>2020-06-28T09:12:27Z</time>
      </trkpt>
      <trkpt lat="48.79474" lon="7.29542">
        <ele>229.9</ele>
        <time>2020-06-28T09:12:29Z</time>
      </trkpt>
      <trkpt lat="48.79466" lon="7.29533">
        <ele>230.6</ele>
        <time>2020-06-28T09:12:31Z</time>
      </trkpt>
      <trkpt lat="48.79459" lon="7.29522">
        <ele>231.1</ele>
        <time>2020-06-28T09:12:33Z</time>
      </trkpt>
      <trkpt lat="48.79453" lon="7.2951">
        <ele>231.2</ele>
        <time>2020-06-28T09:12:35Z</time>
      </trkpt>
      <trkpt lat="48.79448" lon="7.29499">
        <ele>230.7</ele>
        <time>2020-06-28T09:12:37Z</time>
      </trkpt>
      <trkpt lat="48.79443" lon="7.29487">
        <ele>230.6</ele>
        <time>2020-06-28T09:12:39Z</time>
      </trkpt>
      <trkpt lat="48.79439" lon="7.29474">
        <ele>230.3</ele>
        <time>2020-06-28T09:12:41Z</time>
      </trkpt>
      <trkpt lat="48.79433" lon="7.29456">
        <ele>230.4</ele>
        <time>2020-06-28T09:12:44Z</time>
      </trkpt>
      <trkpt lat="48.79428" lon="7.29444">
        <ele>230.2</ele>
        <time>2020-06-28T09:12:46Z</time>
      </trkpt>
      <trkpt lat="48.7942" lon="7.29427">
        <ele>230.4</ele>
        <time>2020-06-28T09:12:49Z</time>
      </trkpt>
      <trkpt lat="48.79415" lon="7.29415">
        <ele>230.6</ele>
        <time>2020-06-28T09:12:51Z</time>
      </trkpt>
      <trkpt lat="48.79411" lon="7.29404">
        <ele>229.5</ele>
        <time>2020-06-28T09:12:53Z</time>
      </trkpt>
      <trkpt lat="48.79408" lon="7.29393">
        <ele>228.8</ele>
        <time>2020-06-28T09:12:55Z</time>
      </trkpt>
      <trkpt lat="48.79405" lon="7.29382">
        <ele>227.4</ele>
        <time>2020-06-28T09:12:57Z</time>
      </trkpt>
      <trkpt lat="48.79403" lon="7.2937">
        <ele>225.9</ele>
        <time>2020-06-28T09:12:59Z</time>
      </trkpt>
      <trkpt lat="48.794" lon="7.29357">
        <ele>224.8</ele>
        <time>2020-06-28T09:13:01Z</time>
      </trkpt>
      <trkpt lat="48.79397" lon="7.29345">
        <ele>224.2</ele>
        <time>2020-06-28T09:13:03Z</time>
      </trkpt>
      <trkpt lat="48.79395" lon="7.29326">
        <ele>223.8</ele>
        <time>2020-06-28T09:13:06Z</time>
      </trkpt>
      <trkpt lat="48.79393" lon="7.29309">
        <ele>224</ele>
        <time>2020-06-28T09:13:09Z</time>
      </trkpt>
      <trkpt lat="48.79393" lon="7.29296">
        <ele>223.9</ele>
        <time>2020-06-28T09:13:12Z</time>
      </trkpt>
      <trkpt lat="48.79393" lon="7.29283">
        <ele>224.7</ele>
        <time>2020-06-28T09:13:14Z</time>
      </trkpt>
      <trkpt lat="48.79393" lon="7.29262">
        <ele>225.1</ele>
        <time>2020-06-28T09:13:17Z</time>
      </trkpt>
      <trkpt lat="48.79395" lon="7.29248">
        <ele>225.5</ele>
        <time>2020-06-28T09:13:19Z</time>
      </trkpt>
      <trkpt lat="48.79395" lon="7.2923">
        <ele>225.5</ele>
        <time>2020-06-28T09:13:21Z</time>
      </trkpt>
      <trkpt lat="48.79395" lon="7.2921">
        <ele>224.7</ele>
        <time>2020-06-28T09:13:23Z</time>
      </trkpt>
      <trkpt lat="48.79392" lon="7.29189">
        <ele>223.8</ele>
        <time>2020-06-28T09:13:25Z</time>
      </trkpt>
      <trkpt lat="48.79389" lon="7.29168">
        <ele>222.8</ele>
        <time>2020-06-28T09:13:27Z</time>
      </trkpt>
      <trkpt lat="48.79384" lon="7.29149">
        <ele>222.1</ele>
        <time>2020-06-28T09:13:29Z</time>
      </trkpt>
      <trkpt lat="48.7938" lon="7.2913">
        <ele>219.8</ele>
        <time>2020-06-28T09:13:32Z</time>
      </trkpt>
      <trkpt lat="48.79379" lon="7.29122">
        <ele>218.7</ele>
        <time>2020-06-28T09:13:34Z</time>
      </trkpt>
      <trkpt lat="48.79376" lon="7.29117">
        <ele>219.3</ele>
        <time>2020-06-28T09:13:39Z</time>
      </trkpt>
      <trkpt lat="48.79372" lon="7.29122">
        <ele>217.5</ele>
        <time>2020-06-28T09:13:53Z</time>
      </trkpt>
      <trkpt lat="48.79366" lon="7.29124">
        <ele>214.8</ele>
        <time>2020-06-28T09:13:56Z</time>
      </trkpt>
      <trkpt lat="48.79362" lon="7.29121">
        <ele>212.8</ele>
        <time>2020-06-28T09:13:59Z</time>
      </trkpt>
      <trkpt lat="48.79357" lon="7.29123">
        <ele>210.9</ele>
        <time>2020-06-28T09:14:03Z</time>
      </trkpt>
      <trkpt lat="48.79351" lon="7.29127">
        <ele>211.8</ele>
        <time>2020-06-28T09:14:06Z</time>
      </trkpt>
      <trkpt lat="48.79344" lon="7.29129">
        <ele>213</ele>
        <time>2020-06-28T09:14:09Z</time>
      </trkpt>
      <trkpt lat="48.79338" lon="7.29131">
        <ele>213.4</ele>
        <time>2020-06-28T09:14:11Z</time>
      </trkpt>
      <trkpt lat="48.79331" lon="7.29137">
        <ele>213.6</ele>
        <time>2020-06-28T09:14:13Z</time>
      </trkpt>
      <trkpt lat="48.79325" lon="7.29143">
        <ele>214.3</ele>
        <time>2020-06-28T09:14:15Z</time>
      </trkpt>
      <trkpt lat="48.79321" lon="7.29146">
        <ele>214.7</ele>
        <time>2020-06-28T09:14:17Z</time>
      </trkpt>
      <trkpt lat="48.79316" lon="7.29148">
        <ele>215.5</ele>
        <time>2020-06-28T09:14:22Z</time>
      </trkpt>
      <trkpt lat="48.7931" lon="7.29153">
        <ele>215.6</ele>
        <time>2020-06-28T09:14:26Z</time>
      </trkpt>
      <trkpt lat="48.79306" lon="7.29158">
        <ele>215.9</ele>
        <time>2020-06-28T09:14:29Z</time>
      </trkpt>
      <trkpt lat="48.79301" lon="7.29157">
        <ele>218</ele>
        <time>2020-06-28T09:14:43Z</time>
      </trkpt>
      <trkpt lat="48.79297" lon="7.29159">
        <ele>221.8</ele>
        <time>2020-06-28T09:14:59Z</time>
      </trkpt>
      <trkpt lat="48.79294" lon="7.29165">
        <ele>217.1</ele>
        <time>2020-06-28T09:15:08Z</time>
      </trkpt>
      <trkpt lat="48.7929" lon="7.29169">
        <ele>211.2</ele>
        <time>2020-06-28T09:15:15Z</time>
      </trkpt>
      <trkpt lat="48.79287" lon="7.29175">
        <ele>209.2</ele>
        <time>2020-06-28T09:15:21Z</time>
      </trkpt>
      <trkpt lat="48.79283" lon="7.29177">
        <ele>209</ele>
        <time>2020-06-28T09:15:25Z</time>
      </trkpt>
      <trkpt lat="48.79279" lon="7.29181">
        <ele>209.5</ele>
        <time>2020-06-28T09:15:30Z</time>
      </trkpt>
      <trkpt lat="48.79275" lon="7.29184">
        <ele>209.9</ele>
        <time>2020-06-28T09:15:36Z</time>
      </trkpt>
      <trkpt lat="48.79276" lon="7.29191">
        <ele>207.7</ele>
        <time>2020-06-28T09:15:48Z</time>
      </trkpt>
      <trkpt lat="48.79273" lon="7.29196">
        <ele>207.5</ele>
        <time>2020-06-28T09:15:56Z</time>
      </trkpt>
      <trkpt lat="48.79268" lon="7.29199">
        <ele>207.6</ele>
        <time>2020-06-28T09:16:01Z</time>
      </trkpt>
      <trkpt lat="48.79263" lon="7.29198">
        <ele>209.8</ele>
        <time>2020-06-28T09:16:04Z</time>
      </trkpt>
      <trkpt lat="48.79259" lon="7.29202">
        <ele>210.2</ele>
        <time>2020-06-28T09:16:08Z</time>
      </trkpt>
      <trkpt lat="48.79255" lon="7.29205">
        <ele>234.6</ele>
        <time>2020-06-28T09:16:19Z</time>
      </trkpt>
      <trkpt lat="48.7925" lon="7.29208">
        <ele>229.2</ele>
        <time>2020-06-28T09:16:22Z</time>
      </trkpt>
      <trkpt lat="48.79244" lon="7.29211">
        <ele>224</ele>
        <time>2020-06-28T09:16:25Z</time>
      </trkpt>
      <trkpt lat="48.79239" lon="7.29216">
        <ele>221.6</ele>
        <time>2020-06-28T09:16:27Z</time>
      </trkpt>
      <trkpt lat="48.79235" lon="7.29221">
        <ele>220.1</ele>
        <time>2020-06-28T09:16:29Z</time>
      </trkpt>
      <trkpt lat="48.79231" lon="7.29225">
        <ele>218.5</ele>
        <time>2020-06-28T09:16:31Z</time>
      </trkpt>
      <trkpt lat="48.79224" lon="7.29228">
        <ele>217.2</ele>
        <time>2020-06-28T09:16:34Z</time>
      </trkpt>
      <trkpt lat="48.79216" lon="7.29231">
        <ele>216.5</ele>
        <time>2020-06-28T09:16:36Z</time>
      </trkpt>
      <trkpt lat="48.79204" lon="7.29231">
        <ele>215.2</ele>
        <time>2020-06-28T09:16:39Z</time>
      </trkpt>
      <trkpt lat="48.79199" lon="7.29231">
        <ele>214.8</ele>
        <time>2020-06-28T09:16:41Z</time>
      </trkpt>
      <trkpt lat="48.79194" lon="7.29227">
        <ele>214.5</ele>
        <time>2020-06-28T09:16:45Z</time>
      </trkpt>
      <trkpt lat="48.79188" lon="7.29224">
        <ele>214.3</ele>
        <time>2020-06-28T09:16:48Z</time>
      </trkpt>
      <trkpt lat="48.79184" lon="7.29223">
        <ele>214.7</ele>
        <time>2020-06-28T09:16:50Z</time>
      </trkpt>
      <trkpt lat="48.79174" lon="7.2922">
        <ele>214.6</ele>
        <time>2020-06-28T09:16:52Z</time>
      </trkpt>
      <trkpt lat="48.79165" lon="7.29219">
        <ele>213</ele>
        <time>2020-06-28T09:16:54Z</time>
      </trkpt>
      <trkpt lat="48.79152" lon="7.29224">
        <ele>217.6</ele>
        <time>2020-06-28T09:16:57Z</time>
      </trkpt>
      <trkpt lat="48.79145" lon="7.29225">
        <ele>216.1</ele>
        <time>2020-06-28T09:16:59Z</time>
      </trkpt>
      <trkpt lat="48.7914" lon="7.29224">
        <ele>213.8</ele>
        <time>2020-06-28T09:17:02Z</time>
      </trkpt>
      <trkpt lat="48.79134" lon="7.2922">
        <ele>212.9</ele>
        <time>2020-06-28T09:17:05Z</time>
      </trkpt>
      <trkpt lat="48.79129" lon="7.29218">
        <ele>212.9</ele>
        <time>2020-06-28T09:17:07Z</time>
      </trkpt>
      <trkpt lat="48.79125" lon="7.29215">
        <ele>213.2</ele>
        <time>2020-06-28T09:17:09Z</time>
      </trkpt>
      <trkpt lat="48.79119" lon="7.29216">
        <ele>213.8</ele>
        <time>2020-06-28T09:17:12Z</time>
      </trkpt>
      <trkpt lat="48.79114" lon="7.2922">
        <ele>212.9</ele>
        <time>2020-06-28T09:17:15Z</time>
      </trkpt>
      <trkpt lat="48.79109" lon="7.29221">
        <ele>212.5</ele>
        <time>2020-06-28T09:17:17Z</time>
      </trkpt>
      <trkpt lat="48.79105" lon="7.29219">
        <ele>212</ele>
        <time>2020-06-28T09:17:19Z</time>
      </trkpt>
      <trkpt lat="48.79098" lon="7.29219">
        <ele>210.6</ele>
        <time>2020-06-28T09:17:23Z</time>
      </trkpt>
      <trkpt lat="48.79094" lon="7.2922">
        <ele>210.7</ele>
        <time>2020-06-28T09:17:25Z</time>
      </trkpt>
      <trkpt lat="48.79087" lon="7.29217">
        <ele>210.3</ele>
        <time>2020-06-28T09:17:27Z</time>
      </trkpt>
      <trkpt lat="48.7908" lon="7.29213">
        <ele>210.7</ele>
        <time>2020-06-28T09:17:29Z</time>
      </trkpt>
      <trkpt lat="48.7907" lon="7.29207">
        <ele>211</ele>
        <time>2020-06-28T09:17:31Z</time>
      </trkpt>
      <trkpt lat="48.79055" lon="7.29197">
        <ele>210.6</ele>
        <time>2020-06-28T09:17:33Z</time>
      </trkpt>
      <trkpt lat="48.79041" lon="7.29191">
        <ele>210.1</ele>
        <time>2020-06-28T09:17:35Z</time>
      </trkpt>
      <trkpt lat="48.79022" lon="7.29187">
        <ele>209.8</ele>
        <time>2020-06-28T09:17:38Z</time>
      </trkpt>
      <trkpt lat="48.79013" lon="7.29183">
        <ele>209.3</ele>
        <time>2020-06-28T09:17:40Z</time>
      </trkpt>
      <trkpt lat="48.79004" lon="7.29179">
        <ele>209.4</ele>
        <time>2020-06-28T09:17:42Z</time>
      </trkpt>
      <trkpt lat="48.78996" lon="7.29174">
        <ele>209.4</ele>
        <time>2020-06-28T09:17:44Z</time>
      </trkpt>
      <trkpt lat="48.78986" lon="7.29169">
        <ele>209.7</ele>
        <time>2020-06-28T09:17:46Z</time>
      </trkpt>
      <trkpt lat="48.78977" lon="7.29165">
        <ele>210.3</ele>
        <time>2020-06-28T09:17:48Z</time>
      </trkpt>
      <trkpt lat="48.78964" lon="7.2916">
        <ele>211.7</ele>
        <time>2020-06-28T09:17:51Z</time>
      </trkpt>
      <trkpt lat="48.78957" lon="7.29157">
        <ele>212.2</ele>
        <time>2020-06-28T09:17:53Z</time>
      </trkpt>
      <trkpt lat="48.78951" lon="7.29156">
        <ele>212.9</ele>
        <time>2020-06-28T09:17:55Z</time>
      </trkpt>
      <trkpt lat="48.78943" lon="7.29156">
        <ele>213.4</ele>
        <time>2020-06-28T09:17:57Z</time>
      </trkpt>
      <trkpt lat="48.78935" lon="7.29155">
        <ele>214.4</ele>
        <time>2020-06-28T09:17:59Z</time>
      </trkpt>
      <trkpt lat="48.78928" lon="7.29154">
        <ele>215.7</ele>
        <time>2020-06-28T09:18:01Z</time>
      </trkpt>
      <trkpt lat="48.78921" lon="7.29152">
        <ele>216.7</ele>
        <time>2020-06-28T09:18:03Z</time>
      </trkpt>
      <trkpt lat="48.78913" lon="7.29151">
        <ele>217.3</ele>
        <time>2020-06-28T09:18:06Z</time>
      </trkpt>
      <trkpt lat="48.78908" lon="7.29151">
        <ele>216.7</ele>
        <time>2020-06-28T09:18:08Z</time>
      </trkpt>
      <trkpt lat="48.789" lon="7.29148">
        <ele>216.4</ele>
        <time>2020-06-28T09:18:11Z</time>
      </trkpt>
      <trkpt lat="48.78895" lon="7.29145">
        <ele>216.5</ele>
        <time>2020-06-28T09:18:13Z</time>
      </trkpt>
      <trkpt lat="48.78889" lon="7.29142">
        <ele>217.7</ele>
        <time>2020-06-28T09:18:15Z</time>
      </trkpt>
      <trkpt lat="48.78884" lon="7.2914">
        <ele>216.9</ele>
        <time>2020-06-28T09:18:17Z</time>
      </trkpt>
      <trkpt lat="48.78878" lon="7.29139">
        <ele>216.8</ele>
        <time>2020-06-28T09:18:19Z</time>
      </trkpt>
      <trkpt lat="48.78871" lon="7.29139">
        <ele>217.1</ele>
        <time>2020-06-28T09:18:21Z</time>
      </trkpt>
      <trkpt lat="48.78865" lon="7.29136">
        <ele>217.3</ele>
        <time>2020-06-28T09:18:23Z</time>
      </trkpt>
      <trkpt lat="48.78858" lon="7.29132">
        <ele>217.8</ele>
        <time>2020-06-28T09:18:25Z</time>
      </trkpt>
      <trkpt lat="48.78852" lon="7.29128">
        <ele>218.3</ele>
        <time>2020-06-28T09:18:27Z</time>
      </trkpt>
      <trkpt lat="48.78847" lon="7.29125">
        <ele>220.8</ele>
        <time>2020-06-28T09:18:30Z</time>
      </trkpt>
      <trkpt lat="48.78841" lon="7.29123">
        <ele>221.2</ele>
        <time>2020-06-28T09:18:32Z</time>
      </trkpt>
      <trkpt lat="48.78837" lon="7.29122">
        <ele>222.2</ele>
        <time>2020-06-28T09:18:34Z</time>
      </trkpt>
      <trkpt lat="48.78832" lon="7.29122">
        <ele>223.3</ele>
        <time>2020-06-28T09:18:36Z</time>
      </trkpt>
      <trkpt lat="48.78826" lon="7.29121">
        <ele>225.3</ele>
        <time>2020-06-28T09:18:39Z</time>
      </trkpt>
      <trkpt lat="48.78819" lon="7.2912">
        <ele>226.4</ele>
        <time>2020-06-28T09:18:42Z</time>
      </trkpt>
      <trkpt lat="48.78814" lon="7.29119">
        <ele>223.9</ele>
        <time>2020-06-28T09:18:45Z</time>
      </trkpt>
      <trkpt lat="48.7881" lon="7.29117">
        <ele>235.4</ele>
        <time>2020-06-28T09:19:43Z</time>
      </trkpt>
      <trkpt lat="48.78804" lon="7.2911">
        <ele>232.6</ele>
        <time>2020-06-28T09:20:08Z</time>
      </trkpt>
      <trkpt lat="48.78798" lon="7.29105">
        <ele>232.4</ele>
        <time>2020-06-28T09:20:10Z</time>
      </trkpt>
      <trkpt lat="48.78787" lon="7.29095">
        <ele>232.1</ele>
        <time>2020-06-28T09:20:12Z</time>
      </trkpt>
      <trkpt lat="48.78777" lon="7.29084">
        <ele>231.8</ele>
        <time>2020-06-28T09:20:14Z</time>
      </trkpt>
      <trkpt lat="48.78764" lon="7.29073">
        <ele>231.1</ele>
        <time>2020-06-28T09:20:16Z</time>
      </trkpt>
      <trkpt lat="48.78751" lon="7.29062">
        <ele>228.9</ele>
        <time>2020-06-28T09:20:18Z</time>
      </trkpt>
      <trkpt lat="48.78737" lon="7.29053">
        <ele>226.5</ele>
        <time>2020-06-28T09:20:20Z</time>
      </trkpt>
      <trkpt lat="48.78726" lon="7.29044">
        <ele>223.8</ele>
        <time>2020-06-28T09:20:22Z</time>
      </trkpt>
      <trkpt lat="48.78717" lon="7.29038">
        <ele>221.6</ele>
        <time>2020-06-28T09:20:24Z</time>
      </trkpt>
      <trkpt lat="48.78707" lon="7.29036">
        <ele>221.2</ele>
        <time>2020-06-28T09:20:26Z</time>
      </trkpt>
      <trkpt lat="48.78697" lon="7.29035">
        <ele>221.1</ele>
        <time>2020-06-28T09:20:28Z</time>
      </trkpt>
      <trkpt lat="48.78688" lon="7.29033">
        <ele>222.3</ele>
        <time>2020-06-28T09:20:30Z</time>
      </trkpt>
      <trkpt lat="48.78679" lon="7.29031">
        <ele>221.4</ele>
        <time>2020-06-28T09:20:32Z</time>
      </trkpt>
      <trkpt lat="48.7867" lon="7.29029">
        <ele>220.6</ele>
        <time>2020-06-28T09:20:34Z</time>
      </trkpt>
      <trkpt lat="48.78662" lon="7.29027">
        <ele>219</ele>
        <time>2020-06-28T09:20:36Z</time>
      </trkpt>
      <trkpt lat="48.78652" lon="7.29025">
        <ele>218.5</ele>
        <time>2020-06-28T09:20:38Z</time>
      </trkpt>
      <trkpt lat="48.78643" lon="7.29024">
        <ele>218</ele>
        <time>2020-06-28T09:20:40Z</time>
      </trkpt>
      <trkpt lat="48.78633" lon="7.29025">
        <ele>217.2</ele>
        <time>2020-06-28T09:20:42Z</time>
      </trkpt>
      <trkpt lat="48.78625" lon="7.29025">
        <ele>217.2</ele>
        <time>2020-06-28T09:20:44Z</time>
      </trkpt>
      <trkpt lat="48.78617" lon="7.29027">
        <ele>215.7</ele>
        <time>2020-06-28T09:20:46Z</time>
      </trkpt>
      <trkpt lat="48.78609" lon="7.2903">
        <ele>215.1</ele>
        <time>2020-06-28T09:20:48Z</time>
      </trkpt>
      <trkpt lat="48.78603" lon="7.29033">
        <ele>214.2</ele>
        <time>2020-06-28T09:20:50Z</time>
      </trkpt>
      <trkpt lat="48.78598" lon="7.29035">
        <ele>214</ele>
        <time>2020-06-28T09:20:52Z</time>
      </trkpt>
      <trkpt lat="48.78592" lon="7.29033">
        <ele>214.8</ele>
        <time>2020-06-28T09:20:55Z</time>
      </trkpt>
      <trkpt lat="48.78588" lon="7.29024">
        <ele>215.3</ele>
        <time>2020-06-28T09:20:58Z</time>
      </trkpt>
      <trkpt lat="48.78587" lon="7.29017">
        <ele>216</ele>
        <time>2020-06-28T09:21:00Z</time>
      </trkpt>
      <trkpt lat="48.78583" lon="7.29011">
        <ele>216.9</ele>
        <time>2020-06-28T09:21:03Z</time>
      </trkpt>
      <trkpt lat="48.78578" lon="7.29009">
        <ele>217.9</ele>
        <time>2020-06-28T09:21:12Z</time>
      </trkpt>
      <trkpt lat="48.78574" lon="7.29012">
        <ele>217.8</ele>
        <time>2020-06-28T09:21:38Z</time>
      </trkpt>
      <trkpt lat="48.7857" lon="7.29015">
        <ele>219.8</ele>
        <time>2020-06-28T09:21:48Z</time>
      </trkpt>
      <trkpt lat="48.78575" lon="7.29014">
        <ele>223.5</ele>
        <time>2020-06-28T09:22:16Z</time>
      </trkpt>
      <trkpt lat="48.78579" lon="7.29013">
        <ele>219.8</ele>
        <time>2020-06-28T09:22:38Z</time>
      </trkpt>
      <trkpt lat="48.78584" lon="7.29011">
        <ele>218.9</ele>
        <time>2020-06-28T09:23:41Z</time>
      </trkpt>
      <trkpt lat="48.78586" lon="7.29003">
        <ele>219.4</ele>
        <time>2020-06-28T09:23:44Z</time>
      </trkpt>
      <trkpt lat="48.78588" lon="7.28995">
        <ele>220.1</ele>
        <time>2020-06-28T09:23:47Z</time>
      </trkpt>
      <trkpt lat="48.78588" lon="7.28987">
        <ele>220.8</ele>
        <time>2020-06-28T09:23:50Z</time>
      </trkpt>
      <trkpt lat="48.78586" lon="7.28979">
        <ele>222.2</ele>
        <time>2020-06-28T09:23:53Z</time>
      </trkpt>
      <trkpt lat="48.78584" lon="7.28972">
        <ele>223.7</ele>
        <time>2020-06-28T09:23:56Z</time>
      </trkpt>
      <trkpt lat="48.78581" lon="7.28963">
        <ele>224.4</ele>
        <time>2020-06-28T09:23:59Z</time>
      </trkpt>
      <trkpt lat="48.78578" lon="7.28956">
        <ele>226</ele>
        <time>2020-06-28T09:24:02Z</time>
      </trkpt>
      <trkpt lat="48.78576" lon="7.28947">
        <ele>226.1</ele>
        <time>2020-06-28T09:24:05Z</time>
      </trkpt>
      <trkpt lat="48.78574" lon="7.28938">
        <ele>226.2</ele>
        <time>2020-06-28T09:24:08Z</time>
      </trkpt>
      <trkpt lat="48.78574" lon="7.2893">
        <ele>225.7</ele>
        <time>2020-06-28T09:24:11Z</time>
      </trkpt>
      <trkpt lat="48.78574" lon="7.28923">
        <ele>226</ele>
        <time>2020-06-28T09:24:14Z</time>
      </trkpt>
      <trkpt lat="48.78573" lon="7.28915">
        <ele>225.8</ele>
        <time>2020-06-28T09:24:17Z</time>
      </trkpt>
      <trkpt lat="48.78571" lon="7.28908">
        <ele>227</ele>
        <time>2020-06-28T09:24:20Z</time>
      </trkpt>
      <trkpt lat="48.78569" lon="7.28901">
        <ele>227.9</ele>
        <time>2020-06-28T09:24:23Z</time>
      </trkpt>
      <trkpt lat="48.78566" lon="7.28893">
        <ele>227.4</ele>
        <time>2020-06-28T09:24:26Z</time>
      </trkpt>
      <trkpt lat="48.78564" lon="7.28884">
        <ele>227.2</ele>
        <time>2020-06-28T09:24:29Z</time>
      </trkpt>
      <trkpt lat="48.78563" lon="7.28875">
        <ele>227.4</ele>
        <time>2020-06-28T09:24:32Z</time>
      </trkpt>
      <trkpt lat="48.78561" lon="7.28865">
        <ele>226.7</ele>
        <time>2020-06-28T09:24:35Z</time>
      </trkpt>
      <trkpt lat="48.78559" lon="7.28855">
        <ele>225.9</ele>
        <time>2020-06-28T09:24:38Z</time>
      </trkpt>
      <trkpt lat="48.78557" lon="7.28849">
        <ele>225.4</ele>
        <time>2020-06-28T09:24:40Z</time>
      </trkpt>
      <trkpt lat="48.78554" lon="7.28842">
        <ele>224.8</ele>
        <time>2020-06-28T09:24:43Z</time>
      </trkpt>
      <trkpt lat="48.7855" lon="7.28836">
        <ele>224.4</ele>
        <time>2020-06-28T09:24:45Z</time>
      </trkpt>
      <trkpt lat="48.78547" lon="7.28829">
        <ele>224.1</ele>
        <time>2020-06-28T09:24:47Z</time>
      </trkpt>
      <trkpt lat="48.78544" lon="7.28821">
        <ele>223.5</ele>
        <time>2020-06-28T09:24:50Z</time>
      </trkpt>
      <trkpt lat="48.78541" lon="7.28813">
        <ele>223.2</ele>
        <time>2020-06-28T09:24:53Z</time>
      </trkpt>
      <trkpt lat="48.78539" lon="7.28807">
        <ele>223.6</ele>
        <time>2020-06-28T09:24:56Z</time>
      </trkpt>
      <trkpt lat="48.78536" lon="7.28799">
        <ele>225.4</ele>
        <time>2020-06-28T09:24:59Z</time>
      </trkpt>
      <trkpt lat="48.78534" lon="7.28791">
        <ele>227</ele>
        <time>2020-06-28T09:25:02Z</time>
      </trkpt>
      <trkpt lat="48.78531" lon="7.28784">
        <ele>228</ele>
        <time>2020-06-28T09:25:05Z</time>
      </trkpt>
      <trkpt lat="48.78528" lon="7.28777">
        <ele>229</ele>
        <time>2020-06-28T09:25:08Z</time>
      </trkpt>
      <trkpt lat="48.78526" lon="7.28771">
        <ele>229.1</ele>
        <time>2020-06-28T09:25:11Z</time>
      </trkpt>
      <trkpt lat="48.78523" lon="7.28764">
        <ele>228.8</ele>
        <time>2020-06-28T09:25:15Z</time>
      </trkpt>
      <trkpt lat="48.78521" lon="7.28757">
        <ele>230.2</ele>
        <time>2020-06-28T09:25:20Z</time>
      </trkpt>
      <trkpt lat="48.7852" lon="7.2875">
        <ele>230.7</ele>
        <time>2020-06-28T09:25:26Z</time>
      </trkpt>
      <trkpt lat="48.78522" lon="7.28743">
        <ele>230.2</ele>
        <time>2020-06-28T09:25:30Z</time>
      </trkpt>
      <trkpt lat="48.7852" lon="7.28736">
        <ele>229.6</ele>
        <time>2020-06-28T09:25:34Z</time>
      </trkpt>
      <trkpt lat="48.78517" lon="7.28729">
        <ele>228</ele>
        <time>2020-06-28T09:25:42Z</time>
      </trkpt>
      <trkpt lat="48.78515" lon="7.28723">
        <ele>227.8</ele>
        <time>2020-06-28T09:25:46Z</time>
      </trkpt>
      <trkpt lat="48.78512" lon="7.28717">
        <ele>228.3</ele>
        <time>2020-06-28T09:25:49Z</time>
      </trkpt>
      <trkpt lat="48.78509" lon="7.28712">
        <ele>228.1</ele>
        <time>2020-06-28T09:25:52Z</time>
      </trkpt>
      <trkpt lat="48.78508" lon="7.28705">
        <ele>228.1</ele>
        <time>2020-06-28T09:25:55Z</time>
      </trkpt>
      <trkpt lat="48.78506" lon="7.28696">
        <ele>227.8</ele>
        <time>2020-06-28T09:25:58Z</time>
      </trkpt>
      <trkpt lat="48.78504" lon="7.28689">
        <ele>227.9</ele>
        <time>2020-06-28T09:26:00Z</time>
      </trkpt>
      <trkpt lat="48.785" lon="7.28677">
        <ele>229.6</ele>
        <time>2020-06-28T09:26:03Z</time>
      </trkpt>
      <trkpt lat="48.78496" lon="7.28669">
        <ele>231.5</ele>
        <time>2020-06-28T09:26:05Z</time>
      </trkpt>
      <trkpt lat="48.78493" lon="7.28661">
        <ele>231.5</ele>
        <time>2020-06-28T09:26:07Z</time>
      </trkpt>
      <trkpt lat="48.78489" lon="7.28652">
        <ele>231.9</ele>
        <time>2020-06-28T09:26:09Z</time>
      </trkpt>
      <trkpt lat="48.78486" lon="7.28645">
        <ele>232.5</ele>
        <time>2020-06-28T09:26:11Z</time>
      </trkpt>
      <trkpt lat="48.78482" lon="7.28633">
        <ele>233</ele>
        <time>2020-06-28T09:26:14Z</time>
      </trkpt>
      <trkpt lat="48.78477" lon="7.28623">
        <ele>233.9</ele>
        <time>2020-06-28T09:26:17Z</time>
      </trkpt>
      <trkpt lat="48.78474" lon="7.28617">
        <ele>234.9</ele>
        <time>2020-06-28T09:26:19Z</time>
      </trkpt>
      <trkpt lat="48.78471" lon="7.28612">
        <ele>235.9</ele>
        <time>2020-06-28T09:26:21Z</time>
      </trkpt>
      <trkpt lat="48.78467" lon="7.28604">
        <ele>236.5</ele>
        <time>2020-06-28T09:26:24Z</time>
      </trkpt>
      <trkpt lat="48.78462" lon="7.28597">
        <ele>236.9</ele>
        <time>2020-06-28T09:26:27Z</time>
      </trkpt>
      <trkpt lat="48.78458" lon="7.28591">
        <ele>237</ele>
        <time>2020-06-28T09:26:29Z</time>
      </trkpt>
      <trkpt lat="48.78455" lon="7.28586">
        <ele>237</ele>
        <time>2020-06-28T09:26:31Z</time>
      </trkpt>
      <trkpt lat="48.78452" lon="7.28581">
        <ele>237.6</ele>
        <time>2020-06-28T09:26:33Z</time>
      </trkpt>
      <trkpt lat="48.78449" lon="7.28575">
        <ele>238.7</ele>
        <time>2020-06-28T09:26:35Z</time>
      </trkpt>
      <trkpt lat="48.78446" lon="7.2857">
        <ele>239.5</ele>
        <time>2020-06-28T09:26:37Z</time>
      </trkpt>
      <trkpt lat="48.78443" lon="7.28564">
        <ele>239.8</ele>
        <time>2020-06-28T09:26:39Z</time>
      </trkpt>
      <trkpt lat="48.7844" lon="7.28557">
        <ele>240.4</ele>
        <time>2020-06-28T09:26:42Z</time>
      </trkpt>
      <trkpt lat="48.78436" lon="7.28549">
        <ele>241.2</ele>
        <time>2020-06-28T09:26:45Z</time>
      </trkpt>
      <trkpt lat="48.78433" lon="7.28541">
        <ele>241</ele>
        <time>2020-06-28T09:26:48Z</time>
      </trkpt>
      <trkpt lat="48.7843" lon="7.28533">
        <ele>241.5</ele>
        <time>2020-06-28T09:26:51Z</time>
      </trkpt>
      <trkpt lat="48.78426" lon="7.28524">
        <ele>241.4</ele>
        <time>2020-06-28T09:26:54Z</time>
      </trkpt>
      <trkpt lat="48.78423" lon="7.28518">
        <ele>241.1</ele>
        <time>2020-06-28T09:26:56Z</time>
      </trkpt>
      <trkpt lat="48.7842" lon="7.28512">
        <ele>240.8</ele>
        <time>2020-06-28T09:26:58Z</time>
      </trkpt>
      <trkpt lat="48.78417" lon="7.28506">
        <ele>240.6</ele>
        <time>2020-06-28T09:27:00Z</time>
      </trkpt>
      <trkpt lat="48.78414" lon="7.28499">
        <ele>240.8</ele>
        <time>2020-06-28T09:27:02Z</time>
      </trkpt>
      <trkpt lat="48.78411" lon="7.28492">
        <ele>240.8</ele>
        <time>2020-06-28T09:27:04Z</time>
      </trkpt>
      <trkpt lat="48.78407" lon="7.28484">
        <ele>240.9</ele>
        <time>2020-06-28T09:27:06Z</time>
      </trkpt>
      <trkpt lat="48.78404" lon="7.28477">
        <ele>240.8</ele>
        <time>2020-06-28T09:27:08Z</time>
      </trkpt>
      <trkpt lat="48.78401" lon="7.28469">
        <ele>240.6</ele>
        <time>2020-06-28T09:27:10Z</time>
      </trkpt>
      <trkpt lat="48.78398" lon="7.28461">
        <ele>240.4</ele>
        <time>2020-06-28T09:27:12Z</time>
      </trkpt>
      <trkpt lat="48.78393" lon="7.28454">
        <ele>240.9</ele>
        <time>2020-06-28T09:27:14Z</time>
      </trkpt>
      <trkpt lat="48.78389" lon="7.28449">
        <ele>241.1</ele>
        <time>2020-06-28T09:27:16Z</time>
      </trkpt>
      <trkpt lat="48.78384" lon="7.28444">
        <ele>241.4</ele>
        <time>2020-06-28T09:27:18Z</time>
      </trkpt>
      <trkpt lat="48.7838" lon="7.2844">
        <ele>241.7</ele>
        <time>2020-06-28T09:27:20Z</time>
      </trkpt>
      <trkpt lat="48.78376" lon="7.28436">
        <ele>241.8</ele>
        <time>2020-06-28T09:27:22Z</time>
      </trkpt>
      <trkpt lat="48.78371" lon="7.28432">
        <ele>242.3</ele>
        <time>2020-06-28T09:27:24Z</time>
      </trkpt>
      <trkpt lat="48.78365" lon="7.28428">
        <ele>243.1</ele>
        <time>2020-06-28T09:27:27Z</time>
      </trkpt>
      <trkpt lat="48.78359" lon="7.28426">
        <ele>244.3</ele>
        <time>2020-06-28T09:27:30Z</time>
      </trkpt>
      <trkpt lat="48.78354" lon="7.28421">
        <ele>245.6</ele>
        <time>2020-06-28T09:27:33Z</time>
      </trkpt>
      <trkpt lat="48.78349" lon="7.28417">
        <ele>246.5</ele>
        <time>2020-06-28T09:27:36Z</time>
      </trkpt>
      <trkpt lat="48.78345" lon="7.28413">
        <ele>246.5</ele>
        <time>2020-06-28T09:27:39Z</time>
      </trkpt>
      <trkpt lat="48.78341" lon="7.28408">
        <ele>247</ele>
        <time>2020-06-28T09:27:42Z</time>
      </trkpt>
      <trkpt lat="48.78337" lon="7.28402">
        <ele>246.8</ele>
        <time>2020-06-28T09:27:45Z</time>
      </trkpt>
      <trkpt lat="48.78332" lon="7.28397">
        <ele>246.3</ele>
        <time>2020-06-28T09:27:49Z</time>
      </trkpt>
      <trkpt lat="48.78329" lon="7.28393">
        <ele>246.2</ele>
        <time>2020-06-28T09:27:51Z</time>
      </trkpt>
      <trkpt lat="48.78325" lon="7.28388">
        <ele>246.1</ele>
        <time>2020-06-28T09:27:53Z</time>
      </trkpt>
      <trkpt lat="48.78321" lon="7.28382">
        <ele>245.9</ele>
        <time>2020-06-28T09:27:55Z</time>
      </trkpt>
      <trkpt lat="48.78318" lon="7.28377">
        <ele>245.6</ele>
        <time>2020-06-28T09:27:57Z</time>
      </trkpt>
      <trkpt lat="48.78314" lon="7.28371">
        <ele>245.7</ele>
        <time>2020-06-28T09:28:00Z</time>
      </trkpt>
      <trkpt lat="48.78308" lon="7.28367">
        <ele>246.7</ele>
        <time>2020-06-28T09:28:03Z</time>
      </trkpt>
      <trkpt lat="48.78303" lon="7.28365">
        <ele>249.1</ele>
        <time>2020-06-28T09:28:06Z</time>
      </trkpt>
      <trkpt lat="48.78298" lon="7.28361">
        <ele>250.1</ele>
        <time>2020-06-28T09:28:09Z</time>
      </trkpt>
      <trkpt lat="48.78293" lon="7.28357">
        <ele>251.3</ele>
        <time>2020-06-28T09:28:12Z</time>
      </trkpt>
      <trkpt lat="48.78289" lon="7.28355">
        <ele>251.8</ele>
        <time>2020-06-28T09:28:15Z</time>
      </trkpt>
      <trkpt lat="48.78284" lon="7.28352">
        <ele>249.7</ele>
        <time>2020-06-28T09:28:18Z</time>
      </trkpt>
      <trkpt lat="48.78278" lon="7.28347">
        <ele>248.9</ele>
        <time>2020-06-28T09:28:21Z</time>
      </trkpt>
      <trkpt lat="48.78273" lon="7.28344">
        <ele>250</ele>
        <time>2020-06-28T09:28:23Z</time>
      </trkpt>
      <trkpt lat="48.78269" lon="7.2834">
        <ele>250.5</ele>
        <time>2020-06-28T09:28:25Z</time>
      </trkpt>
      <trkpt lat="48.78264" lon="7.28336">
        <ele>250.6</ele>
        <time>2020-06-28T09:28:27Z</time>
      </trkpt>
      <trkpt lat="48.7826" lon="7.28333">
        <ele>250</ele>
        <time>2020-06-28T09:28:29Z</time>
      </trkpt>
      <trkpt lat="48.78255" lon="7.28331">
        <ele>250</ele>
        <time>2020-06-28T09:28:31Z</time>
      </trkpt>
      <trkpt lat="48.78251" lon="7.28328">
        <ele>249.7</ele>
        <time>2020-06-28T09:28:33Z</time>
      </trkpt>
      <trkpt lat="48.78245" lon="7.28325">
        <ele>249.4</ele>
        <time>2020-06-28T09:28:36Z</time>
      </trkpt>
      <trkpt lat="48.7824" lon="7.2832">
        <ele>248.4</ele>
        <time>2020-06-28T09:28:39Z</time>
      </trkpt>
      <trkpt lat="48.78234" lon="7.28315">
        <ele>249.2</ele>
        <time>2020-06-28T09:28:42Z</time>
      </trkpt>
      <trkpt lat="48.78229" lon="7.28309">
        <ele>249.6</ele>
        <time>2020-06-28T09:28:45Z</time>
      </trkpt>
      <trkpt lat="48.78223" lon="7.28305">
        <ele>247.8</ele>
        <time>2020-06-28T09:28:48Z</time>
      </trkpt>
      <trkpt lat="48.78218" lon="7.28302">
        <ele>246.8</ele>
        <time>2020-06-28T09:28:51Z</time>
      </trkpt>
      <trkpt lat="48.78214" lon="7.28299">
        <ele>246.8</ele>
        <time>2020-06-28T09:28:54Z</time>
      </trkpt>
      <trkpt lat="48.78209" lon="7.28297">
        <ele>248.5</ele>
        <time>2020-06-28T09:28:57Z</time>
      </trkpt>
      <trkpt lat="48.78204" lon="7.28293">
        <ele>249.8</ele>
        <time>2020-06-28T09:29:00Z</time>
      </trkpt>
      <trkpt lat="48.782" lon="7.2829">
        <ele>250.1</ele>
        <time>2020-06-28T09:29:02Z</time>
      </trkpt>
      <trkpt lat="48.78196" lon="7.28286">
        <ele>251.4</ele>
        <time>2020-06-28T09:29:04Z</time>
      </trkpt>
      <trkpt lat="48.78192" lon="7.28282">
        <ele>252.4</ele>
        <time>2020-06-28T09:29:06Z</time>
      </trkpt>
      <trkpt lat="48.78187" lon="7.28277">
        <ele>253.4</ele>
        <time>2020-06-28T09:29:08Z</time>
      </trkpt>
      <trkpt lat="48.78181" lon="7.28274">
        <ele>253.8</ele>
        <time>2020-06-28T09:29:11Z</time>
      </trkpt>
      <trkpt lat="48.78176" lon="7.28272">
        <ele>255.1</ele>
        <time>2020-06-28T09:29:14Z</time>
      </trkpt>
      <trkpt lat="48.78171" lon="7.28268">
        <ele>257.2</ele>
        <time>2020-06-28T09:29:17Z</time>
      </trkpt>
      <trkpt lat="48.78165" lon="7.28263">
        <ele>258.1</ele>
        <time>2020-06-28T09:29:20Z</time>
      </trkpt>
      <trkpt lat="48.78161" lon="7.2826">
        <ele>258.4</ele>
        <time>2020-06-28T09:29:22Z</time>
      </trkpt>
      <trkpt lat="48.78157" lon="7.28256">
        <ele>259.2</ele>
        <time>2020-06-28T09:29:24Z</time>
      </trkpt>
      <trkpt lat="48.78154" lon="7.28252">
        <ele>259.9</ele>
        <time>2020-06-28T09:29:26Z</time>
      </trkpt>
      <trkpt lat="48.78148" lon="7.28246">
        <ele>260.2</ele>
        <time>2020-06-28T09:29:29Z</time>
      </trkpt>
      <trkpt lat="48.78142" lon="7.28242">
        <ele>259.1</ele>
        <time>2020-06-28T09:29:32Z</time>
      </trkpt>
      <trkpt lat="48.78137" lon="7.28238">
        <ele>257.3</ele>
        <time>2020-06-28T09:29:35Z</time>
      </trkpt>
      <trkpt lat="48.78132" lon="7.28234">
        <ele>255.9</ele>
        <time>2020-06-28T09:29:38Z</time>
      </trkpt>
      <trkpt lat="48.78127" lon="7.2823">
        <ele>255.1</ele>
        <time>2020-06-28T09:29:41Z</time>
      </trkpt>
      <trkpt lat="48.78122" lon="7.28225">
        <ele>255.9</ele>
        <time>2020-06-28T09:29:44Z</time>
      </trkpt>
      <trkpt lat="48.78118" lon="7.28221">
        <ele>256.9</ele>
        <time>2020-06-28T09:29:46Z</time>
      </trkpt>
      <trkpt lat="48.78114" lon="7.28217">
        <ele>258.1</ele>
        <time>2020-06-28T09:29:48Z</time>
      </trkpt>
      <trkpt lat="48.78109" lon="7.28213">
        <ele>259.2</ele>
        <time>2020-06-28T09:29:50Z</time>
      </trkpt>
      <trkpt lat="48.78105" lon="7.28209">
        <ele>259.9</ele>
        <time>2020-06-28T09:29:52Z</time>
      </trkpt>
      <trkpt lat="48.781" lon="7.28206">
        <ele>261</ele>
        <time>2020-06-28T09:29:55Z</time>
      </trkpt>
      <trkpt lat="48.78094" lon="7.28201">
        <ele>262.3</ele>
        <time>2020-06-28T09:29:58Z</time>
      </trkpt>
      <trkpt lat="48.7809" lon="7.28197">
        <ele>262.7</ele>
        <time>2020-06-28T09:30:00Z</time>
      </trkpt>
      <trkpt lat="48.78086" lon="7.28194">
        <ele>263.3</ele>
        <time>2020-06-28T09:30:02Z</time>
      </trkpt>
      <trkpt lat="48.78081" lon="7.2819">
        <ele>264.2</ele>
        <time>2020-06-28T09:30:04Z</time>
      </trkpt>
      <trkpt lat="48.78077" lon="7.28186">
        <ele>264.7</ele>
        <time>2020-06-28T09:30:06Z</time>
      </trkpt>
      <trkpt lat="48.78073" lon="7.28182">
        <ele>265</ele>
        <time>2020-06-28T09:30:08Z</time>
      </trkpt>
      <trkpt lat="48.78069" lon="7.28178">
        <ele>265.1</ele>
        <time>2020-06-28T09:30:10Z</time>
      </trkpt>
      <trkpt lat="48.78065" lon="7.28174">
        <ele>265</ele>
        <time>2020-06-28T09:30:12Z</time>
      </trkpt>
      <trkpt lat="48.78062" lon="7.2817">
        <ele>265.2</ele>
        <time>2020-06-28T09:30:14Z</time>
      </trkpt>
      <trkpt lat="48.78057" lon="7.28166">
        <ele>265.6</ele>
        <time>2020-06-28T09:30:16Z</time>
      </trkpt>
      <trkpt lat="48.78052" lon="7.28161">
        <ele>265.4</ele>
        <time>2020-06-28T09:30:19Z</time>
      </trkpt>
      <trkpt lat="48.78046" lon="7.28156">
        <ele>265.6</ele>
        <time>2020-06-28T09:30:22Z</time>
      </trkpt>
      <trkpt lat="48.78042" lon="7.28152">
        <ele>265.9</ele>
        <time>2020-06-28T09:30:25Z</time>
      </trkpt>
      <trkpt lat="48.78038" lon="7.28148">
        <ele>265.7</ele>
        <time>2020-06-28T09:30:27Z</time>
      </trkpt>
      <trkpt lat="48.78033" lon="7.28141">
        <ele>266</ele>
        <time>2020-06-28T09:30:30Z</time>
      </trkpt>
      <trkpt lat="48.7803" lon="7.28136">
        <ele>266</ele>
        <time>2020-06-28T09:30:32Z</time>
      </trkpt>
      <trkpt lat="48.78026" lon="7.28131">
        <ele>266.3</ele>
        <time>2020-06-28T09:30:34Z</time>
      </trkpt>
      <trkpt lat="48.78022" lon="7.28127">
        <ele>267</ele>
        <time>2020-06-28T09:30:36Z</time>
      </trkpt>
      <trkpt lat="48.78017" lon="7.28123">
        <ele>267.5</ele>
        <time>2020-06-28T09:30:38Z</time>
      </trkpt>
      <trkpt lat="48.78012" lon="7.28119">
        <ele>267.8</ele>
        <time>2020-06-28T09:30:40Z</time>
      </trkpt>
      <trkpt lat="48.78007" lon="7.28115">
        <ele>267.7</ele>
        <time>2020-06-28T09:30:42Z</time>
      </trkpt>
      <trkpt lat="48.78003" lon="7.28111">
        <ele>267.6</ele>
        <time>2020-06-28T09:30:44Z</time>
      </trkpt>
      <trkpt lat="48.77999" lon="7.28107">
        <ele>268</ele>
        <time>2020-06-28T09:30:46Z</time>
      </trkpt>
      <trkpt lat="48.77997" lon="7.281">
        <ele>268</ele>
        <time>2020-06-28T09:30:48Z</time>
      </trkpt>
      <trkpt lat="48.77995" lon="7.28091">
        <ele>268.3</ele>
        <time>2020-06-28T09:30:50Z</time>
      </trkpt>
      <trkpt lat="48.77992" lon="7.28085">
        <ele>268.2</ele>
        <time>2020-06-28T09:30:52Z</time>
      </trkpt>
      <trkpt lat="48.77989" lon="7.2808">
        <ele>268.7</ele>
        <time>2020-06-28T09:30:54Z</time>
      </trkpt>
      <trkpt lat="48.77984" lon="7.28073">
        <ele>269.1</ele>
        <time>2020-06-28T09:30:57Z</time>
      </trkpt>
      <trkpt lat="48.77981" lon="7.28067">
        <ele>269.7</ele>
        <time>2020-06-28T09:30:59Z</time>
      </trkpt>
      <trkpt lat="48.77979" lon="7.28062">
        <ele>270.2</ele>
        <time>2020-06-28T09:31:01Z</time>
      </trkpt>
      <trkpt lat="48.77975" lon="7.28057">
        <ele>270</ele>
        <time>2020-06-28T09:31:03Z</time>
      </trkpt>
      <trkpt lat="48.77972" lon="7.28052">
        <ele>269.3</ele>
        <time>2020-06-28T09:31:05Z</time>
      </trkpt>
      <trkpt lat="48.77969" lon="7.28045">
        <ele>268.5</ele>
        <time>2020-06-28T09:31:07Z</time>
      </trkpt>
      <trkpt lat="48.77964" lon="7.28039">
        <ele>267.7</ele>
        <time>2020-06-28T09:31:09Z</time>
      </trkpt>
      <trkpt lat="48.77961" lon="7.28033">
        <ele>266.5</ele>
        <time>2020-06-28T09:31:11Z</time>
      </trkpt>
      <trkpt lat="48.77959" lon="7.28025">
        <ele>265.7</ele>
        <time>2020-06-28T09:31:13Z</time>
      </trkpt>
      <trkpt lat="48.77955" lon="7.28016">
        <ele>265.6</ele>
        <time>2020-06-28T09:31:15Z</time>
      </trkpt>
      <trkpt lat="48.77951" lon="7.28008">
        <ele>265.3</ele>
        <time>2020-06-28T09:31:17Z</time>
      </trkpt>
      <trkpt lat="48.77947" lon="7.28001">
        <ele>265.2</ele>
        <time>2020-06-28T09:31:19Z</time>
      </trkpt>
      <trkpt lat="48.77943" lon="7.27994">
        <ele>265.5</ele>
        <time>2020-06-28T09:31:21Z</time>
      </trkpt>
      <trkpt lat="48.77939" lon="7.27989">
        <ele>265.9</ele>
        <time>2020-06-28T09:31:23Z</time>
      </trkpt>
      <trkpt lat="48.77934" lon="7.27984">
        <ele>266.9</ele>
        <time>2020-06-28T09:31:25Z</time>
      </trkpt>
      <trkpt lat="48.7793" lon="7.27981">
        <ele>267.2</ele>
        <time>2020-06-28T09:31:27Z</time>
      </trkpt>
      <trkpt lat="48.77925" lon="7.27979">
        <ele>267.5</ele>
        <time>2020-06-28T09:31:29Z</time>
      </trkpt>
      <trkpt lat="48.77919" lon="7.27975">
        <ele>267.6</ele>
        <time>2020-06-28T09:31:32Z</time>
      </trkpt>
      <trkpt lat="48.77914" lon="7.27967">
        <ele>267.7</ele>
        <time>2020-06-28T09:31:35Z</time>
      </trkpt>
      <trkpt lat="48.7791" lon="7.27959">
        <ele>268.2</ele>
        <time>2020-06-28T09:31:38Z</time>
      </trkpt>
      <trkpt lat="48.77906" lon="7.27954">
        <ele>268.6</ele>
        <time>2020-06-28T09:31:40Z</time>
      </trkpt>
      <trkpt lat="48.77901" lon="7.27949">
        <ele>268.7</ele>
        <time>2020-06-28T09:31:43Z</time>
      </trkpt>
      <trkpt lat="48.77894" lon="7.27948">
        <ele>268.9</ele>
        <time>2020-06-28T09:31:46Z</time>
      </trkpt>
      <trkpt lat="48.77888" lon="7.27948">
        <ele>268.8</ele>
        <time>2020-06-28T09:31:48Z</time>
      </trkpt>
      <trkpt lat="48.77884" lon="7.27947">
        <ele>268.4</ele>
        <time>2020-06-28T09:31:50Z</time>
      </trkpt>
      <trkpt lat="48.7788" lon="7.27942">
        <ele>268</ele>
        <time>2020-06-28T09:31:53Z</time>
      </trkpt>
      <trkpt lat="48.77876" lon="7.27938">
        <ele>268.1</ele>
        <time>2020-06-28T09:31:55Z</time>
      </trkpt>
      <trkpt lat="48.77871" lon="7.27932">
        <ele>269.3</ele>
        <time>2020-06-28T09:31:57Z</time>
      </trkpt>
      <trkpt lat="48.77867" lon="7.27927">
        <ele>269.9</ele>
        <time>2020-06-28T09:31:59Z</time>
      </trkpt>
      <trkpt lat="48.77862" lon="7.27922">
        <ele>270</ele>
        <time>2020-06-28T09:32:01Z</time>
      </trkpt>
      <trkpt lat="48.77858" lon="7.27918">
        <ele>269.5</ele>
        <time>2020-06-28T09:32:03Z</time>
      </trkpt>
      <trkpt lat="48.77855" lon="7.27912">
        <ele>269.4</ele>
        <time>2020-06-28T09:32:06Z</time>
      </trkpt>
      <trkpt lat="48.77857" lon="7.27905">
        <ele>269.1</ele>
        <time>2020-06-28T09:32:14Z</time>
      </trkpt>
      <trkpt lat="48.77855" lon="7.27899">
        <ele>269.9</ele>
        <time>2020-06-28T09:32:17Z</time>
      </trkpt>
      <trkpt lat="48.7785" lon="7.27896">
        <ele>269.7</ele>
        <time>2020-06-28T09:32:19Z</time>
      </trkpt>
      <trkpt lat="48.77845" lon="7.27894">
        <ele>270</ele>
        <time>2020-06-28T09:32:21Z</time>
      </trkpt>
      <trkpt lat="48.77839" lon="7.27892">
        <ele>270.4</ele>
        <time>2020-06-28T09:32:23Z</time>
      </trkpt>
      <trkpt lat="48.77834" lon="7.2789">
        <ele>270.1</ele>
        <time>2020-06-28T09:32:25Z</time>
      </trkpt>
      <trkpt lat="48.77828" lon="7.27888">
        <ele>270.6</ele>
        <time>2020-06-28T09:32:28Z</time>
      </trkpt>
      <trkpt lat="48.77823" lon="7.27885">
        <ele>270.9</ele>
        <time>2020-06-28T09:32:30Z</time>
      </trkpt>
      <trkpt lat="48.77819" lon="7.27883">
        <ele>271.5</ele>
        <time>2020-06-28T09:32:32Z</time>
      </trkpt>
      <trkpt lat="48.77813" lon="7.27883">
        <ele>272.4</ele>
        <time>2020-06-28T09:32:35Z</time>
      </trkpt>
      <trkpt lat="48.77808" lon="7.27882">
        <ele>272.7</ele>
        <time>2020-06-28T09:32:38Z</time>
      </trkpt>
      <trkpt lat="48.77803" lon="7.27877">
        <ele>272.2</ele>
        <time>2020-06-28T09:32:42Z</time>
      </trkpt>
      <trkpt lat="48.77798" lon="7.27873">
        <ele>272.1</ele>
        <time>2020-06-28T09:32:46Z</time>
      </trkpt>
      <trkpt lat="48.77793" lon="7.2787">
        <ele>272.1</ele>
        <time>2020-06-28T09:32:49Z</time>
      </trkpt>
      <trkpt lat="48.77789" lon="7.27866">
        <ele>272.3</ele>
        <time>2020-06-28T09:32:51Z</time>
      </trkpt>
      <trkpt lat="48.77785" lon="7.27861">
        <ele>271.9</ele>
        <time>2020-06-28T09:32:53Z</time>
      </trkpt>
      <trkpt lat="48.77781" lon="7.27858">
        <ele>272.1</ele>
        <time>2020-06-28T09:32:55Z</time>
      </trkpt>
      <trkpt lat="48.77776" lon="7.27854">
        <ele>272.1</ele>
        <time>2020-06-28T09:32:57Z</time>
      </trkpt>
      <trkpt lat="48.77771" lon="7.27851">
        <ele>272.4</ele>
        <time>2020-06-28T09:32:59Z</time>
      </trkpt>
      <trkpt lat="48.77766" lon="7.27848">
        <ele>272.5</ele>
        <time>2020-06-28T09:33:02Z</time>
      </trkpt>
      <trkpt lat="48.77761" lon="7.27847">
        <ele>272.9</ele>
        <time>2020-06-28T09:33:09Z</time>
      </trkpt>
      <trkpt lat="48.77758" lon="7.2784">
        <ele>273.8</ele>
        <time>2020-06-28T09:33:21Z</time>
      </trkpt>
      <trkpt lat="48.77756" lon="7.27834">
        <ele>274.2</ele>
        <time>2020-06-28T09:33:24Z</time>
      </trkpt>
      <trkpt lat="48.77753" lon="7.27826">
        <ele>275</ele>
        <time>2020-06-28T09:33:27Z</time>
      </trkpt>
      <trkpt lat="48.7775" lon="7.27818">
        <ele>276.6</ele>
        <time>2020-06-28T09:33:30Z</time>
      </trkpt>
      <trkpt lat="48.77745" lon="7.27812">
        <ele>277.6</ele>
        <time>2020-06-28T09:33:33Z</time>
      </trkpt>
      <trkpt lat="48.77739" lon="7.27807">
        <ele>278.7</ele>
        <time>2020-06-28T09:33:36Z</time>
      </trkpt>
      <trkpt lat="48.77734" lon="7.27804">
        <ele>278.5</ele>
        <time>2020-06-28T09:33:39Z</time>
      </trkpt>
      <trkpt lat="48.77727" lon="7.27801">
        <ele>278.2</ele>
        <time>2020-06-28T09:33:42Z</time>
      </trkpt>
      <trkpt lat="48.77722" lon="7.27797">
        <ele>279.3</ele>
        <time>2020-06-28T09:33:45Z</time>
      </trkpt>
      <trkpt lat="48.77716" lon="7.27796">
        <ele>279.5</ele>
        <time>2020-06-28T09:33:48Z</time>
      </trkpt>
      <trkpt lat="48.77711" lon="7.27793">
        <ele>279</ele>
        <time>2020-06-28T09:33:51Z</time>
      </trkpt>
      <trkpt lat="48.77706" lon="7.27791">
        <ele>278.4</ele>
        <time>2020-06-28T09:33:53Z</time>
      </trkpt>
      <trkpt lat="48.77702" lon="7.27787">
        <ele>278.1</ele>
        <time>2020-06-28T09:33:55Z</time>
      </trkpt>
      <trkpt lat="48.777" lon="7.27781">
        <ele>277.4</ele>
        <time>2020-06-28T09:33:57Z</time>
      </trkpt>
      <trkpt lat="48.77698" lon="7.27773">
        <ele>274.6</ele>
        <time>2020-06-28T09:33:59Z</time>
      </trkpt>
      <trkpt lat="48.77696" lon="7.27765">
        <ele>272.2</ele>
        <time>2020-06-28T09:34:02Z</time>
      </trkpt>
      <trkpt lat="48.77691" lon="7.27762">
        <ele>271.1</ele>
        <time>2020-06-28T09:34:05Z</time>
      </trkpt>
      <trkpt lat="48.77686" lon="7.27762">
        <ele>270.8</ele>
        <time>2020-06-28T09:34:07Z</time>
      </trkpt>
      <trkpt lat="48.77682" lon="7.27762">
        <ele>271.9</ele>
        <time>2020-06-28T09:34:09Z</time>
      </trkpt>
      <trkpt lat="48.77676" lon="7.27764">
        <ele>272.8</ele>
        <time>2020-06-28T09:34:11Z</time>
      </trkpt>
      <trkpt lat="48.77671" lon="7.27764">
        <ele>273.7</ele>
        <time>2020-06-28T09:34:13Z</time>
      </trkpt>
      <trkpt lat="48.77666" lon="7.27763">
        <ele>274.3</ele>
        <time>2020-06-28T09:34:15Z</time>
      </trkpt>
      <trkpt lat="48.7766" lon="7.27763">
        <ele>275.2</ele>
        <time>2020-06-28T09:34:17Z</time>
      </trkpt>
      <trkpt lat="48.77654" lon="7.27764">
        <ele>276</ele>
        <time>2020-06-28T09:34:19Z</time>
      </trkpt>
      <trkpt lat="48.77648" lon="7.27765">
        <ele>277.3</ele>
        <time>2020-06-28T09:34:22Z</time>
      </trkpt>
      <trkpt lat="48.77642" lon="7.27768">
        <ele>278.2</ele>
        <time>2020-06-28T09:34:25Z</time>
      </trkpt>
      <trkpt lat="48.77638" lon="7.2777">
        <ele>279.1</ele>
        <time>2020-06-28T09:34:27Z</time>
      </trkpt>
      <trkpt lat="48.77633" lon="7.27774">
        <ele>279.8</ele>
        <time>2020-06-28T09:34:29Z</time>
      </trkpt>
      <trkpt lat="48.77627" lon="7.27779">
        <ele>280.5</ele>
        <time>2020-06-28T09:34:31Z</time>
      </trkpt>
      <trkpt lat="48.77621" lon="7.27781">
        <ele>281.2</ele>
        <time>2020-06-28T09:34:34Z</time>
      </trkpt>
      <trkpt lat="48.77617" lon="7.27781">
        <ele>281.5</ele>
        <time>2020-06-28T09:34:36Z</time>
      </trkpt>
      <trkpt lat="48.77611" lon="7.27778">
        <ele>281.1</ele>
        <time>2020-06-28T09:34:39Z</time>
      </trkpt>
      <trkpt lat="48.77606" lon="7.27775">
        <ele>281</ele>
        <time>2020-06-28T09:34:42Z</time>
      </trkpt>
      <trkpt lat="48.77604" lon="7.27768">
        <ele>280.9</ele>
        <time>2020-06-28T09:34:45Z</time>
      </trkpt>
      <trkpt lat="48.77601" lon="7.27762">
        <ele>281.1</ele>
        <time>2020-06-28T09:34:47Z</time>
      </trkpt>
      <trkpt lat="48.77596" lon="7.27757">
        <ele>281.7</ele>
        <time>2020-06-28T09:34:50Z</time>
      </trkpt>
      <trkpt lat="48.7759" lon="7.27754">
        <ele>281</ele>
        <time>2020-06-28T09:34:53Z</time>
      </trkpt>
      <trkpt lat="48.77586" lon="7.27751">
        <ele>280.8</ele>
        <time>2020-06-28T09:34:55Z</time>
      </trkpt>
      <trkpt lat="48.77581" lon="7.27748">
        <ele>282.6</ele>
        <time>2020-06-28T09:34:57Z</time>
      </trkpt>
      <trkpt lat="48.77575" lon="7.27744">
        <ele>283.9</ele>
        <time>2020-06-28T09:35:00Z</time>
      </trkpt>
      <trkpt lat="48.77572" lon="7.27739">
        <ele>285</ele>
        <time>2020-06-28T09:35:03Z</time>
      </trkpt>
      <trkpt lat="48.77567" lon="7.27735">
        <ele>285.9</ele>
        <time>2020-06-28T09:35:06Z</time>
      </trkpt>
      <trkpt lat="48.77563" lon="7.27732">
        <ele>286.9</ele>
        <time>2020-06-28T09:35:09Z</time>
      </trkpt>
      <trkpt lat="48.77558" lon="7.2773">
        <ele>287.2</ele>
        <time>2020-06-28T09:35:15Z</time>
      </trkpt>
      <trkpt lat="48.77553" lon="7.27726">
        <ele>286.3</ele>
        <time>2020-06-28T09:35:20Z</time>
      </trkpt>
      <trkpt lat="48.77548" lon="7.27723">
        <ele>286.6</ele>
        <time>2020-06-28T09:35:24Z</time>
      </trkpt>
      <trkpt lat="48.77543" lon="7.27724">
        <ele>287.3</ele>
        <time>2020-06-28T09:35:28Z</time>
      </trkpt>
      <trkpt lat="48.7754" lon="7.2773">
        <ele>288.4</ele>
        <time>2020-06-28T09:35:34Z</time>
      </trkpt>
      <trkpt lat="48.77538" lon="7.27737">
        <ele>289.3</ele>
        <time>2020-06-28T09:35:40Z</time>
      </trkpt>
      <trkpt lat="48.77537" lon="7.27745">
        <ele>289.6</ele>
        <time>2020-06-28T09:35:45Z</time>
      </trkpt>
      <trkpt lat="48.77535" lon="7.27753">
        <ele>290.9</ele>
        <time>2020-06-28T09:36:08Z</time>
      </trkpt>
      <trkpt lat="48.77535" lon="7.27761">
        <ele>291.7</ele>
        <time>2020-06-28T09:36:12Z</time>
      </trkpt>
      <trkpt lat="48.77534" lon="7.2777">
        <ele>292.5</ele>
        <time>2020-06-28T09:36:15Z</time>
      </trkpt>
      <trkpt lat="48.77533" lon="7.27778">
        <ele>293.1</ele>
        <time>2020-06-28T09:36:18Z</time>
      </trkpt>
      <trkpt lat="48.77531" lon="7.27785">
        <ele>293.8</ele>
        <time>2020-06-28T09:36:21Z</time>
      </trkpt>
      <trkpt lat="48.77529" lon="7.27793">
        <ele>294.1</ele>
        <time>2020-06-28T09:36:24Z</time>
      </trkpt>
      <trkpt lat="48.77527" lon="7.27799">
        <ele>294.6</ele>
        <time>2020-06-28T09:36:27Z</time>
      </trkpt>
      <trkpt lat="48.77524" lon="7.27806">
        <ele>295.7</ele>
        <time>2020-06-28T09:36:30Z</time>
      </trkpt>
      <trkpt lat="48.77521" lon="7.27812">
        <ele>296.2</ele>
        <time>2020-06-28T09:36:33Z</time>
      </trkpt>
      <trkpt lat="48.77519" lon="7.2782">
        <ele>296.6</ele>
        <time>2020-06-28T09:36:36Z</time>
      </trkpt>
      <trkpt lat="48.77517" lon="7.27827">
        <ele>296.8</ele>
        <time>2020-06-28T09:36:39Z</time>
      </trkpt>
      <trkpt lat="48.77515" lon="7.27835">
        <ele>297.8</ele>
        <time>2020-06-28T09:36:42Z</time>
      </trkpt>
      <trkpt lat="48.77513" lon="7.27843">
        <ele>298.7</ele>
        <time>2020-06-28T09:36:45Z</time>
      </trkpt>
      <trkpt lat="48.77512" lon="7.27852">
        <ele>299.6</ele>
        <time>2020-06-28T09:36:48Z</time>
      </trkpt>
      <trkpt lat="48.77511" lon="7.2786">
        <ele>299.8</ele>
        <time>2020-06-28T09:36:51Z</time>
      </trkpt>
      <trkpt lat="48.7751" lon="7.27868">
        <ele>300.4</ele>
        <time>2020-06-28T09:36:54Z</time>
      </trkpt>
      <trkpt lat="48.77509" lon="7.27877">
        <ele>301</ele>
        <time>2020-06-28T09:36:57Z</time>
      </trkpt>
      <trkpt lat="48.77508" lon="7.27885">
        <ele>301.6</ele>
        <time>2020-06-28T09:37:00Z</time>
      </trkpt>
      <trkpt lat="48.77507" lon="7.27893">
        <ele>302.7</ele>
        <time>2020-06-28T09:37:03Z</time>
      </trkpt>
      <trkpt lat="48.77506" lon="7.27901">
        <ele>303.4</ele>
        <time>2020-06-28T09:37:06Z</time>
      </trkpt>
      <trkpt lat="48.77503" lon="7.27908">
        <ele>303.7</ele>
        <time>2020-06-28T09:37:09Z</time>
      </trkpt>
      <trkpt lat="48.77497" lon="7.27911">
        <ele>304</ele>
        <time>2020-06-28T09:37:12Z</time>
      </trkpt>
      <trkpt lat="48.77492" lon="7.2791">
        <ele>304</ele>
        <time>2020-06-28T09:37:14Z</time>
      </trkpt>
      <trkpt lat="48.77488" lon="7.27907">
        <ele>303.7</ele>
        <time>2020-06-28T09:37:16Z</time>
      </trkpt>
      <trkpt lat="48.77483" lon="7.27905">
        <ele>303.4</ele>
        <time>2020-06-28T09:37:18Z</time>
      </trkpt>
      <trkpt lat="48.77479" lon="7.27903">
        <ele>303</ele>
        <time>2020-06-28T09:37:20Z</time>
      </trkpt>
      <trkpt lat="48.77474" lon="7.27901">
        <ele>302.8</ele>
        <time>2020-06-28T09:37:22Z</time>
      </trkpt>
      <trkpt lat="48.77468" lon="7.27898">
        <ele>302.6</ele>
        <time>2020-06-28T09:37:25Z</time>
      </trkpt>
      <trkpt lat="48.77463" lon="7.27896">
        <ele>302.5</ele>
        <time>2020-06-28T09:37:27Z</time>
      </trkpt>
      <trkpt lat="48.77438" lon="7.27893">
        <ele>297.5</ele>
        <time>2020-06-28T09:37:36Z</time>
      </trkpt>
      <trkpt lat="48.77433" lon="7.27891">
        <ele>298.6</ele>
        <time>2020-06-28T09:37:38Z</time>
      </trkpt>
      <trkpt lat="48.77429" lon="7.27891">
        <ele>299.2</ele>
        <time>2020-06-28T09:37:40Z</time>
      </trkpt>
      <trkpt lat="48.77424" lon="7.2789">
        <ele>299.7</ele>
        <time>2020-06-28T09:37:42Z</time>
      </trkpt>
      <trkpt lat="48.77419" lon="7.27889">
        <ele>300</ele>
        <time>2020-06-28T09:37:44Z</time>
      </trkpt>
      <trkpt lat="48.77415" lon="7.27888">
        <ele>300.2</ele>
        <time>2020-06-28T09:37:46Z</time>
      </trkpt>
      <trkpt lat="48.7741" lon="7.27887">
        <ele>300.2</ele>
        <time>2020-06-28T09:37:48Z</time>
      </trkpt>
      <trkpt lat="48.77406" lon="7.27885">
        <ele>300.5</ele>
        <time>2020-06-28T09:37:50Z</time>
      </trkpt>
      <trkpt lat="48.77401" lon="7.27883">
        <ele>300.9</ele>
        <time>2020-06-28T09:37:52Z</time>
      </trkpt>
      <trkpt lat="48.77397" lon="7.27882">
        <ele>300.9</ele>
        <time>2020-06-28T09:37:54Z</time>
      </trkpt>
      <trkpt lat="48.77392" lon="7.2788">
        <ele>301.4</ele>
        <time>2020-06-28T09:37:56Z</time>
      </trkpt>
      <trkpt lat="48.77388" lon="7.27879">
        <ele>301.7</ele>
        <time>2020-06-28T09:37:58Z</time>
      </trkpt>
      <trkpt lat="48.77381" lon="7.27878">
        <ele>301.9</ele>
        <time>2020-06-28T09:38:01Z</time>
      </trkpt>
      <trkpt lat="48.77377" lon="7.27877">
        <ele>302.3</ele>
        <time>2020-06-28T09:38:03Z</time>
      </trkpt>
      <trkpt lat="48.77372" lon="7.27875">
        <ele>302.2</ele>
        <time>2020-06-28T09:38:05Z</time>
      </trkpt>
      <trkpt lat="48.77367" lon="7.27874">
        <ele>302.2</ele>
        <time>2020-06-28T09:38:07Z</time>
      </trkpt>
      <trkpt lat="48.77362" lon="7.27872">
        <ele>302</ele>
        <time>2020-06-28T09:38:09Z</time>
      </trkpt>
      <trkpt lat="48.77358" lon="7.2787">
        <ele>302.5</ele>
        <time>2020-06-28T09:38:11Z</time>
      </trkpt>
      <trkpt lat="48.77354" lon="7.27865">
        <ele>302.6</ele>
        <time>2020-06-28T09:38:13Z</time>
      </trkpt>
      <trkpt lat="48.77352" lon="7.27857">
        <ele>302.9</ele>
        <time>2020-06-28T09:38:15Z</time>
      </trkpt>
      <trkpt lat="48.77354" lon="7.27849">
        <ele>302.8</ele>
        <time>2020-06-28T09:38:17Z</time>
      </trkpt>
      <trkpt lat="48.77356" lon="7.2784">
        <ele>302.2</ele>
        <time>2020-06-28T09:38:19Z</time>
      </trkpt>
      <trkpt lat="48.77359" lon="7.27829">
        <ele>301.8</ele>
        <time>2020-06-28T09:38:21Z</time>
      </trkpt>
      <trkpt lat="48.77361" lon="7.2782">
        <ele>301.5</ele>
        <time>2020-06-28T09:38:23Z</time>
      </trkpt>
      <trkpt lat="48.77364" lon="7.27811">
        <ele>300.9</ele>
        <time>2020-06-28T09:38:25Z</time>
      </trkpt>
      <trkpt lat="48.77369" lon="7.27797">
        <ele>299.7</ele>
        <time>2020-06-28T09:38:28Z</time>
      </trkpt>
      <trkpt lat="48.77372" lon="7.27785">
        <ele>299.1</ele>
        <time>2020-06-28T09:38:30Z</time>
      </trkpt>
      <trkpt lat="48.77376" lon="7.27772">
        <ele>298.4</ele>
        <time>2020-06-28T09:38:32Z</time>
      </trkpt>
      <trkpt lat="48.77379" lon="7.27759">
        <ele>297.6</ele>
        <time>2020-06-28T09:38:34Z</time>
      </trkpt>
      <trkpt lat="48.77383" lon="7.27743">
        <ele>296.5</ele>
        <time>2020-06-28T09:38:36Z</time>
      </trkpt>
      <trkpt lat="48.77387" lon="7.27727">
        <ele>295.5</ele>
        <time>2020-06-28T09:38:38Z</time>
      </trkpt>
      <trkpt lat="48.77391" lon="7.27713">
        <ele>294.7</ele>
        <time>2020-06-28T09:38:40Z</time>
      </trkpt>
      <trkpt lat="48.77395" lon="7.27698">
        <ele>294.1</ele>
        <time>2020-06-28T09:38:42Z</time>
      </trkpt>
      <trkpt lat="48.774" lon="7.27684">
        <ele>293.5</ele>
        <time>2020-06-28T09:38:44Z</time>
      </trkpt>
      <trkpt lat="48.77405" lon="7.27671">
        <ele>293.2</ele>
        <time>2020-06-28T09:38:46Z</time>
      </trkpt>
      <trkpt lat="48.77409" lon="7.2766">
        <ele>292.9</ele>
        <time>2020-06-28T09:38:48Z</time>
      </trkpt>
      <trkpt lat="48.77412" lon="7.27652">
        <ele>292.7</ele>
        <time>2020-06-28T09:38:50Z</time>
      </trkpt>
      <trkpt lat="48.77415" lon="7.27642">
        <ele>292.7</ele>
        <time>2020-06-28T09:38:52Z</time>
      </trkpt>
      <trkpt lat="48.77416" lon="7.27635">
        <ele>292.6</ele>
        <time>2020-06-28T09:38:54Z</time>
      </trkpt>
      <trkpt lat="48.77417" lon="7.27626">
        <ele>292.7</ele>
        <time>2020-06-28T09:38:57Z</time>
      </trkpt>
      <trkpt lat="48.77417" lon="7.27619">
        <ele>293.7</ele>
        <time>2020-06-28T09:39:01Z</time>
      </trkpt>
      <trkpt lat="48.77418" lon="7.27612">
        <ele>294.8</ele>
        <time>2020-06-28T09:39:04Z</time>
      </trkpt>
      <trkpt lat="48.77418" lon="7.27605">
        <ele>296</ele>
        <time>2020-06-28T09:39:08Z</time>
      </trkpt>
      <trkpt lat="48.7742" lon="7.27597">
        <ele>296.6</ele>
        <time>2020-06-28T09:39:11Z</time>
      </trkpt>
      <trkpt lat="48.77421" lon="7.27588">
        <ele>296.4</ele>
        <time>2020-06-28T09:39:14Z</time>
      </trkpt>
      <trkpt lat="48.77421" lon="7.27578">
        <ele>296.8</ele>
        <time>2020-06-28T09:39:17Z</time>
      </trkpt>
      <trkpt lat="48.77421" lon="7.27571">
        <ele>296.7</ele>
        <time>2020-06-28T09:39:19Z</time>
      </trkpt>
      <trkpt lat="48.77421" lon="7.27564">
        <ele>297.1</ele>
        <time>2020-06-28T09:39:21Z</time>
      </trkpt>
      <trkpt lat="48.77422" lon="7.27557">
        <ele>297.3</ele>
        <time>2020-06-28T09:39:23Z</time>
      </trkpt>
      <trkpt lat="48.77422" lon="7.27547">
        <ele>297.4</ele>
        <time>2020-06-28T09:39:26Z</time>
      </trkpt>
      <trkpt lat="48.77422" lon="7.27538">
        <ele>298</ele>
        <time>2020-06-28T09:39:29Z</time>
      </trkpt>
      <trkpt lat="48.77423" lon="7.27528">
        <ele>298.6</ele>
        <time>2020-06-28T09:39:32Z</time>
      </trkpt>
      <trkpt lat="48.77424" lon="7.27519">
        <ele>299.4</ele>
        <time>2020-06-28T09:39:35Z</time>
      </trkpt>
      <trkpt lat="48.77425" lon="7.2751">
        <ele>299.9</ele>
        <time>2020-06-28T09:39:38Z</time>
      </trkpt>
      <trkpt lat="48.77425" lon="7.27502">
        <ele>300.3</ele>
        <time>2020-06-28T09:39:41Z</time>
      </trkpt>
      <trkpt lat="48.77426" lon="7.27494">
        <ele>300.3</ele>
        <time>2020-06-28T09:39:44Z</time>
      </trkpt>
      <trkpt lat="48.77427" lon="7.27487">
        <ele>300.9</ele>
        <time>2020-06-28T09:39:47Z</time>
      </trkpt>
      <trkpt lat="48.77428" lon="7.27479">
        <ele>302.3</ele>
        <time>2020-06-28T09:39:50Z</time>
      </trkpt>
      <trkpt lat="48.77429" lon="7.27471">
        <ele>303.2</ele>
        <time>2020-06-28T09:39:53Z</time>
      </trkpt>
      <trkpt lat="48.7743" lon="7.27463">
        <ele>304.7</ele>
        <time>2020-06-28T09:39:56Z</time>
      </trkpt>
      <trkpt lat="48.77431" lon="7.27455">
        <ele>306</ele>
        <time>2020-06-28T09:39:59Z</time>
      </trkpt>
      <trkpt lat="48.77432" lon="7.27447">
        <ele>306.9</ele>
        <time>2020-06-28T09:40:02Z</time>
      </trkpt>
      <trkpt lat="48.77433" lon="7.27438">
        <ele>308.1</ele>
        <time>2020-06-28T09:40:05Z</time>
      </trkpt>
      <trkpt lat="48.77434" lon="7.27429">
        <ele>308.2</ele>
        <time>2020-06-28T09:40:08Z</time>
      </trkpt>
      <trkpt lat="48.77435" lon="7.27421">
        <ele>308.4</ele>
        <time>2020-06-28T09:40:11Z</time>
      </trkpt>
      <trkpt lat="48.77437" lon="7.27414">
        <ele>308.5</ele>
        <time>2020-06-28T09:40:14Z</time>
      </trkpt>
      <trkpt lat="48.77439" lon="7.27406">
        <ele>309.3</ele>
        <time>2020-06-28T09:40:17Z</time>
      </trkpt>
      <trkpt lat="48.77441" lon="7.27399">
        <ele>309.6</ele>
        <time>2020-06-28T09:40:20Z</time>
      </trkpt>
      <trkpt lat="48.77443" lon="7.27392">
        <ele>309.4</ele>
        <time>2020-06-28T09:40:23Z</time>
      </trkpt>
      <trkpt lat="48.77446" lon="7.27384">
        <ele>309.7</ele>
        <time>2020-06-28T09:40:26Z</time>
      </trkpt>
      <trkpt lat="48.77448" lon="7.27377">
        <ele>309.8</ele>
        <time>2020-06-28T09:40:29Z</time>
      </trkpt>
      <trkpt lat="48.77451" lon="7.2737">
        <ele>309.7</ele>
        <time>2020-06-28T09:40:32Z</time>
      </trkpt>
      <trkpt lat="48.77454" lon="7.27363">
        <ele>310.2</ele>
        <time>2020-06-28T09:40:35Z</time>
      </trkpt>
      <trkpt lat="48.77456" lon="7.27357">
        <ele>310.8</ele>
        <time>2020-06-28T09:40:38Z</time>
      </trkpt>
      <trkpt lat="48.77459" lon="7.2735">
        <ele>311.7</ele>
        <time>2020-06-28T09:40:41Z</time>
      </trkpt>
      <trkpt lat="48.77463" lon="7.27342">
        <ele>312.1</ele>
        <time>2020-06-28T09:40:44Z</time>
      </trkpt>
      <trkpt lat="48.77467" lon="7.27334">
        <ele>312.8</ele>
        <time>2020-06-28T09:40:47Z</time>
      </trkpt>
      <trkpt lat="48.77472" lon="7.27328">
        <ele>313.1</ele>
        <time>2020-06-28T09:40:50Z</time>
      </trkpt>
      <trkpt lat="48.77476" lon="7.27325">
        <ele>313.3</ele>
        <time>2020-06-28T09:40:52Z</time>
      </trkpt>
      <trkpt lat="48.77482" lon="7.27323">
        <ele>313.4</ele>
        <time>2020-06-28T09:40:54Z</time>
      </trkpt>
      <trkpt lat="48.77488" lon="7.27322">
        <ele>313.2</ele>
        <time>2020-06-28T09:40:56Z</time>
      </trkpt>
      <trkpt lat="48.77494" lon="7.27317">
        <ele>313</ele>
        <time>2020-06-28T09:40:58Z</time>
      </trkpt>
      <trkpt lat="48.77497" lon="7.27307">
        <ele>312.6</ele>
        <time>2020-06-28T09:41:00Z</time>
      </trkpt>
      <trkpt lat="48.77495" lon="7.27298">
        <ele>312.5</ele>
        <time>2020-06-28T09:41:02Z</time>
      </trkpt>
      <trkpt lat="48.77489" lon="7.27292">
        <ele>312.3</ele>
        <time>2020-06-28T09:41:04Z</time>
      </trkpt>
      <trkpt lat="48.77482" lon="7.27288">
        <ele>312.1</ele>
        <time>2020-06-28T09:41:06Z</time>
      </trkpt>
      <trkpt lat="48.77475" lon="7.27285">
        <ele>311.9</ele>
        <time>2020-06-28T09:41:08Z</time>
      </trkpt>
      <trkpt lat="48.77468" lon="7.27282">
        <ele>311.9</ele>
        <time>2020-06-28T09:41:10Z</time>
      </trkpt>
      <trkpt lat="48.77461" lon="7.27279">
        <ele>312.5</ele>
        <time>2020-06-28T09:41:12Z</time>
      </trkpt>
      <trkpt lat="48.77454" lon="7.27276">
        <ele>312.8</ele>
        <time>2020-06-28T09:41:14Z</time>
      </trkpt>
      <trkpt lat="48.77447" lon="7.27273">
        <ele>313.2</ele>
        <time>2020-06-28T09:41:16Z</time>
      </trkpt>
      <trkpt lat="48.77441" lon="7.2727">
        <ele>313.4</ele>
        <time>2020-06-28T09:41:18Z</time>
      </trkpt>
      <trkpt lat="48.77434" lon="7.27267">
        <ele>313.7</ele>
        <time>2020-06-28T09:41:20Z</time>
      </trkpt>
      <trkpt lat="48.77428" lon="7.27264">
        <ele>314.1</ele>
        <time>2020-06-28T09:41:22Z</time>
      </trkpt>
      <trkpt lat="48.77422" lon="7.27261">
        <ele>313.8</ele>
        <time>2020-06-28T09:41:24Z</time>
      </trkpt>
      <trkpt lat="48.77416" lon="7.27259">
        <ele>313.7</ele>
        <time>2020-06-28T09:41:26Z</time>
      </trkpt>
      <trkpt lat="48.7741" lon="7.27257">
        <ele>313.6</ele>
        <time>2020-06-28T09:41:28Z</time>
      </trkpt>
      <trkpt lat="48.77404" lon="7.27256">
        <ele>313.5</ele>
        <time>2020-06-28T09:41:30Z</time>
      </trkpt>
      <trkpt lat="48.77399" lon="7.27255">
        <ele>312.6</ele>
        <time>2020-06-28T09:41:32Z</time>
      </trkpt>
      <trkpt lat="48.77395" lon="7.27256">
        <ele>311.8</ele>
        <time>2020-06-28T09:41:34Z</time>
      </trkpt>
      <trkpt lat="48.7739" lon="7.27257">
        <ele>311</ele>
        <time>2020-06-28T09:41:36Z</time>
      </trkpt>
      <trkpt lat="48.77384" lon="7.27259">
        <ele>310.7</ele>
        <time>2020-06-28T09:41:38Z</time>
      </trkpt>
      <trkpt lat="48.77379" lon="7.27261">
        <ele>310.2</ele>
        <time>2020-06-28T09:41:40Z</time>
      </trkpt>
      <trkpt lat="48.77374" lon="7.27263">
        <ele>310.2</ele>
        <time>2020-06-28T09:41:42Z</time>
      </trkpt>
      <trkpt lat="48.77369" lon="7.27266">
        <ele>310.2</ele>
        <time>2020-06-28T09:41:44Z</time>
      </trkpt>
      <trkpt lat="48.77365" lon="7.27268">
        <ele>309.6</ele>
        <time>2020-06-28T09:41:46Z</time>
      </trkpt>
      <trkpt lat="48.7736" lon="7.27273">
        <ele>309.5</ele>
        <time>2020-06-28T09:41:49Z</time>
      </trkpt>
      <trkpt lat="48.77355" lon="7.27277">
        <ele>310.2</ele>
        <time>2020-06-28T09:41:51Z</time>
      </trkpt>
      <trkpt lat="48.77351" lon="7.27282">
        <ele>310.9</ele>
        <time>2020-06-28T09:41:53Z</time>
      </trkpt>
      <trkpt lat="48.77346" lon="7.27285">
        <ele>312.1</ele>
        <time>2020-06-28T09:41:55Z</time>
      </trkpt>
      <trkpt lat="48.77342" lon="7.27288">
        <ele>313.4</ele>
        <time>2020-06-28T09:41:57Z</time>
      </trkpt>
      <trkpt lat="48.77336" lon="7.27292">
        <ele>315</ele>
        <time>2020-06-28T09:42:00Z</time>
      </trkpt>
      <trkpt lat="48.7733" lon="7.27296">
        <ele>315.8</ele>
        <time>2020-06-28T09:42:03Z</time>
      </trkpt>
      <trkpt lat="48.77326" lon="7.27299">
        <ele>316.3</ele>
        <time>2020-06-28T09:42:05Z</time>
      </trkpt>
      <trkpt lat="48.77321" lon="7.27301">
        <ele>316.7</ele>
        <time>2020-06-28T09:42:07Z</time>
      </trkpt>
      <trkpt lat="48.77316" lon="7.27304">
        <ele>317.5</ele>
        <time>2020-06-28T09:42:09Z</time>
      </trkpt>
      <trkpt lat="48.77311" lon="7.27306">
        <ele>318</ele>
        <time>2020-06-28T09:42:11Z</time>
      </trkpt>
      <trkpt lat="48.77305" lon="7.27307">
        <ele>318.7</ele>
        <time>2020-06-28T09:42:13Z</time>
      </trkpt>
      <trkpt lat="48.773" lon="7.27308">
        <ele>318.7</ele>
        <time>2020-06-28T09:42:15Z</time>
      </trkpt>
      <trkpt lat="48.77294" lon="7.27308">
        <ele>318.8</ele>
        <time>2020-06-28T09:42:17Z</time>
      </trkpt>
      <trkpt lat="48.77288" lon="7.27307">
        <ele>318.5</ele>
        <time>2020-06-28T09:42:19Z</time>
      </trkpt>
      <trkpt lat="48.77282" lon="7.27306">
        <ele>318.2</ele>
        <time>2020-06-28T09:42:21Z</time>
      </trkpt>
      <trkpt lat="48.77276" lon="7.27305">
        <ele>317.9</ele>
        <time>2020-06-28T09:42:23Z</time>
      </trkpt>
      <trkpt lat="48.7727" lon="7.27303">
        <ele>317.9</ele>
        <time>2020-06-28T09:42:25Z</time>
      </trkpt>
      <trkpt lat="48.77264" lon="7.27302">
        <ele>317.9</ele>
        <time>2020-06-28T09:42:27Z</time>
      </trkpt>
      <trkpt lat="48.77258" lon="7.273">
        <ele>318.1</ele>
        <time>2020-06-28T09:42:29Z</time>
      </trkpt>
      <trkpt lat="48.77253" lon="7.27299">
        <ele>318.2</ele>
        <time>2020-06-28T09:42:31Z</time>
      </trkpt>
      <trkpt lat="48.77247" lon="7.27298">
        <ele>318.3</ele>
        <time>2020-06-28T09:42:33Z</time>
      </trkpt>
      <trkpt lat="48.77241" lon="7.27297">
        <ele>317.8</ele>
        <time>2020-06-28T09:42:35Z</time>
      </trkpt>
      <trkpt lat="48.77235" lon="7.27296">
        <ele>317.6</ele>
        <time>2020-06-28T09:42:37Z</time>
      </trkpt>
      <trkpt lat="48.77231" lon="7.27294">
        <ele>317.6</ele>
        <time>2020-06-28T09:42:39Z</time>
      </trkpt>
      <trkpt lat="48.77225" lon="7.27292">
        <ele>317.7</ele>
        <time>2020-06-28T09:42:41Z</time>
      </trkpt>
      <trkpt lat="48.77219" lon="7.27291">
        <ele>318.3</ele>
        <time>2020-06-28T09:42:43Z</time>
      </trkpt>
      <trkpt lat="48.77213" lon="7.2729">
        <ele>318.9</ele>
        <time>2020-06-28T09:42:45Z</time>
      </trkpt>
      <trkpt lat="48.77207" lon="7.27289">
        <ele>319.2</ele>
        <time>2020-06-28T09:42:47Z</time>
      </trkpt>
      <trkpt lat="48.77201" lon="7.27289">
        <ele>319.4</ele>
        <time>2020-06-28T09:42:49Z</time>
      </trkpt>
      <trkpt lat="48.77194" lon="7.27288">
        <ele>319.6</ele>
        <time>2020-06-28T09:42:51Z</time>
      </trkpt>
      <trkpt lat="48.77187" lon="7.27287">
        <ele>319.6</ele>
        <time>2020-06-28T09:42:53Z</time>
      </trkpt>
      <trkpt lat="48.77181" lon="7.27287">
        <ele>320</ele>
        <time>2020-06-28T09:42:55Z</time>
      </trkpt>
      <trkpt lat="48.77174" lon="7.27287">
        <ele>319.8</ele>
        <time>2020-06-28T09:42:57Z</time>
      </trkpt>
      <trkpt lat="48.77167" lon="7.27287">
        <ele>319.3</ele>
        <time>2020-06-28T09:42:59Z</time>
      </trkpt>
      <trkpt lat="48.7716" lon="7.27285">
        <ele>319.3</ele>
        <time>2020-06-28T09:43:01Z</time>
      </trkpt>
      <trkpt lat="48.77153" lon="7.27283">
        <ele>319.3</ele>
        <time>2020-06-28T09:43:03Z</time>
      </trkpt>
      <trkpt lat="48.77146" lon="7.27281">
        <ele>318.7</ele>
        <time>2020-06-28T09:43:05Z</time>
      </trkpt>
      <trkpt lat="48.77138" lon="7.27279">
        <ele>318.5</ele>
        <time>2020-06-28T09:43:07Z</time>
      </trkpt>
      <trkpt lat="48.77131" lon="7.27277">
        <ele>318</ele>
        <time>2020-06-28T09:43:09Z</time>
      </trkpt>
      <trkpt lat="48.77124" lon="7.27273">
        <ele>318</ele>
        <time>2020-06-28T09:43:11Z</time>
      </trkpt>
      <trkpt lat="48.77118" lon="7.2727">
        <ele>318.3</ele>
        <time>2020-06-28T09:43:13Z</time>
      </trkpt>
      <trkpt lat="48.77111" lon="7.27269">
        <ele>319.1</ele>
        <time>2020-06-28T09:43:15Z</time>
      </trkpt>
      <trkpt lat="48.77104" lon="7.27268">
        <ele>319.7</ele>
        <time>2020-06-28T09:43:17Z</time>
      </trkpt>
      <trkpt lat="48.77097" lon="7.27267">
        <ele>320.2</ele>
        <time>2020-06-28T09:43:19Z</time>
      </trkpt>
      <trkpt lat="48.7709" lon="7.27266">
        <ele>320.8</ele>
        <time>2020-06-28T09:43:21Z</time>
      </trkpt>
      <trkpt lat="48.77083" lon="7.27265">
        <ele>321.1</ele>
        <time>2020-06-28T09:43:23Z</time>
      </trkpt>
      <trkpt lat="48.77077" lon="7.27265">
        <ele>321</ele>
        <time>2020-06-28T09:43:25Z</time>
      </trkpt>
      <trkpt lat="48.7707" lon="7.27265">
        <ele>321.1</ele>
        <time>2020-06-28T09:43:27Z</time>
      </trkpt>
      <trkpt lat="48.77063" lon="7.27265">
        <ele>321.2</ele>
        <time>2020-06-28T09:43:29Z</time>
      </trkpt>
      <trkpt lat="48.77056" lon="7.27263">
        <ele>320.7</ele>
        <time>2020-06-28T09:43:31Z</time>
      </trkpt>
      <trkpt lat="48.77049" lon="7.27259">
        <ele>320.6</ele>
        <time>2020-06-28T09:43:33Z</time>
      </trkpt>
      <trkpt lat="48.77043" lon="7.27253">
        <ele>319.9</ele>
        <time>2020-06-28T09:43:35Z</time>
      </trkpt>
      <trkpt lat="48.77037" lon="7.27245">
        <ele>319.3</ele>
        <time>2020-06-28T09:43:37Z</time>
      </trkpt>
      <trkpt lat="48.77032" lon="7.27237">
        <ele>318.8</ele>
        <time>2020-06-28T09:43:39Z</time>
      </trkpt>
      <trkpt lat="48.77028" lon="7.27228">
        <ele>318.3</ele>
        <time>2020-06-28T09:43:41Z</time>
      </trkpt>
      <trkpt lat="48.77025" lon="7.27218">
        <ele>318.2</ele>
        <time>2020-06-28T09:43:43Z</time>
      </trkpt>
      <trkpt lat="48.77024" lon="7.27208">
        <ele>318.5</ele>
        <time>2020-06-28T09:43:45Z</time>
      </trkpt>
      <trkpt lat="48.77023" lon="7.27198">
        <ele>318.4</ele>
        <time>2020-06-28T09:43:47Z</time>
      </trkpt>
      <trkpt lat="48.77024" lon="7.27187">
        <ele>318.2</ele>
        <time>2020-06-28T09:43:49Z</time>
      </trkpt>
      <trkpt lat="48.77024" lon="7.27176">
        <ele>318.1</ele>
        <time>2020-06-28T09:43:51Z</time>
      </trkpt>
      <trkpt lat="48.77026" lon="7.27166">
        <ele>317.9</ele>
        <time>2020-06-28T09:43:53Z</time>
      </trkpt>
      <trkpt lat="48.77027" lon="7.27156">
        <ele>317.7</ele>
        <time>2020-06-28T09:43:55Z</time>
      </trkpt>
      <trkpt lat="48.77029" lon="7.27147">
        <ele>317.3</ele>
        <time>2020-06-28T09:43:57Z</time>
      </trkpt>
      <trkpt lat="48.77031" lon="7.27138">
        <ele>317.3</ele>
        <time>2020-06-28T09:43:59Z</time>
      </trkpt>
      <trkpt lat="48.77032" lon="7.27129">
        <ele>317.6</ele>
        <time>2020-06-28T09:44:01Z</time>
      </trkpt>
      <trkpt lat="48.77033" lon="7.2712">
        <ele>317.9</ele>
        <time>2020-06-28T09:44:03Z</time>
      </trkpt>
      <trkpt lat="48.77034" lon="7.2711">
        <ele>318.1</ele>
        <time>2020-06-28T09:44:05Z</time>
      </trkpt>
      <trkpt lat="48.77035" lon="7.27101">
        <ele>318.6</ele>
        <time>2020-06-28T09:44:07Z</time>
      </trkpt>
      <trkpt lat="48.77035" lon="7.2709">
        <ele>318.6</ele>
        <time>2020-06-28T09:44:09Z</time>
      </trkpt>
      <trkpt lat="48.77036" lon="7.27079">
        <ele>319.1</ele>
        <time>2020-06-28T09:44:11Z</time>
      </trkpt>
      <trkpt lat="48.77036" lon="7.27068">
        <ele>319.3</ele>
        <time>2020-06-28T09:44:13Z</time>
      </trkpt>
      <trkpt lat="48.77036" lon="7.27057">
        <ele>319.7</ele>
        <time>2020-06-28T09:44:15Z</time>
      </trkpt>
      <trkpt lat="48.77037" lon="7.27047">
        <ele>319.2</ele>
        <time>2020-06-28T09:44:17Z</time>
      </trkpt>
      <trkpt lat="48.77037" lon="7.27038">
        <ele>319.1</ele>
        <time>2020-06-28T09:44:19Z</time>
      </trkpt>
      <trkpt lat="48.77035" lon="7.27029">
        <ele>319.3</ele>
        <time>2020-06-28T09:44:21Z</time>
      </trkpt>
      <trkpt lat="48.77031" lon="7.27023">
        <ele>319</ele>
        <time>2020-06-28T09:44:23Z</time>
      </trkpt>
      <trkpt lat="48.77026" lon="7.27019">
        <ele>319.1</ele>
        <time>2020-06-28T09:44:25Z</time>
      </trkpt>
      <trkpt lat="48.7702" lon="7.27015">
        <ele>319.1</ele>
        <time>2020-06-28T09:44:27Z</time>
      </trkpt>
      <trkpt lat="48.77014" lon="7.2701">
        <ele>319.4</ele>
        <time>2020-06-28T09:44:29Z</time>
      </trkpt>
      <trkpt lat="48.77009" lon="7.27005">
        <ele>319.9</ele>
        <time>2020-06-28T09:44:31Z</time>
      </trkpt>
      <trkpt lat="48.77005" lon="7.26998">
        <ele>320.7</ele>
        <time>2020-06-28T09:44:33Z</time>
      </trkpt>
      <trkpt lat="48.77002" lon="7.26992">
        <ele>321.2</ele>
        <time>2020-06-28T09:44:35Z</time>
      </trkpt>
      <trkpt lat="48.76997" lon="7.26986">
        <ele>321.7</ele>
        <time>2020-06-28T09:44:37Z</time>
      </trkpt>
      <trkpt lat="48.76992" lon="7.26982">
        <ele>322.1</ele>
        <time>2020-06-28T09:44:39Z</time>
      </trkpt>
      <trkpt lat="48.76987" lon="7.26978">
        <ele>322.5</ele>
        <time>2020-06-28T09:44:41Z</time>
      </trkpt>
      <trkpt lat="48.76981" lon="7.26976">
        <ele>323</ele>
        <time>2020-06-28T09:44:43Z</time>
      </trkpt>
      <trkpt lat="48.76975" lon="7.26974">
        <ele>323.4</ele>
        <time>2020-06-28T09:44:45Z</time>
      </trkpt>
      <trkpt lat="48.7697" lon="7.26972">
        <ele>324.2</ele>
        <time>2020-06-28T09:44:47Z</time>
      </trkpt>
      <trkpt lat="48.76965" lon="7.26971">
        <ele>325.1</ele>
        <time>2020-06-28T09:44:49Z</time>
      </trkpt>
      <trkpt lat="48.76959" lon="7.26971">
        <ele>325.8</ele>
        <time>2020-06-28T09:44:51Z</time>
      </trkpt>
      <trkpt lat="48.76954" lon="7.2697">
        <ele>326.5</ele>
        <time>2020-06-28T09:44:53Z</time>
      </trkpt>
      <trkpt lat="48.76949" lon="7.26969">
        <ele>327.3</ele>
        <time>2020-06-28T09:44:55Z</time>
      </trkpt>
      <trkpt lat="48.76943" lon="7.26968">
        <ele>327.5</ele>
        <time>2020-06-28T09:44:57Z</time>
      </trkpt>
      <trkpt lat="48.76937" lon="7.26967">
        <ele>327.8</ele>
        <time>2020-06-28T09:44:59Z</time>
      </trkpt>
      <trkpt lat="48.76931" lon="7.26966">
        <ele>327.8</ele>
        <time>2020-06-28T09:45:01Z</time>
      </trkpt>
      <trkpt lat="48.76926" lon="7.26965">
        <ele>327.4</ele>
        <time>2020-06-28T09:45:03Z</time>
      </trkpt>
      <trkpt lat="48.7692" lon="7.26963">
        <ele>327.2</ele>
        <time>2020-06-28T09:45:05Z</time>
      </trkpt>
      <trkpt lat="48.76915" lon="7.26962">
        <ele>326.9</ele>
        <time>2020-06-28T09:45:07Z</time>
      </trkpt>
      <trkpt lat="48.7691" lon="7.2696">
        <ele>326.7</ele>
        <time>2020-06-28T09:45:09Z</time>
      </trkpt>
      <trkpt lat="48.76905" lon="7.26956">
        <ele>326.3</ele>
        <time>2020-06-28T09:45:11Z</time>
      </trkpt>
      <trkpt lat="48.76903" lon="7.2695">
        <ele>326.3</ele>
        <time>2020-06-28T09:45:13Z</time>
      </trkpt>
      <trkpt lat="48.76902" lon="7.26942">
        <ele>325.8</ele>
        <time>2020-06-28T09:45:15Z</time>
      </trkpt>
      <trkpt lat="48.76902" lon="7.26931">
        <ele>325.1</ele>
        <time>2020-06-28T09:45:17Z</time>
      </trkpt>
      <trkpt lat="48.76903" lon="7.26921">
        <ele>324.5</ele>
        <time>2020-06-28T09:45:19Z</time>
      </trkpt>
      <trkpt lat="48.76904" lon="7.26909">
        <ele>323.5</ele>
        <time>2020-06-28T09:45:21Z</time>
      </trkpt>
      <trkpt lat="48.76906" lon="7.26898">
        <ele>323.3</ele>
        <time>2020-06-28T09:45:23Z</time>
      </trkpt>
      <trkpt lat="48.76907" lon="7.26886">
        <ele>322.9</ele>
        <time>2020-06-28T09:45:25Z</time>
      </trkpt>
      <trkpt lat="48.76908" lon="7.26874">
        <ele>322.9</ele>
        <time>2020-06-28T09:45:27Z</time>
      </trkpt>
      <trkpt lat="48.76909" lon="7.26862">
        <ele>322.9</ele>
        <time>2020-06-28T09:45:29Z</time>
      </trkpt>
      <trkpt lat="48.7691" lon="7.26849">
        <ele>323</ele>
        <time>2020-06-28T09:45:31Z</time>
      </trkpt>
      <trkpt lat="48.76909" lon="7.26836">
        <ele>323.2</ele>
        <time>2020-06-28T09:45:33Z</time>
      </trkpt>
      <trkpt lat="48.76908" lon="7.26823">
        <ele>323.4</ele>
        <time>2020-06-28T09:45:35Z</time>
      </trkpt>
      <trkpt lat="48.76907" lon="7.2681">
        <ele>323.3</ele>
        <time>2020-06-28T09:45:37Z</time>
      </trkpt>
      <trkpt lat="48.76906" lon="7.26796">
        <ele>323.2</ele>
        <time>2020-06-28T09:45:39Z</time>
      </trkpt>
      <trkpt lat="48.76905" lon="7.26782">
        <ele>323.2</ele>
        <time>2020-06-28T09:45:41Z</time>
      </trkpt>
      <trkpt lat="48.76904" lon="7.26768">
        <ele>322.9</ele>
        <time>2020-06-28T09:45:43Z</time>
      </trkpt>
      <trkpt lat="48.76903" lon="7.26754">
        <ele>322.8</ele>
        <time>2020-06-28T09:45:45Z</time>
      </trkpt>
      <trkpt lat="48.76903" lon="7.26741">
        <ele>322.5</ele>
        <time>2020-06-28T09:45:47Z</time>
      </trkpt>
      <trkpt lat="48.76901" lon="7.26729">
        <ele>322.3</ele>
        <time>2020-06-28T09:45:49Z</time>
      </trkpt>
      <trkpt lat="48.76898" lon="7.26715">
        <ele>322.8</ele>
        <time>2020-06-28T09:45:51Z</time>
      </trkpt>
      <trkpt lat="48.76896" lon="7.26702">
        <ele>322.7</ele>
        <time>2020-06-28T09:45:53Z</time>
      </trkpt>
      <trkpt lat="48.76893" lon="7.26688">
        <ele>322.8</ele>
        <time>2020-06-28T09:45:55Z</time>
      </trkpt>
      <trkpt lat="48.7689" lon="7.26674">
        <ele>323</ele>
        <time>2020-06-28T09:45:57Z</time>
      </trkpt>
      <trkpt lat="48.76885" lon="7.26661">
        <ele>323.6</ele>
        <time>2020-06-28T09:45:59Z</time>
      </trkpt>
      <trkpt lat="48.76882" lon="7.26649">
        <ele>323.3</ele>
        <time>2020-06-28T09:46:01Z</time>
      </trkpt>
      <trkpt lat="48.76882" lon="7.26636">
        <ele>323.2</ele>
        <time>2020-06-28T09:46:03Z</time>
      </trkpt>
      <trkpt lat="48.76882" lon="7.26623">
        <ele>322.5</ele>
        <time>2020-06-28T09:46:05Z</time>
      </trkpt>
      <trkpt lat="48.76883" lon="7.2661">
        <ele>322.3</ele>
        <time>2020-06-28T09:46:07Z</time>
      </trkpt>
      <trkpt lat="48.76883" lon="7.26598">
        <ele>322.3</ele>
        <time>2020-06-28T09:46:09Z</time>
      </trkpt>
      <trkpt lat="48.76884" lon="7.26588">
        <ele>322.4</ele>
        <time>2020-06-28T09:46:11Z</time>
      </trkpt>
      <trkpt lat="48.76885" lon="7.26578">
        <ele>322.6</ele>
        <time>2020-06-28T09:46:13Z</time>
      </trkpt>
      <trkpt lat="48.76885" lon="7.26568">
        <ele>322.8</ele>
        <time>2020-06-28T09:46:15Z</time>
      </trkpt>
      <trkpt lat="48.76882" lon="7.26561">
        <ele>322.6</ele>
        <time>2020-06-28T09:46:17Z</time>
      </trkpt>
      <trkpt lat="48.76877" lon="7.26557">
        <ele>322.6</ele>
        <time>2020-06-28T09:46:19Z</time>
      </trkpt>
      <trkpt lat="48.76871" lon="7.26556">
        <ele>322.4</ele>
        <time>2020-06-28T09:46:21Z</time>
      </trkpt>
      <trkpt lat="48.76865" lon="7.26556">
        <ele>322.7</ele>
        <time>2020-06-28T09:46:23Z</time>
      </trkpt>
      <trkpt lat="48.76858" lon="7.26554">
        <ele>323.3</ele>
        <time>2020-06-28T09:46:25Z</time>
      </trkpt>
      <trkpt lat="48.76853" lon="7.2655">
        <ele>323.5</ele>
        <time>2020-06-28T09:46:27Z</time>
      </trkpt>
      <trkpt lat="48.7685" lon="7.26542">
        <ele>323.6</ele>
        <time>2020-06-28T09:46:29Z</time>
      </trkpt>
      <trkpt lat="48.7685" lon="7.26533">
        <ele>323</ele>
        <time>2020-06-28T09:46:31Z</time>
      </trkpt>
      <trkpt lat="48.76851" lon="7.26523">
        <ele>323</ele>
        <time>2020-06-28T09:46:33Z</time>
      </trkpt>
      <trkpt lat="48.76852" lon="7.26513">
        <ele>323.1</ele>
        <time>2020-06-28T09:46:35Z</time>
      </trkpt>
      <trkpt lat="48.76854" lon="7.26502">
        <ele>323.5</ele>
        <time>2020-06-28T09:46:37Z</time>
      </trkpt>
      <trkpt lat="48.76855" lon="7.2649">
        <ele>323.9</ele>
        <time>2020-06-28T09:46:39Z</time>
      </trkpt>
      <trkpt lat="48.76857" lon="7.2648">
        <ele>324.6</ele>
        <time>2020-06-28T09:46:41Z</time>
      </trkpt>
      <trkpt lat="48.76859" lon="7.2647">
        <ele>325.2</ele>
        <time>2020-06-28T09:46:43Z</time>
      </trkpt>
      <trkpt lat="48.7686" lon="7.26458">
        <ele>325.5</ele>
        <time>2020-06-28T09:46:45Z</time>
      </trkpt>
      <trkpt lat="48.76862" lon="7.26446">
        <ele>325.8</ele>
        <time>2020-06-28T09:46:47Z</time>
      </trkpt>
      <trkpt lat="48.76863" lon="7.26434">
        <ele>325.6</ele>
        <time>2020-06-28T09:46:49Z</time>
      </trkpt>
      <trkpt lat="48.76865" lon="7.26423">
        <ele>325.9</ele>
        <time>2020-06-28T09:46:51Z</time>
      </trkpt>
      <trkpt lat="48.76866" lon="7.26411">
        <ele>326.4</ele>
        <time>2020-06-28T09:46:53Z</time>
      </trkpt>
      <trkpt lat="48.76867" lon="7.26401">
        <ele>327.2</ele>
        <time>2020-06-28T09:46:55Z</time>
      </trkpt>
      <trkpt lat="48.76868" lon="7.2639">
        <ele>327.8</ele>
        <time>2020-06-28T09:46:57Z</time>
      </trkpt>
      <trkpt lat="48.76868" lon="7.26379">
        <ele>328.7</ele>
        <time>2020-06-28T09:46:59Z</time>
      </trkpt>
      <trkpt lat="48.76868" lon="7.26369">
        <ele>329.3</ele>
        <time>2020-06-28T09:47:01Z</time>
      </trkpt>
      <trkpt lat="48.76868" lon="7.2636">
        <ele>330.2</ele>
        <time>2020-06-28T09:47:03Z</time>
      </trkpt>
      <trkpt lat="48.76868" lon="7.26352">
        <ele>330.4</ele>
        <time>2020-06-28T09:47:05Z</time>
      </trkpt>
      <trkpt lat="48.76869" lon="7.26343">
        <ele>331.5</ele>
        <time>2020-06-28T09:47:08Z</time>
      </trkpt>
      <trkpt lat="48.7687" lon="7.26336">
        <ele>331.5</ele>
        <time>2020-06-28T09:48:34Z</time>
      </trkpt>
    </trkseg>
  </trk>
</gpx>